
Distance (Route):
Temperature : 0°C
Humidity : 0%
Pressure : 0hPa| Receiver | Date | Latitude | Longitude | Direction | Speed | Altitude | Climb | Temperature | Humidity | Pressure | Voltage | Killtimer | Uptime | BKT | XDATA |
|---|---|---|---|---|---|---|---|---|---|---|---|---|---|---|---|
| EA3GEO | 2026-09-03 12:57:01 | 41.06180 | 2.46100 | 50° | 16km/h | 147m | -9.9m/s | 0°C | 0% | 0hPa | 0V | 00:00:00 | 00:00:00 | 00:00:00 | |
| EA3GEO | 2026-09-03 12:56:55 | 41.06165 | 2.46083 | 33° | 13km/h | 202m | -8.3m/s | 0°C | 0% | 0hPa | 0V | 00:00:00 | 00:00:00 | 00:00:00 | |
| EA3GEO | 2026-09-03 12:56:50 | 41.06150 | 2.46067 | 37° | 18km/h | 249m | -9.8m/s | 0°C | 0% | 0hPa | 0V | 00:00:00 | 00:00:00 | 00:00:00 | |
| EA3GEO | 2026-09-03 12:56:44 | 41.06134 | 2.46051 | 46° | 13km/h | 309m | -9.7m/s | 0°C | 0% | 0hPa | 0V | 00:00:00 | 00:00:00 | 00:00:00 | |
| EA3GEO | 2026-09-03 12:56:39 | 41.06124 | 2.46039 | 38° | 16km/h | 353m | -8.6m/s | 0°C | 0% | 0hPa | 0V | 00:00:00 | 00:00:00 | 00:00:00 | |
| EA3GEO | 2026-09-03 12:56:33 | 41.06108 | 2.46024 | 47° | 13km/h | 413m | -10.0m/s | 0°C | 0% | 0hPa | 0V | 00:00:00 | 00:00:00 | 00:00:00 | |
| EA3GEO | 2026-09-03 12:56:27 | 41.06092 | 2.46006 | 35° | 13km/h | 472m | -7.5m/s | 0°C | 0% | 0hPa | 0V | 00:00:00 | 00:00:00 | 00:00:00 | |
| EA3GEO | 2026-09-03 12:56:22 | 41.06080 | 2.45990 | 47° | 15km/h | 515m | -8.5m/s | 0°C | 0% | 0hPa | 0V | 00:00:00 | 00:00:00 | 00:00:00 | |
| EA3GEO | 2026-09-03 12:56:15 | 41.06063 | 2.45971 | 44° | 13km/h | 578m | -7.2m/s | 0°C | 0% | 0hPa | 0V | 00:00:00 | 00:00:00 | 00:00:00 | |
| EA3GEO | 2026-09-03 12:56:10 | 41.06050 | 2.45958 | 57° | 11km/h | 622m | -8.9m/s | 0°C | 0% | 0hPa | 0V | 00:00:00 | 00:00:00 | 00:00:00 | |
| EA3GEO | 2026-09-03 12:56:05 | 41.06038 | 2.45945 | 41° | 15km/h | 664m | -8.4m/s | 0°C | 0% | 0hPa | 0V | 00:00:00 | 00:00:00 | 00:00:00 | |
| EA3GEO | 2026-09-03 12:55:59 | 41.06021 | 2.45927 | 44° | 16km/h | 717m | -5.6m/s | 0°C | 0% | 0hPa | 0V | 00:00:00 | 00:00:00 | 00:00:00 | |
| EA3GEO | 2026-09-03 12:55:53 | 41.06001 | 2.45906 | 35° | 16km/h | 772m | -8.4m/s | 0°C | 0% | 0hPa | 0V | 00:00:00 | 00:00:00 | 00:00:00 | |
| EA3GEO | 2026-09-03 12:55:47 | 41.05974 | 2.45880 | 50° | 22km/h | 827m | -7.4m/s | 0°C | 0% | 0hPa | 0V | 00:00:00 | 00:00:00 | 00:00:00 | |
| EA3GEO | 2026-09-03 12:55:42 | 41.05948 | 2.45854 | 40° | 20km/h | 872m | -6.0m/s | 0°C | 0% | 0hPa | 0V | 00:00:00 | 00:00:00 | 00:00:00 | |
| EA3GEO | 2026-09-03 12:55:31 | 41.05890 | 2.45787 | 53° | 27km/h | 974m | -9.9m/s | 0°C | 0% | 0hPa | 0V | 00:00:00 | 00:00:00 | 00:00:00 | |
| EA3GEO | 2026-09-03 12:55:24 | 41.05862 | 2.45729 | 71° | 27km/h | 1034m | -8.1m/s | 0°C | 0% | 0hPa | 0V | 00:00:00 | 00:00:00 | 00:00:00 | |
| EA3GEO | 2026-09-03 12:55:19 | 41.05848 | 2.45685 | 72° | 29km/h | 1078m | -8.1m/s | 0°C | 0% | 0hPa | 0V | 00:00:00 | 00:00:00 | 00:00:00 | |
| EA3GEO | 2026-09-03 12:55:13 | 41.05837 | 2.45633 | 82° | 24km/h | 1132m | -8.8m/s | 0°C | 0% | 0hPa | 0V | 00:00:00 | 00:00:00 | 00:00:00 | |
| EA3GEO | 2026-09-03 12:55:07 | 41.05836 | 2.45587 | 102° | 20km/h | 1184m | -9.0m/s | 0°C | 0% | 0hPa | 0V | 00:00:00 | 00:00:00 | 00:00:00 | |
| EA3GEO | 2026-09-03 12:55:01 | 41.05841 | 2.45550 | 96° | 15km/h | 1240m | -9.7m/s | 0°C | 0% | 0hPa | 0V | 00:00:00 | 00:00:00 | 00:00:00 | |
| EA3GEO | 2026-09-03 12:54:55 | 41.05847 | 2.45519 | 105° | 13km/h | 1295m | -7.8m/s | 0°C | 0% | 0hPa | 0V | 00:00:00 | 00:00:00 | 00:00:00 | |
| EA3GEO | 2026-09-03 12:54:50 | 41.05857 | 2.45497 | 118° | 15km/h | 1341m | -7.1m/s | 0°C | 0% | 0hPa | 0V | 00:00:00 | 00:00:00 | 00:00:00 | |
| EA3GEO | 2026-09-03 12:54:44 | 41.05876 | 2.45476 | 152° | 20km/h | 1398m | -8.8m/s | 0°C | 0% | 0hPa | 0V | 00:00:00 | 00:00:00 | 00:00:00 | |
| EA3GEO | 2026-09-03 12:54:38 | 41.05905 | 2.45451 | 144° | 27km/h | 1454m | -9.2m/s | 0°C | 0% | 0hPa | 0V | 00:00:00 | 00:00:00 | 00:00:00 | |
| EA3GEO | 2026-09-03 12:54:27 | 41.05968 | 2.45393 | 148° | 29km/h | 1558m | -7.8m/s | 0°C | 0% | 0hPa | 0V | 00:00:00 | 00:00:00 | 00:00:00 | |
| EA3GEO | 2026-09-03 12:54:21 | 41.06003 | 2.45355 | 145° | 27km/h | 1615m | -8.9m/s | 0°C | 0% | 0hPa | 0V | 00:00:00 | 00:00:00 | 00:00:00 | |
| EA3GEO | 2026-09-03 12:54:16 | 41.06031 | 2.45321 | 136° | 27km/h | 1663m | -8.0m/s | 0°C | 0% | 0hPa | 0V | 00:00:00 | 00:00:00 | 00:00:00 | |
| EA3GEO | 2026-09-03 12:54:10 | 41.06063 | 2.45276 | 135° | 35km/h | 1714m | -8.4m/s | 0°C | 0% | 0hPa | 0V | 00:00:00 | 00:00:00 | 00:00:00 | |
| EA3GEO | 2026-09-03 12:54:05 | 41.06085 | 2.45233 | 127° | 29km/h | 1759m | -8.8m/s | 0°C | 0% | 0hPa | 0V | 00:00:00 | 00:00:00 | 00:00:00 | |
| EA3GEO | 2026-09-03 12:53:59 | 41.06109 | 2.45177 | 124° | 33km/h | 1812m | -8.6m/s | 0°C | 0% | 0hPa | 0V | 00:00:00 | 00:00:00 | 00:00:00 | |
| EA3GEO | 2026-09-03 12:53:53 | 41.06130 | 2.45121 | 120° | 35km/h | 1872m | -9.9m/s | 0°C | 0% | 0hPa | 0V | 00:00:00 | 00:00:00 | 00:00:00 | |
| EA3GEO | 2026-09-03 12:53:48 | 41.06149 | 2.45071 | 118° | 38km/h | 1923m | -7.2m/s | 0°C | 0% | 0hPa | 0V | 00:00:00 | 00:00:00 | 00:00:00 | |
| EA3GEO | 2026-09-03 12:53:43 | 41.06175 | 2.45009 | 120° | 33km/h | 1979m | -8.5m/s | 0°C | 0% | 0hPa | 0V | 00:00:00 | 00:00:00 | 00:00:00 | |
| EA3GEO | 2026-09-03 12:53:36 | 41.06200 | 2.44945 | 116° | 37km/h | 2034m | -9.3m/s | 0°C | 0% | 0hPa | 0V | 00:00:00 | 00:00:00 | 00:00:00 | |
| EA3GEO | 2026-09-03 12:53:31 | 41.06221 | 2.44890 | 122° | 35km/h | 2085m | -11.2m/s | 0°C | 0% | 0hPa | 0V | 00:00:00 | 00:00:00 | 00:00:00 | |
| EA3GEO | 2026-09-03 12:53:25 | 41.06245 | 2.44825 | 119° | 38km/h | 2142m | -8.1m/s | 0°C | 0% | 0hPa | 0V | 00:00:00 | 00:00:00 | 00:00:00 | |
| EA3GEO | 2026-09-03 12:53:19 | 41.06269 | 2.44758 | 123° | 38km/h | 2199m | -10.0m/s | 0°C | 0% | 0hPa | 0V | 00:00:00 | 00:00:00 | 00:00:00 | |
| EA3IBE | 2026-09-03 12:53:16 | 41.06282 | 2.44726 | 122° | 35km/h | 2227m | -9.5m/s | 0°C | 0% | 0hPa | 0V | 00:00:00 | 00:00:00 | 00:00:00 | |
| EA3GEO | 2026-09-03 12:53:13 | 41.06294 | 2.44695 | 120° | 33km/h | 2255m | -9.7m/s | 0°C | 0% | 0hPa | 0V | 00:00:00 | 00:00:00 | 00:00:00 | |
| EA3GEO | 2026-09-03 12:53:07 | 41.06320 | 2.44634 | 119° | 38km/h | 2315m | -8.3m/s | 0°C | 0% | 0hPa | 0V | 00:00:00 | 00:00:00 | 00:00:00 | |
| EA3IBE | 2026-09-03 12:53:06 | 41.06324 | 2.44624 | 125° | 33km/h | 2323m | -9.1m/s | 0°C | 0% | 0hPa | 0V | 00:00:00 | 00:00:00 | 00:00:00 | |
| EA3GEO | 2026-09-03 12:53:02 | 41.06343 | 2.44582 | 123° | 35km/h | 2362m | -9.9m/s | 0°C | 0% | 0hPa | 0V | 00:00:00 | 00:00:00 | 00:00:00 | |
| EA3GEO | 2026-09-03 12:52:57 | 41.06367 | 2.44531 | 131° | 33km/h | 2410m | -12.0m/s | 0°C | 0% | 0hPa | 0V | 00:00:00 | 00:00:00 | 00:00:00 | |
| EA3GEO | 2026-09-03 12:52:51 | 41.06397 | 2.44470 | 124° | 38km/h | 2472m | -7.6m/s | 0°C | 0% | 0hPa | 0V | 00:00:00 | 00:00:00 | 00:00:00 | |
| EA3IBE | 2026-09-03 12:52:46 | 41.06423 | 2.44418 | 124° | 35km/h | 2520m | -9.9m/s | 0°C | 0% | 0hPa | 0V | 00:00:00 | 00:00:00 | 00:00:00 | |
| EA3GEO | 2026-09-03 12:52:41 | 41.06450 | 2.44366 | 127° | 38km/h | 2569m | -10.6m/s | 0°C | 0% | 0hPa | 0V | 00:00:00 | 00:00:00 | 00:00:00 | |
| EA3GEO | 2026-09-03 12:52:35 | 41.06484 | 2.44303 | 128° | 40km/h | 2627m | -7.9m/s | 0°C | 0% | 0hPa | 0V | 00:00:00 | 00:00:00 | 00:00:00 | |
| EA3IBE | 2026-09-03 12:52:33 | 41.06496 | 2.44281 | 127° | 37km/h | 2645m | -8.4m/s | 0°C | 0% | 0hPa | 0V | 00:00:00 | 00:00:00 | 00:00:00 | |
| EA3GEO | 2026-09-03 12:52:29 | 41.06520 | 2.44239 | 126° | 40km/h | 2682m | -8.5m/s | 0°C | 0% | 0hPa | 0V | 00:00:00 | 00:00:00 | 00:00:00 | |
| EA3IBE | 2026-09-03 12:52:25 | 41.06542 | 2.44195 | 127° | 35km/h | 2722m | -9.4m/s | 0°C | 0% | 0hPa | 0V | 00:00:00 | 00:00:00 | 00:00:00 | |
| EA3GEO | 2026-09-03 12:52:24 | 41.06547 | 2.44185 | 122° | 37km/h | 2732m | -8.8m/s | 0°C | 0% | 0hPa | 0V | 00:00:00 | 00:00:00 | 00:00:00 | |
| EA3GEO | 2026-09-03 12:52:18 | 41.06582 | 2.44122 | 127° | 42km/h | 2794m | -8.9m/s | 0°C | 0% | 0hPa | 0V | 00:00:00 | 00:00:00 | 00:00:00 | |
| EA3GEO | 2026-09-03 12:52:12 | 41.06616 | 2.44059 | 126° | 40km/h | 2849m | -9.9m/s | 0°C | 0% | 0hPa | 0V | 00:00:00 | 00:00:00 | 00:00:00 | |
| EA3GEO | 2026-09-03 12:52:06 | 41.06647 | 2.44002 | 121° | 26km/h | 2907m | -12.8m/s | 0°C | 0% | 0hPa | 0V | 00:00:00 | 00:00:00 | 00:00:00 | |
| EA3GEO | 2026-09-03 12:52:00 | 41.06673 | 2.43945 | 121° | 29km/h | 2962m | -8.1m/s | 0°C | 0% | 0hPa | 0V | 00:00:00 | 00:00:00 | 00:00:00 | |
| EA3GEO | 2026-09-03 12:51:55 | 41.06690 | 2.43899 | 112° | 29km/h | 3012m | -9.5m/s | 0°C | 0% | 0hPa | 0V | 00:00:00 | 00:00:00 | 00:00:00 | |
| EA3IBE | 2026-09-03 12:51:54 | 41.06694 | 2.43889 | 119° | 33km/h | 3022m | -10.2m/s | 0°C | 0% | 0hPa | 0V | 00:00:00 | 00:00:00 | 00:00:00 | |
| EA3GEO | 2026-09-03 12:51:44 | 41.06726 | 2.43790 | 113° | 31km/h | 3125m | -9.7m/s | 0°C | 0% | 0hPa | 0V | 00:00:00 | 00:00:00 | 00:00:00 | |
| EA3IBE | 2026-09-03 12:51:39 | 41.06739 | 2.43742 | 111° | 27km/h | 3172m | -8.6m/s | 0°C | 0% | 0hPa | 0V | 00:00:00 | 00:00:00 | 00:00:00 | |
| EA3GEO | 2026-09-03 12:51:32 | 41.06758 | 2.43672 | 110° | 29km/h | 3243m | -9.8m/s | 0°C | 0% | 0hPa | 0V | 00:00:00 | 00:00:00 | 00:00:00 | |
| EA3IBE | 2026-09-03 12:51:28 | 41.06768 | 2.43634 | 110° | 31km/h | 3282m | -8.4m/s | 0°C | 0% | 0hPa | 0V | 00:00:00 | 00:00:00 | 00:00:00 | |
| EA3GEO | 2026-09-03 12:51:26 | 41.06773 | 2.43616 | 110° | 29km/h | 3301m | -9.4m/s | 0°C | 0% | 0hPa | 0V | 00:00:00 | 00:00:00 | 00:00:00 | |
| EA3GEO | 2026-09-03 12:51:18 | 41.06793 | 2.43531 | 107° | 33km/h | 3381m | -10.8m/s | 0°C | 0% | 0hPa | 0V | 00:00:00 | 00:00:00 | 00:00:00 | |
| EA3GEO | 2026-09-03 12:51:12 | 41.06808 | 2.43461 | 108° | 37km/h | 3441m | -10.1m/s | 0°C | 0% | 0hPa | 0V | 00:00:00 | 00:00:00 | 00:00:00 | |
| EA3IBE | 2026-09-03 12:51:09 | 41.06816 | 2.43425 | 114° | 35km/h | 3469m | -9.7m/s | 0°C | 0% | 0hPa | 0V | 00:00:00 | 00:00:00 | 00:00:00 | |
| EA3GEO | 2026-09-03 12:51:07 | 41.06822 | 2.43401 | 110° | 35km/h | 3489m | -10.1m/s | 0°C | 0% | 0hPa | 0V | 00:00:00 | 00:00:00 | 00:00:00 | |
| EA3GEO | 2026-09-03 12:50:54 | 41.06874 | 2.43260 | 130° | 35km/h | 3624m | -7.4m/s | 0°C | 0% | 0hPa | 0V | 00:00:00 | 00:00:00 | 00:00:00 | |
| EA3GEO | 2026-09-03 12:50:49 | 41.06898 | 2.43220 | 131° | 31km/h | 3674m | -7.5m/s | 0°C | 0% | 0hPa | 0V | 00:00:00 | 00:00:00 | 00:00:00 | |
| EA3IBE | 2026-09-03 12:50:48 | 41.06903 | 2.43213 | 130° | 26km/h | 3684m | -8.0m/s | 0°C | 0% | 0hPa | 0V | 00:00:00 | 00:00:00 | 00:00:00 | |
| EA3GEO | 2026-09-03 12:50:44 | 41.06921 | 2.43182 | 130° | 18km/h | 3730m | -11.1m/s | 0°C | 0% | 0hPa | 0V | 00:00:00 | 00:00:00 | 00:00:00 | |
| EA3GEO | 2026-09-03 12:50:37 | 41.06940 | 2.43152 | 129° | 16km/h | 3789m | -9.9m/s | 0°C | 0% | 0hPa | 0V | 00:00:00 | 00:00:00 | 00:00:00 | |
| EA3IBE | 2026-09-03 12:50:35 | 41.06946 | 2.43144 | 145° | 18km/h | 3810m | -7.6m/s | 0°C | 0% | 0hPa | 0V | 00:00:00 | 00:00:00 | 00:00:00 | |
| EA3GEO | 2026-09-03 12:50:31 | 41.06959 | 2.43130 | 133° | 18km/h | 3848m | -8.2m/s | 0°C | 0% | 0hPa | 0V | 00:00:00 | 00:00:00 | 00:00:00 | |
| EA3IBE | 2026-09-03 12:50:21 | 41.06993 | 2.43094 | 151° | 16km/h | 3951m | -8.3m/s | 0°C | 0% | 0hPa | 0V | 00:00:00 | 00:00:00 | 00:00:00 | |
| EA3GEO | 2026-09-03 12:50:20 | 41.06997 | 2.43091 | 149° | 18km/h | 3961m | -9.4m/s | 0°C | 0% | 0hPa | 0V | 00:00:00 | 00:00:00 | 00:00:00 | |
| EA3GEO | 2026-09-03 12:50:14 | 41.07019 | 2.43075 | 165° | 16km/h | 4022m | -6.9m/s | 0°C | 0% | 0hPa | 0V | 00:00:00 | 00:00:00 | 00:00:00 | |
| EA3IBE | 2026-09-03 12:50:10 | 41.07036 | 2.43063 | 159° | 18km/h | 4060m | -9.6m/s | 0°C | 0% | 0hPa | 0V | 00:00:00 | 00:00:00 | 00:00:00 | |
| EA3GEO | 2026-09-03 12:50:08 | 41.07047 | 2.43058 | 157° | 22km/h | 4082m | -9.4m/s | 0°C | 0% | 0hPa | 0V | 00:00:00 | 00:00:00 | 00:00:00 | |
| EA3GEO | 2026-09-03 12:49:56 | 41.07099 | 2.43027 | 148° | 16km/h | 4208m | -10.4m/s | 0°C | 0% | 0hPa | 0V | 00:00:00 | 00:00:00 | 00:00:00 | |
| EA3GEO | 2026-09-03 12:49:50 | 41.07121 | 2.43011 | 154° | 13km/h | 4268m | -8.3m/s | 0°C | 0% | 0hPa | 0V | 00:00:00 | 00:00:00 | 00:00:00 | |
| EA3GEO | 2026-09-03 12:49:44 | 41.07140 | 2.42995 | 154° | 15km/h | 4329m | -9.2m/s | 0°C | 0% | 0hPa | 0V | 00:00:00 | 00:00:00 | 00:00:00 | |
| EA3IBE | 2026-09-03 12:49:38 | 41.07160 | 2.42975 | 148° | 13km/h | 4388m | -10.6m/s | 0°C | 0% | 0hPa | 0V | 00:00:00 | 00:00:00 | 00:00:00 | |
| EA3GEO | 2026-09-03 12:49:32 | 41.07179 | 2.42954 | 139° | 16km/h | 4445m | -7.6m/s | 0°C | 0% | 0hPa | 0V | 00:00:00 | 00:00:00 | 00:00:00 | |
| EA3GEO | 2026-09-03 12:49:26 | 41.07196 | 2.42935 | 130° | 18km/h | 4503m | -8.7m/s | 0°C | 0% | 0hPa | 0V | 00:00:00 | 00:00:00 | 00:00:00 | |
| EA3IBE | 2026-09-03 12:49:20 | 41.07214 | 2.42907 | 140° | 15km/h | 4561m | -9.2m/s | 0°C | 0% | 0hPa | 0V | 00:00:00 | 00:00:00 | 00:00:00 | |
| EA3GEO | 2026-09-03 12:49:14 | 41.07230 | 2.42882 | 123° | 18km/h | 4622m | -9.2m/s | 0°C | 0% | 0hPa | 0V | 00:00:00 | 00:00:00 | 00:00:00 | |
| EA3IBE | 2026-09-03 12:49:13 | 41.07232 | 2.42877 | 132° | 15km/h | 4631m | -9.7m/s | 0°C | 0% | 0hPa | 0V | 00:00:00 | 00:00:00 | 00:00:00 | |
| EA3GEO | 2026-09-03 12:49:08 | 41.07245 | 2.42858 | 132° | 16km/h | 4683m | -8.5m/s | 0°C | 0% | 0hPa | 0V | 00:00:00 | 00:00:00 | 00:00:00 | |
| EA3IBE | 2026-09-03 12:49:07 | 41.07248 | 2.42853 | 131° | 16km/h | 4693m | -8.9m/s | 0°C | 0% | 0hPa | 0V | 00:00:00 | 00:00:00 | 00:00:00 | |
| EA3GEO | 2026-09-03 12:49:03 | 41.07257 | 2.42837 | 133° | 13km/h | 4734m | -8.8m/s | 0°C | 0% | 0hPa | 0V | 00:00:00 | 00:00:00 | 00:00:00 | |
| EA3GEO | 2026-09-03 12:48:57 | 41.07270 | 2.42814 | 122° | 18km/h | 4793m | -8.3m/s | 0°C | 0% | 0hPa | 0V | 00:00:00 | 00:00:00 | 00:00:00 | |
| EA3GEO | 2026-09-03 12:48:51 | 41.07283 | 2.42790 | 126° | 11km/h | 4850m | -9.6m/s | 0°C | 0% | 0hPa | 0V | 00:00:00 | 00:00:00 | 00:00:00 | |
| EA3GEO | 2026-09-03 12:48:45 | 41.07295 | 2.42765 | 124° | 16km/h | 4911m | -7.9m/s | 0°C | 0% | 0hPa | 0V | 00:00:00 | 00:00:00 | 00:00:00 | |
| EA3GEO | 2026-09-03 12:48:40 | 41.07305 | 2.42744 | 138° | 13km/h | 4962m | -9.4m/s | 0°C | 0% | 0hPa | 0V | 00:00:00 | 00:00:00 | 00:00:00 | |
| EA3GEO | 2026-09-03 12:48:33 | 41.07319 | 2.42717 | 123° | 18km/h | 5035m | -10.1m/s | 0°C | 0% | 0hPa | 0V | 00:00:00 | 00:00:00 | 00:00:00 | |
| EA3GEO | 2026-09-03 12:48:27 | 41.07334 | 2.42693 | 132° | 18km/h | 5096m | -9.2m/s | 0°C | 0% | 0hPa | 0V | 00:00:00 | 00:00:00 | 00:00:00 | |
| EA3GEO | 2026-09-03 12:48:21 | 41.07351 | 2.42667 | 139° | 18km/h | 5157m | -9.5m/s | 0°C | 0% | 0hPa | 0V | 00:00:00 | 00:00:00 | 00:00:00 | |
| EA3GEO | 2026-09-03 12:48:16 | 41.07370 | 2.42646 | 141° | 18km/h | 5207m | -8.4m/s | 0°C | 0% | 0hPa | 0V | 00:00:00 | 00:00:00 | 00:00:00 | |
| EA3GEO | 2026-09-03 12:48:10 | 41.07393 | 2.42620 | 160° | 22km/h | 5270m | -9.5m/s | 0°C | 0% | 0hPa | 0V | 00:00:00 | 00:00:00 | 00:00:00 | |
| EA3GEO | 2026-09-03 12:48:04 | 41.07421 | 2.42592 | 145° | 24km/h | 5332m | -9.0m/s | 0°C | 0% | 0hPa | 0V | 00:00:00 | 00:00:00 | 00:00:00 | |
| EA3GEO | 2026-09-03 12:47:58 | 41.07455 | 2.42563 | 147° | 29km/h | 5391m | -8.7m/s | 0°C | 0% | 0hPa | 0V | 00:00:00 | 00:00:00 | 00:00:00 | |
| EA3GEO | 2026-09-03 12:47:47 | 41.07527 | 2.42509 | 154° | 29km/h | 5505m | -9.6m/s | 0°C | 0% | 0hPa | 0V | 00:00:00 | 00:00:00 | 00:00:00 | |
| EA3GEO | 2026-09-03 12:47:42 | 41.07570 | 2.42479 | 154° | 29km/h | 5569m | -10.0m/s | 0°C | 0% | 0hPa | 0V | 00:00:00 | 00:00:00 | 00:00:00 | |
| EA3GEO | 2026-09-03 12:47:36 | 41.07603 | 2.42456 | 155° | 29km/h | 5623m | -10.7m/s | 0°C | 0% | 0hPa | 0V | 00:00:00 | 00:00:00 | 00:00:00 | |
| EA3GEO | 2026-09-03 12:47:31 | 41.07636 | 2.42437 | 161° | 27km/h | 5672m | -9.0m/s | 0°C | 0% | 0hPa | 0V | 00:00:00 | 00:00:00 | 00:00:00 | |
| EA3GEO | 2026-09-03 12:47:25 | 41.07675 | 2.42414 | 152° | 27km/h | 5735m | -9.6m/s | 0°C | 0% | 0hPa | 0V | 00:00:00 | 00:00:00 | 00:00:00 | |
| EA3GEO | 2026-09-03 12:47:19 | 41.07712 | 2.42389 | 149° | 27km/h | 5800m | -11.0m/s | 0°C | 0% | 0hPa | 0V | 00:00:00 | 00:00:00 | 00:00:00 | |
| EA3GEO | 2026-09-03 12:47:13 | 41.07747 | 2.42366 | 151° | 26km/h | 5870m | -10.8m/s | 0°C | 0% | 0hPa | 0V | 00:00:00 | 00:00:00 | 00:00:00 | |
| EA3GEO | 2026-09-03 12:47:07 | 41.07784 | 2.42345 | 159° | 24km/h | 5933m | -9.5m/s | 0°C | 0% | 0hPa | 0V | 00:00:00 | 00:00:00 | 00:00:00 | |
| EA3GEO | 2026-09-03 12:47:02 | 41.07812 | 2.42331 | 163° | 24km/h | 5987m | -9.5m/s | 0°C | 0% | 0hPa | 0V | 00:00:00 | 00:00:00 | 00:00:00 | |
| EA3GEO | 2026-09-03 12:46:55 | 41.07854 | 2.42314 | 164° | 24km/h | 6068m | -10.8m/s | 0°C | 0% | 0hPa | 0V | 00:00:00 | 00:00:00 | 00:00:00 | |
| EA3GEO | 2026-09-03 12:46:49 | 41.07890 | 2.42303 | 170° | 26km/h | 6131m | -10.2m/s | 0°C | 0% | 0hPa | 0V | 00:00:00 | 00:00:00 | 00:00:00 | |
| EA3GEO | 2026-09-03 12:46:44 | 41.07920 | 2.42293 | 163° | 24km/h | 6189m | -10.7m/s | 0°C | 0% | 0hPa | 0V | 00:00:00 | 00:00:00 | 00:00:00 | |
| EA3GEO | 2026-09-03 12:46:39 | 41.07949 | 2.42280 | 163° | 27km/h | 6244m | -9.4m/s | 0°C | 0% | 0hPa | 0V | 00:00:00 | 00:00:00 | 00:00:00 | |
| EA3GEO | 2026-09-03 12:46:33 | 41.07986 | 2.42265 | 169° | 24km/h | 6306m | -9.4m/s | 0°C | 0% | 0hPa | 0V | 00:00:00 | 00:00:00 | 00:00:00 | |
| EA3GEO | 2026-09-03 12:46:28 | 41.08017 | 2.42251 | 163° | 26km/h | 6362m | -10.5m/s | 0°C | 0% | 0hPa | 0V | 00:00:00 | 00:00:00 | 00:00:00 | |
| EA3GEO | 2026-09-03 12:46:23 | 41.08047 | 2.42240 | 166° | 26km/h | 6419m | -9.2m/s | 0°C | 0% | 0hPa | 0V | 00:00:00 | 00:00:00 | 00:00:00 | |
| EA3GEO | 2026-09-03 12:46:17 | 41.08086 | 2.42224 | 156° | 26km/h | 6480m | -10.2m/s | 0°C | 0% | 0hPa | 0V | 00:00:00 | 00:00:00 | 00:00:00 | |
| EA3GEO | 2026-09-03 12:46:11 | 41.08124 | 2.42204 | 161° | 27km/h | 6546m | -10.1m/s | 0°C | 0% | 0hPa | 0V | 00:00:00 | 00:00:00 | 00:00:00 | |
| EA3GEO | 2026-09-03 12:46:06 | 41.08157 | 2.42187 | 155° | 31km/h | 6600m | -9.5m/s | 0°C | 0% | 0hPa | 0V | 00:00:00 | 00:00:00 | 00:00:00 | |
| EA3GEO | 2026-09-03 12:46:00 | 41.08200 | 2.42159 | 155° | 33km/h | 6660m | -9.4m/s | 0°C | 0% | 0hPa | 0V | 00:00:00 | 00:00:00 | 00:00:00 | |
| EA3GEO | 2026-09-03 12:45:55 | 41.08237 | 2.42135 | 156° | 29km/h | 6714m | -10.8m/s | 0°C | 0% | 0hPa | 0V | 00:00:00 | 00:00:00 | 00:00:00 | |
| EA3GEO | 2026-09-03 12:45:49 | 41.08276 | 2.42108 | 155° | 31km/h | 6779m | -10.0m/s | 0°C | 0% | 0hPa | 0V | 00:00:00 | 00:00:00 | 00:00:00 | |
| EA3GEO | 2026-09-03 12:45:43 | 41.08319 | 2.42076 | 156° | 29km/h | 6845m | -10.4m/s | 0°C | 0% | 0hPa | 0V | 00:00:00 | 00:00:00 | 00:00:00 | |
| EA3GEO | 2026-09-03 12:45:38 | 41.08353 | 2.42053 | 147° | 31km/h | 6902m | -10.0m/s | 0°C | 0% | 0hPa | 0V | 00:00:00 | 00:00:00 | 00:00:00 | |
| EA3GEO | 2026-09-03 12:45:33 | 41.08394 | 2.42023 | 151° | 33km/h | 6967m | -10.2m/s | 0°C | 0% | 0hPa | 0V | 00:00:00 | 00:00:00 | 00:00:00 | |
| EA3GEO | 2026-09-03 12:45:26 | 41.08440 | 2.41991 | 155° | 31km/h | 7031m | -9.5m/s | 0°C | 0% | 0hPa | 0V | 00:00:00 | 00:00:00 | 00:00:00 | |
| EA3GEO | 2026-09-03 12:45:20 | 41.08489 | 2.41961 | 158° | 38km/h | 7095m | -9.0m/s | 0°C | 0% | 0hPa | 0V | 00:00:00 | 00:00:00 | 00:00:00 | |
| EA3GEO | 2026-09-03 12:45:15 | 41.08532 | 2.41934 | 161° | 37km/h | 7149m | -12.4m/s | 0°C | 0% | 0hPa | 0V | 00:00:00 | 00:00:00 | 00:00:00 | |
| EA3GEO | 2026-09-03 12:45:09 | 41.08582 | 2.41903 | 156° | 38km/h | 7215m | -8.4m/s | 0°C | 0% | 0hPa | 0V | 00:00:00 | 00:00:00 | 00:00:00 | |
| EA3GEO | 2026-09-03 12:44:57 | 41.08677 | 2.41833 | 153° | 35km/h | 7342m | -9.6m/s | 0°C | 0% | 0hPa | 0V | 00:00:00 | 00:00:00 | 00:00:00 | |
| EA3GEO | 2026-09-03 12:44:51 | 41.08725 | 2.41798 | 153° | 37km/h | 7407m | -11.5m/s | 0°C | 0% | 0hPa | 0V | 00:00:00 | 00:00:00 | 00:00:00 | |
| EA3GEO | 2026-09-03 12:44:45 | 41.08779 | 2.41767 | 155° | 38km/h | 7475m | -10.1m/s | 0°C | 0% | 0hPa | 0V | 00:00:00 | 00:00:00 | 00:00:00 | |
| EA3GEO | 2026-09-03 12:44:39 | 41.08833 | 2.41734 | 157° | 40km/h | 7542m | -10.2m/s | 0°C | 0% | 0hPa | 0V | 00:00:00 | 00:00:00 | 00:00:00 | |
| EA3GEO | 2026-09-03 12:44:33 | 41.08888 | 2.41699 | 156° | 38km/h | 7608m | -9.3m/s | 0°C | 0% | 0hPa | 0V | 00:00:00 | 00:00:00 | 00:00:00 | |
| EA3GEO | 2026-09-03 12:44:28 | 41.08931 | 2.41670 | 158° | 35km/h | 7657m | -9.8m/s | 0°C | 0% | 0hPa | 0V | 00:00:00 | 00:00:00 | 00:00:00 | |
| EA3GEO | 2026-09-03 12:44:22 | 41.08980 | 2.41635 | 153° | 35km/h | 7723m | -12.1m/s | 0°C | 0% | 0hPa | 0V | 00:00:00 | 00:00:00 | 00:00:00 | |
| EA3GEO | 2026-09-03 12:44:16 | 41.09029 | 2.41595 | 152° | 37km/h | 7789m | -10.5m/s | 0°C | 0% | 0hPa | 0V | 00:00:00 | 00:00:00 | 00:00:00 | |
| EA3GEO | 2026-09-03 12:44:11 | 41.09069 | 2.41562 | 146° | 35km/h | 7846m | -10.5m/s | 0°C | 0% | 0hPa | 0V | 00:00:00 | 00:00:00 | 00:00:00 | |
| EA3GEO | 2026-09-03 12:44:05 | 41.09110 | 2.41518 | 140° | 31km/h | 7912m | -10.4m/s | 0°C | 0% | 0hPa | 0V | 00:00:00 | 00:00:00 | 00:00:00 | |
| EA3GEO | 2026-09-03 12:44:00 | 41.09136 | 2.41483 | 133° | 31km/h | 7969m | -10.2m/s | 0°C | 0% | 0hPa | 0V | 00:00:00 | 00:00:00 | 00:00:00 | |
| EA3GEO | 2026-09-03 12:43:54 | 41.09165 | 2.41444 | 131° | 26km/h | 8033m | -11.0m/s | 0°C | 0% | 0hPa | 0V | 00:00:00 | 00:00:00 | 00:00:00 | |
| EA3GEO | 2026-09-03 12:43:49 | 41.09184 | 2.41412 | 129° | 24km/h | 8088m | -12.1m/s | 0°C | 0% | 0hPa | 0V | 00:00:00 | 00:00:00 | 00:00:00 | |
| EA3GEO | 2026-09-03 12:43:43 | 41.09207 | 2.41379 | 131° | 22km/h | 8154m | -11.1m/s | 0°C | 0% | 0hPa | 0V | 00:00:00 | 00:00:00 | 00:00:00 | |
| EA3GEO | 2026-09-03 12:43:37 | 41.09229 | 2.41347 | 141° | 20km/h | 8222m | -9.6m/s | 0°C | 0% | 0hPa | 0V | 00:00:00 | 00:00:00 | 00:00:00 | |
| EA3GEO | 2026-09-03 12:43:32 | 41.09251 | 2.41323 | 143° | 24km/h | 8281m | -10.9m/s | 0°C | 0% | 0hPa | 0V | 00:00:00 | 00:00:00 | 00:00:00 | |
| EA3GEO | 2026-09-03 12:43:26 | 41.09280 | 2.41293 | 147° | 26km/h | 8347m | -9.7m/s | 0°C | 0% | 0hPa | 0V | 00:00:00 | 00:00:00 | 00:00:00 | |
| EA3GEO | 2026-09-03 12:43:20 | 41.09312 | 2.41263 | 145° | 24km/h | 8409m | -9.9m/s | 0°C | 0% | 0hPa | 0V | 00:00:00 | 00:00:00 | 00:00:00 | |
| EA3GEO | 2026-09-03 12:43:14 | 41.09343 | 2.41234 | 145° | 26km/h | 8476m | -10.5m/s | 0°C | 0% | 0hPa | 0V | 00:00:00 | 00:00:00 | 00:00:00 | |
| EA3GEO | 2026-09-03 12:43:08 | 41.09377 | 2.41205 | 148° | 29km/h | 8546m | -10.9m/s | 0°C | 0% | 0hPa | 0V | 00:00:00 | 00:00:00 | 00:00:00 | |
| EA3GEO | 2026-09-03 12:43:02 | 41.09412 | 2.41177 | 153° | 27km/h | 8615m | -9.7m/s | 0°C | 0% | 0hPa | 0V | 00:00:00 | 00:00:00 | 00:00:00 | |
| EA3GEO | 2026-09-03 12:42:56 | 41.09448 | 2.41148 | 155° | 29km/h | 8680m | -10.5m/s | 0°C | 0% | 0hPa | 0V | 00:00:00 | 00:00:00 | 00:00:00 | |
| EA3GEO | 2026-09-03 12:42:50 | 41.09487 | 2.41122 | 153° | 27km/h | 8750m | -10.5m/s | 0°C | 0% | 0hPa | 0V | 00:00:00 | 00:00:00 | 00:00:00 | |
| EA3GEO | 2026-09-03 12:42:44 | 41.09527 | 2.41097 | 161° | 31km/h | 8818m | -9.1m/s | 0°C | 0% | 0hPa | 0V | 00:00:00 | 00:00:00 | 00:00:00 | |
| EA3GEO | 2026-09-03 12:42:39 | 41.09563 | 2.41077 | 156° | 31km/h | 8876m | -11.3m/s | 0°C | 0% | 0hPa | 0V | 00:00:00 | 00:00:00 | 00:00:00 | |
| EA3GEO | 2026-09-03 12:42:27 | 41.09652 | 2.41031 | 159° | 33km/h | 9017m | -8.6m/s | 0°C | 0% | 0hPa | 0V | 00:00:00 | 00:00:00 | 00:00:00 | |
| EA3GEO | 2026-09-03 12:42:21 | 41.09696 | 2.41004 | 152° | 31km/h | 9084m | -11.1m/s | 0°C | 0% | 0hPa | 0V | 00:00:00 | 00:00:00 | 00:00:00 | |
| EA3GEO | 2026-09-03 12:42:16 | 41.09729 | 2.40981 | 148° | 31km/h | 9141m | -10.4m/s | 0°C | 0% | 0hPa | 0V | 00:00:00 | 00:00:00 | 00:00:00 | |
| EA3GEO | 2026-09-03 12:42:10 | 41.09769 | 2.40950 | 154° | 27km/h | 9206m | -11.7m/s | 0°C | 0% | 0hPa | 0V | 00:00:00 | 00:00:00 | 00:00:00 | |
| EA3GEO | 2026-09-03 12:42:04 | 41.09812 | 2.40922 | 150° | 35km/h | 9280m | -10.4m/s | 0°C | 0% | 0hPa | 0V | 00:00:00 | 00:00:00 | 00:00:00 | |
| EA3GEO | 2026-09-03 12:41:58 | 41.09859 | 2.40887 | 148° | 38km/h | 9351m | -9.6m/s | 0°C | 0% | 0hPa | 0V | 00:00:00 | 00:00:00 | 00:00:00 | |
| EA3GEO | 2026-09-03 12:41:53 | 41.09901 | 2.40851 | 143° | 40km/h | 9406m | -11.3m/s | 0°C | 0% | 0hPa | 0V | 00:00:00 | 00:00:00 | 00:00:00 | |
| EA3GEO | 2026-09-03 12:41:47 | 41.09951 | 2.40799 | 136° | 44km/h | 9472m | -9.9m/s | 0°C | 0% | 0hPa | 0V | 00:00:00 | 00:00:00 | 00:00:00 | |
| EA3GEO | 2026-09-03 12:41:41 | 41.09998 | 2.40739 | 132° | 46km/h | 9538m | -10.9m/s | 0°C | 0% | 0hPa | 0V | 00:00:00 | 00:00:00 | 00:00:00 | |
| EA3GEO | 2026-09-03 12:41:35 | 41.10045 | 2.40673 | 128° | 49km/h | 9611m | -10.2m/s | 0°C | 0% | 0hPa | 0V | 00:00:00 | 00:00:00 | 00:00:00 | |
| EA3GEO | 2026-09-03 12:41:29 | 41.10086 | 2.40599 | 125° | 49km/h | 9681m | -9.1m/s | 0°C | 0% | 0hPa | 0V | 00:00:00 | 00:00:00 | 00:00:00 | |
| EA3GEO | 2026-09-03 12:41:17 | 41.10167 | 2.40445 | 128° | 42km/h | 9826m | -12.5m/s | 0°C | 0% | 0hPa | 0V | 00:00:00 | 00:00:00 | 00:00:00 | |
| EA3GEO | 2026-09-03 12:41:07 | 41.10242 | 2.40333 | 136° | 47km/h | 9947m | -11.1m/s | 0°C | 0% | 0hPa | 0V | 00:00:00 | 00:00:00 | 00:00:00 | |
| EA3GEO | 2026-09-03 12:41:02 | 41.10286 | 2.40277 | 137° | 49km/h | 10007m | -10.7m/s | 0°C | 0% | 0hPa | 0V | 00:00:00 | 00:00:00 | 00:00:00 | |
| EA3GEO | 2026-09-03 12:40:56 | 41.10342 | 2.40214 | 138° | 47km/h | 10079m | -11.6m/s | 0°C | 0% | 0hPa | 0V | 00:00:00 | 00:00:00 | 00:00:00 | |
| EA3GEO | 2026-09-03 12:40:50 | 41.10392 | 2.40146 | 132° | 51km/h | 10156m | -9.4m/s | 0°C | 0% | 0hPa | 0V | 00:00:00 | 00:00:00 | 00:00:00 | |
| EA3GEO | 2026-09-03 12:40:45 | 41.10435 | 2.40087 | 135° | 47km/h | 10214m | -12.9m/s | 0°C | 0% | 0hPa | 0V | 00:00:00 | 00:00:00 | 00:00:00 | |
| EA3GEO | 2026-09-03 12:40:40 | 41.10476 | 2.40029 | 131° | 49km/h | 10279m | -11.8m/s | 0°C | 0% | 0hPa | 0V | 00:00:00 | 00:00:00 | 00:00:00 | |
| EA3GEO | 2026-09-03 12:40:34 | 41.10524 | 2.39958 | 135° | 47km/h | 10358m | -11.1m/s | 0°C | 0% | 0hPa | 0V | 00:00:00 | 00:00:00 | 00:00:00 | |
| EA3GEO | 2026-09-03 12:40:29 | 41.10569 | 2.39901 | 135° | 46km/h | 10419m | -12.7m/s | 0°C | 0% | 0hPa | 0V | 00:00:00 | 00:00:00 | 00:00:00 | |
| EA3GEO | 2026-09-03 12:40:24 | 41.10612 | 2.39851 | 139° | 47km/h | 10483m | -11.9m/s | 0°C | 0% | 0hPa | 0V | 00:00:00 | 00:00:00 | 00:00:00 | |
| EA3GEO | 2026-09-03 12:40:18 | 41.10670 | 2.39790 | 144° | 47km/h | 10560m | -12.6m/s | 0°C | 0% | 0hPa | 0V | 00:00:00 | 00:00:00 | 00:00:00 | |
| EA3GEO | 2026-09-03 12:40:12 | 41.10729 | 2.39740 | 146° | 46km/h | 10638m | -13.3m/s | 0°C | 0% | 0hPa | 0V | 00:00:00 | 00:00:00 | 00:00:00 | |
| EA3GEO | 2026-09-03 12:40:06 | 41.10789 | 2.39695 | 154° | 47km/h | 10715m | -12.5m/s | 0°C | 0% | 0hPa | 0V | 00:00:00 | 00:00:00 | 00:00:00 | |
| EA3GEO | 2026-09-03 12:40:01 | 41.10840 | 2.39655 | 150° | 49km/h | 10784m | -13.3m/s | 0°C | 0% | 0hPa | 0V | 00:00:00 | 00:00:00 | 00:00:00 | |
| EA3GEO | 2026-09-03 12:39:55 | 41.10899 | 2.39609 | 149° | 47km/h | 10865m | -10.5m/s | 0°C | 0% | 0hPa | 0V | 00:00:00 | 00:00:00 | 00:00:00 | |
| EA3GEO | 2026-09-03 12:39:49 | 41.10961 | 2.39563 | 151° | 47km/h | 10945m | -13.6m/s | 0°C | 0% | 0hPa | 0V | 00:00:00 | 00:00:00 | 00:00:00 | |
| EA3GEO | 2026-09-03 12:39:44 | 41.11012 | 2.39528 | 152° | 47km/h | 11010m | -12.7m/s | 0°C | 0% | 0hPa | 0V | 00:00:00 | 00:00:00 | 00:00:00 | |
| EA3GEO | 2026-09-03 12:39:38 | 41.11074 | 2.39490 | 156° | 47km/h | 11094m | -11.3m/s | 0°C | 0% | 0hPa | 0V | 00:00:00 | 00:00:00 | 00:00:00 | |
| EA3GEO | 2026-09-03 12:39:33 | 41.11128 | 2.39458 | 159° | 49km/h | 11163m | -13.8m/s | 0°C | 0% | 0hPa | 0V | 00:00:00 | 00:00:00 | 00:00:00 | |
| EA3GEO | 2026-09-03 12:39:28 | 41.11186 | 2.39430 | 158° | 47km/h | 11231m | -12.1m/s | 0°C | 0% | 0hPa | 0V | 00:00:00 | 00:00:00 | 00:00:00 | |
| EA3GEO | 2026-09-03 12:39:22 | 41.11253 | 2.39393 | 162° | 46km/h | 11316m | -13.5m/s | 0°C | 0% | 0hPa | 0V | 00:00:00 | 00:00:00 | 00:00:00 | |
| EA3GEO | 2026-09-03 12:39:17 | 41.11308 | 2.39368 | 162° | 46km/h | 11387m | -13.5m/s | 0°C | 0% | 0hPa | 0V | 00:00:00 | 00:00:00 | 00:00:00 | |
| EA3GEO | 2026-09-03 12:39:11 | 41.11379 | 2.39336 | 166° | 49km/h | 11474m | -13.5m/s | 0°C | 0% | 0hPa | 0V | 00:00:00 | 00:00:00 | 00:00:00 | |
| EA3GEO | 2026-09-03 12:39:06 | 41.11439 | 2.39312 | 163° | 49km/h | 11551m | -17.0m/s | 0°C | 0% | 0hPa | 0V | 00:00:00 | 00:00:00 | 00:00:00 | |
| EA3GEO | 2026-09-03 12:38:55 | 41.11572 | 2.39264 | 166° | 47km/h | 11724m | -15.4m/s | 0°C | 0% | 0hPa | 0V | 00:00:00 | 00:00:00 | 00:00:00 | |
| EA3GEO | 2026-09-03 12:38:49 | 41.11647 | 2.39237 | 167° | 49km/h | 11814m | -13.5m/s | 0°C | 0% | 0hPa | 0V | 00:00:00 | 00:00:00 | 00:00:00 | |
| EA3GEO | 2026-09-03 12:38:44 | 41.11707 | 2.39216 | 165° | 49km/h | 11894m | -15.5m/s | 0°C | 0% | 0hPa | 0V | 00:00:00 | 00:00:00 | 00:00:00 | |
| EA3GEO | 2026-09-03 12:38:39 | 41.11769 | 2.39196 | 170° | 53km/h | 11976m | -15.3m/s | 0°C | 0% | 0hPa | 0V | 00:00:00 | 00:00:00 | 00:00:00 | |
| EA3GEO | 2026-09-03 12:38:33 | 41.11851 | 2.39179 | 173° | 53km/h | 12075m | -17.1m/s | 0°C | 0% | 0hPa | 0V | 00:00:00 | 00:00:00 | 00:00:00 | |
| EA3GEO | 2026-09-03 12:38:26 | 41.11946 | 2.39164 | 178° | 55km/h | 12198m | -16.8m/s | 0°C | 0% | 0hPa | 0V | 00:00:00 | 00:00:00 | 00:00:00 | |
| EA3GEO | 2026-09-03 12:38:18 | 41.12058 | 2.39151 | 176° | 55km/h | 12335m | -14.5m/s | 0°C | 0% | 0hPa | 0V | 00:00:00 | 00:00:00 | 00:00:00 | |
| EA3GEO | 2026-09-03 12:38:12 | 41.12140 | 2.39143 | 176° | 57km/h | 12441m | -17.4m/s | 0°C | 0% | 0hPa | 0V | 00:00:00 | 00:00:00 | 00:00:00 | |
| EA3GEO | 2026-09-03 12:38:05 | 41.12228 | 2.39131 | 171° | 47km/h | 12567m | -16.9m/s | 0°C | 0% | 0hPa | 0V | 00:00:00 | 00:00:00 | 00:00:00 | |
| EA3GEO | 2026-09-03 12:38:00 | 41.12288 | 2.39117 | 165° | 49km/h | 12659m | -17.8m/s | 0°C | 0% | 0hPa | 0V | 00:00:00 | 00:00:00 | 00:00:00 | |
| EA3GEO | 2026-09-03 12:37:54 | 41.12364 | 2.39092 | 166° | 55km/h | 12767m | -16.1m/s | 0°C | 0% | 0hPa | 0V | 00:00:00 | 00:00:00 | 00:00:00 | |
| EA3GEO | 2026-09-03 12:37:47 | 41.12456 | 2.39062 | 170° | 51km/h | 12889m | -17.3m/s | 0°C | 0% | 0hPa | 0V | 00:00:00 | 00:00:00 | 00:00:00 | |
| EA3GEO | 2026-09-03 12:37:41 | 41.12530 | 2.39041 | 173° | 51km/h | 12998m | -17.9m/s | 0°C | 0% | 0hPa | 0V | 00:00:00 | 00:00:00 | 00:00:00 | |
| EA3GEO | 2026-09-03 12:37:35 | 41.12606 | 2.39018 | 164° | 49km/h | 13111m | -17.6m/s | 0°C | 0% | 0hPa | 0V | 00:00:00 | 00:00:00 | 00:00:00 | |
| EA3GEO | 2026-09-03 12:37:29 | 41.12675 | 2.38987 | 161° | 46km/h | 13230m | -17.3m/s | 0°C | 0% | 0hPa | 0V | 00:00:00 | 00:00:00 | 00:00:00 | |
| EA3GEO | 2026-09-03 12:37:24 | 41.12729 | 2.38957 | 154° | 47km/h | 13327m | -18.0m/s | 0°C | 0% | 0hPa | 0V | 00:00:00 | 00:00:00 | 00:00:00 | |
| EA3GEO | 2026-09-03 12:37:13 | 41.12841 | 2.38895 | 159° | 44km/h | 13539m | -18.4m/s | 0°C | 0% | 0hPa | 0V | 00:00:00 | 00:00:00 | 00:00:00 | |
| EA3GEO | 2026-09-03 12:37:07 | 41.12899 | 2.38863 | 158° | 40km/h | 13658m | -20.6m/s | 0°C | 0% | 0hPa | 0V | 00:00:00 | 00:00:00 | 00:00:00 | |
| EA3GEO | 2026-09-03 12:36:56 | 41.12997 | 2.38779 | 149° | 37km/h | 13881m | -20.1m/s | 0°C | 0% | 0hPa | 0V | 00:00:00 | 00:00:00 | 00:00:00 | |
| EA3GEO | 2026-09-03 12:36:51 | 41.13042 | 2.38736 | 149° | 47km/h | 13983m | -18.8m/s | 0°C | 0% | 0hPa | 0V | 00:00:00 | 00:00:00 | 00:00:00 | |
| EA3GEO | 2026-09-03 12:36:46 | 41.13100 | 2.38688 | 152° | 44km/h | 14102m | -18.7m/s | 0°C | 0% | 0hPa | 0V | 00:00:00 | 00:00:00 | 00:00:00 | |
| EA3GEO | 2026-09-03 12:36:39 | 41.13155 | 2.38641 | 144° | 37km/h | 14222m | -21.0m/s | 0°C | 0% | 0hPa | 0V | 00:00:00 | 00:00:00 | 00:00:00 | |
| EA3GEO | 2026-09-03 12:36:33 | 41.13198 | 2.38600 | 142° | 37km/h | 14343m | -17.7m/s | 0°C | 0% | 0hPa | 0V | 00:00:00 | 00:00:00 | 00:00:00 | |
| EA3GEO | 2026-09-03 12:36:28 | 41.13235 | 2.38552 | 133° | 42km/h | 14440m | -19.9m/s | 0°C | 0% | 0hPa | 0V | 00:00:00 | 00:00:00 | 00:00:00 | |
| EA3GEO | 2026-09-03 12:36:20 | 41.13301 | 2.38463 | 137° | 42km/h | 14607m | -20.4m/s | 0°C | 0% | 0hPa | 0V | 00:00:00 | 00:00:00 | 00:00:00 | |
| EA3GEO | 2026-09-03 12:36:14 | 41.13347 | 2.38401 | 140° | 42km/h | 14736m | -20.6m/s | 0°C | 0% | 0hPa | 0V | 00:00:00 | 00:00:00 | 00:00:00 | |
| EA3GEO | 2026-09-03 12:36:07 | 41.13397 | 2.38329 | 131° | 40km/h | 14894m | -21.7m/s | 0°C | 0% | 0hPa | 0V | 00:00:00 | 00:00:00 | 00:00:00 | |
| EA3GEO | 2026-09-03 12:36:02 | 41.13432 | 2.38280 | 137° | 38km/h | 15004m | -21.3m/s | 0°C | 0% | 0hPa | 0V | 00:00:00 | 00:00:00 | 00:00:00 | |
| EA3GEO | 2026-09-03 12:35:56 | 41.13478 | 2.38224 | 142° | 40km/h | 15140m | -20.8m/s | 0°C | 0% | 0hPa | 0V | 00:00:00 | 00:00:00 | 00:00:00 | |
| EA3GEO | 2026-09-03 12:35:50 | 41.13524 | 2.38176 | 139° | 33km/h | 15272m | -21.9m/s | 0°C | 0% | 0hPa | 0V | 00:00:00 | 00:00:00 | 00:00:00 | |
| EA3GEO | 2026-09-03 12:35:45 | 41.13551 | 2.38131 | 120° | 33km/h | 15386m | -20.5m/s | 0°C | 0% | 0hPa | 0V | 00:00:00 | 00:00:00 | 00:00:00 | |
| EA3GEO | 2026-09-03 12:35:39 | 41.13573 | 2.38059 | 109° | 42km/h | 15524m | -22.4m/s | 0°C | 0% | 0hPa | 0V | 00:00:00 | 00:00:00 | 00:00:00 | |
| EA3GEO | 2026-09-03 12:35:33 | 41.13600 | 2.37980 | 125° | 47km/h | 15663m | -22.6m/s | 0°C | 0% | 0hPa | 0V | 00:00:00 | 00:00:00 | 00:00:00 | |
| EA3GEO | 2026-09-03 12:35:23 | 41.13682 | 2.37835 | 132° | 47km/h | 15890m | -21.4m/s | 0°C | 0% | 0hPa | 0V | 00:00:00 | 00:00:00 | 00:00:00 | |
| EA3GEO | 2026-09-03 12:35:17 | 41.13728 | 2.37766 | 134° | 47km/h | 16028m | -24.6m/s | 0°C | 0% | 0hPa | 0V | 00:00:00 | 00:00:00 | 00:00:00 | |
| EA3GEO | 2026-09-03 12:35:12 | 41.13766 | 2.37705 | 130° | 44km/h | 16153m | -23.0m/s | 0°C | 0% | 0hPa | 0V | 00:00:00 | 00:00:00 | 00:00:00 | |
| EA3GEO | 2026-09-03 12:35:06 | 41.13805 | 2.37649 | 130° | 35km/h | 16298m | -24.0m/s | 0°C | 0% | 0hPa | 0V | 00:00:00 | 00:00:00 | 00:00:00 | |
| EA3GEO | 2026-09-03 12:34:56 | 41.13849 | 2.37564 | 111° | 31km/h | 16529m | -18.7m/s | 0°C | 0% | 0hPa | 0V | 00:00:00 | 00:00:00 | 00:00:00 | |
| EA3GEO | 2026-09-03 12:34:51 | 41.13862 | 2.37519 | 112° | 31km/h | 16631m | -18.8m/s | 0°C | 0% | 0hPa | 0V | 00:00:00 | 00:00:00 | 00:00:00 | |
| EA3GEO | 2026-09-03 12:34:45 | 41.13878 | 2.37465 | 102° | 33km/h | 16761m | -23.1m/s | 0°C | 0% | 0hPa | 0V | 00:00:00 | 00:00:00 | 00:00:00 | |
| EA3GEO | 2026-09-03 12:34:38 | 41.13894 | 2.37384 | 109° | 40km/h | 16919m | -21.5m/s | 0°C | 0% | 0hPa | 0V | 00:00:00 | 00:00:00 | 00:00:00 | |
| EA3GEO | 2026-09-03 12:34:32 | 41.13919 | 2.37307 | 124° | 44km/h | 17050m | -20.3m/s | 0°C | 0% | 0hPa | 0V | 00:00:00 | 00:00:00 | 00:00:00 | |
| EA3GEO | 2026-09-03 12:34:13 | 41.14044 | 2.37127 | 143° | 37km/h | 17464m | -21.3m/s | 0°C | 0% | 0hPa | 0V | 00:00:00 | 00:00:00 | 00:00:00 | |
| EA3GEO | 2026-09-03 12:34:05 | 41.14096 | 2.37080 | 149° | 27km/h | 17653m | -23.5m/s | 0°C | 0% | 0hPa | 0V | 00:00:00 | 00:00:00 | 00:00:00 | |
| EA3GEO | 2026-09-03 12:34:00 | 41.14125 | 2.37057 | 154° | 26km/h | 17774m | -24.4m/s | 0°C | 0% | 0hPa | 0V | 00:00:00 | 00:00:00 | 00:00:00 | |
| EA3GEO | 2026-09-03 12:33:53 | 41.14162 | 2.37030 | 155° | 24km/h | 17957m | -23.9m/s | 0°C | 0% | 0hPa | 0V | 00:00:00 | 00:00:00 | 00:00:00 | |
| EA3GEO | 2026-09-03 12:33:39 | 41.14227 | 2.36996 | 157° | 15km/h | 18284m | -20.4m/s | 0°C | 0% | 0hPa | 0V | 00:00:00 | 00:00:00 | 00:00:00 | |
| EA3GEO | 2026-09-03 12:33:30 | 41.14243 | 2.37009 | 261° | 9km/h | 18461m | -20.1m/s | 0°C | 0% | 0hPa | 0V | 00:00:00 | 00:00:00 | 00:00:00 | |
| EA3GEO | 2026-09-03 12:33:21 | 41.14249 | 2.37023 | 133° | 4km/h | 18674m | -20.2m/s | 0°C | 0% | 0hPa | 0V | 00:00:00 | 00:00:00 | 00:00:00 | |
| EA3GEO | 2026-09-03 12:33:12 | 41.14273 | 2.37006 | 148° | 18km/h | 18863m | -21.3m/s | 0°C | 0% | 0hPa | 0V | 00:00:00 | 00:00:00 | 00:00:00 | |
| EA3GEO | 2026-09-03 12:33:05 | 41.14303 | 2.36979 | 135° | 27km/h | 19015m | -20.0m/s | 0°C | 0% | 0hPa | 0V | 00:00:00 | 00:00:00 | 00:00:00 | |
| EA3GEO | 2026-09-03 12:32:59 | 41.14326 | 2.36936 | 122° | 35km/h | 19155m | -20.6m/s | 0°C | 0% | 0hPa | 0V | 00:00:00 | 00:00:00 | 00:00:00 | |
| EA3GEO | 2026-09-03 12:32:48 | 41.14392 | 2.36836 | 143° | 33km/h | 19376m | -19.5m/s | 0°C | 0% | 0hPa | 0V | 00:00:00 | 00:00:00 | 00:00:00 | |
| EA3GEO | 2026-09-03 12:32:41 | 41.14438 | 2.36815 | 178° | 24km/h | 19529m | -19.5m/s | 0°C | 0% | 0hPa | 0V | 00:00:00 | 00:00:00 | 00:00:00 | |
| EA3GEO | 2026-09-03 12:32:35 | 41.14469 | 2.36826 | 204° | 18km/h | 19660m | -19.4m/s | 0°C | 0% | 0hPa | 0V | 00:00:00 | 00:00:00 | 00:00:00 | |
| EA3GEO | 2026-09-03 12:32:30 | 41.14487 | 2.36845 | 237° | 15km/h | 19766m | -19.6m/s | 0°C | 0% | 0hPa | 0V | 00:00:00 | 00:00:00 | 00:00:00 | |
| EA3GEO | 2026-09-03 12:32:22 | 41.14483 | 2.36884 | 311° | 16km/h | 19927m | -21.0m/s | 0°C | 0% | 0hPa | 0V | 00:00:00 | 00:00:00 | 00:00:00 | |
| EA3GEO | 2026-09-03 12:32:15 | 41.14480 | 2.36899 | 211° | 9km/h | 20088m | -20.9m/s | 0°C | 0% | 0hPa | 0V | 00:00:00 | 00:00:00 | 00:00:00 | |
| EA3IBE | 2026-09-03 12:32:07 | 41.14486 | 2.36913 | 314° | 11km/h | 20262m | -19.2m/s | 0°C | 0% | 0hPa | 0V | 00:00:00 | 00:00:00 | 00:00:00 | |
| EA3GEO | 2026-09-03 12:32:01 | 41.14474 | 2.36918 | 3° | 13km/h | 20393m | -20.4m/s | 0°C | 0% | 0hPa | 0V | 00:00:00 | 00:00:00 | 00:00:00 | |
| EA3GEO | 2026-09-03 12:31:51 | 41.14434 | 2.36925 | 353° | 18km/h | 20617m | -21.0m/s | 0°C | 0% | 0hPa | 0V | 00:00:00 | 00:00:00 | 00:00:00 | |
| EA3GEO | 2026-09-03 12:31:46 | 41.14414 | 2.36930 | 326° | 13km/h | 20717m | -20.2m/s | 0°C | 0% | 0hPa | 0V | 00:00:00 | 00:00:00 | 00:00:00 | |
| EA3GEO | 2026-09-03 12:31:40 | 41.14397 | 2.36946 | 322° | 9km/h | 20844m | -20.9m/s | 0°C | 0% | 0hPa | 0V | 00:00:00 | 00:00:00 | 00:00:00 | |
| EA3IBE | 2026-09-03 12:31:35 | 41.14388 | 2.36940 | 75° | 9km/h | 20967m | -17.1m/s | 0°C | 0% | 0hPa | 0V | 00:00:00 | 00:00:00 | 00:00:00 | |
| EA3GEO | 2026-09-03 12:31:34 | 41.14388 | 2.36940 | 75° | 9km/h | 20967m | -17.1m/s | 0°C | 0% | 0hPa | 0V | 00:00:00 | 00:00:00 | 00:00:00 | |
| EA3IBE | 2026-09-03 12:31:26 | 41.14370 | 2.36937 | 355° | 15km/h | 21137m | -18.1m/s | 0°C | 0% | 0hPa | 0V | 00:00:00 | 00:00:00 | 00:00:00 | |
| EA3GEO | 2026-09-03 12:31:16 | 41.14358 | 2.36945 | 347° | 5km/h | 21344m | -19.8m/s | 0°C | 0% | 0hPa | 0V | 00:00:00 | 00:00:00 | 00:00:00 | |
| EA3GEO | 2026-09-03 12:31:00 | 41.14328 | 2.36951 | 117° | 9km/h | 21692m | -20.9m/s | 0°C | 0% | 0hPa | 0V | 00:00:00 | 00:00:00 | 00:00:00 | |
| EA3IBE | 2026-09-03 12:30:58 | 41.14330 | 2.36947 | 141° | 9km/h | 21734m | -19.6m/s | 0°C | 0% | 0hPa | 0V | 00:00:00 | 00:00:00 | 00:00:00 | |
| EA3GEO | 2026-09-03 12:30:54 | 41.14338 | 2.36949 | 240° | 13km/h | 21823m | -22.8m/s | 0°C | 0% | 0hPa | 0V | 00:00:00 | 00:00:00 | 00:00:00 | |
| EA3IBE | 2026-09-03 12:30:52 | 41.14340 | 2.36957 | 250° | 13km/h | 21869m | -21.9m/s | 0°C | 0% | 0hPa | 0V | 00:00:00 | 00:00:00 | 00:00:00 | |
| EA3GEO | 2026-09-03 12:30:48 | 41.14345 | 2.36977 | 240° | 11km/h | 21957m | -20.9m/s | 0°C | 0% | 0hPa | 0V | 00:00:00 | 00:00:00 | 00:00:00 | |
| EA3IBE | 2026-09-03 12:30:35 | 41.14334 | 2.37004 | 354° | 16km/h | 22242m | -21.4m/s | 0°C | 0% | 0hPa | 0V | 00:00:00 | 00:00:00 | 00:00:00 | |
| EA3IBE | 2026-09-03 12:30:24 | 41.14317 | 2.37005 | 223° | 5km/h | 22469m | -24.5m/s | 0°C | 0% | 0hPa | 0V | 00:00:00 | 00:00:00 | 00:00:00 | |
| EA3GEO | 2026-09-03 12:30:21 | 41.14319 | 2.37010 | 267° | 5km/h | 22543m | -21.2m/s | 0°C | 0% | 0hPa | 0V | 00:00:00 | 00:00:00 | 00:00:00 | |
| EA3GEO | 2026-09-03 12:30:15 | 41.14315 | 2.37007 | 39° | 11km/h | 22683m | -22.6m/s | 0°C | 0% | 0hPa | 0V | 00:00:00 | 00:00:00 | 00:00:00 | |
| EA3IBE | 2026-09-03 12:30:04 | 41.14328 | 2.37000 | 175° | 11km/h | 22936m | -18.4m/s | 0°C | 0% | 0hPa | 0V | 00:00:00 | 00:00:00 | 00:00:00 | |
| EA3IBE | 2026-09-03 12:29:58 | 41.14355 | 2.37018 | 227° | 22km/h | 23066m | -22.7m/s | 0°C | 0% | 0hPa | 0V | 00:00:00 | 00:00:00 | 00:00:00 | |
| EA3IBE | 2026-09-03 12:29:33 | 41.14308 | 2.37192 | 353° | 16km/h | 23623m | -23.0m/s | 0°C | 0% | 0hPa | 0V | 00:00:00 | 00:00:00 | 00:00:00 | |
| EA3GEO | 2026-09-03 12:29:31 | 41.14301 | 2.37194 | 10° | 9km/h | 23673m | -24.4m/s | 0°C | 0% | 0hPa | 0V | 00:00:00 | 00:00:00 | 00:00:00 | |
| EA3GEO | 2026-09-03 12:29:23 | 41.14297 | 2.37195 | 181° | 2km/h | 23857m | -19.3m/s | 0°C | 0% | 0hPa | 0V | 00:00:00 | 00:00:00 | 00:00:00 | |
| EA3IBE | 2026-09-03 12:29:18 | 41.14295 | 2.37199 | 0° | 0km/h | 23999m | -22.8m/s | 0°C | 0% | 0hPa | 0V | 00:00:00 | 00:00:00 | 00:00:00 | |
| EA3GEO | 2026-09-03 12:29:15 | 41.14296 | 2.37201 | 192° | 4km/h | 24047m | -24.3m/s | 0°C | 0% | 0hPa | 0V | 00:00:00 | 00:00:00 | 00:00:00 | |
| EA3GEO | 2026-09-03 12:29:05 | 41.14314 | 2.37231 | 274° | 15km/h | 24275m | -27.8m/s | 0°C | 0% | 0hPa | 0V | 00:00:00 | 00:00:00 | 00:00:00 | |
| EA3GEO | 2026-09-03 12:29:00 | 41.14310 | 2.37251 | 330° | 13km/h | 24396m | -21.8m/s | 0°C | 0% | 0hPa | 0V | 00:00:00 | 00:00:00 | 00:00:00 | |
| EA3GEO | 2026-09-03 12:28:54 | 41.14288 | 2.37248 | 39° | 15km/h | 24533m | -17.8m/s | 0°C | 0% | 0hPa | 0V | 00:00:00 | 00:00:00 | 00:00:00 | |
| EA3GEO | 2026-09-03 12:28:48 | 41.14280 | 2.37239 | 341° | 2km/h | 24666m | -24.1m/s | 0°C | 0% | 0hPa | 0V | 00:00:00 | 00:00:00 | 00:00:00 | |
| EA3IBE | 2026-09-03 12:28:44 | 41.14280 | 2.37242 | 232° | 4km/h | 24761m | -23.9m/s | 0°C | 0% | 0hPa | 0V | 00:00:00 | 00:00:00 | 00:00:00 | |
| EA3GEO | 2026-09-03 12:28:43 | 41.14280 | 2.37244 | 237° | 4km/h | 24808m | -22.8m/s | 0°C | 0% | 0hPa | 0V | 00:00:00 | 00:00:00 | 00:00:00 | |
| EA3GEO | 2026-09-03 12:28:37 | 41.14277 | 2.37252 | 320° | 9km/h | 24914m | -21.1m/s | 0°C | 0% | 0hPa | 0V | 00:00:00 | 00:00:00 | 00:00:00 | |
| EA3GEO | 2026-09-03 12:28:24 | 41.14271 | 2.37243 | 152° | 4km/h | 25227m | -17.7m/s | 0°C | 0% | 0hPa | 0V | 00:00:00 | 00:00:00 | 00:00:00 | |
| EA3GEO | 2026-09-03 12:28:18 | 41.14279 | 2.37245 | 245° | 13km/h | 25354m | -24.1m/s | 0°C | 0% | 0hPa | 0V | 00:00:00 | 00:00:00 | 00:00:00 | |
| EA3GEO | 2026-09-03 12:28:12 | 41.14273 | 2.37277 | 310° | 16km/h | 25500m | -22.7m/s | 0°C | 0% | 0hPa | 0V | 00:00:00 | 00:00:00 | 00:00:00 | |
| EA3GEO | 2026-09-03 12:28:07 | 41.14260 | 2.37303 | 290° | 31km/h | 25610m | -21.7m/s | 0°C | 0% | 0hPa | 0V | 00:00:00 | 00:00:00 | 00:00:00 | |
| EA3IBE | 2026-09-03 12:27:59 | 41.14217 | 2.37344 | 67° | 38km/h | 25790m | -19.9m/s | 0°C | 0% | 0hPa | 0V | 00:00:00 | 00:00:00 | 00:00:00 | |
| EA3GEO | 2026-09-03 12:27:57 | 41.14212 | 2.37325 | 63° | 13km/h | 25845m | -34.0m/s | 0°C | 0% | 0hPa | 0V | 00:00:00 | 00:00:00 | 00:00:00 | |
| EA3IBE | 2026-09-03 12:27:52 | 41.14207 | 2.37320 | 291° | 5km/h | 25947m | -1.5m/s | 0°C | 0% | 0hPa | 0V | 00:00:00 | 00:00:00 | 00:00:00 | |
| EA3GEO | 2026-09-03 12:27:51 | 41.14206 | 2.37322 | 296° | 5km/h | 25943m | 6.7m/s | 0°C | 0% | 0hPa | 0V | 00:00:00 | 00:00:00 | 00:00:00 | |
| EA3IBE | 2026-09-03 12:27:43 | 41.14181 | 2.37317 | 21° | 15km/h | 25906m | 4.8m/s | 0°C | 0% | 0hPa | 0V | 00:00:00 | 00:00:00 | 00:00:00 | |
| EA3GEO | 2026-09-03 12:27:42 | 41.14177 | 2.37315 | 17° | 16km/h | 25901m | 4.9m/s | 0°C | 0% | 0hPa | 0V | 00:00:00 | 00:00:00 | 00:00:00 | |
| EA3IBE | 2026-09-03 12:27:38 | 41.14154 | 2.37312 | 349° | 20km/h | 25880m | 7.1m/s | 0°C | 0% | 0hPa | 0V | 00:00:00 | 00:00:00 | 00:00:00 | |
| EA3GEO | 2026-09-03 12:27:35 | 41.14143 | 2.37321 | 334° | 22km/h | 25863m | 6.3m/s | 0°C | 0% | 0hPa | 0V | 00:00:00 | 00:00:00 | 00:00:00 | |
| EA3GEO | 2026-09-03 12:27:30 | 41.14110 | 2.37329 | 349° | 26km/h | 25828m | 6.4m/s | 0°C | 0% | 0hPa | 0V | 00:00:00 | 00:00:00 | 00:00:00 | |
| EA3IBE | 2026-09-03 12:27:24 | 41.14083 | 2.37352 | 322° | 24km/h | 25802m | 4.4m/s | 0°C | 0% | 0hPa | 0V | 00:00:00 | 00:00:00 | 00:00:00 | |
| EA3GEO | 2026-09-03 12:27:22 | 41.14071 | 2.37359 | 349° | 31km/h | 25790m | 5.3m/s | 0°C | 0% | 0hPa | 0V | 00:00:00 | 00:00:00 | 00:00:00 | |
| EA3IBE | 2026-09-03 12:27:19 | 41.14051 | 2.37366 | 327° | 22km/h | 25774m | 5.8m/s | 0°C | 0% | 0hPa | 0V | 00:00:00 | 00:00:00 | 00:00:00 | |
| EA3GEO | 2026-09-03 12:27:16 | 41.14036 | 2.37386 | 315° | 38km/h | 25757m | 5.1m/s | 0°C | 0% | 0hPa | 0V | 00:00:00 | 00:00:00 | 00:00:00 | |
| EA3GEO | 2026-09-03 12:27:11 | 41.14011 | 2.37427 | 329° | 24km/h | 25731m | 6.7m/s | 0°C | 0% | 0hPa | 0V | 00:00:00 | 00:00:00 | 00:00:00 | |
| EA3IBE | 2026-09-03 12:27:05 | 41.13981 | 2.37460 | 293° | 37km/h | 25698m | 5.9m/s | 0°C | 0% | 0hPa | 0V | 00:00:00 | 00:00:00 | 00:00:00 | |
| EA3GEO | 2026-09-03 12:27:00 | 41.13963 | 2.37504 | 281° | 16km/h | 25671m | 5.0m/s | 0°C | 0% | 0hPa | 0V | 00:00:00 | 00:00:00 | 00:00:00 | |
| EA3IBE | 2026-09-03 12:26:59 | 41.13962 | 2.37508 | 285° | 15km/h | 25667m | 3.2m/s | 0°C | 0% | 0hPa | 0V | 00:00:00 | 00:00:00 | 00:00:00 | |
| EA3GEO | 2026-09-03 12:26:53 | 41.13939 | 2.37551 | 277° | 29km/h | 25636m | 6.1m/s | 0°C | 0% | 0hPa | 0V | 00:00:00 | 00:00:00 | 00:00:00 | |
| EA3IBE | 2026-09-03 12:26:51 | 41.13938 | 2.37568 | 278° | 24km/h | 25625m | 6.0m/s | 0°C | 0% | 0hPa | 0V | 00:00:00 | 00:00:00 | 00:00:00 | |
| EA3GEO | 2026-09-03 12:26:48 | 41.13930 | 2.37585 | 323° | 18km/h | 25607m | 6.1m/s | 0°C | 0% | 0hPa | 0V | 00:00:00 | 00:00:00 | 00:00:00 | |
| EA3IBE | 2026-09-03 12:26:45 | 41.13922 | 2.37597 | 306° | 20km/h | 25592m | 5.6m/s | 0°C | 0% | 0hPa | 0V | 00:00:00 | 00:00:00 | 00:00:00 | |
| EA3GEO | 2026-09-03 12:26:43 | 41.13916 | 2.37610 | 302° | 27km/h | 25581m | 4.1m/s | 0°C | 0% | 0hPa | 0V | 00:00:00 | 00:00:00 | 00:00:00 | |
| EA3IBE | 2026-09-03 12:26:39 | 41.13913 | 2.37638 | 267° | 18km/h | 25560m | 4.7m/s | 0°C | 0% | 0hPa | 0V | 00:00:00 | 00:00:00 | 00:00:00 | |
| EA3GEO | 2026-09-03 12:26:37 | 41.13910 | 2.37651 | 310° | 24km/h | 25549m | 5.4m/s | 0°C | 0% | 0hPa | 0V | 00:00:00 | 00:00:00 | 00:00:00 | |
| EA3IBE | 2026-09-03 12:26:34 | 41.13899 | 2.37668 | 281° | 13km/h | 25526m | 4.4m/s | 0°C | 0% | 0hPa | 0V | 00:00:00 | 00:00:00 | 00:00:00 | |
| EA3GEO | 2026-09-03 12:26:31 | 41.13897 | 2.37679 | 291° | 22km/h | 25516m | 5.5m/s | 0°C | 0% | 0hPa | 0V | 00:00:00 | 00:00:00 | 00:00:00 | |
| EA3IBE | 2026-09-03 12:26:28 | 41.13894 | 2.37697 | 254° | 13km/h | 25501m | 6.4m/s | 0°C | 0% | 0hPa | 0V | 00:00:00 | 00:00:00 | 00:00:00 | |
| EA3GEO | 2026-09-03 12:26:26 | 41.13897 | 2.37704 | 247° | 13km/h | 25490m | 5.1m/s | 0°C | 0% | 0hPa | 0V | 00:00:00 | 00:00:00 | 00:00:00 | |
| EA3IBE | 2026-09-03 12:26:22 | 41.13893 | 2.37725 | 277° | 13km/h | 25468m | 6.3m/s | 0°C | 0% | 0hPa | 0V | 00:00:00 | 00:00:00 | 00:00:00 | |
| EA3GEO | 2026-09-03 12:26:20 | 41.13895 | 2.37733 | 248° | 13km/h | 25458m | 5.8m/s | 0°C | 0% | 0hPa | 0V | 00:00:00 | 00:00:00 | 00:00:00 | |
| EA3IBE | 2026-09-03 12:26:17 | 41.13899 | 2.37745 | 223° | 15km/h | 25442m | 7.0m/s | 0°C | 0% | 0hPa | 0V | 00:00:00 | 00:00:00 | 00:00:00 | |
| EA3GEO | 2026-09-03 12:26:14 | 41.13905 | 2.37753 | 263° | 9km/h | 25425m | 6.0m/s | 0°C | 0% | 0hPa | 0V | 00:00:00 | 00:00:00 | 00:00:00 | |
| EA3IBE | 2026-09-03 12:26:10 | 41.13904 | 2.37761 | 249° | 4km/h | 25403m | 4.2m/s | 0°C | 0% | 0hPa | 0V | 00:00:00 | 00:00:00 | 00:00:00 | |
| EA3GEO | 2026-09-03 12:26:08 | 41.13904 | 2.37765 | 280° | 9km/h | 25393m | 4.9m/s | 0°C | 0% | 0hPa | 0V | 00:00:00 | 00:00:00 | 00:00:00 | |
| EA3GEO | 2026-09-03 12:26:03 | 41.13916 | 2.37775 | 207° | 7km/h | 25367m | 5.6m/s | 0°C | 0% | 0hPa | 0V | 00:00:00 | 00:00:00 | 00:00:00 | |
| EA3GEO | 2026-09-03 12:25:58 | 41.13911 | 2.37779 | 156° | 2km/h | 25338m | 4.8m/s | 0°C | 0% | 0hPa | 0V | 00:00:00 | 00:00:00 | 00:00:00 | |
| EA3GEO | 2026-09-03 12:25:52 | 41.13927 | 2.37780 | 161° | 11km/h | 25306m | 3.8m/s | 0°C | 0% | 0hPa | 0V | 00:00:00 | 00:00:00 | 00:00:00 | |
| EA3GEO | 2026-09-03 12:25:46 | 41.13927 | 2.37776 | 168° | 15km/h | 25273m | 4.3m/s | 0°C | 0% | 0hPa | 0V | 00:00:00 | 00:00:00 | 00:00:00 | |
| EA3IBE | 2026-09-03 12:25:45 | 41.13931 | 2.37775 | 178° | 16km/h | 25269m | 5.8m/s | 0°C | 0% | 0hPa | 0V | 00:00:00 | 00:00:00 | 00:00:00 | |
| EA3IBE | 2026-09-03 12:25:40 | 41.13939 | 2.37770 | 102° | 11km/h | 25240m | 5.3m/s | 0°C | 0% | 0hPa | 0V | 00:00:00 | 00:00:00 | 00:00:00 | |
| EA3IBE | 2026-09-03 12:25:34 | 41.13941 | 2.37763 | 174° | 15km/h | 25205m | 4.7m/s | 0°C | 0% | 0hPa | 0V | 00:00:00 | 00:00:00 | 00:00:00 | |
| EA3GEO | 2026-09-03 12:25:29 | 41.13946 | 2.37757 | 80° | 9km/h | 25178m | 6.6m/s | 0°C | 0% | 0hPa | 0V | 00:00:00 | 00:00:00 | 00:00:00 | |
| EA3IBE | 2026-09-03 12:25:28 | 41.13945 | 2.37754 | 87° | 11km/h | 25172m | 5.4m/s | 0°C | 0% | 0hPa | 0V | 00:00:00 | 00:00:00 | 00:00:00 | |
| EA3IBE | 2026-09-03 12:25:23 | 41.13943 | 2.37743 | 154° | 7km/h | 25144m | 7.1m/s | 0°C | 0% | 0hPa | 0V | 00:00:00 | 00:00:00 | 00:00:00 | |
| EA3IBE | 2026-09-03 12:25:17 | 41.13942 | 2.37742 | 40° | 5km/h | 25111m | 4.9m/s | 0°C | 0% | 0hPa | 0V | 00:00:00 | 00:00:00 | 00:00:00 | |
| EA3GEO | 2026-09-03 12:25:11 | 41.13929 | 2.37737 | 0° | 0km/h | 25077m | 6.7m/s | 0°C | 0% | 0hPa | 0V | 00:00:00 | 00:00:00 | 00:00:00 | |
| EA3IBE | 2026-09-03 12:25:10 | 41.13930 | 2.37737 | 202° | 7km/h | 25071m | 4.7m/s | 0°C | 0% | 0hPa | 0V | 00:00:00 | 00:00:00 | 00:00:00 | |
| EA3GEO | 2026-09-03 12:25:06 | 41.13925 | 2.37752 | 331° | 22km/h | 25051m | 4.4m/s | 0°C | 0% | 0hPa | 0V | 00:00:00 | 00:00:00 | 00:00:00 | |
| EA3IBE | 2026-09-03 12:25:03 | 41.13916 | 2.37753 | 52° | 7km/h | 25034m | 4.7m/s | 0°C | 0% | 0hPa | 0V | 00:00:00 | 00:00:00 | 00:00:00 | |
| EA3IBE | 2026-09-03 12:24:58 | 41.13910 | 2.37759 | 316° | 9km/h | 25007m | 6.3m/s | 0°C | 0% | 0hPa | 0V | 00:00:00 | 00:00:00 | 00:00:00 | |
| EA3GEO | 2026-09-03 12:24:55 | 41.13906 | 2.37767 | 300° | 15km/h | 24990m | 6.2m/s | 0°C | 0% | 0hPa | 0V | 00:00:00 | 00:00:00 | 00:00:00 | |
| EA3GEO | 2026-09-03 12:24:49 | 41.13903 | 2.37772 | 304° | 5km/h | 24956m | 6.8m/s | 0°C | 0% | 0hPa | 0V | 00:00:00 | 00:00:00 | 00:00:00 | |
| EA3GEO | 2026-09-03 12:24:44 | 41.13898 | 2.37785 | 205° | 4km/h | 24928m | 4.6m/s | 0°C | 0% | 0hPa | 0V | 00:00:00 | 00:00:00 | 00:00:00 | |
| EA3GEO | 2026-09-03 12:24:38 | 41.13892 | 2.37800 | 336° | 9km/h | 24893m | 4.3m/s | 0°C | 0% | 0hPa | 0V | 00:00:00 | 00:00:00 | 00:00:00 | |
| EA3GEO | 2026-09-03 12:24:32 | 41.13887 | 2.37809 | 155° | 5km/h | 24859m | 4.6m/s | 0°C | 0% | 0hPa | 0V | 00:00:00 | 00:00:00 | 00:00:00 | |
| EA3IBE | 2026-09-03 12:24:31 | 41.13888 | 2.37809 | 205° | 7km/h | 24853m | 6.7m/s | 0°C | 0% | 0hPa | 0V | 00:00:00 | 00:00:00 | 00:00:00 | |
| EA3GEO | 2026-09-03 12:24:26 | 41.13886 | 2.37819 | 11° | 9km/h | 24824m | 5.2m/s | 0°C | 0% | 0hPa | 0V | 00:00:00 | 00:00:00 | 00:00:00 | |
| EA3IBE | 2026-09-03 12:24:23 | 41.13885 | 2.37824 | 227° | 15km/h | 24807m | 5.0m/s | 0°C | 0% | 0hPa | 0V | 00:00:00 | 00:00:00 | 00:00:00 | |
| EA3GEO | 2026-09-03 12:24:20 | 41.13894 | 2.37828 | 158° | 9km/h | 24789m | 5.1m/s | 0°C | 0% | 0hPa | 0V | 00:00:00 | 00:00:00 | 00:00:00 | |
| EA3IBE | 2026-09-03 12:24:17 | 41.13898 | 2.37827 | 244° | 5km/h | 24773m | 6.6m/s | 0°C | 0% | 0hPa | 0V | 00:00:00 | 00:00:00 | 00:00:00 | |
| EA3GEO | 2026-09-03 12:24:14 | 41.13897 | 2.37832 | 4° | 2km/h | 24758m | 5.9m/s | 0°C | 0% | 0hPa | 0V | 00:00:00 | 00:00:00 | 00:00:00 | |
| EA3GEO | 2026-09-03 12:24:09 | 41.13899 | 2.37829 | 208° | 4km/h | 24728m | 5.8m/s | 0°C | 0% | 0hPa | 0V | 00:00:00 | 00:00:00 | 00:00:00 | |
| EA3IBE | 2026-09-03 12:24:04 | 41.13901 | 2.37825 | 0° | 0km/h | 24699m | 4.7m/s | 0°C | 0% | 0hPa | 0V | 00:00:00 | 00:00:00 | 00:00:00 | |
| EA3GEO | 2026-09-03 12:24:03 | 41.13900 | 2.37824 | 49° | 5km/h | 24694m | 5.6m/s | 0°C | 0% | 0hPa | 0V | 00:00:00 | 00:00:00 | 00:00:00 | |
| EA3IBE | 2026-09-03 12:23:58 | 41.13894 | 2.37809 | 59° | 2km/h | 24664m | 5.2m/s | 0°C | 0% | 0hPa | 0V | 00:00:00 | 00:00:00 | 00:00:00 | |
| EA3GEO | 2026-09-03 12:23:52 | 41.13884 | 2.37797 | 16° | 13km/h | 24630m | 4.6m/s | 0°C | 0% | 0hPa | 0V | 00:00:00 | 00:00:00 | 00:00:00 | |
| EA3IBE | 2026-09-03 12:23:51 | 41.13880 | 2.37796 | 26° | 16km/h | 24624m | 6.4m/s | 0°C | 0% | 0hPa | 0V | 00:00:00 | 00:00:00 | 00:00:00 | |
| EA3GEO | 2026-09-03 12:23:46 | 41.13860 | 2.37782 | 361° | 15km/h | 24594m | 5.2m/s | 0°C | 0% | 0hPa | 0V | 00:00:00 | 00:00:00 | 00:00:00 | |
| EA3IBE | 2026-09-03 12:23:45 | 41.13857 | 2.37782 | 5° | 16km/h | 24589m | 6.6m/s | 0°C | 0% | 0hPa | 0V | 00:00:00 | 00:00:00 | 00:00:00 | |
| EA3GEO | 2026-09-03 12:23:40 | 41.13831 | 2.37781 | 12° | 20km/h | 24560m | 5.5m/s | 0°C | 0% | 0hPa | 0V | 00:00:00 | 00:00:00 | 00:00:00 | |
| EA3IBE | 2026-09-03 12:23:37 | 41.13818 | 2.37769 | 41° | 20km/h | 24544m | 5.1m/s | 0°C | 0% | 0hPa | 0V | 00:00:00 | 00:00:00 | 00:00:00 | |
| EA3GEO | 2026-09-03 12:23:34 | 41.13806 | 2.37764 | 4° | 16km/h | 24527m | 6.5m/s | 0°C | 0% | 0hPa | 0V | 00:00:00 | 00:00:00 | 00:00:00 | |
| EA3GEO | 2026-09-03 12:23:29 | 41.13780 | 2.37769 | 357° | 20km/h | 24498m | 4.5m/s | 0°C | 0% | 0hPa | 0V | 00:00:00 | 00:00:00 | 00:00:00 | |
| EA3IBE | 2026-09-03 12:23:28 | 41.13775 | 2.37768 | 17° | 20km/h | 24492m | 6.9m/s | 0°C | 0% | 0hPa | 0V | 00:00:00 | 00:00:00 | 00:00:00 | |
| EA3GEO | 2026-09-03 12:23:23 | 41.13756 | 2.37768 | 321° | 26km/h | 24465m | 5.6m/s | 0°C | 0% | 0hPa | 0V | 00:00:00 | 00:00:00 | 00:00:00 | |
| EA3IBE | 2026-09-03 12:23:17 | 41.13729 | 2.37792 | 290° | 4km/h | 24432m | 5.5m/s | 0°C | 0% | 0hPa | 0V | 00:00:00 | 00:00:00 | 00:00:00 | |
| EA3GEO | 2026-09-03 12:23:11 | 41.13719 | 2.37804 | 308° | 27km/h | 24400m | 4.4m/s | 0°C | 0% | 0hPa | 0V | 00:00:00 | 00:00:00 | 00:00:00 | |
| EA3IBE | 2026-09-03 12:23:09 | 41.13710 | 2.37814 | 341° | 20km/h | 24389m | 5.2m/s | 0°C | 0% | 0hPa | 0V | 00:00:00 | 00:00:00 | 00:00:00 | |
| EA3GEO | 2026-09-03 12:23:05 | 41.13700 | 2.37820 | 288° | 9km/h | 24369m | 5.0m/s | 0°C | 0% | 0hPa | 0V | 00:00:00 | 00:00:00 | 00:00:00 | |
| EA3IBE | 2026-09-03 12:23:03 | 41.13697 | 2.37826 | 306° | 13km/h | 24357m | 4.8m/s | 0°C | 0% | 0hPa | 0V | 00:00:00 | 00:00:00 | 00:00:00 | |
| EA3GEO | 2026-09-03 12:22:59 | 41.13688 | 2.37852 | 292° | 20km/h | 24338m | 3.7m/s | 0°C | 0% | 0hPa | 0V | 00:00:00 | 00:00:00 | 00:00:00 | |
| EA3IBE | 2026-09-03 12:22:57 | 41.13685 | 2.37860 | 323° | 5km/h | 24326m | 4.9m/s | 0°C | 0% | 0hPa | 0V | 00:00:00 | 00:00:00 | 00:00:00 | |
| EA3GEO | 2026-09-03 12:22:53 | 41.13684 | 2.37873 | 268° | 18km/h | 24304m | 5.9m/s | 0°C | 0% | 0hPa | 0V | 00:00:00 | 00:00:00 | 00:00:00 | |
| EA3IBE | 2026-09-03 12:22:52 | 41.13684 | 2.37879 | 270° | 15km/h | 24298m | 6.2m/s | 0°C | 0% | 0hPa | 0V | 00:00:00 | 00:00:00 | 00:00:00 | |
| EA3GEO | 2026-09-03 12:22:48 | 41.13682 | 2.37903 | 274° | 24km/h | 24277m | 5.0m/s | 0°C | 0% | 0hPa | 0V | 00:00:00 | 00:00:00 | 00:00:00 | |
| EA3IBE | 2026-09-03 12:22:45 | 41.13682 | 2.37914 | 0° | 0km/h | 24261m | 4.6m/s | 0°C | 0% | 0hPa | 0V | 00:00:00 | 00:00:00 | 00:00:00 | |
| EA3GEO | 2026-09-03 12:22:42 | 41.13686 | 2.37921 | 248° | 18km/h | 24245m | 5.2m/s | 0°C | 0% | 0hPa | 0V | 00:00:00 | 00:00:00 | 00:00:00 | |
| EA3IBE | 2026-09-03 12:22:40 | 41.13688 | 2.37934 | 269° | 20km/h | 24235m | 6.3m/s | 0°C | 0% | 0hPa | 0V | 00:00:00 | 00:00:00 | 00:00:00 | |
| EA3GEO | 2026-09-03 12:22:37 | 41.13689 | 2.37951 | 253° | 16km/h | 24220m | 5.9m/s | 0°C | 0% | 0hPa | 0V | 00:00:00 | 00:00:00 | 00:00:00 | |
| EA3IBE | 2026-09-03 12:22:34 | 41.13700 | 2.37960 | 166° | 11km/h | 24199m | 4.6m/s | 0°C | 0% | 0hPa | 0V | 00:00:00 | 00:00:00 | 00:00:00 | |
| EA3IBE | 2026-09-03 12:22:25 | 41.13718 | 2.37973 | 211° | 13km/h | 24157m | 4.8m/s | 0°C | 0% | 0hPa | 0V | 00:00:00 | 00:00:00 | 00:00:00 | |
| EA3IBE | 2026-09-03 12:22:19 | 41.13726 | 2.37977 | 242° | 5km/h | 24126m | 3.8m/s | 0°C | 0% | 0hPa | 0V | 00:00:00 | 00:00:00 | 00:00:00 | |
| EA3IBE | 2026-09-03 12:22:13 | 41.13733 | 2.37986 | 234° | 9km/h | 24095m | 3.5m/s | 0°C | 0% | 0hPa | 0V | 00:00:00 | 00:00:00 | 00:00:00 | |
| EA3IBE | 2026-09-03 12:22:06 | 41.13727 | 2.37992 | 265° | 2km/h | 24059m | 6.3m/s | 0°C | 0% | 0hPa | 0V | 00:00:00 | 00:00:00 | 00:00:00 | |
| EA3IBE | 2026-09-03 12:22:01 | 41.13731 | 2.37997 | 0° | 0km/h | 24034m | 5.2m/s | 0°C | 0% | 0hPa | 0V | 00:00:00 | 00:00:00 | 00:00:00 | |
| EA3IBE | 2026-09-03 12:21:54 | 41.13714 | 2.38004 | 293° | 5km/h | 23997m | 5.8m/s | 0°C | 0% | 0hPa | 0V | 00:00:00 | 00:00:00 | 00:00:00 | |
| EA3IBE | 2026-09-03 12:21:44 | 41.13703 | 2.38013 | 255° | 13km/h | 23946m | 4.6m/s | 0°C | 0% | 0hPa | 0V | 00:00:00 | 00:00:00 | 00:00:00 | |
| EA3GEO | 2026-09-03 12:21:43 | 41.13704 | 2.38016 | 214° | 11km/h | 23941m | 5.6m/s | 0°C | 0% | 0hPa | 0V | 00:00:00 | 00:00:00 | 00:00:00 | |
| EA3IBE | 2026-09-03 12:21:38 | 41.13709 | 2.38009 | 0° | 0km/h | 23915m | 5.7m/s | 0°C | 0% | 0hPa | 0V | 00:00:00 | 00:00:00 | 00:00:00 | |
| EA3GEO | 2026-09-03 12:21:36 | 41.13708 | 2.38010 | 352° | 7km/h | 23905m | 6.0m/s | 0°C | 0% | 0hPa | 0V | 00:00:00 | 00:00:00 | 00:00:00 | |
| EA3IBE | 2026-09-03 12:21:31 | 41.13707 | 2.38012 | 185° | 15km/h | 23879m | 3.7m/s | 0°C | 0% | 0hPa | 0V | 00:00:00 | 00:00:00 | 00:00:00 | |
| EA3GEO | 2026-09-03 12:21:29 | 41.13713 | 2.38010 | 133° | 11km/h | 23869m | 5.7m/s | 0°C | 0% | 0hPa | 0V | 00:00:00 | 00:00:00 | 00:00:00 | |
| EA3IBE | 2026-09-03 12:21:25 | 41.13712 | 2.38009 | 295° | 9km/h | 23847m | 5.5m/s | 0°C | 0% | 0hPa | 0V | 00:00:00 | 00:00:00 | 00:00:00 | |
| EA3GEO | 2026-09-03 12:21:23 | 41.13709 | 2.38013 | 354° | 7km/h | 23835m | 5.6m/s | 0°C | 0% | 0hPa | 0V | 00:00:00 | 00:00:00 | 00:00:00 | |
| EA3IBE | 2026-09-03 12:21:17 | 41.13706 | 2.38013 | 16° | 13km/h | 23804m | 6.3m/s | 0°C | 0% | 0hPa | 0V | 00:00:00 | 00:00:00 | 00:00:00 | |
| EA3GEO | 2026-09-03 12:21:16 | 41.13703 | 2.38011 | 18° | 16km/h | 23798m | 4.7m/s | 0°C | 0% | 0hPa | 0V | 00:00:00 | 00:00:00 | 00:00:00 | |
| EA3IBE | 2026-09-03 12:21:13 | 41.13695 | 2.38005 | 84° | 7km/h | 23777m | 6.3m/s | 0°C | 0% | 0hPa | 0V | 00:00:00 | 00:00:00 | 00:00:00 | |
| EA3GEO | 2026-09-03 12:21:08 | 41.13692 | 2.38001 | 301° | 7km/h | 23755m | 4.8m/s | 0°C | 0% | 0hPa | 0V | 00:00:00 | 00:00:00 | 00:00:00 | |
| EA3IBE | 2026-09-03 12:21:04 | 41.13680 | 2.38003 | 17° | 15km/h | 23733m | 5.6m/s | 0°C | 0% | 0hPa | 0V | 00:00:00 | 00:00:00 | 00:00:00 | |
| EA3GEO | 2026-09-03 12:21:03 | 41.13676 | 2.38002 | 6° | 11km/h | 23727m | 5.6m/s | 0°C | 0% | 0hPa | 0V | 00:00:00 | 00:00:00 | 00:00:00 | |
| EA3IBE | 2026-09-03 12:20:58 | 41.13664 | 2.38008 | 331° | 13km/h | 23701m | 5.6m/s | 0°C | 0% | 0hPa | 0V | 00:00:00 | 00:00:00 | 00:00:00 | |
| EA3GEO | 2026-09-03 12:20:57 | 41.13662 | 2.38011 | 319° | 15km/h | 23695m | 5.8m/s | 0°C | 0% | 0hPa | 0V | 00:00:00 | 00:00:00 | 00:00:00 | |
| EA3IBE | 2026-09-03 12:20:52 | 41.13636 | 2.38018 | 358° | 22km/h | 23669m | 5.2m/s | 0°C | 0% | 0hPa | 0V | 00:00:00 | 00:00:00 | 00:00:00 | |
| EA3GEO | 2026-09-03 12:20:50 | 41.13628 | 2.38023 | 308° | 15km/h | 23657m | 4.6m/s | 0°C | 0% | 0hPa | 0V | 00:00:00 | 00:00:00 | 00:00:00 | |
| EA3GEO | 2026-09-03 12:20:45 | 41.13607 | 2.38034 | 359° | 18km/h | 23631m | 6.1m/s | 0°C | 0% | 0hPa | 0V | 00:00:00 | 00:00:00 | 00:00:00 | |
| EA3IBE | 2026-09-03 12:20:39 | 41.13578 | 2.38059 | 295° | 20km/h | 23598m | 6.2m/s | 0°C | 0% | 0hPa | 0V | 00:00:00 | 00:00:00 | 00:00:00 | |
| EA3IBE | 2026-09-03 12:20:33 | 41.13549 | 2.38087 | 336° | 29km/h | 23566m | 6.7m/s | 0°C | 0% | 0hPa | 0V | 00:00:00 | 00:00:00 | 00:00:00 | |
| EA3IBE | 2026-09-03 12:20:28 | 41.13525 | 2.38116 | 311° | 24km/h | 23538m | 6.1m/s | 0°C | 0% | 0hPa | 0V | 00:00:00 | 00:00:00 | 00:00:00 | |
| EA3GEO | 2026-09-03 12:20:27 | 41.13522 | 2.38122 | 305° | 20km/h | 23532m | 6.5m/s | 0°C | 0% | 0hPa | 0V | 00:00:00 | 00:00:00 | 00:00:00 | |
| EA3GEO | 2026-09-03 12:20:22 | 41.13503 | 2.38148 | 303° | 22km/h | 23505m | 6.8m/s | 0°C | 0% | 0hPa | 0V | 00:00:00 | 00:00:00 | 00:00:00 | |
| EA3IBE | 2026-09-03 12:20:16 | 41.13482 | 2.38196 | 303° | 24km/h | 23470m | 5.8m/s | 0°C | 0% | 0hPa | 0V | 00:00:00 | 00:00:00 | 00:00:00 | |
| EA3IBE | 2026-09-03 12:20:11 | 41.13460 | 2.38232 | 300° | 27km/h | 23442m | 6.9m/s | 0°C | 0% | 0hPa | 0V | 00:00:00 | 00:00:00 | 00:00:00 | |
| EA3IBE | 2026-09-03 12:20:06 | 41.13448 | 2.38276 | 291° | 24km/h | 23414m | 6.2m/s | 0°C | 0% | 0hPa | 0V | 00:00:00 | 00:00:00 | 00:00:00 | |
| EA3GEO | 2026-09-03 12:20:00 | 41.13427 | 2.38322 | 275° | 31km/h | 23380m | 7.2m/s | 0°C | 0% | 0hPa | 0V | 00:00:00 | 00:00:00 | 00:00:00 | |
| EA3IBE | 2026-09-03 12:19:58 | 41.13430 | 2.38344 | 258° | 37km/h | 23368m | 5.8m/s | 0°C | 0% | 0hPa | 0V | 00:00:00 | 00:00:00 | 00:00:00 | |
| EA3IBE | 2026-09-03 12:19:51 | 41.13424 | 2.38401 | 290° | 27km/h | 23328m | 5.8m/s | 0°C | 0% | 0hPa | 0V | 00:00:00 | 00:00:00 | 00:00:00 | |
| EA3GEO | 2026-09-03 12:19:48 | 41.13422 | 2.38427 | 256° | 24km/h | 23310m | 5.7m/s | 0°C | 0% | 0hPa | 0V | 00:00:00 | 00:00:00 | 00:00:00 | |
| EA3GEO | 2026-09-03 12:19:43 | 41.13430 | 2.38474 | 268° | 24km/h | 23282m | 6.7m/s | 0°C | 0% | 0hPa | 0V | 00:00:00 | 00:00:00 | 00:00:00 | |
| EA3IBE | 2026-09-03 12:19:38 | 41.13428 | 2.38513 | 267° | 27km/h | 23253m | 6.6m/s | 0°C | 0% | 0hPa | 0V | 00:00:00 | 00:00:00 | 00:00:00 | |
| EA3GEO | 2026-09-03 12:19:37 | 41.13430 | 2.38522 | 256° | 27km/h | 23246m | 6.3m/s | 0°C | 0% | 0hPa | 0V | 00:00:00 | 00:00:00 | 00:00:00 | |
| EA3IBE | 2026-09-03 12:19:33 | 41.13441 | 2.38562 | 244° | 31km/h | 23224m | 6.3m/s | 0°C | 0% | 0hPa | 0V | 00:00:00 | 00:00:00 | 00:00:00 | |
| EA3GEO | 2026-09-03 12:19:31 | 41.13448 | 2.38578 | 242° | 24km/h | 23212m | 4.7m/s | 0°C | 0% | 0hPa | 0V | 00:00:00 | 00:00:00 | 00:00:00 | |
| EA3IBE | 2026-09-03 12:19:27 | 41.13454 | 2.38614 | 255° | 31km/h | 23189m | 6.6m/s | 0°C | 0% | 0hPa | 0V | 00:00:00 | 00:00:00 | 00:00:00 | |
| EA3GEO | 2026-09-03 12:19:25 | 41.13461 | 2.38633 | 238° | 37km/h | 23178m | 5.5m/s | 0°C | 0% | 0hPa | 0V | 00:00:00 | 00:00:00 | 00:00:00 | |
| EA3IBE | 2026-09-03 12:19:21 | 41.13480 | 2.38670 | 227° | 24km/h | 23154m | 6.6m/s | 0°C | 0% | 0hPa | 0V | 00:00:00 | 00:00:00 | 00:00:00 | |
| EA3GEO | 2026-09-03 12:19:19 | 41.13487 | 2.38680 | 238° | 20km/h | 23143m | 7.1m/s | 0°C | 0% | 0hPa | 0V | 00:00:00 | 00:00:00 | 00:00:00 | |
| EA3IBE | 2026-09-03 12:19:16 | 41.13496 | 2.38699 | 225° | 26km/h | 23125m | 6.8m/s | 0°C | 0% | 0hPa | 0V | 00:00:00 | 00:00:00 | 00:00:00 | |
| EA3GEO | 2026-09-03 12:19:14 | 41.13508 | 2.38712 | 223° | 31km/h | 23112m | 7.0m/s | 0°C | 0% | 0hPa | 0V | 00:00:00 | 00:00:00 | 00:00:00 | |
| EA3IBE | 2026-09-03 12:19:09 | 41.13541 | 2.38730 | 190° | 24km/h | 23084m | 5.4m/s | 0°C | 0% | 0hPa | 0V | 00:00:00 | 00:00:00 | 00:00:00 | |
| EA3GEO | 2026-09-03 12:19:08 | 41.13546 | 2.38733 | 206° | 22km/h | 23078m | 6.3m/s | 0°C | 0% | 0hPa | 0V | 00:00:00 | 00:00:00 | 00:00:00 | |
| EA3GEO | 2026-09-03 12:19:02 | 41.13584 | 2.38764 | 213° | 31km/h | 23045m | 6.1m/s | 0°C | 0% | 0hPa | 0V | 00:00:00 | 00:00:00 | 00:00:00 | |
| EA3IBE | 2026-09-03 12:18:58 | 41.13607 | 2.38776 | 184° | 20km/h | 23023m | 5.1m/s | 0°C | 0% | 0hPa | 0V | 00:00:00 | 00:00:00 | 00:00:00 | |
| EA3GEO | 2026-09-03 12:18:56 | 41.13617 | 2.38780 | 214° | 22km/h | 23011m | 6.4m/s | 0°C | 0% | 0hPa | 0V | 00:00:00 | 00:00:00 | 00:00:00 | |
| EA3IBE | 2026-09-03 12:18:51 | 41.13642 | 2.38795 | 164° | 18km/h | 22986m | 3.9m/s | 0°C | 0% | 0hPa | 0V | 00:00:00 | 00:00:00 | 00:00:00 | |
| EA3IBE | 2026-09-03 12:18:45 | 41.13668 | 2.38803 | 194° | 27km/h | 22954m | 4.8m/s | 0°C | 0% | 0hPa | 0V | 00:00:00 | 00:00:00 | 00:00:00 | |
| EA3IBE | 2026-09-03 12:18:40 | 41.13692 | 2.38810 | 173° | 22km/h | 22927m | 5.7m/s | 0°C | 0% | 0hPa | 0V | 00:00:00 | 00:00:00 | 00:00:00 | |
| EA3GEO | 2026-09-03 12:18:34 | 41.13715 | 2.38814 | 180° | 13km/h | 22893m | 5.0m/s | 0°C | 0% | 0hPa | 0V | 00:00:00 | 00:00:00 | 00:00:00 | |
| EA3GEO | 2026-09-03 12:18:29 | 41.13727 | 2.38807 | 150° | 16km/h | 22864m | 5.3m/s | 0°C | 0% | 0hPa | 0V | 00:00:00 | 00:00:00 | 00:00:00 | |
| EA3IBE | 2026-09-03 12:18:28 | 41.13730 | 2.38805 | 165° | 16km/h | 22860m | 4.1m/s | 0°C | 0% | 0hPa | 0V | 00:00:00 | 00:00:00 | 00:00:00 | |
| EA3GEO | 2026-09-03 12:18:23 | 41.13743 | 2.38810 | 170° | 15km/h | 22833m | 6.1m/s | 0°C | 0% | 0hPa | 0V | 00:00:00 | 00:00:00 | 00:00:00 | |
| EA3IBE | 2026-09-03 12:18:21 | 41.13751 | 2.38805 | 150° | 16km/h | 22821m | 5.7m/s | 0°C | 0% | 0hPa | 0V | 00:00:00 | 00:00:00 | 00:00:00 | |
| EA3GEO | 2026-09-03 12:18:18 | 41.13756 | 2.38799 | 146° | 7km/h | 22805m | 6.0m/s | 0°C | 0% | 0hPa | 0V | 00:00:00 | 00:00:00 | 00:00:00 | |
| EA3IBE | 2026-09-03 12:18:16 | 41.13761 | 2.38798 | 182° | 11km/h | 22794m | 5.2m/s | 0°C | 0% | 0hPa | 0V | 00:00:00 | 00:00:00 | 00:00:00 | |
| EA3GEO | 2026-09-03 12:18:12 | 41.13766 | 2.38803 | 192° | 5km/h | 22773m | 5.3m/s | 0°C | 0% | 0hPa | 0V | 00:00:00 | 00:00:00 | 00:00:00 | |
| EA3IBE | 2026-09-03 12:18:10 | 41.13771 | 2.38800 | 139° | 16km/h | 22762m | 5.1m/s | 0°C | 0% | 0hPa | 0V | 00:00:00 | 00:00:00 | 00:00:00 | |
| EA3GEO | 2026-09-03 12:18:06 | 41.13775 | 2.38788 | 86° | 5km/h | 22741m | 5.8m/s | 0°C | 0% | 0hPa | 0V | 00:00:00 | 00:00:00 | 00:00:00 | |
| EA3IBE | 2026-09-03 12:18:05 | 41.13775 | 2.38786 | 97° | 4km/h | 22735m | 5.7m/s | 0°C | 0% | 0hPa | 0V | 00:00:00 | 00:00:00 | 00:00:00 | |
| EA3GEO | 2026-09-03 12:18:01 | 41.13774 | 2.38786 | 111° | 4km/h | 22715m | 5.1m/s | 0°C | 0% | 0hPa | 0V | 00:00:00 | 00:00:00 | 00:00:00 | |
| EA3IBE | 2026-09-03 12:18:00 | 41.13774 | 2.38784 | 123° | 11km/h | 22709m | 7.1m/s | 0°C | 0% | 0hPa | 0V | 00:00:00 | 00:00:00 | 00:00:00 | |
| EA3GEO | 2026-09-03 12:17:55 | 41.13774 | 2.38767 | 352° | 9km/h | 22682m | 4.4m/s | 0°C | 0% | 0hPa | 0V | 00:00:00 | 00:00:00 | 00:00:00 | |
| EA3IBE | 2026-09-03 12:17:52 | 41.13772 | 2.38769 | 203° | 4km/h | 22667m | 4.7m/s | 0°C | 0% | 0hPa | 0V | 00:00:00 | 00:00:00 | 00:00:00 | |
| EA3GEO | 2026-09-03 12:17:49 | 41.13771 | 2.38770 | 31° | 5km/h | 22650m | 4.9m/s | 0°C | 0% | 0hPa | 0V | 00:00:00 | 00:00:00 | 00:00:00 | |
| EA3IBE | 2026-09-03 12:17:47 | 41.13769 | 2.38765 | 68° | 11km/h | 22639m | 4.8m/s | 0°C | 0% | 0hPa | 0V | 00:00:00 | 00:00:00 | 00:00:00 | |
| EA3GEO | 2026-09-03 12:17:44 | 41.13761 | 2.38760 | 339° | 15km/h | 22623m | 4.9m/s | 0°C | 0% | 0hPa | 0V | 00:00:00 | 00:00:00 | 00:00:00 | |
| EA3IBE | 2026-09-03 12:17:41 | 41.13760 | 2.38769 | 214° | 13km/h | 22607m | 4.9m/s | 0°C | 0% | 0hPa | 0V | 00:00:00 | 00:00:00 | 00:00:00 | |
| EA3GEO | 2026-09-03 12:17:38 | 41.13766 | 2.38771 | 177° | 5km/h | 22591m | 4.3m/s | 0°C | 0% | 0hPa | 0V | 00:00:00 | 00:00:00 | 00:00:00 | |
| EA3GEO | 2026-09-03 12:17:33 | 41.13765 | 2.38777 | 307° | 18km/h | 22564m | 4.0m/s | 0°C | 0% | 0hPa | 0V | 00:00:00 | 00:00:00 | 00:00:00 | |
| EA3GEO | 2026-09-03 12:17:28 | 41.13779 | 2.38791 | 167° | 20km/h | 22539m | 5.6m/s | 0°C | 0% | 0hPa | 0V | 00:00:00 | 00:00:00 | 00:00:00 | |
| EA3IBE | 2026-09-03 12:17:23 | 41.13792 | 2.38798 | 239° | 15km/h | 22514m | 3.7m/s | 0°C | 0% | 0hPa | 0V | 00:00:00 | 00:00:00 | 00:00:00 | |
| EA3GEO | 2026-09-03 12:17:22 | 41.13793 | 2.38801 | 246° | 9km/h | 22509m | 5.5m/s | 0°C | 0% | 0hPa | 0V | 00:00:00 | 00:00:00 | 00:00:00 | |
| EA3GEO | 2026-09-03 12:17:17 | 41.13797 | 2.38815 | 243° | 7km/h | 22477m | 6.7m/s | 0°C | 0% | 0hPa | 0V | 00:00:00 | 00:00:00 | 00:00:00 | |
| EA3GEO | 2026-09-03 12:17:10 | 41.13799 | 2.38819 | 15° | 9km/h | 22444m | 4.3m/s | 0°C | 0% | 0hPa | 0V | 00:00:00 | 00:00:00 | 00:00:00 | |
| EA3GEO | 2026-09-03 12:17:05 | 41.13794 | 2.38827 | 0° | 0km/h | 22416m | 5.3m/s | 0°C | 0% | 0hPa | 0V | 00:00:00 | 00:00:00 | 00:00:00 | |
| EA3IBE | 2026-09-03 12:17:04 | 41.13795 | 2.38827 | 108° | 4km/h | 22411m | 5.0m/s | 0°C | 0% | 0hPa | 0V | 00:00:00 | 00:00:00 | 00:00:00 | |
| EA3IBE | 2026-09-03 12:16:59 | 41.13795 | 2.38816 | 45° | 16km/h | 22384m | 5.5m/s | 0°C | 0% | 0hPa | 0V | 00:00:00 | 00:00:00 | 00:00:00 | |
| EA3IBE | 2026-09-03 12:16:53 | 41.13775 | 2.38819 | 38° | 9km/h | 22353m | 5.2m/s | 0°C | 0% | 0hPa | 0V | 00:00:00 | 00:00:00 | 00:00:00 | |
| EA3GEO | 2026-09-03 12:16:49 | 41.13771 | 2.38801 | 50° | 16km/h | 22328m | 5.8m/s | 0°C | 0% | 0hPa | 0V | 00:00:00 | 00:00:00 | 00:00:00 | |
| EA3IBE | 2026-09-03 12:16:42 | 41.13745 | 2.38806 | 327° | 16km/h | 22296m | 5.4m/s | 0°C | 0% | 0hPa | 0V | 00:00:00 | 00:00:00 | 00:00:00 | |
| EA3IBE | 2026-09-03 12:16:37 | 41.13733 | 2.38804 | 22° | 16km/h | 22272m | 4.3m/s | 0°C | 0% | 0hPa | 0V | 00:00:00 | 00:00:00 | 00:00:00 | |
| EA3GEO | 2026-09-03 12:16:36 | 41.13728 | 2.38802 | 22° | 24km/h | 22267m | 6.6m/s | 0°C | 0% | 0hPa | 0V | 00:00:00 | 00:00:00 | 00:00:00 | |
| EA3GEO | 2026-09-03 12:16:30 | 41.13705 | 2.38811 | 316° | 15km/h | 22236m | 5.6m/s | 0°C | 0% | 0hPa | 0V | 00:00:00 | 00:00:00 | 00:00:00 | |
| EA3IBE | 2026-09-03 12:16:29 | 41.13701 | 2.38814 | 336° | 13km/h | 22231m | 4.8m/s | 0°C | 0% | 0hPa | 0V | 00:00:00 | 00:00:00 | 00:00:00 | |
| EA3GEO | 2026-09-03 12:16:25 | 41.13689 | 2.38819 | 347° | 15km/h | 22210m | 4.4m/s | 0°C | 0% | 0hPa | 0V | 00:00:00 | 00:00:00 | 00:00:00 | |
| EA3IBE | 2026-09-03 12:16:23 | 41.13680 | 2.38821 | 357° | 20km/h | 22199m | 4.0m/s | 0°C | 0% | 0hPa | 0V | 00:00:00 | 00:00:00 | 00:00:00 | |
| EA3GEO | 2026-09-03 12:16:20 | 41.13674 | 2.38827 | 244° | 11km/h | 22183m | 5.1m/s | 0°C | 0% | 0hPa | 0V | 00:00:00 | 00:00:00 | 00:00:00 | |
| EA3IBE | 2026-09-03 12:16:17 | 41.13678 | 2.38831 | 57° | 4km/h | 22168m | 4.6m/s | 0°C | 0% | 0hPa | 0V | 00:00:00 | 00:00:00 | 00:00:00 | |
| EA3GEO | 2026-09-03 12:16:14 | 41.13672 | 2.38832 | 325° | 13km/h | 22153m | 4.7m/s | 0°C | 0% | 0hPa | 0V | 00:00:00 | 00:00:00 | 00:00:00 | |
| EA3IBE | 2026-09-03 12:16:10 | 41.13662 | 2.38844 | 288° | 11km/h | 22133m | 4.8m/s | 0°C | 0% | 0hPa | 0V | 00:00:00 | 00:00:00 | 00:00:00 | |
| EA3GEO | 2026-09-03 12:16:08 | 41.13663 | 2.38852 | 252° | 15km/h | 22122m | 4.6m/s | 0°C | 0% | 0hPa | 0V | 00:00:00 | 00:00:00 | 00:00:00 | |
| EA3IBE | 2026-09-03 12:16:05 | 41.13663 | 2.38860 | 295° | 4km/h | 22107m | 4.8m/s | 0°C | 0% | 0hPa | 0V | 00:00:00 | 00:00:00 | 00:00:00 | |
| EA3GEO | 2026-09-03 12:16:02 | 41.13665 | 2.38865 | 233° | 5km/h | 22090m | 5.0m/s | 0°C | 0% | 0hPa | 0V | 00:00:00 | 00:00:00 | 00:00:00 | |
| EA3IBE | 2026-09-03 12:15:59 | 41.13664 | 2.38868 | 296° | 7km/h | 22074m | 4.7m/s | 0°C | 0% | 0hPa | 0V | 00:00:00 | 00:00:00 | 00:00:00 | |
| EA3GEO | 2026-09-03 12:15:57 | 41.13665 | 2.38876 | 255° | 15km/h | 22063m | 4.6m/s | 0°C | 0% | 0hPa | 0V | 00:00:00 | 00:00:00 | 00:00:00 | |
| EA3IBE | 2026-09-03 12:15:54 | 41.13668 | 2.38884 | 230° | 5km/h | 22047m | 4.8m/s | 0°C | 0% | 0hPa | 0V | 00:00:00 | 00:00:00 | 00:00:00 | |
| EA3GEO | 2026-09-03 12:15:51 | 41.13671 | 2.38892 | 265° | 9km/h | 22032m | 4.9m/s | 0°C | 0% | 0hPa | 0V | 00:00:00 | 00:00:00 | 00:00:00 | |
| EA3IBE | 2026-09-03 12:15:46 | 41.13674 | 2.38908 | 244° | 18km/h | 22005m | 4.1m/s | 0°C | 0% | 0hPa | 0V | 00:00:00 | 00:00:00 | 00:00:00 | |
| EA3GEO | 2026-09-03 12:15:45 | 41.13676 | 2.38913 | 245° | 16km/h | 22000m | 4.7m/s | 0°C | 0% | 0hPa | 0V | 00:00:00 | 00:00:00 | 00:00:00 | |
| EA3IBE | 2026-09-03 12:15:40 | 41.13680 | 2.38931 | 251° | 13km/h | 21974m | 4.8m/s | 0°C | 0% | 0hPa | 0V | 00:00:00 | 00:00:00 | 00:00:00 | |
| EA3GEO | 2026-09-03 12:15:34 | 41.13688 | 2.38959 | 247° | 16km/h | 21943m | 5.3m/s | 0°C | 0% | 0hPa | 0V | 00:00:00 | 00:00:00 | 00:00:00 | |
| EA3IBE | 2026-09-03 12:15:33 | 41.13689 | 2.38963 | 245° | 9km/h | 21937m | 5.6m/s | 0°C | 0% | 0hPa | 0V | 00:00:00 | 00:00:00 | 00:00:00 | |
| EA3GEO | 2026-09-03 12:15:28 | 41.13688 | 2.38983 | 248° | 18km/h | 21912m | 5.1m/s | 0°C | 0% | 0hPa | 0V | 00:00:00 | 00:00:00 | 00:00:00 | |
| EA3GEO | 2026-09-03 12:15:23 | 41.13709 | 2.39003 | 225° | 18km/h | 21886m | 3.8m/s | 0°C | 0% | 0hPa | 0V | 00:00:00 | 00:00:00 | 00:00:00 | |
| EA3GEO | 2026-09-03 12:15:18 | 41.13719 | 2.39015 | 244° | 15km/h | 21862m | 6.0m/s | 0°C | 0% | 0hPa | 0V | 00:00:00 | 00:00:00 | 00:00:00 | |
| EA3IBE | 2026-09-03 12:15:14 | 41.13732 | 2.39029 | 186° | 11km/h | 21842m | 4.3m/s | 0°C | 0% | 0hPa | 0V | 00:00:00 | 00:00:00 | 00:00:00 | |
| EA3GEO | 2026-09-03 12:15:12 | 41.13735 | 2.39030 | 230° | 2km/h | 21831m | 5.5m/s | 0°C | 0% | 0hPa | 0V | 00:00:00 | 00:00:00 | 00:00:00 | |
| EA3IBE | 2026-09-03 12:15:09 | 41.13738 | 2.39032 | 196° | 11km/h | 21815m | 4.2m/s | 0°C | 0% | 0hPa | 0V | 00:00:00 | 00:00:00 | 00:00:00 | |
| EA3GEO | 2026-09-03 12:15:06 | 41.13746 | 2.39037 | 202° | 7km/h | 21801m | 4.4m/s | 0°C | 0% | 0hPa | 0V | 00:00:00 | 00:00:00 | 00:00:00 | |
| EA3IBE | 2026-09-03 12:15:03 | 41.13753 | 2.39032 | 136° | 11km/h | 21785m | 5.8m/s | 0°C | 0% | 0hPa | 0V | 00:00:00 | 00:00:00 | 00:00:00 | |
| EA3GEO | 2026-09-03 12:15:00 | 41.13757 | 2.39028 | 144° | 11km/h | 21769m | 6.1m/s | 0°C | 0% | 0hPa | 0V | 00:00:00 | 00:00:00 | 00:00:00 | |
| EA3IBE | 2026-09-03 12:14:56 | 41.13767 | 2.39023 | 191° | 9km/h | 21748m | 4.0m/s | 0°C | 0% | 0hPa | 0V | 00:00:00 | 00:00:00 | 00:00:00 | |
| EA3GEO | 2026-09-03 12:14:54 | 41.13773 | 2.39021 | 149° | 13km/h | 21738m | 5.8m/s | 0°C | 0% | 0hPa | 0V | 00:00:00 | 00:00:00 | 00:00:00 | |
| EA3IBE | 2026-09-03 12:14:50 | 41.13779 | 2.39012 | 127° | 4km/h | 21718m | 3.9m/s | 0°C | 0% | 0hPa | 0V | 00:00:00 | 00:00:00 | 00:00:00 | |
| EA3GEO | 2026-09-03 12:14:49 | 41.13779 | 2.39010 | 130° | 7km/h | 21713m | 5.3m/s | 0°C | 0% | 0hPa | 0V | 00:00:00 | 00:00:00 | 00:00:00 | |
| EA3IBE | 2026-09-03 12:14:44 | 41.13786 | 2.38999 | 50° | 4km/h | 21688m | 4.5m/s | 0°C | 0% | 0hPa | 0V | 00:00:00 | 00:00:00 | 00:00:00 | |
| EA3GEO | 2026-09-03 12:14:43 | 41.13785 | 2.38998 | 53° | 7km/h | 21683m | 6.2m/s | 0°C | 0% | 0hPa | 0V | 00:00:00 | 00:00:00 | 00:00:00 | |
| EA3IBE | 2026-09-03 12:14:38 | 41.13786 | 2.38987 | 158° | 13km/h | 21658m | 5.6m/s | 0°C | 0% | 0hPa | 0V | 00:00:00 | 00:00:00 | 00:00:00 | |
| EA3GEO | 2026-09-03 12:14:37 | 41.13788 | 2.38985 | 136° | 13km/h | 21653m | 4.7m/s | 0°C | 0% | 0hPa | 0V | 00:00:00 | 00:00:00 | 00:00:00 | |
| EA3GEO | 2026-09-03 12:14:32 | 41.13782 | 2.38982 | 4° | 16km/h | 21627m | 6.0m/s | 0°C | 0% | 0hPa | 0V | 00:00:00 | 00:00:00 | 00:00:00 | |
| EA3IBE | 2026-09-03 12:14:29 | 41.13774 | 2.38977 | 42° | 4km/h | 21613m | 5.6m/s | 0°C | 0% | 0hPa | 0V | 00:00:00 | 00:00:00 | 00:00:00 | |
| EA3GEO | 2026-09-03 12:14:26 | 41.13775 | 2.38977 | 108° | 5km/h | 21598m | 6.1m/s | 0°C | 0% | 0hPa | 0V | 00:00:00 | 00:00:00 | 00:00:00 | |
| EA3IBE | 2026-09-03 12:14:22 | 41.13767 | 2.38975 | 333° | 15km/h | 21578m | 4.6m/s | 0°C | 0% | 0hPa | 0V | 00:00:00 | 00:00:00 | 00:00:00 | |
| EA3GEO | 2026-09-03 12:14:21 | 41.13763 | 2.38977 | 336° | 13km/h | 21573m | 5.7m/s | 0°C | 0% | 0hPa | 0V | 00:00:00 | 00:00:00 | 00:00:00 | |
| EA3GEO | 2026-09-03 12:14:16 | 41.13756 | 2.38984 | 324° | 9km/h | 21548m | 4.3m/s | 0°C | 0% | 0hPa | 0V | 00:00:00 | 00:00:00 | 00:00:00 | |
| EA3IBE | 2026-09-03 12:14:10 | 41.13742 | 2.38988 | 295° | 13km/h | 21517m | 5.2m/s | 0°C | 0% | 0hPa | 0V | 00:00:00 | 00:00:00 | 00:00:00 | |
| EA3GEO | 2026-09-03 12:14:08 | 41.13740 | 2.38995 | 290° | 9km/h | 21507m | 4.1m/s | 0°C | 0% | 0hPa | 0V | 00:00:00 | 00:00:00 | 00:00:00 | |
| EA3IBE | 2026-09-03 12:14:04 | 41.13728 | 2.39006 | 4° | 20km/h | 21485m | 5.8m/s | 0°C | 0% | 0hPa | 0V | 00:00:00 | 00:00:00 | 00:00:00 | |
| EA3GEO | 2026-09-03 12:14:02 | 41.13716 | 2.39005 | 356° | 27km/h | 21476m | 5.7m/s | 0°C | 0% | 0hPa | 0V | 00:00:00 | 00:00:00 | 00:00:00 | |
| EA3IBE | 2026-09-03 12:13:57 | 41.13697 | 2.39021 | 263° | 7km/h | 21450m | 4.8m/s | 0°C | 0% | 0hPa | 0V | 00:00:00 | 00:00:00 | 00:00:00 | |
| EA3GEO | 2026-09-03 12:13:56 | 41.13697 | 2.39023 | 278° | 9km/h | 21445m | 5.6m/s | 0°C | 0% | 0hPa | 0V | 00:00:00 | 00:00:00 | 00:00:00 | |
| EA3GEO | 2026-09-03 12:13:51 | 41.13687 | 2.39027 | 339° | 18km/h | 21419m | 5.6m/s | 0°C | 0% | 0hPa | 0V | 00:00:00 | 00:00:00 | 00:00:00 | |
| EA3GEO | 2026-09-03 12:13:46 | 41.13680 | 2.39038 | 218° | 9km/h | 21394m | 6.0m/s | 0°C | 0% | 0hPa | 0V | 00:00:00 | 00:00:00 | 00:00:00 | |
| EA3GEO | 2026-09-03 12:13:41 | 41.13684 | 2.39043 | 4° | 5km/h | 21367m | 6.5m/s | 0°C | 0% | 0hPa | 0V | 00:00:00 | 00:00:00 | 00:00:00 | |
| EA3IBE | 2026-09-03 12:13:40 | 41.13682 | 2.39043 | 349° | 9km/h | 21362m | 4.9m/s | 0°C | 0% | 0hPa | 0V | 00:00:00 | 00:00:00 | 00:00:00 | |
| EA3GEO | 2026-09-03 12:13:35 | 41.13681 | 2.39046 | 255° | 7km/h | 21336m | 5.7m/s | 0°C | 0% | 0hPa | 0V | 00:00:00 | 00:00:00 | 00:00:00 | |
| EA3IBE | 2026-09-03 12:13:34 | 41.13681 | 2.39048 | 278° | 7km/h | 21332m | 3.8m/s | 0°C | 0% | 0hPa | 0V | 00:00:00 | 00:00:00 | 00:00:00 | |
| EA3GEO | 2026-09-03 12:13:29 | 41.13679 | 2.39051 | 268° | 7km/h | 21305m | 4.8m/s | 0°C | 0% | 0hPa | 0V | 00:00:00 | 00:00:00 | 00:00:00 | |
| EA3IBE | 2026-09-03 12:13:28 | 41.13679 | 2.39053 | 274° | 5km/h | 21300m | 5.3m/s | 0°C | 0% | 0hPa | 0V | 00:00:00 | 00:00:00 | 00:00:00 | |
| EA3GEO | 2026-09-03 12:13:24 | 41.13675 | 2.39060 | 301° | 13km/h | 21279m | 5.7m/s | 0°C | 0% | 0hPa | 0V | 00:00:00 | 00:00:00 | 00:00:00 | |
| EA3IBE | 2026-09-03 12:13:22 | 41.13671 | 2.39065 | 336° | 11km/h | 21268m | 6.6m/s | 0°C | 0% | 0hPa | 0V | 00:00:00 | 00:00:00 | 00:00:00 | |
| EA3GEO | 2026-09-03 12:13:19 | 41.13664 | 2.39067 | 332° | 7km/h | 21253m | 5.7m/s | 0°C | 0% | 0hPa | 0V | 00:00:00 | 00:00:00 | 00:00:00 | |
| EA3IBE | 2026-09-03 12:13:17 | 41.13662 | 2.39068 | 15° | 7km/h | 21242m | 6.3m/s | 0°C | 0% | 0hPa | 0V | 00:00:00 | 00:00:00 | 00:00:00 | |
| EA3GEO | 2026-09-03 12:13:13 | 41.13651 | 2.39073 | 322° | 20km/h | 21222m | 3.5m/s | 0°C | 0% | 0hPa | 0V | 00:00:00 | 00:00:00 | 00:00:00 | |
| EA3IBE | 2026-09-03 12:13:11 | 41.13643 | 2.39078 | 355° | 20km/h | 21212m | 5.5m/s | 0°C | 0% | 0hPa | 0V | 00:00:00 | 00:00:00 | 00:00:00 | |
| EA3GEO | 2026-09-03 12:13:08 | 41.13631 | 2.39077 | 1° | 7km/h | 21195m | 5.8m/s | 0°C | 0% | 0hPa | 0V | 00:00:00 | 00:00:00 | 00:00:00 | |
| EA3IBE | 2026-09-03 12:13:06 | 41.13628 | 2.39078 | 339° | 5km/h | 21186m | 5.4m/s | 0°C | 0% | 0hPa | 0V | 00:00:00 | 00:00:00 | 00:00:00 | |
| EA3GEO | 2026-09-03 12:13:02 | 41.13616 | 2.39089 | 319° | 24km/h | 21165m | 4.0m/s | 0°C | 0% | 0hPa | 0V | 00:00:00 | 00:00:00 | 00:00:00 | |
| EA3IBE | 2026-09-03 12:13:01 | 41.13610 | 2.39094 | 329° | 27km/h | 21160m | 5.9m/s | 0°C | 0% | 0hPa | 0V | 00:00:00 | 00:00:00 | 00:00:00 | |
| EA3GEO | 2026-09-03 12:12:56 | 41.13589 | 2.39106 | 341° | 7km/h | 21134m | 6.1m/s | 0°C | 0% | 0hPa | 0V | 00:00:00 | 00:00:00 | 00:00:00 | |
| EA3IBE | 2026-09-03 12:12:55 | 41.13587 | 2.39107 | 347° | 7km/h | 21128m | 4.7m/s | 0°C | 0% | 0hPa | 0V | 00:00:00 | 00:00:00 | 00:00:00 | |
| EA3GEO | 2026-09-03 12:12:51 | 41.13580 | 2.39115 | 323° | 11km/h | 21109m | 3.9m/s | 0°C | 0% | 0hPa | 0V | 00:00:00 | 00:00:00 | 00:00:00 | |
| EA3IBE | 2026-09-03 12:12:48 | 41.13568 | 2.39116 | 6° | 20km/h | 21094m | 4.3m/s | 0°C | 0% | 0hPa | 0V | 00:00:00 | 00:00:00 | 00:00:00 | |
| EA3GEO | 2026-09-03 12:12:45 | 41.13557 | 2.39120 | 325° | 13km/h | 21079m | 4.8m/s | 0°C | 0% | 0hPa | 0V | 00:00:00 | 00:00:00 | 00:00:00 | |
| EA3GEO | 2026-09-03 12:12:40 | 41.13550 | 2.39117 | 47° | 2km/h | 21054m | 4.4m/s | 0°C | 0% | 0hPa | 0V | 00:00:00 | 00:00:00 | 00:00:00 | |
| EA3IBE | 2026-09-03 12:12:36 | 41.13535 | 2.39114 | 341° | 11km/h | 21029m | 5.4m/s | 0°C | 0% | 0hPa | 0V | 00:00:00 | 00:00:00 | 00:00:00 | |
| EA3GEO | 2026-09-03 12:12:35 | 41.13535 | 2.39114 | 341° | 11km/h | 21029m | 5.4m/s | 0°C | 0% | 0hPa | 0V | 00:00:00 | 00:00:00 | 00:00:00 | |
| EA3GEO | 2026-09-03 12:12:30 | 41.13534 | 2.39102 | 96° | 11km/h | 20999m | 4.9m/s | 0°C | 0% | 0hPa | 0V | 00:00:00 | 00:00:00 | 00:00:00 | |
| EA3GEO | 2026-09-03 12:12:24 | 41.13523 | 2.39090 | 11° | 7km/h | 20975m | 6.1m/s | 0°C | 0% | 0hPa | 0V | 00:00:00 | 00:00:00 | 00:00:00 | |
| EA3IBE | 2026-09-03 12:12:21 | 41.13523 | 2.39090 | 53° | 2km/h | 20960m | 5.9m/s | 0°C | 0% | 0hPa | 0V | 00:00:00 | 00:00:00 | 00:00:00 | |
| EA3GEO | 2026-09-03 12:12:18 | 41.13519 | 2.39085 | 52° | 9km/h | 20945m | 5.8m/s | 0°C | 0% | 0hPa | 0V | 00:00:00 | 00:00:00 | 00:00:00 | |
| EA3IBE | 2026-09-03 12:12:15 | 41.13512 | 2.39081 | 13° | 13km/h | 20931m | 5.6m/s | 0°C | 0% | 0hPa | 0V | 00:00:00 | 00:00:00 | 00:00:00 | |
| EA3GEO | 2026-09-03 12:12:12 | 41.13505 | 2.39077 | 42° | 5km/h | 20915m | 4.4m/s | 0°C | 0% | 0hPa | 0V | 00:00:00 | 00:00:00 | 00:00:00 | |
| EA3GEO | 2026-09-03 12:12:07 | 41.13498 | 2.39078 | 300° | 5km/h | 20890m | 4.6m/s | 0°C | 0% | 0hPa | 0V | 00:00:00 | 00:00:00 | 00:00:00 | |
| EA3IBE | 2026-09-03 12:12:04 | 41.13491 | 2.39086 | 337° | 18km/h | 20874m | 4.7m/s | 0°C | 0% | 0hPa | 0V | 00:00:00 | 00:00:00 | 00:00:00 | |
| EA3GEO | 2026-09-03 12:12:02 | 41.13483 | 2.39089 | 355° | 15km/h | 20864m | 3.3m/s | 0°C | 0% | 0hPa | 0V | 00:00:00 | 00:00:00 | 00:00:00 | |
| EA3IBE | 2026-09-03 12:11:57 | 41.13463 | 2.39099 | 329° | 11km/h | 20839m | 6.3m/s | 0°C | 0% | 0hPa | 0V | 00:00:00 | 00:00:00 | 00:00:00 | |
| EA3GEO | 2026-09-03 12:11:56 | 41.13461 | 2.39101 | 318° | 7km/h | 20834m | 4.0m/s | 0°C | 0% | 0hPa | 0V | 00:00:00 | 00:00:00 | 00:00:00 | |
| EA3IBE | 2026-09-03 12:11:52 | 41.13449 | 2.39115 | 326° | 22km/h | 20813m | 6.4m/s | 0°C | 0% | 0hPa | 0V | 00:00:00 | 00:00:00 | 00:00:00 | |
| EA3GEO | 2026-09-03 12:11:46 | 41.13427 | 2.39138 | 325° | 5km/h | 20782m | 3.9m/s | 0°C | 0% | 0hPa | 0V | 00:00:00 | 00:00:00 | 00:00:00 | |
| EA3GEO | 2026-09-03 12:11:39 | 41.13406 | 2.39161 | 320° | 26km/h | 20747m | 5.9m/s | 0°C | 0% | 0hPa | 0V | 00:00:00 | 00:00:00 | 00:00:00 | |
| EA3GEO | 2026-09-03 12:11:34 | 41.13388 | 2.39178 | 349° | 11km/h | 20724m | 5.5m/s | 0°C | 0% | 0hPa | 0V | 00:00:00 | 00:00:00 | 00:00:00 | |
| EA3IBE | 2026-09-03 12:11:33 | 41.13385 | 2.39179 | 346° | 18km/h | 20718m | 5.2m/s | 0°C | 0% | 0hPa | 0V | 00:00:00 | 00:00:00 | 00:00:00 | |
| EA3GEO | 2026-09-03 12:11:29 | 41.13366 | 2.39192 | 311° | 22km/h | 20700m | 4.7m/s | 0°C | 0% | 0hPa | 0V | 00:00:00 | 00:00:00 | 00:00:00 | |
| EA3IBE | 2026-09-03 12:11:28 | 41.13362 | 2.39198 | 313° | 22km/h | 20695m | 4.3m/s | 0°C | 0% | 0hPa | 0V | 00:00:00 | 00:00:00 | 00:00:00 | |
| EA3GEO | 2026-09-03 12:11:23 | 41.13341 | 2.39204 | 40° | 13km/h | 20671m | 4.9m/s | 0°C | 0% | 0hPa | 0V | 00:00:00 | 00:00:00 | 00:00:00 | |
| EA3IBE | 2026-09-03 12:11:22 | 41.13338 | 2.39201 | 44° | 15km/h | 20665m | 5.1m/s | 0°C | 0% | 0hPa | 0V | 00:00:00 | 00:00:00 | 00:00:00 | |
| EA3GEO | 2026-09-03 12:11:18 | 41.13323 | 2.39196 | 333° | 16km/h | 20646m | 5.1m/s | 0°C | 0% | 0hPa | 0V | 00:00:00 | 00:00:00 | 00:00:00 | |
| EA3IBE | 2026-09-03 12:11:17 | 41.13319 | 2.39199 | 327° | 20km/h | 20641m | 4.5m/s | 0°C | 0% | 0hPa | 0V | 00:00:00 | 00:00:00 | 00:00:00 | |
| EA3GEO | 2026-09-03 12:11:12 | 41.13296 | 2.39209 | 2° | 13km/h | 20615m | 4.6m/s | 0°C | 0% | 0hPa | 0V | 00:00:00 | 00:00:00 | 00:00:00 | |
| EA3IBE | 2026-09-03 12:11:11 | 41.13292 | 2.39209 | 8° | 18km/h | 20610m | 6.4m/s | 0°C | 0% | 0hPa | 0V | 00:00:00 | 00:00:00 | 00:00:00 | |
| EA3GEO | 2026-09-03 12:11:06 | 41.13266 | 2.39222 | 319° | 24km/h | 20584m | 5.0m/s | 0°C | 0% | 0hPa | 0V | 00:00:00 | 00:00:00 | 00:00:00 | |
| EA3IBE | 2026-09-03 12:11:05 | 41.13261 | 2.39227 | 330° | 26km/h | 20579m | 5.5m/s | 0°C | 0% | 0hPa | 0V | 00:00:00 | 00:00:00 | 00:00:00 | |
| EA3GEO | 2026-09-03 12:11:01 | 41.13244 | 2.39236 | 324° | 15km/h | 20560m | 4.5m/s | 0°C | 0% | 0hPa | 0V | 00:00:00 | 00:00:00 | 00:00:00 | |
| EA3IBE | 2026-09-03 12:11:00 | 41.13241 | 2.39240 | 329° | 18km/h | 20556m | 4.3m/s | 0°C | 0% | 0hPa | 0V | 00:00:00 | 00:00:00 | 00:00:00 | |
| EA3GEO | 2026-09-03 12:10:56 | 41.13221 | 2.39251 | 328° | 18km/h | 20535m | 4.6m/s | 0°C | 0% | 0hPa | 0V | 00:00:00 | 00:00:00 | 00:00:00 | |
| EA3IBE | 2026-09-03 12:10:54 | 41.13213 | 2.39257 | 348° | 18km/h | 20526m | 5.8m/s | 0°C | 0% | 0hPa | 0V | 00:00:00 | 00:00:00 | 00:00:00 | |
| EA3GEO | 2026-09-03 12:10:50 | 41.13198 | 2.39265 | 327° | 16km/h | 20506m | 4.7m/s | 0°C | 0% | 0hPa | 0V | 00:00:00 | 00:00:00 | 00:00:00 | |
| EA3IBE | 2026-09-03 12:10:49 | 41.13194 | 2.39268 | 340° | 16km/h | 20501m | 5.8m/s | 0°C | 0% | 0hPa | 0V | 00:00:00 | 00:00:00 | 00:00:00 | |
| EA3GEO | 2026-09-03 12:10:44 | 41.13173 | 2.39284 | 343° | 20km/h | 20475m | 6.0m/s | 0°C | 0% | 0hPa | 0V | 00:00:00 | 00:00:00 | 00:00:00 | |
| EA3IBE | 2026-09-03 12:10:43 | 41.13168 | 2.39284 | 1° | 16km/h | 20470m | 4.8m/s | 0°C | 0% | 0hPa | 0V | 00:00:00 | 00:00:00 | 00:00:00 | |
| EA3GEO | 2026-09-03 12:10:39 | 41.13162 | 2.39287 | 288° | 7km/h | 20450m | 3.6m/s | 0°C | 0% | 0hPa | 0V | 00:00:00 | 00:00:00 | 00:00:00 | |
| EA3IBE | 2026-09-03 12:10:37 | 41.13157 | 2.39290 | 2° | 18km/h | 20440m | 5.5m/s | 0°C | 0% | 0hPa | 0V | 00:00:00 | 00:00:00 | 00:00:00 | |
| EA3GEO | 2026-09-03 12:10:34 | 41.13140 | 2.39290 | 351° | 20km/h | 20425m | 4.3m/s | 0°C | 0% | 0hPa | 0V | 00:00:00 | 00:00:00 | 00:00:00 | |
| EA3IBE | 2026-09-03 12:10:32 | 41.13132 | 2.39292 | 4° | 15km/h | 20415m | 6.1m/s | 0°C | 0% | 0hPa | 0V | 00:00:00 | 00:00:00 | 00:00:00 | |
| EA3GEO | 2026-09-03 12:10:28 | 41.13124 | 2.39292 | 303° | 9km/h | 20394m | 4.1m/s | 0°C | 0% | 0hPa | 0V | 00:00:00 | 00:00:00 | 00:00:00 | |
| EA3IBE | 2026-09-03 12:10:26 | 41.13118 | 2.39298 | 336° | 22km/h | 20384m | 5.1m/s | 0°C | 0% | 0hPa | 0V | 00:00:00 | 00:00:00 | 00:00:00 | |
| EA3GEO | 2026-09-03 12:10:22 | 41.13096 | 2.39308 | 358° | 20km/h | 20364m | 6.0m/s | 0°C | 0% | 0hPa | 0V | 00:00:00 | 00:00:00 | 00:00:00 | |
| EA3IBE | 2026-09-03 12:10:20 | 41.13088 | 2.39307 | 3° | 7km/h | 20354m | 4.4m/s | 0°C | 0% | 0hPa | 0V | 00:00:00 | 00:00:00 | 00:00:00 | |
| EA3GEO | 2026-09-03 12:10:16 | 41.13088 | 2.39315 | 319° | 5km/h | 20333m | 5.7m/s | 0°C | 0% | 0hPa | 0V | 00:00:00 | 00:00:00 | 00:00:00 | |
| EA3IBE | 2026-09-03 12:10:15 | 41.13086 | 2.39316 | 1° | 13km/h | 20328m | 4.6m/s | 0°C | 0% | 0hPa | 0V | 00:00:00 | 00:00:00 | 00:00:00 | |
| EA3GEO | 2026-09-03 12:10:10 | 41.13066 | 2.39319 | 351° | 11km/h | 20302m | 6.3m/s | 0°C | 0% | 0hPa | 0V | 00:00:00 | 00:00:00 | 00:00:00 | |
| EA3IBE | 2026-09-03 12:10:07 | 41.13064 | 2.39323 | 237° | 11km/h | 20285m | 6.4m/s | 0°C | 0% | 0hPa | 0V | 00:00:00 | 00:00:00 | 00:00:00 | |
| EA3GEO | 2026-09-03 12:10:04 | 41.13070 | 2.39330 | 0° | 0km/h | 20270m | 5.7m/s | 0°C | 0% | 0hPa | 0V | 00:00:00 | 00:00:00 | 00:00:00 | |
| EA3IBE | 2026-09-03 12:10:03 | 41.13068 | 2.39330 | 340° | 9km/h | 20259m | 6.0m/s | 0°C | 0% | 0hPa | 0V | 00:00:00 | 00:00:00 | 00:00:00 | |
| EA3GEO | 2026-09-03 12:09:58 | 41.13062 | 2.39341 | 283° | 5km/h | 20238m | 4.9m/s | 0°C | 0% | 0hPa | 0V | 00:00:00 | 00:00:00 | 00:00:00 | |
| EA3IBE | 2026-09-03 12:09:56 | 41.13062 | 2.39346 | 255° | 9km/h | 20227m | 4.9m/s | 0°C | 0% | 0hPa | 0V | 00:00:00 | 00:00:00 | 00:00:00 | |
| EA3GEO | 2026-09-03 12:09:53 | 41.13067 | 2.39349 | 174° | 11km/h | 20211m | 4.7m/s | 0°C | 0% | 0hPa | 0V | 00:00:00 | 00:00:00 | 00:00:00 | |
| EA3IBE | 2026-09-03 12:09:50 | 41.13074 | 2.39352 | 222° | 9km/h | 20195m | 5.2m/s | 0°C | 0% | 0hPa | 0V | 00:00:00 | 00:00:00 | 00:00:00 | |
| EA3GEO | 2026-09-03 12:09:48 | 41.13078 | 2.39358 | 244° | 11km/h | 20181m | 6.2m/s | 0°C | 0% | 0hPa | 0V | 00:00:00 | 00:00:00 | 00:00:00 | |
| EA3IBE | 2026-09-03 12:09:44 | 41.13086 | 2.39364 | 165° | 16km/h | 20166m | 5.9m/s | 0°C | 0% | 0hPa | 0V | 00:00:00 | 00:00:00 | 00:00:00 | |
| EA3GEO | 2026-09-03 12:09:42 | 41.13095 | 2.39359 | 154° | 18km/h | 20155m | 5.4m/s | 0°C | 0% | 0hPa | 0V | 00:00:00 | 00:00:00 | 00:00:00 | |
| EA3IBE | 2026-09-03 12:09:39 | 41.13104 | 2.39356 | 194° | 9km/h | 20140m | 5.7m/s | 0°C | 0% | 0hPa | 0V | 00:00:00 | 00:00:00 | 00:00:00 | |
| EA3GEO | 2026-09-03 12:09:36 | 41.13107 | 2.39365 | 282° | 13km/h | 20124m | 3.6m/s | 0°C | 0% | 0hPa | 0V | 00:00:00 | 00:00:00 | 00:00:00 | |
| EA3GEO | 2026-09-03 12:09:31 | 41.13111 | 2.39364 | 180° | 9km/h | 20099m | 5.4m/s | 0°C | 0% | 0hPa | 0V | 00:00:00 | 00:00:00 | 00:00:00 | |
| EA3IBE | 2026-09-03 12:09:30 | 41.13113 | 2.39365 | 218° | 9km/h | 20095m | 3.9m/s | 0°C | 0% | 0hPa | 0V | 00:00:00 | 00:00:00 | 00:00:00 | |
| EA3GEO | 2026-09-03 12:09:25 | 41.13118 | 2.39371 | 277° | 7km/h | 20070m | 6.0m/s | 0°C | 0% | 0hPa | 0V | 00:00:00 | 00:00:00 | 00:00:00 | |
| EA3IBE | 2026-09-03 12:09:24 | 41.13117 | 2.39373 | 296° | 11km/h | 20065m | 4.1m/s | 0°C | 0% | 0hPa | 0V | 00:00:00 | 00:00:00 | 00:00:00 | |
| EA3GEO | 2026-09-03 12:09:20 | 41.13115 | 2.39380 | 240° | 9km/h | 20044m | 5.7m/s | 0°C | 0% | 0hPa | 0V | 00:00:00 | 00:00:00 | 00:00:00 | |
| EA3IBE | 2026-09-03 12:09:18 | 41.13118 | 2.39385 | 222° | 7km/h | 20035m | 5.6m/s | 0°C | 0% | 0hPa | 0V | 00:00:00 | 00:00:00 | 00:00:00 | |
| EA3GEO | 2026-09-03 12:09:16 | 41.13118 | 2.39391 | 289° | 15km/h | 20019m | 6.0m/s | 0°C | 0% | 0hPa | 0V | 00:00:00 | 00:00:00 | 00:00:00 | |
| EA3IBE | 2026-09-03 12:09:07 | 41.13110 | 2.39431 | 233° | 15km/h | 19979m | 6.3m/s | 0°C | 0% | 0hPa | 0V | 00:00:00 | 00:00:00 | 00:00:00 | |
| EA3GEO | 2026-09-03 12:09:03 | 41.13112 | 2.39445 | 281° | 16km/h | 19959m | 4.1m/s | 0°C | 0% | 0hPa | 0V | 00:00:00 | 00:00:00 | 00:00:00 | |
| EA3IBE | 2026-09-03 12:09:01 | 41.13111 | 2.39456 | 269° | 16km/h | 19949m | 4.5m/s | 0°C | 0% | 0hPa | 0V | 00:00:00 | 00:00:00 | 00:00:00 | |
| EA3GEO | 2026-09-03 12:08:58 | 41.13119 | 2.39475 | 220° | 27km/h | 19935m | 3.6m/s | 0°C | 0% | 0hPa | 0V | 00:00:00 | 00:00:00 | 00:00:00 | |
| EA3IBE | 2026-09-03 12:08:56 | 41.13130 | 2.39482 | 194° | 15km/h | 19925m | 5.0m/s | 0°C | 0% | 0hPa | 0V | 00:00:00 | 00:00:00 | 00:00:00 | |
| EA3GEO | 2026-09-03 12:08:52 | 41.13129 | 2.39497 | 285° | 29km/h | 19906m | 4.4m/s | 0°C | 0% | 0hPa | 0V | 00:00:00 | 00:00:00 | 00:00:00 | |
| EA3GEO | 2026-09-03 12:08:47 | 41.13133 | 2.39530 | 214° | 18km/h | 19882m | 5.1m/s | 0°C | 0% | 0hPa | 0V | 00:00:00 | 00:00:00 | 00:00:00 | |
| EA3IBE | 2026-09-03 12:08:46 | 41.13137 | 2.39534 | 216° | 24km/h | 19876m | 6.7m/s | 0°C | 0% | 0hPa | 0V | 00:00:00 | 00:00:00 | 00:00:00 | |
| EA3GEO | 2026-09-03 12:08:42 | 41.13153 | 2.39552 | 229° | 15km/h | 19855m | 4.2m/s | 0°C | 0% | 0hPa | 0V | 00:00:00 | 00:00:00 | 00:00:00 | |
| EA3GEO | 2026-09-03 12:08:37 | 41.13166 | 2.39576 | 206° | 18km/h | 19827m | 4.6m/s | 0°C | 0% | 0hPa | 0V | 00:00:00 | 00:00:00 | 00:00:00 | |
| EA3GEO | 2026-09-03 12:08:30 | 41.13199 | 2.39604 | 224° | 22km/h | 19797m | 5.5m/s | 0°C | 0% | 0hPa | 0V | 00:00:00 | 00:00:00 | 00:00:00 | |
| EA3GEO | 2026-09-03 12:08:25 | 41.13221 | 2.39630 | 202° | 26km/h | 19772m | 4.0m/s | 0°C | 0% | 0hPa | 0V | 00:00:00 | 00:00:00 | 00:00:00 | |
| EA3IBE | 2026-09-03 12:08:22 | 41.13240 | 2.39643 | 209° | 31km/h | 19757m | 4.9m/s | 0°C | 0% | 0hPa | 0V | 00:00:00 | 00:00:00 | 00:00:00 | |
| EA3GEO | 2026-09-03 12:08:20 | 41.13255 | 2.39652 | 206° | 27km/h | 19748m | 3.3m/s | 0°C | 0% | 0hPa | 0V | 00:00:00 | 00:00:00 | 00:00:00 | |
| EA3IBE | 2026-09-03 12:08:17 | 41.13269 | 2.39668 | 232° | 24km/h | 19734m | 4.1m/s | 0°C | 0% | 0hPa | 0V | 00:00:00 | 00:00:00 | 00:00:00 | |
| EA3GEO | 2026-09-03 12:08:14 | 41.13284 | 2.39678 | 179° | 22km/h | 19720m | 4.4m/s | 0°C | 0% | 0hPa | 0V | 00:00:00 | 00:00:00 | 00:00:00 | |
| EA3GEO | 2026-09-03 12:08:09 | 41.13315 | 2.39684 | 192° | 33km/h | 19695m | 5.8m/s | 0°C | 0% | 0hPa | 0V | 00:00:00 | 00:00:00 | 00:00:00 | |
| EA3GEO | 2026-09-03 12:08:03 | 41.13347 | 2.39697 | 168° | 22km/h | 19667m | 5.5m/s | 0°C | 0% | 0hPa | 0V | 00:00:00 | 00:00:00 | 00:00:00 | |
| EA3GEO | 2026-09-03 12:07:58 | 41.13383 | 2.39697 | 196° | 29km/h | 19642m | 5.7m/s | 0°C | 0% | 0hPa | 0V | 00:00:00 | 00:00:00 | 00:00:00 | |
| EA3IBE | 2026-09-03 12:07:54 | 41.13408 | 2.39704 | 193° | 22km/h | 19620m | 4.7m/s | 0°C | 0% | 0hPa | 0V | 00:00:00 | 00:00:00 | 00:00:00 | |
| EA3GEO | 2026-09-03 12:07:52 | 41.13420 | 2.39703 | 168° | 27km/h | 19610m | 5.7m/s | 0°C | 0% | 0hPa | 0V | 00:00:00 | 00:00:00 | 00:00:00 | |
| EA3GEO | 2026-09-03 12:07:47 | 41.13457 | 2.39703 | 189° | 29km/h | 19584m | 6.0m/s | 0°C | 0% | 0hPa | 0V | 00:00:00 | 00:00:00 | 00:00:00 | |
| EA3GEO | 2026-09-03 12:07:42 | 41.13489 | 2.39703 | 174° | 26km/h | 19558m | 6.6m/s | 0°C | 0% | 0hPa | 0V | 00:00:00 | 00:00:00 | 00:00:00 | |
| EA3IBE | 2026-09-03 12:07:41 | 41.13496 | 2.39701 | 168° | 31km/h | 19553m | 4.5m/s | 0°C | 0% | 0hPa | 0V | 00:00:00 | 00:00:00 | 00:00:00 | |
| EA3IBE | 2026-09-03 12:07:36 | 41.13538 | 2.39698 | 171° | 33km/h | 19529m | 5.7m/s | 0°C | 0% | 0hPa | 0V | 00:00:00 | 00:00:00 | 00:00:00 | |
| EA3GEO | 2026-09-03 12:07:29 | 41.13587 | 2.39687 | 163° | 31km/h | 19495m | 3.6m/s | 0°C | 0% | 0hPa | 0V | 00:00:00 | 00:00:00 | 00:00:00 | |
| EA3IBE | 2026-09-03 12:07:19 | 41.13646 | 2.39651 | 163° | 35km/h | 19446m | 6.0m/s | 0°C | 0% | 0hPa | 0V | 00:00:00 | 00:00:00 | 00:00:00 | |
| EA3GEO | 2026-09-03 12:07:18 | 41.13654 | 2.39647 | 158° | 33km/h | 19440m | 4.2m/s | 0°C | 0% | 0hPa | 0V | 00:00:00 | 00:00:00 | 00:00:00 | |
| EA3GEO | 2026-09-03 12:07:12 | 41.13688 | 2.39614 | 140° | 31km/h | 19411m | 5.8m/s | 0°C | 0% | 0hPa | 0V | 00:00:00 | 00:00:00 | 00:00:00 | |
| EA3IBE | 2026-09-03 12:07:11 | 41.13694 | 2.39608 | 151° | 29km/h | 19405m | 4.6m/s | 0°C | 0% | 0hPa | 0V | 00:00:00 | 00:00:00 | 00:00:00 | |
| EA3GEO | 2026-09-03 12:07:07 | 41.13724 | 2.39587 | 153° | 35km/h | 19386m | 5.1m/s | 0°C | 0% | 0hPa | 0V | 00:00:00 | 00:00:00 | 00:00:00 | |
| EA3IBE | 2026-09-03 12:07:03 | 41.13749 | 2.39563 | 130° | 33km/h | 19366m | 4.6m/s | 0°C | 0% | 0hPa | 0V | 00:00:00 | 00:00:00 | 00:00:00 | |
| EA3GEO | 2026-09-03 12:07:01 | 41.13760 | 2.39548 | 140° | 29km/h | 19356m | 5.3m/s | 0°C | 0% | 0hPa | 0V | 00:00:00 | 00:00:00 | 00:00:00 | |
| EA3GEO | 2026-09-03 12:06:55 | 41.13799 | 2.39507 | 138° | 31km/h | 19326m | 3.0m/s | 0°C | 0% | 0hPa | 0V | 00:00:00 | 00:00:00 | 00:00:00 | |
| EA3IBE | 2026-09-03 12:06:53 | 41.13809 | 2.39490 | 115° | 35km/h | 19317m | 5.6m/s | 0°C | 0% | 0hPa | 0V | 00:00:00 | 00:00:00 | 00:00:00 | |
| EA3GEO | 2026-09-03 12:06:49 | 41.13821 | 2.39457 | 147° | 22km/h | 19298m | 4.1m/s | 0°C | 0% | 0hPa | 0V | 00:00:00 | 00:00:00 | 00:00:00 | |
| EA3GEO | 2026-09-03 12:06:44 | 41.13852 | 2.39420 | 132° | 37km/h | 19274m | 4.5m/s | 0°C | 0% | 0hPa | 0V | 00:00:00 | 00:00:00 | 00:00:00 | |
| EA3IBE | 2026-09-03 12:06:41 | 41.13870 | 2.39388 | 122° | 40km/h | 19261m | 3.8m/s | 0°C | 0% | 0hPa | 0V | 00:00:00 | 00:00:00 | 00:00:00 | |
| EA3GEO | 2026-09-03 12:06:38 | 41.13879 | 2.39360 | 109° | 26km/h | 19247m | 3.4m/s | 0°C | 0% | 0hPa | 0V | 00:00:00 | 00:00:00 | 00:00:00 | |
| EA3GEO | 2026-09-03 12:06:33 | 41.13905 | 2.39317 | 139° | 31km/h | 19225m | 4.9m/s | 0°C | 0% | 0hPa | 0V | 00:00:00 | 00:00:00 | 00:00:00 | |
| EA3IBE | 2026-09-03 12:06:30 | 41.13920 | 2.39296 | 130° | 33km/h | 19211m | 5.4m/s | 0°C | 0% | 0hPa | 0V | 00:00:00 | 00:00:00 | 00:00:00 | |
| EA3GEO | 2026-09-03 12:06:27 | 41.13932 | 2.39266 | 109° | 31km/h | 19196m | 3.8m/s | 0°C | 0% | 0hPa | 0V | 00:00:00 | 00:00:00 | 00:00:00 | |
| EA3IBE | 2026-09-03 12:06:24 | 41.13943 | 2.39237 | 128° | 33km/h | 19184m | 3.8m/s | 0°C | 0% | 0hPa | 0V | 00:00:00 | 00:00:00 | 00:00:00 | |
| EA3GEO | 2026-09-03 12:06:21 | 41.13956 | 2.39217 | 127° | 22km/h | 19171m | 3.9m/s | 0°C | 0% | 0hPa | 0V | 00:00:00 | 00:00:00 | 00:00:00 | |
| EA3IBE | 2026-09-03 12:06:15 | 41.13975 | 2.39170 | 118° | 29km/h | 19143m | 5.2m/s | 0°C | 0% | 0hPa | 0V | 00:00:00 | 00:00:00 | 00:00:00 | |
| EA3GEO | 2026-09-03 12:06:10 | 41.13991 | 2.39130 | 129° | 26km/h | 19121m | 5.3m/s | 0°C | 0% | 0hPa | 0V | 00:00:00 | 00:00:00 | 00:00:00 | |
| EA3GEO | 2026-09-03 12:06:04 | 41.14006 | 2.39088 | 113° | 29km/h | 19094m | 4.1m/s | 0°C | 0% | 0hPa | 0V | 00:00:00 | 00:00:00 | 00:00:00 | |
| EA3IBE | 2026-09-03 12:06:01 | 41.14014 | 2.39061 | 121° | 26km/h | 19080m | 4.5m/s | 0°C | 0% | 0hPa | 0V | 00:00:00 | 00:00:00 | 00:00:00 | |
| EA3GEO | 2026-09-03 12:05:58 | 41.14025 | 2.39045 | 128° | 16km/h | 19066m | 5.7m/s | 0°C | 0% | 0hPa | 0V | 00:00:00 | 00:00:00 | 00:00:00 | |
| EA3IBE | 2026-09-03 12:05:54 | 41.14029 | 2.39021 | 112° | 24km/h | 19048m | 4.9m/s | 0°C | 0% | 0hPa | 0V | 00:00:00 | 00:00:00 | 00:00:00 | |
| EA3GEO | 2026-09-03 12:05:46 | 41.14045 | 2.38975 | 114° | 15km/h | 19014m | 5.0m/s | 0°C | 0% | 0hPa | 0V | 00:00:00 | 00:00:00 | 00:00:00 | |
| EA3GEO | 2026-09-03 12:05:41 | 41.14051 | 2.38949 | 123° | 18km/h | 18991m | 5.4m/s | 0°C | 0% | 0hPa | 0V | 00:00:00 | 00:00:00 | 00:00:00 | |
| EA3GEO | 2026-09-03 12:05:35 | 41.14070 | 2.38915 | 116° | 18km/h | 18962m | 4.5m/s | 0°C | 0% | 0hPa | 0V | 00:00:00 | 00:00:00 | 00:00:00 | |
| EA3GEO | 2026-09-03 12:05:30 | 41.14082 | 2.38896 | 132° | 13km/h | 18938m | 4.9m/s | 0°C | 0% | 0hPa | 0V | 00:00:00 | 00:00:00 | 00:00:00 | |
| EA3GEO | 2026-09-03 12:05:26 | 41.14099 | 2.38878 | 129° | 18km/h | 18914m | 5.3m/s | 0°C | 0% | 0hPa | 0V | 00:00:00 | 00:00:00 | 00:00:00 | |
| EA3GEO | 2026-09-03 12:05:20 | 41.14111 | 2.38858 | 136° | 13km/h | 18890m | 5.4m/s | 0°C | 0% | 0hPa | 0V | 00:00:00 | 00:00:00 | 00:00:00 | |
| EA3GEO | 2026-09-03 12:05:14 | 41.14133 | 2.38837 | 137° | 16km/h | 18862m | 3.5m/s | 0°C | 0% | 0hPa | 0V | 00:00:00 | 00:00:00 | 00:00:00 | |
| EA3GEO | 2026-09-03 12:05:08 | 41.14154 | 2.38820 | 170° | 20km/h | 18834m | 5.3m/s | 0°C | 0% | 0hPa | 0V | 00:00:00 | 00:00:00 | 00:00:00 | |
| EA3IBE | 2026-09-03 12:05:06 | 41.14164 | 2.38816 | 160° | 20km/h | 18825m | 4.9m/s | 0°C | 0% | 0hPa | 0V | 00:00:00 | 00:00:00 | 00:00:00 | |
| EA3GEO | 2026-09-03 12:05:03 | 41.14174 | 2.38808 | 158° | 11km/h | 18812m | 5.8m/s | 0°C | 0% | 0hPa | 0V | 00:00:00 | 00:00:00 | 00:00:00 | |
| EA3GEO | 2026-09-03 12:04:57 | 41.14192 | 2.38814 | 187° | 22km/h | 18784m | 6.2m/s | 0°C | 0% | 0hPa | 0V | 00:00:00 | 00:00:00 | 00:00:00 | |
| EA3GEO | 2026-09-03 12:04:52 | 41.14215 | 2.38811 | 158° | 11km/h | 18760m | 5.4m/s | 0°C | 0% | 0hPa | 0V | 00:00:00 | 00:00:00 | 00:00:00 | |
| EA3GEO | 2026-09-03 12:04:47 | 41.14228 | 2.38808 | 170° | 15km/h | 18737m | 6.1m/s | 0°C | 0% | 0hPa | 0V | 00:00:00 | 00:00:00 | 00:00:00 | |
| EA3GEO | 2026-09-03 12:04:41 | 41.14252 | 2.38798 | 166° | 13km/h | 18710m | 4.7m/s | 0°C | 0% | 0hPa | 0V | 00:00:00 | 00:00:00 | 00:00:00 | |
| EA3GEO | 2026-09-03 12:04:35 | 41.14269 | 2.38796 | 203° | 15km/h | 18675m | 5.6m/s | 0°C | 0% | 0hPa | 0V | 00:00:00 | 00:00:00 | 00:00:00 | |
| EA3GEO | 2026-09-03 12:04:27 | 41.14284 | 2.38797 | 177° | 7km/h | 18641m | 3.8m/s | 0°C | 0% | 0hPa | 0V | 00:00:00 | 00:00:00 | 00:00:00 | |
| EA3GEO | 2026-09-03 12:04:16 | 41.14301 | 2.38806 | 191° | 9km/h | 18589m | 3.4m/s | 0°C | 0% | 0hPa | 0V | 00:00:00 | 00:00:00 | 00:00:00 | |
| EA3GEO | 2026-09-03 12:04:09 | 41.14305 | 2.38821 | 225° | 7km/h | 18557m | 4.9m/s | 0°C | 0% | 0hPa | 0V | 00:00:00 | 00:00:00 | 00:00:00 | |
| EA3IBE | 2026-09-03 12:04:08 | 41.14307 | 2.38823 | 204° | 13km/h | 18551m | 5.3m/s | 0°C | 0% | 0hPa | 0V | 00:00:00 | 00:00:00 | 00:00:00 | |
| EA3GEO | 2026-09-03 12:04:04 | 41.14317 | 2.38831 | 230° | 15km/h | 18533m | 5.0m/s | 0°C | 0% | 0hPa | 0V | 00:00:00 | 00:00:00 | 00:00:00 | |
| EA3IBE | 2026-09-03 12:04:02 | 41.14321 | 2.38838 | 240° | 9km/h | 18524m | 3.7m/s | 0°C | 0% | 0hPa | 0V | 00:00:00 | 00:00:00 | 00:00:00 | |
| EA3GEO | 2026-09-03 12:03:58 | 41.14322 | 2.38844 | 227° | 11km/h | 18505m | 5.0m/s | 0°C | 0% | 0hPa | 0V | 00:00:00 | 00:00:00 | 00:00:00 | |
| EA3IBE | 2026-09-03 12:03:55 | 41.14328 | 2.38853 | 213° | 9km/h | 18492m | 4.7m/s | 0°C | 0% | 0hPa | 0V | 00:00:00 | 00:00:00 | 00:00:00 | |
| EA3GEO | 2026-09-03 12:03:53 | 41.14333 | 2.38856 | 198° | 11km/h | 18484m | 4.7m/s | 0°C | 0% | 0hPa | 0V | 00:00:00 | 00:00:00 | 00:00:00 | |
| EA3GEO | 2026-09-03 12:03:47 | 41.14340 | 2.38873 | 265° | 16km/h | 18454m | 4.9m/s | 0°C | 0% | 0hPa | 0V | 00:00:00 | 00:00:00 | 00:00:00 | |
| EA3IBE | 2026-09-03 12:03:43 | 41.14346 | 2.38890 | 217° | 16km/h | 18436m | 4.4m/s | 0°C | 0% | 0hPa | 0V | 00:00:00 | 00:00:00 | 00:00:00 | |
| EA3GEO | 2026-09-03 12:03:42 | 41.14349 | 2.38894 | 219° | 20km/h | 18431m | 5.5m/s | 0°C | 0% | 0hPa | 0V | 00:00:00 | 00:00:00 | 00:00:00 | |
| EA3IBE | 2026-09-03 12:03:38 | 41.14356 | 2.38908 | 308° | 15km/h | 18412m | 4.1m/s | 0°C | 0% | 0hPa | 0V | 00:00:00 | 00:00:00 | 00:00:00 | |
| EA3GEO | 2026-09-03 12:03:37 | 41.14354 | 2.38913 | 301° | 16km/h | 18407m | 5.2m/s | 0°C | 0% | 0hPa | 0V | 00:00:00 | 00:00:00 | 00:00:00 | |
| EA3GEO | 2026-09-03 12:03:32 | 41.14364 | 2.38934 | 206° | 15km/h | 18383m | 4.5m/s | 0°C | 0% | 0hPa | 0V | 00:00:00 | 00:00:00 | 00:00:00 | |
| EA3IBE | 2026-09-03 12:03:31 | 41.14367 | 2.38937 | 220° | 13km/h | 18378m | 5.3m/s | 0°C | 0% | 0hPa | 0V | 00:00:00 | 00:00:00 | 00:00:00 | |
| EA3GEO | 2026-09-03 12:03:26 | 41.14382 | 2.38954 | 225° | 15km/h | 18354m | 5.0m/s | 0°C | 0% | 0hPa | 0V | 00:00:00 | 00:00:00 | 00:00:00 | |
| EA3IBE | 2026-09-03 12:03:24 | 41.14388 | 2.38960 | 204° | 16km/h | 18344m | 5.6m/s | 0°C | 0% | 0hPa | 0V | 00:00:00 | 00:00:00 | 00:00:00 | |
| EA3GEO | 2026-09-03 12:03:20 | 41.14402 | 2.38964 | 191° | 13km/h | 18326m | 4.0m/s | 0°C | 0% | 0hPa | 0V | 00:00:00 | 00:00:00 | 00:00:00 | |
| EA3IBE | 2026-09-03 12:03:17 | 41.14416 | 2.38965 | 177° | 24km/h | 18311m | 2.9m/s | 0°C | 0% | 0hPa | 0V | 00:00:00 | 00:00:00 | 00:00:00 | |
| EA3GEO | 2026-09-03 12:03:15 | 41.14425 | 2.38962 | 150° | 15km/h | 18301m | 5.2m/s | 0°C | 0% | 0hPa | 0V | 00:00:00 | 00:00:00 | 00:00:00 | |
| EA3IBE | 2026-09-03 12:03:11 | 41.14440 | 2.38956 | 172° | 22km/h | 18282m | 3.8m/s | 0°C | 0% | 0hPa | 0V | 00:00:00 | 00:00:00 | 00:00:00 | |
| EA3GEO | 2026-09-03 12:03:04 | 41.14480 | 2.38944 | 163° | 16km/h | 18249m | 4.0m/s | 0°C | 0% | 0hPa | 0V | 00:00:00 | 00:00:00 | 00:00:00 | |
| EA3IBE | 2026-09-03 12:03:02 | 41.14490 | 2.38940 | 164° | 24km/h | 18240m | 5.8m/s | 0°C | 0% | 0hPa | 0V | 00:00:00 | 00:00:00 | 00:00:00 | |
| EA3GEO | 2026-09-03 12:02:58 | 41.14515 | 2.38924 | 157° | 31km/h | 18219m | 5.9m/s | 0°C | 0% | 0hPa | 0V | 00:00:00 | 00:00:00 | 00:00:00 | |
| EA3IBE | 2026-09-03 12:02:57 | 41.14523 | 2.38920 | 163° | 29km/h | 18215m | 3.8m/s | 0°C | 0% | 0hPa | 0V | 00:00:00 | 00:00:00 | 00:00:00 | |
| EA3IBE | 2026-09-03 12:02:52 | 41.14547 | 2.38903 | 149° | 20km/h | 18190m | 4.7m/s | 0°C | 0% | 0hPa | 0V | 00:00:00 | 00:00:00 | 00:00:00 | |
| EA3GEO | 2026-09-03 12:02:46 | 41.14582 | 2.38876 | 162° | 26km/h | 18161m | 4.2m/s | 0°C | 0% | 0hPa | 0V | 00:00:00 | 00:00:00 | 00:00:00 | |
| EA3IBE | 2026-09-03 12:02:45 | 41.14587 | 2.38873 | 150° | 20km/h | 18156m | 5.5m/s | 0°C | 0% | 0hPa | 0V | 00:00:00 | 00:00:00 | 00:00:00 | |
| EA3GEO | 2026-09-03 12:02:40 | 41.14606 | 2.38858 | 168° | 26km/h | 18133m | 4.8m/s | 0°C | 0% | 0hPa | 0V | 00:00:00 | 00:00:00 | 00:00:00 | |
| EA3GEO | 2026-09-03 12:02:34 | 41.14642 | 2.38844 | 154° | 11km/h | 18102m | 4.8m/s | 0°C | 0% | 0hPa | 0V | 00:00:00 | 00:00:00 | 00:00:00 | |
| EA3IBE | 2026-09-03 12:02:33 | 41.14644 | 2.38843 | 166° | 11km/h | 18098m | 3.5m/s | 0°C | 0% | 0hPa | 0V | 00:00:00 | 00:00:00 | 00:00:00 | |
| EA3GEO | 2026-09-03 12:02:28 | 41.14675 | 2.38839 | 162° | 35km/h | 18074m | 4.5m/s | 0°C | 0% | 0hPa | 0V | 00:00:00 | 00:00:00 | 00:00:00 | |
| EA3IBE | 2026-09-03 12:02:27 | 41.14683 | 2.38836 | 164° | 33km/h | 18070m | 3.8m/s | 0°C | 0% | 0hPa | 0V | 00:00:00 | 00:00:00 | 00:00:00 | |
| EA3GEO | 2026-09-03 12:02:22 | 41.14715 | 2.38824 | 148° | 22km/h | 18046m | 4.1m/s | 0°C | 0% | 0hPa | 0V | 00:00:00 | 00:00:00 | 00:00:00 | |
| EA3IBE | 2026-09-03 12:02:20 | 41.14726 | 2.38818 | 168° | 27km/h | 18037m | 5.4m/s | 0°C | 0% | 0hPa | 0V | 00:00:00 | 00:00:00 | 00:00:00 | |
| EA3GEO | 2026-09-03 12:02:16 | 41.14755 | 2.38811 | 167° | 29km/h | 18017m | 3.9m/s | 0°C | 0% | 0hPa | 0V | 00:00:00 | 00:00:00 | 00:00:00 | |
| EA3IBE | 2026-09-03 12:02:12 | 41.14784 | 2.38801 | 153° | 27km/h | 17998m | 5.8m/s | 0°C | 0% | 0hPa | 0V | 00:00:00 | 00:00:00 | 00:00:00 | |
| EA3GEO | 2026-09-03 12:02:11 | 41.14790 | 2.38797 | 146° | 27km/h | 17993m | 3.8m/s | 0°C | 0% | 0hPa | 0V | 00:00:00 | 00:00:00 | 00:00:00 | |
| EA3GEO | 2026-09-03 12:02:06 | 41.14826 | 2.38774 | 158° | 31km/h | 17969m | 3.5m/s | 0°C | 0% | 0hPa | 0V | 00:00:00 | 00:00:00 | 00:00:00 | |
| EA3GEO | 2026-09-03 12:02:01 | 41.14859 | 2.38756 | 135° | 29km/h | 17944m | 4.1m/s | 0°C | 0% | 0hPa | 0V | 00:00:00 | 00:00:00 | 00:00:00 | |
| EA3IBE | 2026-09-03 12:02:00 | 41.14864 | 2.38749 | 134° | 29km/h | 17941m | 3.5m/s | 0°C | 0% | 0hPa | 0V | 00:00:00 | 00:00:00 | 00:00:00 | |
| EA3GEO | 2026-09-03 12:01:55 | 41.14892 | 2.38726 | 147° | 20km/h | 17917m | 4.7m/s | 0°C | 0% | 0hPa | 0V | 00:00:00 | 00:00:00 | 00:00:00 | |
| EA3IBE | 2026-09-03 12:01:51 | 41.14915 | 2.38705 | 142° | 38km/h | 17900m | 3.7m/s | 0°C | 0% | 0hPa | 0V | 00:00:00 | 00:00:00 | 00:00:00 | |
| EA3GEO | 2026-09-03 12:01:50 | 41.14922 | 2.38697 | 131° | 38km/h | 17895m | 4.7m/s | 0°C | 0% | 0hPa | 0V | 00:00:00 | 00:00:00 | 00:00:00 | |
| EA3GEO | 2026-09-03 12:01:43 | 41.14949 | 2.38656 | 136° | 27km/h | 17864m | 5.0m/s | 0°C | 0% | 0hPa | 0V | 00:00:00 | 00:00:00 | 00:00:00 | |
| EA3IBE | 2026-09-03 12:01:38 | 41.14967 | 2.38623 | 138° | 16km/h | 17842m | 4.6m/s | 0°C | 0% | 0hPa | 0V | 00:00:00 | 00:00:00 | 00:00:00 | |
| EA3GEO | 2026-09-03 12:01:37 | 41.14970 | 2.38619 | 141° | 20km/h | 17837m | 5.4m/s | 0°C | 0% | 0hPa | 0V | 00:00:00 | 00:00:00 | 00:00:00 | |
| EA3IBE | 2026-09-03 12:01:33 | 41.14992 | 2.38600 | 147° | 27km/h | 17820m | 3.3m/s | 0°C | 0% | 0hPa | 0V | 00:00:00 | 00:00:00 | 00:00:00 | |
| EA3GEO | 2026-09-03 12:01:32 | 41.14998 | 2.38595 | 139° | 27km/h | 17815m | 5.5m/s | 0°C | 0% | 0hPa | 0V | 00:00:00 | 00:00:00 | 00:00:00 | |
| EA3GEO | 2026-09-03 12:01:26 | 41.15023 | 2.38566 | 148° | 29km/h | 17788m | 3.6m/s | 0°C | 0% | 0hPa | 0V | 00:00:00 | 00:00:00 | 00:00:00 | |
| EA3IBE | 2026-09-03 12:01:25 | 41.15030 | 2.38560 | 156° | 31km/h | 17784m | 4.7m/s | 0°C | 0% | 0hPa | 0V | 00:00:00 | 00:00:00 | 00:00:00 | |
| EA3GEO | 2026-09-03 12:01:21 | 41.15058 | 2.38543 | 138° | 29km/h | 17766m | 4.9m/s | 0°C | 0% | 0hPa | 0V | 00:00:00 | 00:00:00 | 00:00:00 | |
| EA3IBE | 2026-09-03 12:01:20 | 41.15063 | 2.38536 | 133° | 29km/h | 17761m | 4.0m/s | 0°C | 0% | 0hPa | 0V | 00:00:00 | 00:00:00 | 00:00:00 | |
| EA3GEO | 2026-09-03 12:01:15 | 41.15099 | 2.38508 | 153° | 37km/h | 17739m | 3.2m/s | 0°C | 0% | 0hPa | 0V | 00:00:00 | 00:00:00 | 00:00:00 | |
| EA3IBE | 2026-09-03 12:01:10 | 41.15128 | 2.38474 | 127° | 31km/h | 17717m | 4.8m/s | 0°C | 0% | 0hPa | 0V | 00:00:00 | 00:00:00 | 00:00:00 | |
| EA3GEO | 2026-09-03 12:01:04 | 41.15171 | 2.38438 | 162° | 29km/h | 17690m | 3.8m/s | 0°C | 0% | 0hPa | 0V | 00:00:00 | 00:00:00 | 00:00:00 | |
| EA3IBE | 2026-09-03 12:01:03 | 41.15178 | 2.38434 | 152° | 29km/h | 17686m | 4.9m/s | 0°C | 0% | 0hPa | 0V | 00:00:00 | 00:00:00 | 00:00:00 | |
| EA3GEO | 2026-09-03 12:00:59 | 41.15201 | 2.38407 | 141° | 27km/h | 17668m | 4.1m/s | 0°C | 0% | 0hPa | 0V | 00:00:00 | 00:00:00 | 00:00:00 | |
| EA3GEO | 2026-09-03 12:00:53 | 41.15242 | 2.38374 | 153° | 33km/h | 17644m | 2.6m/s | 0°C | 0% | 0hPa | 0V | 00:00:00 | 00:00:00 | 00:00:00 | |
| EA3GEO | 2026-09-03 12:00:47 | 41.15285 | 2.38330 | 144° | 40km/h | 17617m | 5.0m/s | 0°C | 0% | 0hPa | 0V | 00:00:00 | 00:00:00 | 00:00:00 | |
| EA3GEO | 2026-09-03 12:00:42 | 41.15323 | 2.38296 | 137° | 35km/h | 17595m | 5.1m/s | 0°C | 0% | 0hPa | 0V | 00:00:00 | 00:00:00 | 00:00:00 | |
| EA3GEO | 2026-09-03 12:00:36 | 41.15363 | 2.38239 | 140° | 47km/h | 17570m | 3.8m/s | 0°C | 0% | 0hPa | 0V | 00:00:00 | 00:00:00 | 00:00:00 | |
| EA3IBE | 2026-09-03 12:00:32 | 41.15396 | 2.38206 | 145° | 40km/h | 17553m | 3.7m/s | 0°C | 0% | 0hPa | 0V | 00:00:00 | 00:00:00 | 00:00:00 | |
| EA3GEO | 2026-09-03 12:00:30 | 41.15413 | 2.38191 | 149° | 40km/h | 17544m | 4.5m/s | 0°C | 0% | 0hPa | 0V | 00:00:00 | 00:00:00 | 00:00:00 | |
| EA3GEO | 2026-09-03 12:00:24 | 41.15465 | 2.38134 | 141° | 40km/h | 17519m | 3.6m/s | 0°C | 0% | 0hPa | 0V | 00:00:00 | 00:00:00 | 00:00:00 | |
| EA3GEO | 2026-09-03 12:00:19 | 41.15504 | 2.38086 | 139° | 37km/h | 17498m | 3.9m/s | 0°C | 0% | 0hPa | 0V | 00:00:00 | 00:00:00 | 00:00:00 | |
| EA3GEO | 2026-09-03 12:00:13 | 41.15545 | 2.38031 | 136° | 35km/h | 17473m | 2.8m/s | 0°C | 0% | 0hPa | 0V | 00:00:00 | 00:00:00 | 00:00:00 | |
| EA3IBE | 2026-09-03 12:00:12 | 41.15551 | 2.38022 | 133° | 38km/h | 17469m | 4.9m/s | 0°C | 0% | 0hPa | 0V | 00:00:00 | 00:00:00 | 00:00:00 | |
| EA3GEO | 2026-09-03 12:00:07 | 41.15588 | 2.37973 | 137° | 40km/h | 17447m | 4.8m/s | 0°C | 0% | 0hPa | 0V | 00:00:00 | 00:00:00 | 00:00:00 | |
| EA3GEO | 2026-09-03 12:00:01 | 41.15623 | 2.37916 | 125° | 40km/h | 17420m | 3.8m/s | 0°C | 0% | 0hPa | 0V | 00:00:00 | 00:00:00 | 00:00:00 | |
| EA3GEO | 2026-09-03 11:59:56 | 41.15654 | 2.37863 | 133° | 38km/h | 17398m | 4.9m/s | 0°C | 0% | 0hPa | 0V | 00:00:00 | 00:00:00 | 00:00:00 | |
| EA3GEO | 2026-09-03 11:59:51 | 41.15684 | 2.37819 | 130° | 40km/h | 17378m | 3.4m/s | 0°C | 0% | 0hPa | 0V | 00:00:00 | 00:00:00 | 00:00:00 | |
| EA3IBE | 2026-09-03 11:59:48 | 41.15701 | 2.37790 | 127° | 35km/h | 17365m | 4.2m/s | 0°C | 0% | 0hPa | 0V | 00:00:00 | 00:00:00 | 00:00:00 | |
| EA3GEO | 2026-09-03 11:59:45 | 41.15719 | 2.37762 | 137° | 37km/h | 17352m | 5.4m/s | 0°C | 0% | 0hPa | 0V | 00:00:00 | 00:00:00 | 00:00:00 | |
| EA3GEO | 2026-09-03 11:59:39 | 41.15758 | 2.37704 | 123° | 38km/h | 17324m | 4.0m/s | 0°C | 0% | 0hPa | 0V | 00:00:00 | 00:00:00 | 00:00:00 | |
| EA3IBE | 2026-09-03 11:59:38 | 41.15764 | 2.37693 | 121° | 40km/h | 17320m | 5.3m/s | 0°C | 0% | 0hPa | 0V | 00:00:00 | 00:00:00 | 00:00:00 | |
| EA3GEO | 2026-09-03 11:59:34 | 41.15782 | 2.37651 | 125° | 33km/h | 17301m | 4.7m/s | 0°C | 0% | 0hPa | 0V | 00:00:00 | 00:00:00 | 00:00:00 | |
| EA3IBE | 2026-09-03 11:59:29 | 41.15811 | 2.37600 | 120° | 46km/h | 17278m | 5.5m/s | 0°C | 0% | 0hPa | 0V | 00:00:00 | 00:00:00 | 00:00:00 | |
| EA3GEO | 2026-09-03 11:59:28 | 41.15816 | 2.37586 | 116° | 46km/h | 17273m | 3.9m/s | 0°C | 0% | 0hPa | 0V | 00:00:00 | 00:00:00 | 00:00:00 | |
| EA3IBE | 2026-09-03 11:59:23 | 41.15837 | 2.37525 | 120° | 40km/h | 17249m | 4.4m/s | 0°C | 0% | 0hPa | 0V | 00:00:00 | 00:00:00 | 00:00:00 | |
| EA3GEO | 2026-09-03 11:59:22 | 41.15842 | 2.37514 | 124° | 37km/h | 17244m | 5.8m/s | 0°C | 0% | 0hPa | 0V | 00:00:00 | 00:00:00 | 00:00:00 | |
| EA3GEO | 2026-09-03 11:59:18 | 41.15867 | 2.37454 | 110° | 42km/h | 17221m | 5.0m/s | 0°C | 0% | 0hPa | 0V | 00:00:00 | 00:00:00 | 00:00:00 | |
| EA3GEO | 2026-09-03 11:59:11 | 41.15891 | 2.37374 | 119° | 37km/h | 17193m | 4.4m/s | 0°C | 0% | 0hPa | 0V | 00:00:00 | 00:00:00 | 00:00:00 | |
| EA3IBE | 2026-09-03 11:59:09 | 41.15900 | 2.37350 | 115° | 46km/h | 17183m | 4.1m/s | 0°C | 0% | 0hPa | 0V | 00:00:00 | 00:00:00 | 00:00:00 | |
| EA3GEO | 2026-09-03 11:59:05 | 41.15911 | 2.37292 | 99° | 46km/h | 17166m | 3.4m/s | 0°C | 0% | 0hPa | 0V | 00:00:00 | 00:00:00 | 00:00:00 | |
| EA3GEO | 2026-09-03 11:59:00 | 41.15924 | 2.37210 | 99° | 46km/h | 17143m | 4.8m/s | 0°C | 0% | 0hPa | 0V | 00:00:00 | 00:00:00 | 00:00:00 | |
| EA3GEO | 2026-09-03 11:58:55 | 41.15933 | 2.37145 | 99° | 35km/h | 17121m | 4.7m/s | 0°C | 0% | 0hPa | 0V | 00:00:00 | 00:00:00 | 00:00:00 | |
| EA3GEO | 2026-09-03 11:58:49 | 41.15942 | 2.37051 | 91° | 47km/h | 17091m | 4.9m/s | 0°C | 0% | 0hPa | 0V | 00:00:00 | 00:00:00 | 00:00:00 | |
| EA3GEO | 2026-09-03 11:58:44 | 41.15941 | 2.36993 | 104° | 38km/h | 17067m | 4.2m/s | 0°C | 0% | 0hPa | 0V | 00:00:00 | 00:00:00 | 00:00:00 | |
| EA3IBE | 2026-09-03 11:58:39 | 41.15942 | 2.36917 | 88° | 44km/h | 17044m | 5.2m/s | 0°C | 0% | 0hPa | 0V | 00:00:00 | 00:00:00 | 00:00:00 | |
| EA3GEO | 2026-09-03 11:58:38 | 41.15943 | 2.36903 | 94° | 38km/h | 17039m | 5.2m/s | 0°C | 0% | 0hPa | 0V | 00:00:00 | 00:00:00 | 00:00:00 | |
| EA3GEO | 2026-09-03 11:58:32 | 41.15951 | 2.36837 | 97° | 38km/h | 17008m | 6.4m/s | 0°C | 0% | 0hPa | 0V | 00:00:00 | 00:00:00 | 00:00:00 | |
| EA3GEO | 2026-09-03 11:58:26 | 41.15952 | 2.36764 | 82° | 27km/h | 16976m | 7.6m/s | 0°C | 0% | 0hPa | 0V | 00:00:00 | 00:00:00 | 00:00:00 | |
| EA3IBE | 2026-09-03 11:58:22 | 41.15953 | 2.36728 | 108° | 35km/h | 16954m | 4.4m/s | 0°C | 0% | 0hPa | 0V | 00:00:00 | 00:00:00 | 00:00:00 | |
| EA3GEO | 2026-09-03 11:58:20 | 41.15958 | 2.36704 | 103° | 37km/h | 16944m | 5.0m/s | 0°C | 0% | 0hPa | 0V | 00:00:00 | 00:00:00 | 00:00:00 | |
| EA3GEO | 2026-09-03 11:58:15 | 41.15964 | 2.36658 | 99° | 27km/h | 16919m | 3.7m/s | 0°C | 0% | 0hPa | 0V | 00:00:00 | 00:00:00 | 00:00:00 | |
| EA3GEO | 2026-09-03 11:58:09 | 41.15976 | 2.36605 | 97° | 35km/h | 16887m | 4.8m/s | 0°C | 0% | 0hPa | 0V | 00:00:00 | 00:00:00 | 00:00:00 | |
| EA3GEO | 2026-09-03 11:58:03 | 41.15986 | 2.36543 | 123° | 27km/h | 16857m | 6.3m/s | 0°C | 0% | 0hPa | 0V | 00:00:00 | 00:00:00 | 00:00:00 | |
| EA3GEO | 2026-09-03 11:57:58 | 41.15997 | 2.36512 | 85° | 27km/h | 16833m | 4.8m/s | 0°C | 0% | 0hPa | 0V | 00:00:00 | 00:00:00 | 00:00:00 | |
| EA3GEO | 2026-09-03 11:57:53 | 41.16009 | 2.36469 | 124° | 22km/h | 16806m | 5.3m/s | 0°C | 0% | 0hPa | 0V | 00:00:00 | 00:00:00 | 00:00:00 | |
| EA3GEO | 2026-09-03 11:57:48 | 41.16023 | 2.36431 | 115° | 26km/h | 16780m | 6.2m/s | 0°C | 0% | 0hPa | 0V | 00:00:00 | 00:00:00 | 00:00:00 | |
| EA3GEO | 2026-09-03 11:57:42 | 41.16043 | 2.36397 | 147° | 20km/h | 16751m | 4.2m/s | 0°C | 0% | 0hPa | 0V | 00:00:00 | 00:00:00 | 00:00:00 | |
| EA3GEO | 2026-09-03 11:57:36 | 41.16070 | 2.36353 | 123° | 31km/h | 16720m | 4.8m/s | 0°C | 0% | 0hPa | 0V | 00:00:00 | 00:00:00 | 00:00:00 | |
| EA3GEO | 2026-09-03 11:57:29 | 41.16112 | 2.36314 | 144° | 31km/h | 16688m | 5.3m/s | 0°C | 0% | 0hPa | 0V | 00:00:00 | 00:00:00 | 00:00:00 | |
| EA3GEO | 2026-09-03 11:57:24 | 41.16139 | 2.36276 | 129° | 26km/h | 16664m | 5.1m/s | 0°C | 0% | 0hPa | 0V | 00:00:00 | 00:00:00 | 00:00:00 | |
| EA3IBE | 2026-09-03 11:57:20 | 41.16156 | 2.36252 | 133° | 24km/h | 16645m | 5.2m/s | 0°C | 0% | 0hPa | 0V | 00:00:00 | 00:00:00 | 00:00:00 | |
| EA3GEO | 2026-09-03 11:57:18 | 41.16162 | 2.36240 | 120° | 22km/h | 16636m | 4.0m/s | 0°C | 0% | 0hPa | 0V | 00:00:00 | 00:00:00 | 00:00:00 | |
| EA3GEO | 2026-09-03 11:57:12 | 41.16190 | 2.36197 | 143° | 29km/h | 16608m | 5.6m/s | 0°C | 0% | 0hPa | 0V | 00:00:00 | 00:00:00 | 00:00:00 | |
| EA3GEO | 2026-09-03 11:57:07 | 41.16220 | 2.36164 | 133° | 33km/h | 16584m | 5.8m/s | 0°C | 0% | 0hPa | 0V | 00:00:00 | 00:00:00 | 00:00:00 | |
| EA3GEO | 2026-09-03 11:57:01 | 41.16256 | 2.36117 | 152° | 35km/h | 16555m | 5.7m/s | 0°C | 0% | 0hPa | 0V | 00:00:00 | 00:00:00 | 00:00:00 | |
| EA3GEO | 2026-09-03 11:56:55 | 41.16302 | 2.36077 | 140° | 42km/h | 16526m | 4.5m/s | 0°C | 0% | 0hPa | 0V | 00:00:00 | 00:00:00 | 00:00:00 | |
| EA3GEO | 2026-09-03 11:56:49 | 41.16345 | 2.36034 | 149° | 33km/h | 16496m | 5.2m/s | 0°C | 0% | 0hPa | 0V | 00:00:00 | 00:00:00 | 00:00:00 | |
| EA3GEO | 2026-09-03 11:56:44 | 41.16384 | 2.35990 | 137° | 40km/h | 16473m | 5.0m/s | 0°C | 0% | 0hPa | 0V | 00:00:00 | 00:00:00 | 00:00:00 | |
| EA3GEO | 2026-09-03 11:56:38 | 41.16423 | 2.35943 | 141° | 33km/h | 16445m | 4.5m/s | 0°C | 0% | 0hPa | 0V | 00:00:00 | 00:00:00 | 00:00:00 | |
| EA3GEO | 2026-09-03 11:56:33 | 41.16458 | 2.35904 | 139° | 33km/h | 16424m | 4.9m/s | 0°C | 0% | 0hPa | 0V | 00:00:00 | 00:00:00 | 00:00:00 | |
| EA3IBE | 2026-09-03 11:56:29 | 41.16479 | 2.35871 | 128° | 35km/h | 16406m | 3.1m/s | 0°C | 0% | 0hPa | 0V | 00:00:00 | 00:00:00 | 00:00:00 | |
| EA3GEO | 2026-09-03 11:56:28 | 41.16484 | 2.35862 | 130° | 33km/h | 16402m | 5.4m/s | 0°C | 0% | 0hPa | 0V | 00:00:00 | 00:00:00 | 00:00:00 | |
| EA3GEO | 2026-09-03 11:56:22 | 41.16521 | 2.35814 | 135° | 35km/h | 16376m | 3.6m/s | 0°C | 0% | 0hPa | 0V | 00:00:00 | 00:00:00 | 00:00:00 | |
| EA3GEO | 2026-09-03 11:56:17 | 41.16555 | 2.35769 | 143° | 37km/h | 16352m | 4.0m/s | 0°C | 0% | 0hPa | 0V | 00:00:00 | 00:00:00 | 00:00:00 | |
| EA3GEO | 2026-09-03 11:56:11 | 41.16599 | 2.35718 | 134° | 44km/h | 16325m | 4.7m/s | 0°C | 0% | 0hPa | 0V | 00:00:00 | 00:00:00 | 00:00:00 | |
| EA3GEO | 2026-09-03 11:56:06 | 41.16639 | 2.35670 | 149° | 44km/h | 16303m | 4.1m/s | 0°C | 0% | 0hPa | 0V | 00:00:00 | 00:00:00 | 00:00:00 | |
| EA3GEO | 2026-09-03 11:56:00 | 41.16685 | 2.35608 | 121° | 47km/h | 16277m | 3.4m/s | 0°C | 0% | 0hPa | 0V | 00:00:00 | 00:00:00 | 00:00:00 | |
| EA3GEO | 2026-09-03 11:55:55 | 41.16724 | 2.35551 | 140° | 42km/h | 16257m | 2.9m/s | 0°C | 0% | 0hPa | 0V | 00:00:00 | 00:00:00 | 00:00:00 | |
| EA3IBE | 2026-09-03 11:55:53 | 41.16741 | 2.35531 | 135° | 47km/h | 16248m | 4.1m/s | 0°C | 0% | 0hPa | 0V | 00:00:00 | 00:00:00 | 00:00:00 | |
| EA3GEO | 2026-09-03 11:55:49 | 41.16768 | 2.35484 | 129° | 46km/h | 16232m | 4.5m/s | 0°C | 0% | 0hPa | 0V | 00:00:00 | 00:00:00 | 00:00:00 | |
| EA3GEO | 2026-09-03 11:55:44 | 41.16808 | 2.35422 | 125° | 46km/h | 16211m | 4.0m/s | 0°C | 0% | 0hPa | 0V | 00:00:00 | 00:00:00 | 00:00:00 | |
| EA3IBE | 2026-09-03 11:55:40 | 41.16835 | 2.35372 | 127° | 46km/h | 16194m | 3.7m/s | 0°C | 0% | 0hPa | 0V | 00:00:00 | 00:00:00 | 00:00:00 | |
| EA3GEO | 2026-09-03 11:55:38 | 41.16851 | 2.35345 | 129° | 55km/h | 16185m | 3.9m/s | 0°C | 0% | 0hPa | 0V | 00:00:00 | 00:00:00 | 00:00:00 | |
| EA3IBE | 2026-09-03 11:55:35 | 41.16875 | 2.35300 | 124° | 57km/h | 16172m | 5.2m/s | 0°C | 0% | 0hPa | 0V | 00:00:00 | 00:00:00 | 00:00:00 | |
| EA3GEO | 2026-09-03 11:55:33 | 41.16889 | 2.35269 | 121° | 49km/h | 16163m | 5.4m/s | 0°C | 0% | 0hPa | 0V | 00:00:00 | 00:00:00 | 00:00:00 | |
| EA3GEO | 2026-09-03 11:55:27 | 41.16933 | 2.35186 | 121° | 55km/h | 16138m | 4.2m/s | 0°C | 0% | 0hPa | 0V | 00:00:00 | 00:00:00 | 00:00:00 | |
| EA3GEO | 2026-09-03 11:55:21 | 41.16970 | 2.35098 | 130° | 40km/h | 16114m | 4.2m/s | 0°C | 0% | 0hPa | 0V | 00:00:00 | 00:00:00 | 00:00:00 | |
| EA3GEO | 2026-09-03 11:55:16 | 41.16998 | 2.35036 | 114° | 46km/h | 16093m | 4.5m/s | 0°C | 0% | 0hPa | 0V | 00:00:00 | 00:00:00 | 00:00:00 | |
| EA3GEO | 2026-09-03 11:55:10 | 41.17034 | 2.34960 | 132° | 38km/h | 16069m | 4.4m/s | 0°C | 0% | 0hPa | 0V | 00:00:00 | 00:00:00 | 00:00:00 | |
| EA3GEO | 2026-09-03 11:55:04 | 41.17069 | 2.34891 | 125° | 47km/h | 16044m | 4.7m/s | 0°C | 0% | 0hPa | 0V | 00:00:00 | 00:00:00 | 00:00:00 | |
| EA3GEO | 2026-09-03 11:54:59 | 41.17105 | 2.34833 | 129° | 37km/h | 16023m | 4.1m/s | 0°C | 0% | 0hPa | 0V | 00:00:00 | 00:00:00 | 00:00:00 | |
| EA3GEO | 2026-09-03 11:54:53 | 41.17145 | 2.34768 | 123° | 51km/h | 15996m | 4.1m/s | 0°C | 0% | 0hPa | 0V | 00:00:00 | 00:00:00 | 00:00:00 | |
| EA3IBE | 2026-09-03 11:54:50 | 41.17163 | 2.34725 | 120° | 42km/h | 15984m | 3.1m/s | 0°C | 0% | 0hPa | 0V | 00:00:00 | 00:00:00 | 00:00:00 | |
| EA3GEO | 2026-09-03 11:54:48 | 41.17176 | 2.34702 | 131° | 44km/h | 15975m | 5.4m/s | 0°C | 0% | 0hPa | 0V | 00:00:00 | 00:00:00 | 00:00:00 | |
| EA3IBE | 2026-09-03 11:54:44 | 41.17206 | 2.34660 | 136° | 49km/h | 15958m | 4.9m/s | 0°C | 0% | 0hPa | 0V | 00:00:00 | 00:00:00 | 00:00:00 | |
| EA3GEO | 2026-09-03 11:54:43 | 41.17215 | 2.34648 | 132° | 51km/h | 15954m | 3.0m/s | 0°C | 0% | 0hPa | 0V | 00:00:00 | 00:00:00 | 00:00:00 | |
| EA3GEO | 2026-09-03 11:54:37 | 41.17255 | 2.34563 | 126° | 49km/h | 15929m | 3.9m/s | 0°C | 0% | 0hPa | 0V | 00:00:00 | 00:00:00 | 00:00:00 | |
| EA3GEO | 2026-09-03 11:54:31 | 41.17299 | 2.34477 | 128° | 55km/h | 15902m | 4.4m/s | 0°C | 0% | 0hPa | 0V | 00:00:00 | 00:00:00 | 00:00:00 | |
| EA3GEO | 2026-09-03 11:54:25 | 41.17339 | 2.34386 | 119° | 53km/h | 15875m | 5.5m/s | 0°C | 0% | 0hPa | 0V | 00:00:00 | 00:00:00 | 00:00:00 | |
| EA3GEO | 2026-09-03 11:54:19 | 41.17387 | 2.34289 | 121° | 62km/h | 15847m | 4.6m/s | 0°C | 0% | 0hPa | 0V | 00:00:00 | 00:00:00 | 00:00:00 | |
| EA3IBE | 2026-09-03 11:54:15 | 41.17413 | 2.34219 | 115° | 58km/h | 15827m | 5.1m/s | 0°C | 0% | 0hPa | 0V | 00:00:00 | 00:00:00 | 00:00:00 | |
| EA3GEO | 2026-09-03 11:54:13 | 41.17426 | 2.34184 | 118° | 57km/h | 15818m | 4.9m/s | 0°C | 0% | 0hPa | 0V | 00:00:00 | 00:00:00 | 00:00:00 | |
| EA3GEO | 2026-09-03 11:54:08 | 41.17462 | 2.34095 | 115° | 58km/h | 15796m | 3.4m/s | 0°C | 0% | 0hPa | 0V | 00:00:00 | 00:00:00 | 00:00:00 | |
| EA3GEO | 2026-09-03 11:54:02 | 41.17495 | 2.33994 | 115° | 55km/h | 15770m | 4.6m/s | 0°C | 0% | 0hPa | 0V | 00:00:00 | 00:00:00 | 00:00:00 | |
| EA3GEO | 2026-09-03 11:53:56 | 41.17532 | 2.33894 | 117° | 58km/h | 15743m | 4.3m/s | 0°C | 0% | 0hPa | 0V | 00:00:00 | 00:00:00 | 00:00:00 | |
| EA3GEO | 2026-09-03 11:53:50 | 41.17567 | 2.33792 | 115° | 53km/h | 15714m | 4.8m/s | 0°C | 0% | 0hPa | 0V | 00:00:00 | 00:00:00 | 00:00:00 | |
| EA3GEO | 2026-09-03 11:53:45 | 41.17596 | 2.33716 | 122° | 51km/h | 15692m | 5.3m/s | 0°C | 0% | 0hPa | 0V | 00:00:00 | 00:00:00 | 00:00:00 | |
| EA3GEO | 2026-09-03 11:53:40 | 41.17619 | 2.33638 | 110° | 57km/h | 15670m | 4.9m/s | 0°C | 0% | 0hPa | 0V | 00:00:00 | 00:00:00 | 00:00:00 | |
| EA3GEO | 2026-09-03 11:53:34 | 41.17649 | 2.33546 | 108° | 40km/h | 15640m | 4.6m/s | 0°C | 0% | 0hPa | 0V | 00:00:00 | 00:00:00 | 00:00:00 | |
| EA3GEO | 2026-09-03 11:53:29 | 41.17666 | 2.33476 | 109° | 44km/h | 15617m | 4.1m/s | 0°C | 0% | 0hPa | 0V | 00:00:00 | 00:00:00 | 00:00:00 | |
| EA3GEO | 2026-09-03 11:53:24 | 41.17683 | 2.33414 | 117° | 35km/h | 15594m | 4.6m/s | 0°C | 0% | 0hPa | 0V | 00:00:00 | 00:00:00 | 00:00:00 | |
| EA3GEO | 2026-09-03 11:53:18 | 41.17709 | 2.33339 | 117° | 44km/h | 15568m | 3.6m/s | 0°C | 0% | 0hPa | 0V | 00:00:00 | 00:00:00 | 00:00:00 | |
| EA3IBE | 2026-09-03 11:53:16 | 41.17717 | 2.33312 | 109° | 44km/h | 15559m | 4.5m/s | 0°C | 0% | 0hPa | 0V | 00:00:00 | 00:00:00 | 00:00:00 | |
| EA3GEO | 2026-09-03 11:53:12 | 41.17731 | 2.33259 | 109° | 38km/h | 15540m | 6.0m/s | 0°C | 0% | 0hPa | 0V | 00:00:00 | 00:00:00 | 00:00:00 | |
| EA3GEO | 2026-09-03 11:53:07 | 41.17745 | 2.33195 | 98° | 46km/h | 15516m | 4.4m/s | 0°C | 0% | 0hPa | 0V | 00:00:00 | 00:00:00 | 00:00:00 | |
| EA3GEO | 2026-09-03 11:53:01 | 41.17761 | 2.33108 | 98° | 38km/h | 15486m | 4.8m/s | 0°C | 0% | 0hPa | 0V | 00:00:00 | 00:00:00 | 00:00:00 | |
| EA3GEO | 2026-09-03 11:52:55 | 41.17775 | 2.33032 | 105° | 38km/h | 15458m | 6.3m/s | 0°C | 0% | 0hPa | 0V | 00:00:00 | 00:00:00 | 00:00:00 | |
| EA3GEO | 2026-09-03 11:52:49 | 41.17783 | 2.32950 | 114° | 37km/h | 15430m | 6.0m/s | 0°C | 0% | 0hPa | 0V | 00:00:00 | 00:00:00 | 00:00:00 | |
| EA3GEO | 2026-09-03 11:52:44 | 41.17799 | 2.32897 | 72° | 37km/h | 15402m | 7.8m/s | 0°C | 0% | 0hPa | 0V | 00:00:00 | 00:00:00 | 00:00:00 | |
| EA3GEO | 2026-09-03 11:52:38 | 41.17802 | 2.32825 | 127° | 44km/h | 15365m | 3.8m/s | 0°C | 0% | 0hPa | 0V | 00:00:00 | 00:00:00 | 00:00:00 | |
| EA3GEO | 2026-09-03 11:52:32 | 41.17827 | 2.32757 | 79° | 26km/h | 15330m | 4.7m/s | 0°C | 0% | 0hPa | 0V | 00:00:00 | 00:00:00 | 00:00:00 | |
| EA3GEO | 2026-09-03 11:52:27 | 41.17838 | 2.32710 | 143° | 33km/h | 15297m | 6.8m/s | 0°C | 0% | 0hPa | 0V | 00:00:00 | 00:00:00 | 00:00:00 | |
| EA3GEO | 2026-09-03 11:52:21 | 41.17877 | 2.32651 | 107° | 57km/h | 15256m | 6.6m/s | 0°C | 0% | 0hPa | 0V | 00:00:00 | 00:00:00 | 00:00:00 | |
| EA3GEO | 2026-09-03 11:52:16 | 41.17891 | 2.32594 | 150° | 20km/h | 15225m | 7.9m/s | 0°C | 0% | 0hPa | 0V | 00:00:00 | 00:00:00 | 00:00:00 | |
| EA3GEO | 2026-09-03 11:52:11 | 41.17923 | 2.32565 | 145° | 33km/h | 15191m | 5.3m/s | 0°C | 0% | 0hPa | 0V | 00:00:00 | 00:00:00 | 00:00:00 | |
| EA3GEO | 2026-09-03 11:52:05 | 41.17968 | 2.32524 | 158° | 40km/h | 15163m | 5.0m/s | 0°C | 0% | 0hPa | 0V | 00:00:00 | 00:00:00 | 00:00:00 | |
| EA3GEO | 2026-09-03 11:52:00 | 41.18012 | 2.32496 | 146° | 40km/h | 15142m | 2.6m/s | 0°C | 0% | 0hPa | 0V | 00:00:00 | 00:00:00 | 00:00:00 | |
| EA3GEO | 2026-09-03 11:51:54 | 41.18071 | 2.32453 | 160° | 46km/h | 15117m | 4.1m/s | 0°C | 0% | 0hPa | 0V | 00:00:00 | 00:00:00 | 00:00:00 | |
| EA3GEO | 2026-09-03 11:51:48 | 41.18129 | 2.32415 | 150° | 40km/h | 15091m | 5.0m/s | 0°C | 0% | 0hPa | 0V | 00:00:00 | 00:00:00 | 00:00:00 | |
| EA3GEO | 2026-09-03 11:51:42 | 41.18184 | 2.32370 | 146° | 42km/h | 15064m | 5.2m/s | 0°C | 0% | 0hPa | 0V | 00:00:00 | 00:00:00 | 00:00:00 | |
| EA3GEO | 2026-09-03 11:51:36 | 41.18241 | 2.32325 | 154° | 42km/h | 15038m | 4.2m/s | 0°C | 0% | 0hPa | 0V | 00:00:00 | 00:00:00 | 00:00:00 | |
| EA3GEO | 2026-09-03 11:51:31 | 41.18283 | 2.32290 | 146° | 42km/h | 15017m | 4.4m/s | 0°C | 0% | 0hPa | 0V | 00:00:00 | 00:00:00 | 00:00:00 | |
| EA3GEO | 2026-09-03 11:51:25 | 41.18344 | 2.32239 | 159° | 42km/h | 14993m | 3.2m/s | 0°C | 0% | 0hPa | 0V | 00:00:00 | 00:00:00 | 00:00:00 | |
| EA3GEO | 2026-09-03 11:51:19 | 41.18394 | 2.32193 | 144° | 44km/h | 14969m | 4.6m/s | 0°C | 0% | 0hPa | 0V | 00:00:00 | 00:00:00 | 00:00:00 | |
| EA3GEO | 2026-09-03 11:51:14 | 41.18438 | 2.32153 | 145° | 40km/h | 14947m | 4.4m/s | 0°C | 0% | 0hPa | 0V | 00:00:00 | 00:00:00 | 00:00:00 | |
| EA3GEO | 2026-09-03 11:51:08 | 41.18486 | 2.32108 | 151° | 37km/h | 14922m | 4.5m/s | 0°C | 0% | 0hPa | 0V | 00:00:00 | 00:00:00 | 00:00:00 | |
| EA3GEO | 2026-09-03 11:51:03 | 41.18523 | 2.32073 | 143° | 40km/h | 14902m | 4.4m/s | 0°C | 0% | 0hPa | 0V | 00:00:00 | 00:00:00 | 00:00:00 | |
| EA3GEO | 2026-09-03 11:50:57 | 41.18568 | 2.32026 | 143° | 38km/h | 14878m | 4.5m/s | 0°C | 0% | 0hPa | 0V | 00:00:00 | 00:00:00 | 00:00:00 | |
| EA3GEO | 2026-09-03 11:50:51 | 41.18623 | 2.31966 | 143° | 47km/h | 14853m | 3.9m/s | 0°C | 0% | 0hPa | 0V | 00:00:00 | 00:00:00 | 00:00:00 | |
| EA3GEO | 2026-09-03 11:50:45 | 41.18674 | 2.31915 | 138° | 42km/h | 14827m | 2.9m/s | 0°C | 0% | 0hPa | 0V | 00:00:00 | 00:00:00 | 00:00:00 | |
| EA3GEO | 2026-09-03 11:50:40 | 41.18719 | 2.31859 | 148° | 51km/h | 14807m | 2.8m/s | 0°C | 0% | 0hPa | 0V | 00:00:00 | 00:00:00 | 00:00:00 | |
| EA3GEO | 2026-09-03 11:50:35 | 41.18765 | 2.31814 | 142° | 42km/h | 14787m | 3.3m/s | 0°C | 0% | 0hPa | 0V | 00:00:00 | 00:00:00 | 00:00:00 | |
| EA3GEO | 2026-09-03 11:50:29 | 41.18815 | 2.31749 | 140° | 46km/h | 14762m | 4.9m/s | 0°C | 0% | 0hPa | 0V | 00:00:00 | 00:00:00 | 00:00:00 | |
| EA3GEO | 2026-09-03 11:50:17 | 41.18914 | 2.31644 | 153° | 42km/h | 14715m | 3.9m/s | 0°C | 0% | 0hPa | 0V | 00:00:00 | 00:00:00 | 00:00:00 | |
| EA3GEO | 2026-09-03 11:50:11 | 41.18963 | 2.31598 | 135° | 44km/h | 14690m | 3.5m/s | 0°C | 0% | 0hPa | 0V | 00:00:00 | 00:00:00 | 00:00:00 | |
| EA3GEO | 2026-09-03 11:50:00 | 41.19066 | 2.31490 | 138° | 40km/h | 14647m | 4.2m/s | 0°C | 0% | 0hPa | 0V | 00:00:00 | 00:00:00 | 00:00:00 | |
| EA3GEO | 2026-09-03 11:49:55 | 41.19110 | 2.31436 | 137° | 57km/h | 14625m | 4.8m/s | 0°C | 0% | 0hPa | 0V | 00:00:00 | 00:00:00 | 00:00:00 | |
| EA3GEO | 2026-09-03 11:49:49 | 41.19164 | 2.31359 | 132° | 46km/h | 14601m | 4.8m/s | 0°C | 0% | 0hPa | 0V | 00:00:00 | 00:00:00 | 00:00:00 | |
| EA3GEO | 2026-09-03 11:49:44 | 41.19202 | 2.31295 | 131° | 51km/h | 14581m | 4.6m/s | 0°C | 0% | 0hPa | 0V | 00:00:00 | 00:00:00 | 00:00:00 | |
| EA3GEO | 2026-09-03 11:49:38 | 41.19245 | 2.31228 | 131° | 40km/h | 14554m | 4.8m/s | 0°C | 0% | 0hPa | 0V | 00:00:00 | 00:00:00 | 00:00:00 | |
| EA3GEO | 2026-09-03 11:49:33 | 41.19284 | 2.31153 | 129° | 44km/h | 14529m | 3.5m/s | 0°C | 0% | 0hPa | 0V | 00:00:00 | 00:00:00 | 00:00:00 | |
| EA3GEO | 2026-09-03 11:49:26 | 41.19324 | 2.31087 | 128° | 42km/h | 14504m | 5.2m/s | 0°C | 0% | 0hPa | 0V | 00:00:00 | 00:00:00 | 00:00:00 | |
| EA3GEO | 2026-09-03 11:49:21 | 41.19350 | 2.31025 | 122° | 40km/h | 14482m | 5.4m/s | 0°C | 0% | 0hPa | 0V | 00:00:00 | 00:00:00 | 00:00:00 | |
| EA3GEO | 2026-09-03 11:49:15 | 41.19387 | 2.30964 | 123° | 42km/h | 14456m | 3.8m/s | 0°C | 0% | 0hPa | 0V | 00:00:00 | 00:00:00 | 00:00:00 | |
| EA3GEO | 2026-09-03 11:49:10 | 41.19411 | 2.30909 | 127° | 37km/h | 14435m | 3.9m/s | 0°C | 0% | 0hPa | 0V | 00:00:00 | 00:00:00 | 00:00:00 | |
| EA3GEO | 2026-09-03 11:49:04 | 41.19442 | 2.30857 | 121° | 35km/h | 14408m | 4.6m/s | 0°C | 0% | 0hPa | 0V | 00:00:00 | 00:00:00 | 00:00:00 | |
| EA3GEO | 2026-09-03 11:48:58 | 41.19475 | 2.30801 | 129° | 33km/h | 14382m | 4.7m/s | 0°C | 0% | 0hPa | 0V | 00:00:00 | 00:00:00 | 00:00:00 | |
| EA3GEO | 2026-09-03 11:48:53 | 41.19505 | 2.30765 | 140° | 33km/h | 14361m | 4.7m/s | 0°C | 0% | 0hPa | 0V | 00:00:00 | 00:00:00 | 00:00:00 | |
| EA3GEO | 2026-09-03 11:48:47 | 41.19541 | 2.30719 | 134° | 33km/h | 14335m | 4.2m/s | 0°C | 0% | 0hPa | 0V | 00:00:00 | 00:00:00 | 00:00:00 | |
| EA3GEO | 2026-09-03 11:48:42 | 41.19570 | 2.30691 | 157° | 31km/h | 14313m | 4.3m/s | 0°C | 0% | 0hPa | 0V | 00:00:00 | 00:00:00 | 00:00:00 | |
| EA3GEO | 2026-09-03 11:48:37 | 41.19603 | 2.30664 | 140° | 31km/h | 14292m | 4.9m/s | 0°C | 0% | 0hPa | 0V | 00:00:00 | 00:00:00 | 00:00:00 | |
| EA3IBE | 2026-09-03 11:48:32 | 41.19632 | 2.30638 | 152° | 29km/h | 14271m | 5.4m/s | 0°C | 0% | 0hPa | 0V | 00:00:00 | 00:00:00 | 00:00:00 | |
| EA3GEO | 2026-09-03 11:48:31 | 41.19638 | 2.30633 | 152° | 27km/h | 14266m | 5.0m/s | 0°C | 0% | 0hPa | 0V | 00:00:00 | 00:00:00 | 00:00:00 | |
| EA3IBE | 2026-09-03 11:48:26 | 41.19668 | 2.30603 | 138° | 31km/h | 14242m | 4.4m/s | 0°C | 0% | 0hPa | 0V | 00:00:00 | 00:00:00 | 00:00:00 | |
| EA3GEO | 2026-09-03 11:48:25 | 41.19674 | 2.30595 | 138° | 35km/h | 14238m | 4.9m/s | 0°C | 0% | 0hPa | 0V | 00:00:00 | 00:00:00 | 00:00:00 | |
| EA3GEO | 2026-09-03 11:48:20 | 41.19710 | 2.30566 | 155° | 38km/h | 14216m | 4.6m/s | 0°C | 0% | 0hPa | 0V | 00:00:00 | 00:00:00 | 00:00:00 | |
| EA3IBE | 2026-09-03 11:48:18 | 41.19726 | 2.30554 | 148° | 35km/h | 14207m | 5.2m/s | 0°C | 0% | 0hPa | 0V | 00:00:00 | 00:00:00 | 00:00:00 | |
| EA3GEO | 2026-09-03 11:48:15 | 41.19746 | 2.30535 | 146° | 37km/h | 14194m | 4.7m/s | 0°C | 0% | 0hPa | 0V | 00:00:00 | 00:00:00 | 00:00:00 | |
| EA3IBE | 2026-09-03 11:48:13 | 41.19761 | 2.30523 | 152° | 33km/h | 14184m | 4.8m/s | 0°C | 0% | 0hPa | 0V | 00:00:00 | 00:00:00 | 00:00:00 | |
| EA3GEO | 2026-09-03 11:48:09 | 41.19795 | 2.30500 | 150° | 37km/h | 14166m | 5.3m/s | 0°C | 0% | 0hPa | 0V | 00:00:00 | 00:00:00 | 00:00:00 | |
| EA3GEO | 2026-09-03 11:48:04 | 41.19836 | 2.30460 | 148° | 40km/h | 14143m | 3.8m/s | 0°C | 0% | 0hPa | 0V | 00:00:00 | 00:00:00 | 00:00:00 | |
| EA3IBE | 2026-09-03 11:48:03 | 41.19845 | 2.30453 | 149° | 46km/h | 14139m | 5.2m/s | 0°C | 0% | 0hPa | 0V | 00:00:00 | 00:00:00 | 00:00:00 | |
| EA3GEO | 2026-09-03 11:47:59 | 41.19889 | 2.30408 | 134° | 40km/h | 14117m | 4.9m/s | 0°C | 0% | 0hPa | 0V | 00:00:00 | 00:00:00 | 00:00:00 | |
| EA3IBE | 2026-09-03 11:47:57 | 41.19896 | 2.30398 | 132° | 44km/h | 14112m | 4.7m/s | 0°C | 0% | 0hPa | 0V | 00:00:00 | 00:00:00 | 00:00:00 | |
| EA3GEO | 2026-09-03 11:47:53 | 41.19924 | 2.30358 | 142° | 40km/h | 14094m | 5.2m/s | 0°C | 0% | 0hPa | 0V | 00:00:00 | 00:00:00 | 00:00:00 | |
| EA3IBE | 2026-09-03 11:47:50 | 41.19948 | 2.30333 | 140° | 38km/h | 14079m | 4.3m/s | 0°C | 0% | 0hPa | 0V | 00:00:00 | 00:00:00 | 00:00:00 | |
| EA3GEO | 2026-09-03 11:47:47 | 41.19972 | 2.30307 | 145° | 44km/h | 14065m | 3.9m/s | 0°C | 0% | 0hPa | 0V | 00:00:00 | 00:00:00 | 00:00:00 | |
| EA3IBE | 2026-09-03 11:47:44 | 41.19996 | 2.30282 | 142° | 38km/h | 14051m | 3.9m/s | 0°C | 0% | 0hPa | 0V | 00:00:00 | 00:00:00 | 00:00:00 | |
| EA3GEO | 2026-09-03 11:47:42 | 41.20012 | 2.30266 | 147° | 40km/h | 14042m | 4.0m/s | 0°C | 0% | 0hPa | 0V | 00:00:00 | 00:00:00 | 00:00:00 | |
| EA3IBE | 2026-09-03 11:47:39 | 41.20037 | 2.30245 | 156° | 40km/h | 14030m | 5.8m/s | 0°C | 0% | 0hPa | 0V | 00:00:00 | 00:00:00 | 00:00:00 | |
| EA3GEO | 2026-09-03 11:47:36 | 41.20065 | 2.30231 | 157° | 40km/h | 14015m | 4.6m/s | 0°C | 0% | 0hPa | 0V | 00:00:00 | 00:00:00 | 00:00:00 | |
| EA3IBE | 2026-09-03 11:47:34 | 41.20084 | 2.30218 | 155° | 46km/h | 14006m | 4.8m/s | 0°C | 0% | 0hPa | 0V | 00:00:00 | 00:00:00 | 00:00:00 | |
| EA3GEO | 2026-09-03 11:47:31 | 41.20112 | 2.30195 | 147° | 42km/h | 13992m | 4.2m/s | 0°C | 0% | 0hPa | 0V | 00:00:00 | 00:00:00 | 00:00:00 | |
| EA3IBE | 2026-09-03 11:47:29 | 41.20131 | 2.30180 | 149° | 42km/h | 13982m | 3.4m/s | 0°C | 0% | 0hPa | 0V | 00:00:00 | 00:00:00 | 00:00:00 | |
| EA3GEO | 2026-09-03 11:47:25 | 41.20167 | 2.30153 | 150° | 44km/h | 13964m | 3.7m/s | 0°C | 0% | 0hPa | 0V | 00:00:00 | 00:00:00 | 00:00:00 | |
| EA3IBE | 2026-09-03 11:47:23 | 41.20184 | 2.30136 | 141° | 42km/h | 13954m | 3.5m/s | 0°C | 0% | 0hPa | 0V | 00:00:00 | 00:00:00 | 00:00:00 | |
| EA3GEO | 2026-09-03 11:47:20 | 41.20210 | 2.30110 | 144° | 40km/h | 13939m | 5.6m/s | 0°C | 0% | 0hPa | 0V | 00:00:00 | 00:00:00 | 00:00:00 | |
| EA3IBE | 2026-09-03 11:47:18 | 41.20225 | 2.30095 | 144° | 40km/h | 13929m | 4.8m/s | 0°C | 0% | 0hPa | 0V | 00:00:00 | 00:00:00 | 00:00:00 | |
| EA3GEO | 2026-09-03 11:47:14 | 41.20259 | 2.30060 | 137° | 44km/h | 13911m | 4.2m/s | 0°C | 0% | 0hPa | 0V | 00:00:00 | 00:00:00 | 00:00:00 | |
| EA3IBE | 2026-09-03 11:47:12 | 41.20276 | 2.30040 | 141° | 44km/h | 13902m | 4.5m/s | 0°C | 0% | 0hPa | 0V | 00:00:00 | 00:00:00 | 00:00:00 | |
| EA3GEO | 2026-09-03 11:47:09 | 41.20299 | 2.30011 | 139° | 42km/h | 13886m | 5.5m/s | 0°C | 0% | 0hPa | 0V | 00:00:00 | 00:00:00 | 00:00:00 | |
| EA3IBE | 2026-09-03 11:47:06 | 41.20322 | 2.29983 | 135° | 40km/h | 13870m | 4.3m/s | 0°C | 0% | 0hPa | 0V | 00:00:00 | 00:00:00 | 00:00:00 | |
| EA3GEO | 2026-09-03 11:47:03 | 41.20343 | 2.29953 | 134° | 44km/h | 13853m | 5.5m/s | 0°C | 0% | 0hPa | 0V | 00:00:00 | 00:00:00 | 00:00:00 | |
| EA3IBE | 2026-09-03 11:47:01 | 41.20362 | 2.29932 | 135° | 44km/h | 13853m | 5.0m/s | 0°C | 0% | 0hPa | 0V | 00:00:00 | 00:00:00 | 00:00:00 | |
| EA3GEO | 2026-09-03 11:46:58 | 41.20385 | 2.29902 | 137° | 42km/h | 13840m | 3.4m/s | 0°C | 0% | 0hPa | 0V | 00:00:00 | 00:00:00 | 00:00:00 | |
| EA3IBE | 2026-09-03 11:46:56 | 41.20401 | 2.29883 | 139° | 44km/h | 13831m | 3.7m/s | 0°C | 0% | 0hPa | 0V | 00:00:00 | 00:00:00 | 00:00:00 | |
| EA3GEO | 2026-09-03 11:46:52 | 41.20432 | 2.29838 | 130° | 46km/h | 13812m | 4.8m/s | 0°C | 0% | 0hPa | 0V | 00:00:00 | 00:00:00 | 00:00:00 | |
| EA3IBE | 2026-09-03 11:46:50 | 41.20445 | 2.29815 | 131° | 44km/h | 13803m | 5.1m/s | 0°C | 0% | 0hPa | 0V | 00:00:00 | 00:00:00 | 00:00:00 | |
| EA3GEO | 2026-09-03 11:46:47 | 41.20467 | 2.29785 | 133° | 42km/h | 13789m | 4.7m/s | 0°C | 0% | 0hPa | 0V | 00:00:00 | 00:00:00 | 00:00:00 | |
| EA3IBE | 2026-09-03 11:46:43 | 41.20495 | 2.29747 | 129° | 40km/h | 13769m | 4.5m/s | 0°C | 0% | 0hPa | 0V | 00:00:00 | 00:00:00 | 00:00:00 | |
| EA3GEO | 2026-09-03 11:46:42 | 41.20501 | 2.29736 | 132° | 40km/h | 13764m | 5.5m/s | 0°C | 0% | 0hPa | 0V | 00:00:00 | 00:00:00 | 00:00:00 | |
| EA3IBE | 2026-09-03 11:46:38 | 41.20530 | 2.29694 | 139° | 42km/h | 13746m | 5.1m/s | 0°C | 0% | 0hPa | 0V | 00:00:00 | 00:00:00 | 00:00:00 | |
| EA3GEO | 2026-09-03 11:46:36 | 41.20546 | 2.29675 | 137° | 44km/h | 13738m | 5.1m/s | 0°C | 0% | 0hPa | 0V | 00:00:00 | 00:00:00 | 00:00:00 | |
| EA3IBE | 2026-09-03 11:46:33 | 41.20567 | 2.29642 | 129° | 38km/h | 13725m | 5.0m/s | 0°C | 0% | 0hPa | 0V | 00:00:00 | 00:00:00 | 00:00:00 | |
| EA3GEO | 2026-09-03 11:46:30 | 41.20582 | 2.29612 | 125° | 40km/h | 13711m | 3.7m/s | 0°C | 0% | 0hPa | 0V | 00:00:00 | 00:00:00 | 00:00:00 | |
| EA3IBE | 2026-09-03 11:46:27 | 41.20602 | 2.29582 | 136° | 44km/h | 13698m | 5.1m/s | 0°C | 0% | 0hPa | 0V | 00:00:00 | 00:00:00 | 00:00:00 | |
| EA3GEO | 2026-09-03 11:46:25 | 41.20626 | 2.29549 | 134° | 42km/h | 13685m | 3.8m/s | 0°C | 0% | 0hPa | 0V | 00:00:00 | 00:00:00 | 00:00:00 | |
| EA3IBE | 2026-09-03 11:46:22 | 41.20640 | 2.29530 | 137° | 40km/h | 13675m | 3.7m/s | 0°C | 0% | 0hPa | 0V | 00:00:00 | 00:00:00 | 00:00:00 | |
| EA3GEO | 2026-09-03 11:46:18 | 41.20668 | 2.29495 | 136° | 40km/h | 13658m | 4.4m/s | 0°C | 0% | 0hPa | 0V | 00:00:00 | 00:00:00 | 00:00:00 | |
| EA3IBE | 2026-09-03 11:46:15 | 41.20688 | 2.29466 | 137° | 40km/h | 13644m | 4.8m/s | 0°C | 0% | 0hPa | 0V | 00:00:00 | 00:00:00 | 00:00:00 | |
| EA3IBE | 2026-09-03 11:46:10 | 41.20723 | 2.29418 | 132° | 40km/h | 13621m | 3.5m/s | 0°C | 0% | 0hPa | 0V | 00:00:00 | 00:00:00 | 00:00:00 | |
| EA3GEO | 2026-09-03 11:46:07 | 41.20741 | 2.29390 | 131° | 38km/h | 13608m | 4.8m/s | 0°C | 0% | 0hPa | 0V | 00:00:00 | 00:00:00 | 00:00:00 | |
| EA3IBE | 2026-09-03 11:46:03 | 41.20772 | 2.29358 | 149° | 38km/h | 13590m | 3.8m/s | 0°C | 0% | 0hPa | 0V | 00:00:00 | 00:00:00 | 00:00:00 | |
| EA3GEO | 2026-09-03 11:46:01 | 41.20788 | 2.29343 | 144° | 38km/h | 13582m | 3.2m/s | 0°C | 0% | 0hPa | 0V | 00:00:00 | 00:00:00 | 00:00:00 | |
| EA3IBE | 2026-09-03 11:45:57 | 41.20815 | 2.29316 | 147° | 37km/h | 13564m | 4.5m/s | 0°C | 0% | 0hPa | 0V | 00:00:00 | 00:00:00 | 00:00:00 | |
| EA3GEO | 2026-09-03 11:45:56 | 41.20823 | 2.29310 | 151° | 38km/h | 13560m | 4.2m/s | 0°C | 0% | 0hPa | 0V | 00:00:00 | 00:00:00 | 00:00:00 | |
| EA3IBE | 2026-09-03 11:45:51 | 41.20864 | 2.29275 | 146° | 35km/h | 13537m | 4.8m/s | 0°C | 0% | 0hPa | 0V | 00:00:00 | 00:00:00 | 00:00:00 | |
| EA3IBE | 2026-09-03 11:45:45 | 41.20912 | 2.29236 | 151° | 38km/h | 13511m | 5.0m/s | 0°C | 0% | 0hPa | 0V | 00:00:00 | 00:00:00 | 00:00:00 | |
| EA3GEO | 2026-09-03 11:45:42 | 41.20935 | 2.29216 | 148° | 35km/h | 13498m | 3.3m/s | 0°C | 0% | 0hPa | 0V | 00:00:00 | 00:00:00 | 00:00:00 | |
| EA3IBE | 2026-09-03 11:45:38 | 41.20966 | 2.29189 | 155° | 42km/h | 13481m | 3.6m/s | 0°C | 0% | 0hPa | 0V | 00:00:00 | 00:00:00 | 00:00:00 | |
| EA3GEO | 2026-09-03 11:45:36 | 41.20986 | 2.29177 | 155° | 44km/h | 13473m | 3.2m/s | 0°C | 0% | 0hPa | 0V | 00:00:00 | 00:00:00 | 00:00:00 | |
| EA3IBE | 2026-09-03 11:45:33 | 41.21012 | 2.29162 | 155° | 31km/h | 13460m | 4.3m/s | 0°C | 0% | 0hPa | 0V | 00:00:00 | 00:00:00 | 00:00:00 | |
| EA3GEO | 2026-09-03 11:45:31 | 41.21028 | 2.29151 | 155° | 38km/h | 13453m | 3.3m/s | 0°C | 0% | 0hPa | 0V | 00:00:00 | 00:00:00 | 00:00:00 | |
| EA3IBE | 2026-09-03 11:45:26 | 41.21077 | 2.29125 | 161° | 42km/h | 13432m | 4.7m/s | 0°C | 0% | 0hPa | 0V | 00:00:00 | 00:00:00 | 00:00:00 | |
| EA3GEO | 2026-09-03 11:45:20 | 41.21137 | 2.29097 | 159° | 40km/h | 13404m | 4.9m/s | 0°C | 0% | 0hPa | 0V | 00:00:00 | 00:00:00 | 00:00:00 | |
| EA3IBE | 2026-09-03 11:45:19 | 41.21146 | 2.29092 | 159° | 40km/h | 13400m | 3.5m/s | 0°C | 0% | 0hPa | 0V | 00:00:00 | 00:00:00 | 00:00:00 | |
| EA3GEO | 2026-09-03 11:45:14 | 41.21194 | 2.29068 | 159° | 42km/h | 13379m | 4.7m/s | 0°C | 0% | 0hPa | 0V | 00:00:00 | 00:00:00 | 00:00:00 | |
| EA3IBE | 2026-09-03 11:45:12 | 41.21214 | 2.29057 | 152° | 40km/h | 13370m | 4.7m/s | 0°C | 0% | 0hPa | 0V | 00:00:00 | 00:00:00 | 00:00:00 | |
| EA3GEO | 2026-09-03 11:45:09 | 41.21239 | 2.29040 | 159° | 37km/h | 13358m | 3.3m/s | 0°C | 0% | 0hPa | 0V | 00:00:00 | 00:00:00 | 00:00:00 | |
| EA3GEO | 2026-09-03 11:45:04 | 41.21286 | 2.29014 | 158° | 44km/h | 13337m | 4.9m/s | 0°C | 0% | 0hPa | 0V | 00:00:00 | 00:00:00 | 00:00:00 | |
| EA3GEO | 2026-09-03 11:44:58 | 41.21341 | 2.28977 | 156° | 37km/h | 13312m | 4.7m/s | 0°C | 0% | 0hPa | 0V | 00:00:00 | 00:00:00 | 00:00:00 | |
| EA3IBE | 2026-09-03 11:44:56 | 41.21359 | 2.28967 | 155° | 40km/h | 13303m | 4.7m/s | 0°C | 0% | 0hPa | 0V | 00:00:00 | 00:00:00 | 00:00:00 | |
| EA3GEO | 2026-09-03 11:44:52 | 41.21395 | 2.28944 | 149° | 40km/h | 13286m | 4.5m/s | 0°C | 0% | 0hPa | 0V | 00:00:00 | 00:00:00 | 00:00:00 | |
| EA3IBE | 2026-09-03 11:44:49 | 41.21422 | 2.28923 | 149° | 42km/h | 13273m | 4.9m/s | 0°C | 0% | 0hPa | 0V | 00:00:00 | 00:00:00 | 00:00:00 | |
| EA3GEO | 2026-09-03 11:44:46 | 41.21450 | 2.28902 | 158° | 42km/h | 13261m | 3.5m/s | 0°C | 0% | 0hPa | 0V | 00:00:00 | 00:00:00 | 00:00:00 | |
| EA3IBE | 2026-09-03 11:44:43 | 41.21478 | 2.28884 | 155° | 38km/h | 13248m | 5.3m/s | 0°C | 0% | 0hPa | 0V | 00:00:00 | 00:00:00 | 00:00:00 | |
| EA3GEO | 2026-09-03 11:44:41 | 41.21495 | 2.28871 | 146° | 40km/h | 13239m | 4.6m/s | 0°C | 0% | 0hPa | 0V | 00:00:00 | 00:00:00 | 00:00:00 | |
| EA3GEO | 2026-09-03 11:44:36 | 41.21543 | 2.28834 | 153° | 46km/h | 13219m | 3.5m/s | 0°C | 0% | 0hPa | 0V | 00:00:00 | 00:00:00 | 00:00:00 | |
| EA3IBE | 2026-09-03 11:44:30 | 41.21603 | 2.28795 | 155° | 46km/h | 13194m | 4.5m/s | 0°C | 0% | 0hPa | 0V | 00:00:00 | 00:00:00 | 00:00:00 | |
| EA3IBE | 2026-09-03 11:44:25 | 41.21651 | 2.28759 | 156° | 46km/h | 13173m | 3.2m/s | 0°C | 0% | 0hPa | 0V | 00:00:00 | 00:00:00 | 00:00:00 | |
| EA3GEO | 2026-09-03 11:44:24 | 41.21662 | 2.28753 | 156° | 46km/h | 13169m | 4.6m/s | 0°C | 0% | 0hPa | 0V | 00:00:00 | 00:00:00 | 00:00:00 | |
| EA3GEO | 2026-09-03 11:44:19 | 41.21716 | 2.28723 | 152° | 47km/h | 13148m | 3.9m/s | 0°C | 0% | 0hPa | 0V | 00:00:00 | 00:00:00 | 00:00:00 | |
| EA3GEO | 2026-09-03 11:44:13 | 41.21779 | 2.28683 | 160° | 47km/h | 13124m | 4.4m/s | 0°C | 0% | 0hPa | 0V | 00:00:00 | 00:00:00 | 00:00:00 | |
| EA3GEO | 2026-09-03 11:44:08 | 41.21836 | 2.28657 | 160° | 49km/h | 13104m | 4.2m/s | 0°C | 0% | 0hPa | 0V | 00:00:00 | 00:00:00 | 00:00:00 | |
| EA3GEO | 2026-09-03 11:44:03 | 41.21891 | 2.28627 | 162° | 47km/h | 13084m | 4.3m/s | 0°C | 0% | 0hPa | 0V | 00:00:00 | 00:00:00 | 00:00:00 | |
| EA3GEO | 2026-09-03 11:43:57 | 41.21961 | 2.28599 | 160° | 49km/h | 13059m | 2.5m/s | 0°C | 0% | 0hPa | 0V | 00:00:00 | 00:00:00 | 00:00:00 | |
| EA3GEO | 2026-09-03 11:43:51 | 41.22032 | 2.28569 | 165° | 46km/h | 13035m | 3.8m/s | 0°C | 0% | 0hPa | 0V | 00:00:00 | 00:00:00 | 00:00:00 | |
| EA3GEO | 2026-09-03 11:43:47 | 41.22092 | 2.28545 | 163° | 55km/h | 13015m | 4.3m/s | 0°C | 0% | 0hPa | 0V | 00:00:00 | 00:00:00 | 00:00:00 | |
| EA3GEO | 2026-09-03 11:43:41 | 41.22155 | 2.28524 | 167° | 47km/h | 12995m | 4.3m/s | 0°C | 0% | 0hPa | 0V | 00:00:00 | 00:00:00 | 00:00:00 | |
| EA3GEO | 2026-09-03 11:43:36 | 41.22212 | 2.28499 | 162° | 53km/h | 12976m | 4.6m/s | 0°C | 0% | 0hPa | 0V | 00:00:00 | 00:00:00 | 00:00:00 | |
| EA3GEO | 2026-09-03 11:43:30 | 41.22286 | 2.28472 | 160° | 46km/h | 12952m | 4.1m/s | 0°C | 0% | 0hPa | 0V | 00:00:00 | 00:00:00 | 00:00:00 | |
| EA3GEO | 2026-09-03 11:43:25 | 41.22342 | 2.28443 | 163° | 51km/h | 12932m | 5.0m/s | 0°C | 0% | 0hPa | 0V | 00:00:00 | 00:00:00 | 00:00:00 | |
| EA3GEO | 2026-09-03 11:43:20 | 41.22400 | 2.28421 | 163° | 49km/h | 12912m | 3.1m/s | 0°C | 0% | 0hPa | 0V | 00:00:00 | 00:00:00 | 00:00:00 | |
| EA3GEO | 2026-09-03 11:43:14 | 41.22475 | 2.28383 | 162° | 55km/h | 12888m | 3.7m/s | 0°C | 0% | 0hPa | 0V | 00:00:00 | 00:00:00 | 00:00:00 | |
| EA3GEO | 2026-09-03 11:43:08 | 41.22548 | 2.28354 | 163° | 51km/h | 12863m | 4.0m/s | 0°C | 0% | 0hPa | 0V | 00:00:00 | 00:00:00 | 00:00:00 | |
| EA3GEO | 2026-09-03 11:43:02 | 41.22623 | 2.28319 | 164° | 49km/h | 12838m | 5.2m/s | 0°C | 0% | 0hPa | 0V | 00:00:00 | 00:00:00 | 00:00:00 | |
| EA3GEO | 2026-09-03 11:42:56 | 41.22697 | 2.28289 | 162° | 53km/h | 12815m | 4.8m/s | 0°C | 0% | 0hPa | 0V | 00:00:00 | 00:00:00 | 00:00:00 | |
| EA3GEO | 2026-09-03 11:42:50 | 41.22771 | 2.28254 | 162° | 51km/h | 12792m | 4.6m/s | 0°C | 0% | 0hPa | 0V | 00:00:00 | 00:00:00 | 00:00:00 | |
| EA3GEO | 2026-09-03 11:42:45 | 41.22844 | 2.28223 | 162° | 51km/h | 12765m | 5.3m/s | 0°C | 0% | 0hPa | 0V | 00:00:00 | 00:00:00 | 00:00:00 | |
| EA3GEO | 2026-09-03 11:42:38 | 41.22919 | 2.28192 | 168° | 49km/h | 12740m | 4.8m/s | 0°C | 0% | 0hPa | 0V | 00:00:00 | 00:00:00 | 00:00:00 | |
| EA3GEO | 2026-09-03 11:42:33 | 41.22978 | 2.28170 | 164° | 51km/h | 12718m | 4.9m/s | 0°C | 0% | 0hPa | 0V | 00:00:00 | 00:00:00 | 00:00:00 | |
| EA3GEO | 2026-09-03 11:42:27 | 41.23053 | 2.28143 | 167° | 49km/h | 12693m | 4.4m/s | 0°C | 0% | 0hPa | 0V | 00:00:00 | 00:00:00 | 00:00:00 | |
| EA3GEO | 2026-09-03 11:42:21 | 41.23124 | 2.28117 | 164° | 47km/h | 12669m | 4.8m/s | 0°C | 0% | 0hPa | 0V | 00:00:00 | 00:00:00 | 00:00:00 | |
| EA3GEO | 2026-09-03 11:42:15 | 41.23200 | 2.28092 | 166° | 49km/h | 12646m | 4.2m/s | 0°C | 0% | 0hPa | 0V | 00:00:00 | 00:00:00 | 00:00:00 | |
| EA3GEO | 2026-09-03 11:42:09 | 41.23269 | 2.28068 | 169° | 49km/h | 12621m | 4.6m/s | 0°C | 0% | 0hPa | 0V | 00:00:00 | 00:00:00 | 00:00:00 | |
| EA3GEO | 2026-09-03 11:42:04 | 41.23332 | 2.28051 | 165° | 51km/h | 12602m | 2.6m/s | 0°C | 0% | 0hPa | 0V | 00:00:00 | 00:00:00 | 00:00:00 | |
| EA3GEO | 2026-09-03 11:41:58 | 41.23401 | 2.28027 | 168° | 46km/h | 12575m | 4.4m/s | 0°C | 0% | 0hPa | 0V | 00:00:00 | 00:00:00 | 00:00:00 | |
| EA3GEO | 2026-09-03 11:41:52 | 41.23469 | 2.28005 | 167° | 46km/h | 12548m | 3.4m/s | 0°C | 0% | 0hPa | 0V | 00:00:00 | 00:00:00 | 00:00:00 | |
| EA3GEO | 2026-09-03 11:41:46 | 41.23541 | 2.27987 | 171° | 49km/h | 12524m | 3.5m/s | 0°C | 0% | 0hPa | 0V | 00:00:00 | 00:00:00 | 00:00:00 | |
| EA3GEO | 2026-09-03 11:41:40 | 41.23614 | 2.27972 | 173° | 53km/h | 12500m | 3.2m/s | 0°C | 0% | 0hPa | 0V | 00:00:00 | 00:00:00 | 00:00:00 | |
| EA3GEO | 2026-09-03 11:41:34 | 41.23693 | 2.27960 | 174° | 49km/h | 12475m | 3.7m/s | 0°C | 0% | 0hPa | 0V | 00:00:00 | 00:00:00 | 00:00:00 | |
| EA3GEO | 2026-09-03 11:41:28 | 41.23770 | 2.27951 | 175° | 55km/h | 12452m | 3.7m/s | 0°C | 0% | 0hPa | 0V | 00:00:00 | 00:00:00 | 00:00:00 | |
| EA3GEO | 2026-09-03 11:41:22 | 41.23854 | 2.27939 | 178° | 55km/h | 12428m | 4.4m/s | 0°C | 0% | 0hPa | 0V | 00:00:00 | 00:00:00 | 00:00:00 | |
| EA3GEO | 2026-09-03 11:41:17 | 41.23923 | 2.27936 | 184° | 58km/h | 12408m | 4.1m/s | 0°C | 0% | 0hPa | 0V | 00:00:00 | 00:00:00 | 00:00:00 | |
| EA3GEO | 2026-09-03 11:41:11 | 41.24006 | 2.27933 | 175° | 55km/h | 12384m | 3.0m/s | 0°C | 0% | 0hPa | 0V | 00:00:00 | 00:00:00 | 00:00:00 | |
| EA3GEO | 2026-09-03 11:41:06 | 41.24077 | 2.27930 | 182° | 55km/h | 12364m | 4.6m/s | 0°C | 0% | 0hPa | 0V | 00:00:00 | 00:00:00 | 00:00:00 | |
| EA3GEO | 2026-09-03 11:41:00 | 41.24161 | 2.27926 | 182° | 58km/h | 12339m | 3.8m/s | 0°C | 0% | 0hPa | 0V | 00:00:00 | 00:00:00 | 00:00:00 | |
| EA3GEO | 2026-09-03 11:40:54 | 41.24243 | 2.27917 | 176° | 53km/h | 12315m | 4.3m/s | 0°C | 0% | 0hPa | 0V | 00:00:00 | 00:00:00 | 00:00:00 | |
| EA3GEO | 2026-09-03 11:40:49 | 41.24314 | 2.27912 | 173° | 53km/h | 12296m | 3.3m/s | 0°C | 0% | 0hPa | 0V | 00:00:00 | 00:00:00 | 00:00:00 | |
| EA3GEO | 2026-09-03 11:40:44 | 41.24379 | 2.27903 | 180° | 53km/h | 12276m | 2.9m/s | 0°C | 0% | 0hPa | 0V | 00:00:00 | 00:00:00 | 00:00:00 | |
| EA3GEO | 2026-09-03 11:40:39 | 41.24448 | 2.27895 | 173° | 55km/h | 12257m | 4.5m/s | 0°C | 0% | 0hPa | 0V | 00:00:00 | 00:00:00 | 00:00:00 | |
| EA3GEO | 2026-09-03 11:40:33 | 41.24527 | 2.27884 | 173° | 53km/h | 12234m | 4.6m/s | 0°C | 0% | 0hPa | 0V | 00:00:00 | 00:00:00 | 00:00:00 | |
| EA3GEO | 2026-09-03 11:40:28 | 41.24596 | 2.27868 | 171° | 55km/h | 12215m | 3.2m/s | 0°C | 0% | 0hPa | 0V | 00:00:00 | 00:00:00 | 00:00:00 | |
| EA3IBE | 2026-09-03 11:40:27 | 41.24610 | 2.27864 | 172° | 55km/h | 12211m | 4.9m/s | 0°C | 0% | 0hPa | 0V | 00:00:00 | 00:00:00 | 00:00:00 | |
| EA3GEO | 2026-09-03 11:40:23 | 41.24662 | 2.27855 | 174° | 57km/h | 12195m | 4.6m/s | 0°C | 0% | 0hPa | 0V | 00:00:00 | 00:00:00 | 00:00:00 | |
| EA3IBE | 2026-09-03 11:40:22 | 41.24676 | 2.27853 | 171° | 55km/h | 12191m | 4.0m/s | 0°C | 0% | 0hPa | 0V | 00:00:00 | 00:00:00 | 00:00:00 | |
| EA3GEO | 2026-09-03 11:40:17 | 41.24741 | 2.27835 | 170° | 49km/h | 12171m | 4.7m/s | 0°C | 0% | 0hPa | 0V | 00:00:00 | 00:00:00 | 00:00:00 | |
| EA3IBE | 2026-09-03 11:40:16 | 41.24753 | 2.27832 | 172° | 51km/h | 12167m | 3.9m/s | 0°C | 0% | 0hPa | 0V | 00:00:00 | 00:00:00 | 00:00:00 | |
| EA3GEO | 2026-09-03 11:40:11 | 41.24815 | 2.27816 | 167° | 51km/h | 12147m | 4.7m/s | 0°C | 0% | 0hPa | 0V | 00:00:00 | 00:00:00 | 00:00:00 | |
| EA3GEO | 2026-09-03 11:40:06 | 41.24880 | 2.27798 | 173° | 53km/h | 12127m | 3.1m/s | 0°C | 0% | 0hPa | 0V | 00:00:00 | 00:00:00 | 00:00:00 | |
| EA3IBE | 2026-09-03 11:40:00 | 41.24951 | 2.27772 | 161° | 49km/h | 12103m | 4.4m/s | 0°C | 0% | 0hPa | 0V | 00:00:00 | 00:00:00 | 00:00:00 | |
| EA3GEO | 2026-09-03 11:39:55 | 41.25012 | 2.27749 | 165° | 53km/h | 12084m | 3.9m/s | 0°C | 0% | 0hPa | 0V | 00:00:00 | 00:00:00 | 00:00:00 | |
| EA3IBE | 2026-09-03 11:39:52 | 41.25049 | 2.27736 | 163° | 49km/h | 12071m | 4.5m/s | 0°C | 0% | 0hPa | 0V | 00:00:00 | 00:00:00 | 00:00:00 | |
| EA3GEO | 2026-09-03 11:39:50 | 41.25072 | 2.27723 | 159° | 49km/h | 12063m | 4.1m/s | 0°C | 0% | 0hPa | 0V | 00:00:00 | 00:00:00 | 00:00:00 | |
| EA3GEO | 2026-09-03 11:39:44 | 41.25142 | 2.27692 | 162° | 46km/h | 12041m | 4.2m/s | 0°C | 0% | 0hPa | 0V | 00:00:00 | 00:00:00 | 00:00:00 | |
| EA3GEO | 2026-09-03 11:39:39 | 41.25195 | 2.27668 | 163° | 47km/h | 12021m | 4.0m/s | 0°C | 0% | 0hPa | 0V | 00:00:00 | 00:00:00 | 00:00:00 | |
| EA3GEO | 2026-09-03 11:39:34 | 41.25253 | 2.27642 | 163° | 47km/h | 12002m | 3.0m/s | 0°C | 0% | 0hPa | 0V | 00:00:00 | 00:00:00 | 00:00:00 | |
| EA3GEO | 2026-09-03 11:39:28 | 41.25319 | 2.27610 | 157° | 49km/h | 11979m | 4.3m/s | 0°C | 0% | 0hPa | 0V | 00:00:00 | 00:00:00 | 00:00:00 | |
| EA3GEO | 2026-09-03 11:39:23 | 41.25376 | 2.27581 | 159° | 47km/h | 11959m | 3.6m/s | 0°C | 0% | 0hPa | 0V | 00:00:00 | 00:00:00 | 00:00:00 | |
| EA3GEO | 2026-09-03 11:39:18 | 41.25444 | 2.27548 | 160° | 49km/h | 11934m | 4.2m/s | 0°C | 0% | 0hPa | 0V | 00:00:00 | 00:00:00 | 00:00:00 | |
| EA3GEO | 2026-09-03 11:39:11 | 41.25515 | 2.27514 | 162° | 51km/h | 11909m | 4.3m/s | 0°C | 0% | 0hPa | 0V | 00:00:00 | 00:00:00 | 00:00:00 | |
| EA3GEO | 2026-09-03 11:39:06 | 41.25575 | 2.27488 | 162° | 49km/h | 11888m | 4.3m/s | 0°C | 0% | 0hPa | 0V | 00:00:00 | 00:00:00 | 00:00:00 | |
| EA3GEO | 2026-09-03 11:39:00 | 41.25645 | 2.27457 | 167° | 51km/h | 11864m | 3.5m/s | 0°C | 0% | 0hPa | 0V | 00:00:00 | 00:00:00 | 00:00:00 | |
| EA3GEO | 2026-09-03 11:38:55 | 41.25705 | 2.27434 | 163° | 46km/h | 11845m | 4.4m/s | 0°C | 0% | 0hPa | 0V | 00:00:00 | 00:00:00 | 00:00:00 | |
| EA3GEO | 2026-09-03 11:38:50 | 41.25764 | 2.27406 | 164° | 53km/h | 11825m | 5.1m/s | 0°C | 0% | 0hPa | 0V | 00:00:00 | 00:00:00 | 00:00:00 | |
| EA3GEO | 2026-09-03 11:38:44 | 41.25841 | 2.27381 | 165° | 49km/h | 11802m | 5.1m/s | 0°C | 0% | 0hPa | 0V | 00:00:00 | 00:00:00 | 00:00:00 | |
| EA3GEO | 2026-09-03 11:38:38 | 41.25910 | 2.27346 | 169° | 53km/h | 11779m | 3.2m/s | 0°C | 0% | 0hPa | 0V | 00:00:00 | 00:00:00 | 00:00:00 | |
| EA3GEO | 2026-09-03 11:38:34 | 41.25976 | 2.27325 | 159° | 47km/h | 11760m | 4.7m/s | 0°C | 0% | 0hPa | 0V | 00:00:00 | 00:00:00 | 00:00:00 | |
| EA3GEO | 2026-09-03 11:38:28 | 41.26034 | 2.27296 | 165° | 55km/h | 11740m | 4.1m/s | 0°C | 0% | 0hPa | 0V | 00:00:00 | 00:00:00 | 00:00:00 | |
| EA3GEO | 2026-09-03 11:38:22 | 41.26112 | 2.27268 | 161° | 46km/h | 11713m | 3.0m/s | 0°C | 0% | 0hPa | 0V | 00:00:00 | 00:00:00 | 00:00:00 | |
| EA3GEO | 2026-09-03 11:38:17 | 41.26169 | 2.27240 | 165° | 49km/h | 11695m | 4.4m/s | 0°C | 0% | 0hPa | 0V | 00:00:00 | 00:00:00 | 00:00:00 | |
| EA3IBE | 2026-09-03 11:38:16 | 41.26181 | 2.27235 | 165° | 51km/h | 11691m | 4.6m/s | 0°C | 0% | 0hPa | 0V | 00:00:00 | 00:00:00 | 00:00:00 | |
| EA3GEO | 2026-09-03 11:38:12 | 41.26230 | 2.27214 | 163° | 47km/h | 11674m | 3.6m/s | 0°C | 0% | 0hPa | 0V | 00:00:00 | 00:00:00 | 00:00:00 | |
| EA3GEO | 2026-09-03 11:38:06 | 41.26301 | 2.27184 | 162° | 51km/h | 11648m | 4.5m/s | 0°C | 0% | 0hPa | 0V | 00:00:00 | 00:00:00 | 00:00:00 | |
| EA3GEO | 2026-09-03 11:38:00 | 41.26371 | 2.27152 | 163° | 49km/h | 11624m | 4.8m/s | 0°C | 0% | 0hPa | 0V | 00:00:00 | 00:00:00 | 00:00:00 | |
| EA3GEO | 2026-09-03 11:37:54 | 41.26442 | 2.27117 | 160° | 46km/h | 11599m | 3.8m/s | 0°C | 0% | 0hPa | 0V | 00:00:00 | 00:00:00 | 00:00:00 | |
| EA3GEO | 2026-09-03 11:37:48 | 41.26508 | 2.27081 | 163° | 51km/h | 11573m | 3.7m/s | 0°C | 0% | 0hPa | 0V | 00:00:00 | 00:00:00 | 00:00:00 | |
| EA3IBE | 2026-09-03 11:37:46 | 41.26532 | 2.27071 | 163° | 47km/h | 11564m | 4.4m/s | 0°C | 0% | 0hPa | 0V | 00:00:00 | 00:00:00 | 00:00:00 | |
| EA3GEO | 2026-09-03 11:37:43 | 41.26565 | 2.27056 | 158° | 46km/h | 11552m | 3.8m/s | 0°C | 0% | 0hPa | 0V | 00:00:00 | 00:00:00 | 00:00:00 | |
| EA3GEO | 2026-09-03 11:37:37 | 41.26627 | 2.27012 | 150° | 47km/h | 11526m | 3.1m/s | 0°C | 0% | 0hPa | 0V | 00:00:00 | 00:00:00 | 00:00:00 | |
| EA3GEO | 2026-09-03 11:37:31 | 41.26695 | 2.26976 | 158° | 46km/h | 11504m | 5.0m/s | 0°C | 0% | 0hPa | 0V | 00:00:00 | 00:00:00 | 00:00:00 | |
| EA3GEO | 2026-09-03 11:37:26 | 41.26749 | 2.26942 | 156° | 47km/h | 11484m | 5.1m/s | 0°C | 0% | 0hPa | 0V | 00:00:00 | 00:00:00 | 00:00:00 | |
| EA3GEO | 2026-09-03 11:37:21 | 41.26805 | 2.26913 | 159° | 55km/h | 11465m | 4.0m/s | 0°C | 0% | 0hPa | 0V | 00:00:00 | 00:00:00 | 00:00:00 | |
| EA3GEO | 2026-09-03 11:37:15 | 41.26875 | 2.26878 | 165° | 49km/h | 11439m | 4.9m/s | 0°C | 0% | 0hPa | 0V | 00:00:00 | 00:00:00 | 00:00:00 | |
| EA3GEO | 2026-09-03 11:37:09 | 41.26943 | 2.26846 | 160° | 46km/h | 11415m | 3.9m/s | 0°C | 0% | 0hPa | 0V | 00:00:00 | 00:00:00 | 00:00:00 | |
| EA3GEO | 2026-09-03 11:37:04 | 41.26999 | 2.26817 | 159° | 49km/h | 11395m | 4.3m/s | 0°C | 0% | 0hPa | 0V | 00:00:00 | 00:00:00 | 00:00:00 | |
| EA3GEO | 2026-09-03 11:37:00 | 41.27051 | 2.26790 | 160° | 44km/h | 11373m | 4.6m/s | 0°C | 0% | 0hPa | 0V | 00:00:00 | 00:00:00 | 00:00:00 | |
| EA3GEO | 2026-09-03 11:36:53 | 41.27117 | 2.26754 | 161° | 47km/h | 11350m | 4.9m/s | 0°C | 0% | 0hPa | 0V | 00:00:00 | 00:00:00 | 00:00:00 | |
| EA3GEO | 2026-09-03 11:36:47 | 41.27182 | 2.26719 | 155° | 47km/h | 11328m | 4.5m/s | 0°C | 0% | 0hPa | 0V | 00:00:00 | 00:00:00 | 00:00:00 | |
| EA3GEO | 2026-09-03 11:36:42 | 41.27235 | 2.26685 | 155° | 44km/h | 11306m | 4.6m/s | 0°C | 0% | 0hPa | 0V | 00:00:00 | 00:00:00 | 00:00:00 | |
| EA3GEO | 2026-09-03 11:36:36 | 41.27298 | 2.26644 | 160° | 46km/h | 11280m | 3.2m/s | 0°C | 0% | 0hPa | 0V | 00:00:00 | 00:00:00 | 00:00:00 | |
| EA3GEO | 2026-09-03 11:36:31 | 41.27349 | 2.26618 | 154° | 38km/h | 11261m | 4.7m/s | 0°C | 0% | 0hPa | 0V | 00:00:00 | 00:00:00 | 00:00:00 | |
| EA3GEO | 2026-09-03 11:36:25 | 41.27403 | 2.26581 | 152° | 47km/h | 11236m | 4.8m/s | 0°C | 0% | 0hPa | 0V | 00:00:00 | 00:00:00 | 00:00:00 | |
| EA3GEO | 2026-09-03 11:36:20 | 41.27453 | 2.26548 | 157° | 46km/h | 11219m | 2.4m/s | 0°C | 0% | 0hPa | 0V | 00:00:00 | 00:00:00 | 00:00:00 | |
| EA3GEO | 2026-09-03 11:36:14 | 41.27517 | 2.26507 | 155° | 51km/h | 11193m | 4.1m/s | 0°C | 0% | 0hPa | 0V | 00:00:00 | 00:00:00 | 00:00:00 | |
| EA3GEO | 2026-09-03 11:36:04 | 41.27621 | 2.26438 | 160° | 49km/h | 11156m | 4.6m/s | 0°C | 0% | 0hPa | 0V | 00:00:00 | 00:00:00 | 00:00:00 | |
| EA3GEO | 2026-09-03 11:35:58 | 41.27686 | 2.26403 | 158° | 49km/h | 11131m | 3.8m/s | 0°C | 0% | 0hPa | 0V | 00:00:00 | 00:00:00 | 00:00:00 | |
| EA3GEO | 2026-09-03 11:35:53 | 41.27742 | 2.26373 | 155° | 44km/h | 11109m | 4.1m/s | 0°C | 0% | 0hPa | 0V | 00:00:00 | 00:00:00 | 00:00:00 | |
| EA3GEO | 2026-09-03 11:35:48 | 41.27795 | 2.26342 | 159° | 46km/h | 11087m | 4.1m/s | 0°C | 0% | 0hPa | 0V | 00:00:00 | 00:00:00 | 00:00:00 | |
| EA3GEO | 2026-09-03 11:35:42 | 41.27863 | 2.26306 | 158° | 47km/h | 11062m | 3.3m/s | 0°C | 0% | 0hPa | 0V | 00:00:00 | 00:00:00 | 00:00:00 | |
| EA3GEO | 2026-09-03 11:35:36 | 41.27927 | 2.26267 | 155° | 46km/h | 11039m | 3.6m/s | 0°C | 0% | 0hPa | 0V | 00:00:00 | 00:00:00 | 00:00:00 | |
| EA3GEO | 2026-09-03 11:35:30 | 41.27992 | 2.26230 | 157° | 46km/h | 11015m | 4.8m/s | 0°C | 0% | 0hPa | 0V | 00:00:00 | 00:00:00 | 00:00:00 | |
| EA3GEO | 2026-09-03 11:35:24 | 41.28049 | 2.26188 | 157° | 40km/h | 10990m | 4.0m/s | 0°C | 0% | 0hPa | 0V | 00:00:00 | 00:00:00 | 00:00:00 | |
| EA3GEO | 2026-09-03 11:35:19 | 41.28100 | 2.26158 | 158° | 46km/h | 10969m | 4.6m/s | 0°C | 0% | 0hPa | 0V | 00:00:00 | 00:00:00 | 00:00:00 | |
| EA3GEO | 2026-09-03 11:35:13 | 41.28163 | 2.26115 | 152° | 46km/h | 10944m | 4.6m/s | 0°C | 0% | 0hPa | 0V | 00:00:00 | 00:00:00 | 00:00:00 | |
| EA3GEO | 2026-09-03 11:35:07 | 41.28223 | 2.26074 | 150° | 46km/h | 10920m | 5.0m/s | 0°C | 0% | 0hPa | 0V | 00:00:00 | 00:00:00 | 00:00:00 | |
| EA3GEO | 2026-09-03 11:35:02 | 41.28272 | 2.26035 | 152° | 46km/h | 10899m | 3.0m/s | 0°C | 0% | 0hPa | 0V | 00:00:00 | 00:00:00 | 00:00:00 | |
| EA3GEO | 2026-09-03 11:34:57 | 41.28323 | 2.26000 | 148° | 42km/h | 10879m | 2.7m/s | 0°C | 0% | 0hPa | 0V | 00:00:00 | 00:00:00 | 00:00:00 | |
| EA3GEO | 2026-09-03 11:34:51 | 41.28384 | 2.25955 | 155° | 49km/h | 10855m | 5.3m/s | 0°C | 0% | 0hPa | 0V | 00:00:00 | 00:00:00 | 00:00:00 | |
| EA3GEO | 2026-09-03 11:34:46 | 41.28431 | 2.25918 | 144° | 42km/h | 10836m | 4.0m/s | 0°C | 0% | 0hPa | 0V | 00:00:00 | 00:00:00 | 00:00:00 | |
| EA3GEO | 2026-09-03 11:34:40 | 41.28490 | 2.25869 | 151° | 49km/h | 10812m | 6.1m/s | 0°C | 0% | 0hPa | 0V | 00:00:00 | 00:00:00 | 00:00:00 | |
| EA3GEO | 2026-09-03 11:34:34 | 41.28547 | 2.25817 | 147° | 42km/h | 10788m | 2.0m/s | 0°C | 0% | 0hPa | 0V | 00:00:00 | 00:00:00 | 00:00:00 | |
| EA3GEO | 2026-09-03 11:34:29 | 41.28593 | 2.25770 | 146° | 51km/h | 10767m | 4.1m/s | 0°C | 0% | 0hPa | 0V | 00:00:00 | 00:00:00 | 00:00:00 | |
| EA3GEO | 2026-09-03 11:34:23 | 41.28649 | 2.25720 | 147° | 47km/h | 10746m | 3.7m/s | 0°C | 0% | 0hPa | 0V | 00:00:00 | 00:00:00 | 00:00:00 | |
| EA3GEO | 2026-09-03 11:34:18 | 41.28700 | 2.25680 | 155° | 46km/h | 10726m | 4.0m/s | 0°C | 0% | 0hPa | 0V | 00:00:00 | 00:00:00 | 00:00:00 | |
| EA3GEO | 2026-09-03 11:34:12 | 41.28757 | 2.25632 | 146° | 46km/h | 10701m | 4.3m/s | 0°C | 0% | 0hPa | 0V | 00:00:00 | 00:00:00 | 00:00:00 | |
| EA3GEO | 2026-09-03 11:34:07 | 41.28807 | 2.25590 | 145° | 49km/h | 10680m | 2.6m/s | 0°C | 0% | 0hPa | 0V | 00:00:00 | 00:00:00 | 00:00:00 | |
| EA3GEO | 2026-09-03 11:34:01 | 41.28864 | 2.25543 | 148° | 40km/h | 10656m | 3.7m/s | 0°C | 0% | 0hPa | 0V | 00:00:00 | 00:00:00 | 00:00:00 | |
| EA3GEO | 2026-09-03 11:33:56 | 41.28910 | 2.25495 | 139° | 44km/h | 10635m | 2.9m/s | 0°C | 0% | 0hPa | 0V | 00:00:00 | 00:00:00 | 00:00:00 | |
| EA3GEO | 2026-09-03 11:33:50 | 41.28965 | 2.25440 | 150° | 44km/h | 10613m | 2.0m/s | 0°C | 0% | 0hPa | 0V | 00:00:00 | 00:00:00 | 00:00:00 | |
| EA3GEO | 2026-09-03 11:33:44 | 41.29026 | 2.25387 | 146° | 49km/h | 10591m | 4.8m/s | 0°C | 0% | 0hPa | 0V | 00:00:00 | 00:00:00 | 00:00:00 | |
| EA3GEO | 2026-09-03 11:33:38 | 41.29084 | 2.25330 | 145° | 44km/h | 10568m | 5.7m/s | 0°C | 0% | 0hPa | 0V | 00:00:00 | 00:00:00 | 00:00:00 | |
| EA3GEO | 2026-09-03 11:33:32 | 41.29140 | 2.25271 | 140° | 44km/h | 10542m | 4.6m/s | 0°C | 0% | 0hPa | 0V | 00:00:00 | 00:00:00 | 00:00:00 | |
| EA3GEO | 2026-09-03 11:33:27 | 41.29186 | 2.25224 | 147° | 47km/h | 10523m | 5.1m/s | 0°C | 0% | 0hPa | 0V | 00:00:00 | 00:00:00 | 00:00:00 | |
| EA3GEO | 2026-09-03 11:33:22 | 41.29227 | 2.25171 | 134° | 46km/h | 10501m | 4.3m/s | 0°C | 0% | 0hPa | 0V | 00:00:00 | 00:00:00 | 00:00:00 | |
| EA3GEO | 2026-09-03 11:33:16 | 41.29281 | 2.25109 | 137° | 46km/h | 10477m | 3.4m/s | 0°C | 0% | 0hPa | 0V | 00:00:00 | 00:00:00 | 00:00:00 | |
| EA3GEO | 2026-09-03 11:33:10 | 41.29331 | 2.25042 | 141° | 49km/h | 10453m | 3.5m/s | 0°C | 0% | 0hPa | 0V | 00:00:00 | 00:00:00 | 00:00:00 | |
| EA3GEO | 2026-09-03 11:32:59 | 41.29426 | 2.24921 | 136° | 44km/h | 10410m | 4.8m/s | 0°C | 0% | 0hPa | 0V | 00:00:00 | 00:00:00 | 00:00:00 | |
| EA3GEO | 2026-09-03 11:32:54 | 41.29462 | 2.24865 | 137° | 51km/h | 10391m | 3.6m/s | 0°C | 0% | 0hPa | 0V | 00:00:00 | 00:00:00 | 00:00:00 | |
| EA3GEO | 2026-09-03 11:32:48 | 41.29512 | 2.24798 | 132° | 44km/h | 10367m | 5.3m/s | 0°C | 0% | 0hPa | 0V | 00:00:00 | 00:00:00 | 00:00:00 | |
| EA3GEO | 2026-09-03 11:32:41 | 41.29565 | 2.24719 | 136° | 46km/h | 10340m | 5.5m/s | 0°C | 0% | 0hPa | 0V | 00:00:00 | 00:00:00 | 00:00:00 | |
| EA3GEO | 2026-09-03 11:32:36 | 41.29599 | 2.24661 | 131° | 38km/h | 10318m | 4.2m/s | 0°C | 0% | 0hPa | 0V | 00:00:00 | 00:00:00 | 00:00:00 | |
| EA3GEO | 2026-09-03 11:32:30 | 41.29643 | 2.24591 | 134° | 44km/h | 10294m | 5.9m/s | 0°C | 0% | 0hPa | 0V | 00:00:00 | 00:00:00 | 00:00:00 | |
| EA3GEO | 2026-09-03 11:32:25 | 41.29676 | 2.24536 | 124° | 44km/h | 10272m | 1.8m/s | 0°C | 0% | 0hPa | 0V | 00:00:00 | 00:00:00 | 00:00:00 | |
| EA3GEO | 2026-09-03 11:32:19 | 41.29719 | 2.24462 | 131° | 42km/h | 10249m | 3.0m/s | 0°C | 0% | 0hPa | 0V | 00:00:00 | 00:00:00 | 00:00:00 | |
| EA3GEO | 2026-09-03 11:32:13 | 41.29762 | 2.24388 | 120° | 47km/h | 10226m | 3.4m/s | 0°C | 0% | 0hPa | 0V | 00:00:00 | 00:00:00 | 00:00:00 | |
| EA3GEO | 2026-09-03 11:32:08 | 41.29793 | 2.24323 | 131° | 42km/h | 10208m | 2.7m/s | 0°C | 0% | 0hPa | 0V | 00:00:00 | 00:00:00 | 00:00:00 | |
| EA3GEO | 2026-09-03 11:32:02 | 41.29838 | 2.24248 | 118° | 53km/h | 10185m | 6.7m/s | 0°C | 0% | 0hPa | 0V | 00:00:00 | 00:00:00 | 00:00:00 | |
| EA3GEO | 2026-09-03 11:31:57 | 41.29866 | 2.24176 | 122° | 46km/h | 10165m | 5.0m/s | 0°C | 0% | 0hPa | 0V | 00:00:00 | 00:00:00 | 00:00:00 | |
| EA3GEO | 2026-09-03 11:31:52 | 41.29902 | 2.24115 | 138° | 51km/h | 10143m | 3.6m/s | 0°C | 0% | 0hPa | 0V | 00:00:00 | 00:00:00 | 00:00:00 | |
| EA3GEO | 2026-09-03 11:31:46 | 41.29938 | 2.24037 | 125° | 46km/h | 10114m | 3.7m/s | 0°C | 0% | 0hPa | 0V | 00:00:00 | 00:00:00 | 00:00:00 | |
| EA3GEO | 2026-09-03 11:31:41 | 41.29984 | 2.23973 | 127° | 47km/h | 10091m | 6.9m/s | 0°C | 0% | 0hPa | 0V | 00:00:00 | 00:00:00 | 00:00:00 | |
| EA3GEO | 2026-09-03 11:31:36 | 41.30018 | 2.23903 | 129° | 55km/h | 10060m | 6.9m/s | 0°C | 0% | 0hPa | 0V | 00:00:00 | 00:00:00 | 00:00:00 | |
| EA3GEO | 2026-09-03 11:31:30 | 41.30067 | 2.23839 | 134° | 55km/h | 10023m | 7.8m/s | 0°C | 0% | 0hPa | 0V | 00:00:00 | 00:00:00 | 00:00:00 | |
| EA3GEO | 2026-09-03 11:31:25 | 41.30112 | 2.23769 | 142° | 47km/h | 9993m | 6.2m/s | 0°C | 0% | 0hPa | 0V | 00:00:00 | 00:00:00 | 00:00:00 | |
| EA3GEO | 2026-09-03 11:31:19 | 41.30157 | 2.23706 | 131° | 49km/h | 9959m | 4.1m/s | 0°C | 0% | 0hPa | 0V | 00:00:00 | 00:00:00 | 00:00:00 | |
| EA3GEO | 2026-09-03 11:31:13 | 41.30207 | 2.23634 | 148° | 40km/h | 9933m | 5.1m/s | 0°C | 0% | 0hPa | 0V | 00:00:00 | 00:00:00 | 00:00:00 | |
| EA3GEO | 2026-09-03 11:31:07 | 41.30254 | 2.23562 | 128° | 60km/h | 9909m | 7.7m/s | 0°C | 0% | 0hPa | 0V | 00:00:00 | 00:00:00 | 00:00:00 | |
| EA3GEO | 2026-09-03 11:31:02 | 41.30297 | 2.23507 | 151° | 44km/h | 9874m | 10.4m/s | 0°C | 0% | 0hPa | 0V | 00:00:00 | 00:00:00 | 00:00:00 | |
| EA3GEO | 2026-09-03 11:30:56 | 41.30349 | 2.23448 | 133° | 40km/h | 9836m | 5.1m/s | 0°C | 0% | 0hPa | 0V | 00:00:00 | 00:00:00 | 00:00:00 | |
| EA3GEO | 2026-09-03 11:30:51 | 41.30382 | 2.23392 | 134° | 51km/h | 9812m | 8.8m/s | 0°C | 0% | 0hPa | 0V | 00:00:00 | 00:00:00 | 00:00:00 | |
| EA3GEO | 2026-09-03 11:30:45 | 41.30430 | 2.23323 | 133° | 44km/h | 9769m | 6.6m/s | 0°C | 0% | 0hPa | 0V | 00:00:00 | 00:00:00 | 00:00:00 | |
| EA3GEO | 2026-09-03 11:30:40 | 41.30469 | 2.23260 | 128° | 47km/h | 9740m | 4.2m/s | 0°C | 0% | 0hPa | 0V | 00:00:00 | 00:00:00 | 00:00:00 | |
| EA3GEO | 2026-09-03 11:30:34 | 41.30508 | 2.23195 | 136° | 42km/h | 9712m | 3.7m/s | 0°C | 0% | 0hPa | 0V | 00:00:00 | 00:00:00 | 00:00:00 | |
| EA3GEO | 2026-09-03 11:30:29 | 41.30544 | 2.23137 | 127° | 42km/h | 9691m | 3.7m/s | 0°C | 0% | 0hPa | 0V | 00:00:00 | 00:00:00 | 00:00:00 | |
| EA3GEO | 2026-09-03 11:30:24 | 41.30574 | 2.23084 | 139° | 40km/h | 9670m | 5.3m/s | 0°C | 0% | 0hPa | 0V | 00:00:00 | 00:00:00 | 00:00:00 | |
| EA3GEO | 2026-09-03 11:30:18 | 41.30617 | 2.23013 | 124° | 51km/h | 9639m | 5.4m/s | 0°C | 0% | 0hPa | 0V | 00:00:00 | 00:00:00 | 00:00:00 | |
| EA3GEO | 2026-09-03 11:30:13 | 41.30653 | 2.22947 | 123° | 44km/h | 9610m | 3.7m/s | 0°C | 0% | 0hPa | 0V | 00:00:00 | 00:00:00 | 00:00:00 | |
| EA3GEO | 2026-09-03 11:30:07 | 41.30682 | 2.22889 | 141° | 40km/h | 9587m | 4.0m/s | 0°C | 0% | 0hPa | 0V | 00:00:00 | 00:00:00 | 00:00:00 | |
| EA3GEO | 2026-09-03 11:30:01 | 41.30723 | 2.22831 | 135° | 38km/h | 9555m | 7.0m/s | 0°C | 0% | 0hPa | 0V | 00:00:00 | 00:00:00 | 00:00:00 | |
| EA3GEO | 2026-09-03 11:29:55 | 41.30759 | 2.22771 | 125° | 40km/h | 9528m | 7.7m/s | 0°C | 0% | 0hPa | 0V | 00:00:00 | 00:00:00 | 00:00:00 | |
| EA3GEO | 2026-09-03 11:29:50 | 41.30791 | 2.22717 | 128° | 49km/h | 9494m | 4.9m/s | 0°C | 0% | 0hPa | 0V | 00:00:00 | 00:00:00 | 00:00:00 | |
| EA3GEO | 2026-09-03 11:29:44 | 41.30838 | 2.22667 | 120° | 40km/h | 9462m | 6.6m/s | 0°C | 0% | 0hPa | 0V | 00:00:00 | 00:00:00 | 00:00:00 | |
| EA3GEO | 2026-09-03 11:29:38 | 41.30886 | 2.22606 | 168° | 47km/h | 9434m | 5.8m/s | 0°C | 0% | 0hPa | 0V | 00:00:00 | 00:00:00 | 00:00:00 | |
| EA3GEO | 2026-09-03 11:29:32 | 41.30938 | 2.22558 | 147° | 33km/h | 9399m | 5.7m/s | 0°C | 0% | 0hPa | 0V | 00:00:00 | 00:00:00 | 00:00:00 | |
| EA3GEO | 2026-09-03 11:29:26 | 41.30995 | 2.22525 | 163° | 38km/h | 9370m | 5.8m/s | 0°C | 0% | 0hPa | 0V | 00:00:00 | 00:00:00 | 00:00:00 | |
| EA3GEO | 2026-09-03 11:29:20 | 41.31039 | 2.22492 | 151° | 44km/h | 9340m | 4.8m/s | 0°C | 0% | 0hPa | 0V | 00:00:00 | 00:00:00 | 00:00:00 | |
| EA3GEO | 2026-09-03 11:29:15 | 41.31078 | 2.22466 | 167° | 24km/h | 9315m | 5.3m/s | 0°C | 0% | 0hPa | 0V | 00:00:00 | 00:00:00 | 00:00:00 | |
| EA3GEO | 2026-09-03 11:29:09 | 41.31128 | 2.22433 | 139° | 40km/h | 9290m | 4.9m/s | 0°C | 0% | 0hPa | 0V | 00:00:00 | 00:00:00 | 00:00:00 | |
| EA3GEO | 2026-09-03 11:29:04 | 41.31166 | 2.22404 | 148° | 26km/h | 9265m | 6.2m/s | 0°C | 0% | 0hPa | 0V | 00:00:00 | 00:00:00 | 00:00:00 | |
| EA3GEO | 2026-09-03 11:28:58 | 41.31206 | 2.22377 | 162° | 33km/h | 9236m | 4.8m/s | 0°C | 0% | 0hPa | 0V | 00:00:00 | 00:00:00 | 00:00:00 | |
| EA3IBE | 2026-09-03 11:28:57 | 41.31214 | 2.22373 | 160° | 33km/h | 9232m | 3.9m/s | 0°C | 0% | 0hPa | 0V | 00:00:00 | 00:00:00 | 00:00:00 | |
| EA3GEO | 2026-09-03 11:28:53 | 41.31244 | 2.22355 | 159° | 33km/h | 9214m | 3.4m/s | 0°C | 0% | 0hPa | 0V | 00:00:00 | 00:00:00 | 00:00:00 | |
| EA3GEO | 2026-09-03 11:28:48 | 41.31281 | 2.22333 | 155° | 27km/h | 9198m | 4.4m/s | 0°C | 0% | 0hPa | 0V | 00:00:00 | 00:00:00 | 00:00:00 | |
| EA3GEO | 2026-09-03 11:28:42 | 41.31321 | 2.22310 | 167° | 29km/h | 9174m | 5.5m/s | 0°C | 0% | 0hPa | 0V | 00:00:00 | 00:00:00 | 00:00:00 | |
| EA3IBE | 2026-09-03 11:28:37 | 41.31356 | 2.22284 | 150° | 38km/h | 9156m | 4.2m/s | 0°C | 0% | 0hPa | 0V | 00:00:00 | 00:00:00 | 00:00:00 | |
| EA3GEO | 2026-09-03 11:28:36 | 41.31364 | 2.22280 | 163° | 35km/h | 9153m | 3.0m/s | 0°C | 0% | 0hPa | 0V | 00:00:00 | 00:00:00 | 00:00:00 | |
| EA3GEO | 2026-09-03 11:28:30 | 41.31407 | 2.22249 | 152° | 33km/h | 9128m | 6.3m/s | 0°C | 0% | 0hPa | 0V | 00:00:00 | 00:00:00 | 00:00:00 | |
| EA3IBE | 2026-09-03 11:28:28 | 41.31421 | 2.22240 | 156° | 26km/h | 9121m | 3.1m/s | 0°C | 0% | 0hPa | 0V | 00:00:00 | 00:00:00 | 00:00:00 | |
| EA3GEO | 2026-09-03 11:28:24 | 41.31448 | 2.22227 | 164° | 27km/h | 9106m | 4.3m/s | 0°C | 0% | 0hPa | 0V | 00:00:00 | 00:00:00 | 00:00:00 | |
| EA3IBE | 2026-09-03 11:28:22 | 41.31460 | 2.22217 | 155° | 35km/h | 9097m | 6.6m/s | 0°C | 0% | 0hPa | 0V | 00:00:00 | 00:00:00 | 00:00:00 | |
| EA3GEO | 2026-09-03 11:28:19 | 41.31483 | 2.22201 | 149° | 33km/h | 9084m | 1.9m/s | 0°C | 0% | 0hPa | 0V | 00:00:00 | 00:00:00 | 00:00:00 | |
| EA3IBE | 2026-09-03 11:28:17 | 41.31496 | 2.22192 | 165° | 27km/h | 9077m | 4.7m/s | 0°C | 0% | 0hPa | 0V | 00:00:00 | 00:00:00 | 00:00:00 | |
| EA3GEO | 2026-09-03 11:28:14 | 41.31516 | 2.22181 | 156° | 29km/h | 9067m | 0.9m/s | 0°C | 0% | 0hPa | 0V | 00:00:00 | 00:00:00 | 00:00:00 | |
| EA3IBE | 2026-09-03 11:28:09 | 41.31550 | 2.22153 | 157° | 33km/h | 9046m | 4.3m/s | 0°C | 0% | 0hPa | 0V | 00:00:00 | 00:00:00 | 00:00:00 | |
| EA3GEO | 2026-09-03 11:28:08 | 41.31557 | 2.22148 | 154° | 29km/h | 9042m | 2.9m/s | 0°C | 0% | 0hPa | 0V | 00:00:00 | 00:00:00 | 00:00:00 | |
| EA3IBE | 2026-09-03 11:28:02 | 41.31594 | 2.22121 | 154° | 31km/h | 9016m | 2.7m/s | 0°C | 0% | 0hPa | 0V | 00:00:00 | 00:00:00 | 00:00:00 | |
| EA3GEO | 2026-09-03 11:27:57 | 41.31625 | 2.22095 | 147° | 27km/h | 8997m | 2.3m/s | 0°C | 0% | 0hPa | 0V | 00:00:00 | 00:00:00 | 00:00:00 | |
| EA3GEO | 2026-09-03 11:27:51 | 41.31667 | 2.22069 | 155° | 29km/h | 8971m | 5.3m/s | 0°C | 0% | 0hPa | 0V | 00:00:00 | 00:00:00 | 00:00:00 | |
| EA3GEO | 2026-09-03 11:27:45 | 41.31707 | 2.22043 | 157° | 33km/h | 8949m | 4.4m/s | 0°C | 0% | 0hPa | 0V | 00:00:00 | 00:00:00 | 00:00:00 | |
| EA3IBE | 2026-09-03 11:27:42 | 41.31730 | 2.22028 | 146° | 37km/h | 8935m | 3.3m/s | 0°C | 0% | 0hPa | 0V | 00:00:00 | 00:00:00 | 00:00:00 | |
| EA3GEO | 2026-09-03 11:27:39 | 41.31750 | 2.22011 | 163° | 24km/h | 8924m | 3.7m/s | 0°C | 0% | 0hPa | 0V | 00:00:00 | 00:00:00 | 00:00:00 | |
| EA3GEO | 2026-09-03 11:27:34 | 41.31786 | 2.21992 | 155° | 33km/h | 8905m | 4.0m/s | 0°C | 0% | 0hPa | 0V | 00:00:00 | 00:00:00 | 00:00:00 | |
| EA3GEO | 2026-09-03 11:27:28 | 41.31827 | 2.21966 | 159° | 31km/h | 8884m | 4.1m/s | 0°C | 0% | 0hPa | 0V | 00:00:00 | 00:00:00 | 00:00:00 | |
| EA3IBE | 2026-09-03 11:27:22 | 41.31864 | 2.21937 | 159° | 27km/h | 8860m | 4.0m/s | 0°C | 0% | 0hPa | 0V | 00:00:00 | 00:00:00 | 00:00:00 | |
| EA3GEO | 2026-09-03 11:27:16 | 41.31909 | 2.21913 | 155° | 29km/h | 8837m | 5.0m/s | 0°C | 0% | 0hPa | 0V | 00:00:00 | 00:00:00 | 00:00:00 | |
| EA3GEO | 2026-09-03 11:27:10 | 41.31951 | 2.21886 | 157° | 33km/h | 8813m | 4.9m/s | 0°C | 0% | 0hPa | 0V | 00:00:00 | 00:00:00 | 00:00:00 | |
| EA3GEO | 2026-09-03 11:27:05 | 41.31987 | 2.21863 | 145° | 29km/h | 8792m | 5.1m/s | 0°C | 0% | 0hPa | 0V | 00:00:00 | 00:00:00 | 00:00:00 | |
| EA3GEO | 2026-09-03 11:27:00 | 41.32023 | 2.21839 | 163° | 37km/h | 8771m | 3.7m/s | 0°C | 0% | 0hPa | 0V | 00:00:00 | 00:00:00 | 00:00:00 | |
| EA3IBE | 2026-09-03 11:26:57 | 41.32046 | 2.21830 | 159° | 27km/h | 8763m | 4.3m/s | 0°C | 0% | 0hPa | 0V | 00:00:00 | 00:00:00 | 00:00:00 | |
| EA3GEO | 2026-09-03 11:26:54 | 41.32064 | 2.21819 | 156° | 27km/h | 8751m | 4.8m/s | 0°C | 0% | 0hPa | 0V | 00:00:00 | 00:00:00 | 00:00:00 | |
| EA3GEO | 2026-09-03 11:26:49 | 41.32102 | 2.21790 | 146° | 27km/h | 8733m | 4.7m/s | 0°C | 0% | 0hPa | 0V | 00:00:00 | 00:00:00 | 00:00:00 | |
| EA3GEO | 2026-09-03 11:26:44 | 41.32133 | 2.21769 | 157° | 35km/h | 8712m | 1.9m/s | 0°C | 0% | 0hPa | 0V | 00:00:00 | 00:00:00 | 00:00:00 | |
| EA3IBE | 2026-09-03 11:26:42 | 41.32149 | 2.21761 | 164° | 33km/h | 8704m | 3.5m/s | 0°C | 0% | 0hPa | 0V | 00:00:00 | 00:00:00 | 00:00:00 | |
| EA3GEO | 2026-09-03 11:26:38 | 41.32178 | 2.21744 | 158° | 31km/h | 8691m | 4.4m/s | 0°C | 0% | 0hPa | 0V | 00:00:00 | 00:00:00 | 00:00:00 | |
| EA3GEO | 2026-09-03 11:26:33 | 41.32214 | 2.21725 | 166° | 33km/h | 8672m | 2.5m/s | 0°C | 0% | 0hPa | 0V | 00:00:00 | 00:00:00 | 00:00:00 | |
| EA3IBE | 2026-09-03 11:26:32 | 41.32222 | 2.21723 | 166° | 31km/h | 8670m | 2.2m/s | 0°C | 0% | 0hPa | 0V | 00:00:00 | 00:00:00 | 00:00:00 | |
| EA3GEO | 2026-09-03 11:26:27 | 41.32252 | 2.21695 | 150° | 29km/h | 8655m | 4.6m/s | 0°C | 0% | 0hPa | 0V | 00:00:00 | 00:00:00 | 00:00:00 | |
| EA3IBE | 2026-09-03 11:26:24 | 41.32274 | 2.21683 | 159° | 29km/h | 8644m | 4.5m/s | 0°C | 0% | 0hPa | 0V | 00:00:00 | 00:00:00 | 00:00:00 | |
| EA3GEO | 2026-09-03 11:26:22 | 41.32286 | 2.21675 | 155° | 31km/h | 8636m | 3.9m/s | 0°C | 0% | 0hPa | 0V | 00:00:00 | 00:00:00 | 00:00:00 | |
| EA3GEO | 2026-09-03 11:26:16 | 41.32326 | 2.21647 | 151° | 33km/h | 8614m | 2.8m/s | 0°C | 0% | 0hPa | 0V | 00:00:00 | 00:00:00 | 00:00:00 | |
| EA3IBE | 2026-09-03 11:26:13 | 41.32347 | 2.21634 | 161° | 29km/h | 8602m | 4.8m/s | 0°C | 0% | 0hPa | 0V | 00:00:00 | 00:00:00 | 00:00:00 | |
| EA3GEO | 2026-09-03 11:26:10 | 41.32367 | 2.21627 | 159° | 26km/h | 8591m | 5.0m/s | 0°C | 0% | 0hPa | 0V | 00:00:00 | 00:00:00 | 00:00:00 | |
| EA3IBE | 2026-09-03 11:26:07 | 41.32385 | 2.21614 | 149° | 27km/h | 8578m | 4.2m/s | 0°C | 0% | 0hPa | 0V | 00:00:00 | 00:00:00 | 00:00:00 | |
| EA3GEO | 2026-09-03 11:26:05 | 41.32396 | 2.21606 | 155° | 26km/h | 8571m | 2.5m/s | 0°C | 0% | 0hPa | 0V | 00:00:00 | 00:00:00 | 00:00:00 | |
| EA3GEO | 2026-09-03 11:25:59 | 41.32437 | 2.21586 | 149° | 26km/h | 8546m | 3.2m/s | 0°C | 0% | 0hPa | 0V | 00:00:00 | 00:00:00 | 00:00:00 | |
| EA3GEO | 2026-09-03 11:25:54 | 41.32465 | 2.21564 | 157° | 29km/h | 8528m | 3.0m/s | 0°C | 0% | 0hPa | 0V | 00:00:00 | 00:00:00 | 00:00:00 | |
| EA3GEO | 2026-09-03 11:25:48 | 41.32502 | 2.21545 | 145° | 24km/h | 8503m | 3.4m/s | 0°C | 0% | 0hPa | 0V | 00:00:00 | 00:00:00 | 00:00:00 | |
| EA3IBE | 2026-09-03 11:25:46 | 41.32512 | 2.21535 | 141° | 22km/h | 8494m | 4.0m/s | 0°C | 0% | 0hPa | 0V | 00:00:00 | 00:00:00 | 00:00:00 | |
| EA3GEO | 2026-09-03 11:25:42 | 41.32533 | 2.21527 | 173° | 33km/h | 8479m | 2.2m/s | 0°C | 0% | 0hPa | 0V | 00:00:00 | 00:00:00 | 00:00:00 | |
| EA3IBE | 2026-09-03 11:25:41 | 41.32540 | 2.21525 | 174° | 29km/h | 8476m | 3.4m/s | 0°C | 0% | 0hPa | 0V | 00:00:00 | 00:00:00 | 00:00:00 | |
| EA3GEO | 2026-09-03 11:25:36 | 41.32569 | 2.21506 | 145° | 22km/h | 8458m | 2.3m/s | 0°C | 0% | 0hPa | 0V | 00:00:00 | 00:00:00 | 00:00:00 | |
| EA3IBE | 2026-09-03 11:25:35 | 41.32574 | 2.21502 | 146° | 24km/h | 8454m | 5.4m/s | 0°C | 0% | 0hPa | 0V | 00:00:00 | 00:00:00 | 00:00:00 | |
| EA3GEO | 2026-09-03 11:25:31 | 41.32593 | 2.21485 | 156° | 20km/h | 8437m | 4.7m/s | 0°C | 0% | 0hPa | 0V | 00:00:00 | 00:00:00 | 00:00:00 | |
| EA3IBE | 2026-09-03 11:25:29 | 41.32605 | 2.21477 | 143° | 27km/h | 8427m | 3.3m/s | 0°C | 0% | 0hPa | 0V | 00:00:00 | 00:00:00 | 00:00:00 | |
| EA3GEO | 2026-09-03 11:25:25 | 41.32622 | 2.21455 | 145° | 24km/h | 8409m | 2.1m/s | 0°C | 0% | 0hPa | 0V | 00:00:00 | 00:00:00 | 00:00:00 | |
| EA3IBE | 2026-09-03 11:25:21 | 41.32640 | 2.21447 | 168° | 24km/h | 8396m | 1.6m/s | 0°C | 0% | 0hPa | 0V | 00:00:00 | 00:00:00 | 00:00:00 | |
| EA3GEO | 2026-09-03 11:25:20 | 41.32645 | 2.21445 | 163° | 24km/h | 8392m | 4.7m/s | 0°C | 0% | 0hPa | 0V | 00:00:00 | 00:00:00 | 00:00:00 | |
| EA3GEO | 2026-09-03 11:25:14 | 41.32675 | 2.21416 | 142° | 26km/h | 8369m | 5.3m/s | 0°C | 0% | 0hPa | 0V | 00:00:00 | 00:00:00 | 00:00:00 | |
| EA3IBE | 2026-09-03 11:25:12 | 41.32684 | 2.21405 | 132° | 22km/h | 8361m | 5.2m/s | 0°C | 0% | 0hPa | 0V | 00:00:00 | 00:00:00 | 00:00:00 | |
| EA3GEO | 2026-09-03 11:25:09 | 41.32697 | 2.21390 | 151° | 18km/h | 8352m | 4.0m/s | 0°C | 0% | 0hPa | 0V | 00:00:00 | 00:00:00 | 00:00:00 | |
| EA3IBE | 2026-09-03 11:25:07 | 41.32705 | 2.21383 | 138° | 16km/h | 8345m | 4.3m/s | 0°C | 0% | 0hPa | 0V | 00:00:00 | 00:00:00 | 00:00:00 | |
| EA3GEO | 2026-09-03 11:25:04 | 41.32713 | 2.21366 | 113° | 18km/h | 8332m | 3.6m/s | 0°C | 0% | 0hPa | 0V | 00:00:00 | 00:00:00 | 00:00:00 | |
| EA3GEO | 2026-09-03 11:24:58 | 41.32738 | 2.21330 | 142° | 22km/h | 8308m | 5.0m/s | 0°C | 0% | 0hPa | 0V | 00:00:00 | 00:00:00 | 00:00:00 | |
| EA3IBE | 2026-09-03 11:24:52 | 41.32761 | 2.21293 | 143° | 22km/h | 8278m | 5.3m/s | 0°C | 0% | 0hPa | 0V | 00:00:00 | 00:00:00 | 00:00:00 | |
| EA3GEO | 2026-09-03 11:24:47 | 41.32781 | 2.21262 | 142° | 24km/h | 8255m | 3.9m/s | 0°C | 0% | 0hPa | 0V | 00:00:00 | 00:00:00 | 00:00:00 | |
| EA3IBE | 2026-09-03 11:24:41 | 41.32805 | 2.21235 | 128° | 27km/h | 8223m | 7.0m/s | 0°C | 0% | 0hPa | 0V | 00:00:00 | 00:00:00 | 00:00:00 | |
| EA3GEO | 2026-09-03 11:24:35 | 41.32832 | 2.21178 | 115° | 33km/h | 8183m | 9.1m/s | 0°C | 0% | 0hPa | 0V | 00:00:00 | 00:00:00 | 00:00:00 | |
| EA3IBE | 2026-09-03 11:24:34 | 41.32836 | 2.21169 | 128° | 29km/h | 8174m | 7.5m/s | 0°C | 0% | 0hPa | 0V | 00:00:00 | 00:00:00 | 00:00:00 | |
| EA3GEO | 2026-09-03 11:24:23 | 41.32885 | 2.21095 | 151° | 29km/h | 8109m | 5.5m/s | 0°C | 0% | 0hPa | 0V | 00:00:00 | 00:00:00 | 00:00:00 | |
| EA3IBE | 2026-09-03 11:24:19 | 41.32906 | 2.21074 | 126° | 24km/h | 8091m | 4.6m/s | 0°C | 0% | 0hPa | 0V | 00:00:00 | 00:00:00 | 00:00:00 | |
| EA3GEO | 2026-09-03 11:24:17 | 41.32912 | 2.21058 | 117° | 27km/h | 8081m | 6.4m/s | 0°C | 0% | 0hPa | 0V | 00:00:00 | 00:00:00 | 00:00:00 | |
| EA3IBE | 2026-09-03 11:24:14 | 41.32924 | 2.21037 | 126° | 26km/h | 8062m | 8.3m/s | 0°C | 0% | 0hPa | 0V | 00:00:00 | 00:00:00 | 00:00:00 | |
| EA3GEO | 2026-09-03 11:24:11 | 41.32940 | 2.21017 | 138° | 35km/h | 8038m | 7.2m/s | 0°C | 0% | 0hPa | 0V | 00:00:00 | 00:00:00 | 00:00:00 | |
| EA3GEO | 2026-09-03 11:24:06 | 41.32972 | 2.20969 | 130° | 44km/h | 8007m | 5.1m/s | 0°C | 0% | 0hPa | 0V | 00:00:00 | 00:00:00 | 00:00:00 | |
| EA3IBE | 2026-09-03 11:24:04 | 41.32986 | 2.20947 | 134° | 40km/h | 7997m | 6.2m/s | 0°C | 0% | 0hPa | 0V | 00:00:00 | 00:00:00 | 00:00:00 | |
| EA3GEO | 2026-09-03 11:24:00 | 41.33007 | 2.20912 | 125° | 31km/h | 7977m | 2.4m/s | 0°C | 0% | 0hPa | 0V | 00:00:00 | 00:00:00 | 00:00:00 | |
| EA3IBE | 2026-09-03 11:23:59 | 41.33012 | 2.20903 | 122° | 38km/h | 7974m | 5.3m/s | 0°C | 0% | 0hPa | 0V | 00:00:00 | 00:00:00 | 00:00:00 | |
| EA3IBE | 2026-09-03 11:23:54 | 41.33048 | 2.20854 | 150° | 38km/h | 7947m | 7.9m/s | 0°C | 0% | 0hPa | 0V | 00:00:00 | 00:00:00 | 00:00:00 | |
| EA3GEO | 2026-09-03 11:23:49 | 41.33079 | 2.20811 | 115° | 26km/h | 7911m | 8.2m/s | 0°C | 0% | 0hPa | 0V | 00:00:00 | 00:00:00 | 00:00:00 | |
| EA3IBE | 2026-09-03 11:23:48 | 41.33083 | 2.20803 | 129° | 33km/h | 7904m | 5.5m/s | 0°C | 0% | 0hPa | 0V | 00:00:00 | 00:00:00 | 00:00:00 | |
| EA3GEO | 2026-09-03 11:23:43 | 41.33120 | 2.20764 | 143° | 38km/h | 7873m | 5.7m/s | 0°C | 0% | 0hPa | 0V | 00:00:00 | 00:00:00 | 00:00:00 | |
| EA3IBE | 2026-09-03 11:23:42 | 41.33128 | 2.20756 | 138° | 38km/h | 7868m | 4.5m/s | 0°C | 0% | 0hPa | 0V | 00:00:00 | 00:00:00 | 00:00:00 | |
| EA3GEO | 2026-09-03 11:23:37 | 41.33168 | 2.20723 | 153° | 29km/h | 7845m | 5.7m/s | 0°C | 0% | 0hPa | 0V | 00:00:00 | 00:00:00 | 00:00:00 | |
| EA3IBE | 2026-09-03 11:23:35 | 41.33182 | 2.20710 | 137° | 35km/h | 7836m | 5.3m/s | 0°C | 0% | 0hPa | 0V | 00:00:00 | 00:00:00 | 00:00:00 | |
| EA3GEO | 2026-09-03 11:23:31 | 41.33206 | 2.20676 | 137° | 33km/h | 7808m | 6.3m/s | 0°C | 0% | 0hPa | 0V | 00:00:00 | 00:00:00 | 00:00:00 | |
| EA3IBE | 2026-09-03 11:23:29 | 41.33219 | 2.20663 | 145° | 33km/h | 7795m | 7.0m/s | 0°C | 0% | 0hPa | 0V | 00:00:00 | 00:00:00 | 00:00:00 | |
| EA3GEO | 2026-09-03 11:23:26 | 41.33243 | 2.20646 | 151° | 33km/h | 7773m | 4.8m/s | 0°C | 0% | 0hPa | 0V | 00:00:00 | 00:00:00 | 00:00:00 | |
| EA3IBE | 2026-09-03 11:23:23 | 41.33263 | 2.20623 | 136° | 38km/h | 7756m | 6.4m/s | 0°C | 0% | 0hPa | 0V | 00:00:00 | 00:00:00 | 00:00:00 | |
| EA3GEO | 2026-09-03 11:23:17 | 41.33310 | 2.20581 | 144° | 37km/h | 7714m | 5.7m/s | 0°C | 0% | 0hPa | 0V | 00:00:00 | 00:00:00 | 00:00:00 | |
| EA3IBE | 2026-09-03 11:23:14 | 41.33329 | 2.20562 | 148° | 31km/h | 7697m | 5.4m/s | 0°C | 0% | 0hPa | 0V | 00:00:00 | 00:00:00 | 00:00:00 | |
| EA3GEO | 2026-09-03 11:23:12 | 41.33353 | 2.20545 | 161° | 37km/h | 7680m | 5.6m/s | 0°C | 0% | 0hPa | 0V | 00:00:00 | 00:00:00 | 00:00:00 | |
| EA3GEO | 2026-09-03 11:23:06 | 41.33389 | 2.20515 | 136° | 35km/h | 7643m | 5.2m/s | 0°C | 0% | 0hPa | 0V | 00:00:00 | 00:00:00 | 00:00:00 | |
| EA3IBE | 2026-09-03 11:23:04 | 41.33403 | 2.20500 | 159° | 42km/h | 7632m | 2.6m/s | 0°C | 0% | 0hPa | 0V | 00:00:00 | 00:00:00 | 00:00:00 | |
| EA3GEO | 2026-09-03 11:22:55 | 41.33476 | 2.20444 | 139° | 38km/h | 7592m | 5.4m/s | 0°C | 0% | 0hPa | 0V | 00:00:00 | 00:00:00 | 00:00:00 | |
| EA3IBE | 2026-09-03 11:22:50 | 41.33508 | 2.20413 | 135° | 31km/h | 7559m | 3.3m/s | 0°C | 0% | 0hPa | 0V | 00:00:00 | 00:00:00 | 00:00:00 | |
| EA3GEO | 2026-09-03 11:22:49 | 41.33513 | 2.20405 | 135° | 37km/h | 7555m | 4.8m/s | 0°C | 0% | 0hPa | 0V | 00:00:00 | 00:00:00 | 00:00:00 | |
| EA3GEO | 2026-09-03 11:22:44 | 41.33556 | 2.20361 | 152° | 44km/h | 7533m | 6.8m/s | 0°C | 0% | 0hPa | 0V | 00:00:00 | 00:00:00 | 00:00:00 | |
| EA3IBE | 2026-09-03 11:22:43 | 41.33567 | 2.20352 | 148° | 47km/h | 7525m | 7.6m/s | 0°C | 0% | 0hPa | 0V | 00:00:00 | 00:00:00 | 00:00:00 | |
| EA3GEO | 2026-09-03 11:22:38 | 41.33603 | 2.20324 | 152° | 38km/h | 7490m | 7.3m/s | 0°C | 0% | 0hPa | 0V | 00:00:00 | 00:00:00 | 00:00:00 | |
| EA3IBE | 2026-09-03 11:22:36 | 41.33621 | 2.20309 | 153° | 44km/h | 7479m | 5.2m/s | 0°C | 0% | 0hPa | 0V | 00:00:00 | 00:00:00 | 00:00:00 | |
| EA3GEO | 2026-09-03 11:22:32 | 41.33648 | 2.20284 | 147° | 27km/h | 7461m | 6.0m/s | 0°C | 0% | 0hPa | 0V | 00:00:00 | 00:00:00 | 00:00:00 | |
| EA3IBE | 2026-09-03 11:22:31 | 41.33655 | 2.20279 | 156° | 35km/h | 7455m | 5.9m/s | 0°C | 0% | 0hPa | 0V | 00:00:00 | 00:00:00 | 00:00:00 | |
| EA3GEO | 2026-09-03 11:22:26 | 41.33696 | 2.20238 | 125° | 35km/h | 7422m | 4.8m/s | 0°C | 0% | 0hPa | 0V | 00:00:00 | 00:00:00 | 00:00:00 | |
| EA3IBE | 2026-09-03 11:22:24 | 41.33706 | 2.20220 | 133° | 29km/h | 7409m | 4.1m/s | 0°C | 0% | 0hPa | 0V | 00:00:00 | 00:00:00 | 00:00:00 | |
| EA3GEO | 2026-09-03 11:22:20 | 41.33731 | 2.20198 | 158° | 37km/h | 7389m | 6.5m/s | 0°C | 0% | 0hPa | 0V | 00:00:00 | 00:00:00 | 00:00:00 | |
| EA3IBE | 2026-09-03 11:22:19 | 41.33740 | 2.20193 | 156° | 40km/h | 7384m | 3.7m/s | 0°C | 0% | 0hPa | 0V | 00:00:00 | 00:00:00 | 00:00:00 | |
| EA3GEO | 2026-09-03 11:22:14 | 41.33772 | 2.20149 | 129° | 33km/h | 7365m | 5.3m/s | 0°C | 0% | 0hPa | 0V | 00:00:00 | 00:00:00 | 00:00:00 | |
| EA3IBE | 2026-09-03 11:22:13 | 41.33778 | 2.20142 | 147° | 29km/h | 7359m | 4.6m/s | 0°C | 0% | 0hPa | 0V | 00:00:00 | 00:00:00 | 00:00:00 | |
| EA3GEO | 2026-09-03 11:22:08 | 41.33816 | 2.20123 | 153° | 29km/h | 7326m | 6.9m/s | 0°C | 0% | 0hPa | 0V | 00:00:00 | 00:00:00 | 00:00:00 | |
| EA3IBE | 2026-09-03 11:22:07 | 41.33822 | 2.20117 | 150° | 31km/h | 7319m | 6.4m/s | 0°C | 0% | 0hPa | 0V | 00:00:00 | 00:00:00 | 00:00:00 | |
| EA3GEO | 2026-09-03 11:22:03 | 41.33854 | 2.20092 | 159° | 35km/h | 7300m | 3.4m/s | 0°C | 0% | 0hPa | 0V | 00:00:00 | 00:00:00 | 00:00:00 | |
| EA3IBE | 2026-09-03 11:22:01 | 41.33870 | 2.20081 | 146° | 35km/h | 7291m | 6.8m/s | 0°C | 0% | 0hPa | 0V | 00:00:00 | 00:00:00 | 00:00:00 | |
| EA3GEO | 2026-09-03 11:21:57 | 41.33905 | 2.20053 | 157° | 46km/h | 7266m | 7.1m/s | 0°C | 0% | 0hPa | 0V | 00:00:00 | 00:00:00 | 00:00:00 | |
| EA3IBE | 2026-09-03 11:21:55 | 41.33925 | 2.20043 | 158° | 35km/h | 7252m | 6.9m/s | 0°C | 0% | 0hPa | 0V | 00:00:00 | 00:00:00 | 00:00:00 | |
| EA3GEO | 2026-09-03 11:21:52 | 41.33946 | 2.20035 | 149° | 29km/h | 7233m | 6.0m/s | 0°C | 0% | 0hPa | 0V | 00:00:00 | 00:00:00 | 00:00:00 | |
| EA3IBE | 2026-09-03 11:21:49 | 41.33968 | 2.20011 | 148° | 42km/h | 7218m | 3.2m/s | 0°C | 0% | 0hPa | 0V | 00:00:00 | 00:00:00 | 00:00:00 | |
| EA3GEO | 2026-09-03 11:21:46 | 41.33995 | 2.19995 | 168° | 35km/h | 7205m | 4.5m/s | 0°C | 0% | 0hPa | 0V | 00:00:00 | 00:00:00 | 00:00:00 | |
| EA3IBE | 2026-09-03 11:21:43 | 41.34020 | 2.19982 | 142° | 35km/h | 7191m | 5.6m/s | 0°C | 0% | 0hPa | 0V | 00:00:00 | 00:00:00 | 00:00:00 | |
| EA3GEO | 2026-09-03 11:21:41 | 41.34034 | 2.19967 | 152° | 29km/h | 7183m | 2.7m/s | 0°C | 0% | 0hPa | 0V | 00:00:00 | 00:00:00 | 00:00:00 | |
| EA3IBE | 2026-09-03 11:21:36 | 41.34068 | 2.19932 | 145° | 40km/h | 7158m | 5.1m/s | 0°C | 0% | 0hPa | 0V | 00:00:00 | 00:00:00 | 00:00:00 | |
| EA3GEO | 2026-09-03 11:21:35 | 41.34076 | 2.19925 | 157° | 38km/h | 7154m | 4.6m/s | 0°C | 0% | 0hPa | 0V | 00:00:00 | 00:00:00 | 00:00:00 | |
| EA3GEO | 2026-09-03 11:21:30 | 41.34130 | 2.19901 | 160° | 51km/h | 7127m | 4.4m/s | 0°C | 0% | 0hPa | 0V | 00:00:00 | 00:00:00 | 00:00:00 | |
| EA3IBE | 2026-09-03 11:21:27 | 41.34156 | 2.19883 | 138° | 38km/h | 7110m | 7.6m/s | 0°C | 0% | 0hPa | 0V | 00:00:00 | 00:00:00 | 00:00:00 | |
| EA3GEO | 2026-09-03 11:21:24 | 41.34178 | 2.19860 | 151° | 40km/h | 7086m | 5.5m/s | 0°C | 0% | 0hPa | 0V | 00:00:00 | 00:00:00 | 00:00:00 | |
| EA3GEO | 2026-09-03 11:21:18 | 41.34230 | 2.19816 | 153° | 40km/h | 7052m | 6.0m/s | 0°C | 0% | 0hPa | 0V | 00:00:00 | 00:00:00 | 00:00:00 | |
| EA3IBE | 2026-09-03 11:21:16 | 41.34249 | 2.19806 | 167° | 33km/h | 7041m | 3.8m/s | 0°C | 0% | 0hPa | 0V | 00:00:00 | 00:00:00 | 00:00:00 | |
| EA3GEO | 2026-09-03 11:21:13 | 41.34274 | 2.19800 | 163° | 42km/h | 7027m | 7.1m/s | 0°C | 0% | 0hPa | 0V | 00:00:00 | 00:00:00 | 00:00:00 | |
| EA3IBE | 2026-09-03 11:21:10 | 41.34303 | 2.19785 | 153° | 35km/h | 7008m | 7.0m/s | 0°C | 0% | 0hPa | 0V | 00:00:00 | 00:00:00 | 00:00:00 | |
| EA3GEO | 2026-09-03 11:21:07 | 41.34321 | 2.19774 | 159° | 20km/h | 6989m | 3.9m/s | 0°C | 0% | 0hPa | 0V | 00:00:00 | 00:00:00 | 00:00:00 | |
| EA3IBE | 2026-09-03 11:21:03 | 41.34345 | 2.19756 | 147° | 38km/h | 6970m | 6.7m/s | 0°C | 0% | 0hPa | 0V | 00:00:00 | 00:00:00 | 00:00:00 | |
| EA3GEO | 2026-09-03 11:21:01 | 41.34362 | 2.19746 | 157° | 29km/h | 6957m | 7.2m/s | 0°C | 0% | 0hPa | 0V | 00:00:00 | 00:00:00 | 00:00:00 | |
| EA3IBE | 2026-09-03 11:20:57 | 41.34385 | 2.19729 | 157° | 33km/h | 6932m | 3.8m/s | 0°C | 0% | 0hPa | 0V | 00:00:00 | 00:00:00 | 00:00:00 | |
| EA3GEO | 2026-09-03 11:20:55 | 41.34401 | 2.19719 | 162° | 38km/h | 6923m | 5.0m/s | 0°C | 0% | 0hPa | 0V | 00:00:00 | 00:00:00 | 00:00:00 | |
| EA3IBE | 2026-09-03 11:20:51 | 41.34433 | 2.19698 | 150° | 44km/h | 6902m | 6.9m/s | 0°C | 0% | 0hPa | 0V | 00:00:00 | 00:00:00 | 00:00:00 | |
| EA3GEO | 2026-09-03 11:20:50 | 41.34443 | 2.19692 | 156° | 42km/h | 6895m | 7.4m/s | 0°C | 0% | 0hPa | 0V | 00:00:00 | 00:00:00 | 00:00:00 | |
| EA3GEO | 2026-09-03 11:20:44 | 41.34480 | 2.19673 | 150° | 35km/h | 6861m | 6.6m/s | 0°C | 0% | 0hPa | 0V | 00:00:00 | 00:00:00 | 00:00:00 | |
| EA3IBE | 2026-09-03 11:20:43 | 41.34489 | 2.19666 | 153° | 46km/h | 6854m | 7.3m/s | 0°C | 0% | 0hPa | 0V | 00:00:00 | 00:00:00 | 00:00:00 | |
| EA3GEO | 2026-09-03 11:20:39 | 41.34527 | 2.19647 | 174° | 33km/h | 6830m | 5.4m/s | 0°C | 0% | 0hPa | 0V | 00:00:00 | 00:00:00 | 00:00:00 | |
| EA3IBE | 2026-09-03 11:20:34 | 41.34567 | 2.19636 | 132° | 35km/h | 6803m | 9.0m/s | 0°C | 0% | 0hPa | 0V | 00:00:00 | 00:00:00 | 00:00:00 | |
| EA3GEO | 2026-09-03 11:20:28 | 41.34611 | 2.19599 | 175° | 38km/h | 6760m | 4.0m/s | 0°C | 0% | 0hPa | 0V | 00:00:00 | 00:00:00 | 00:00:00 | |
| EA3IBE | 2026-09-03 11:20:23 | 41.34648 | 2.19592 | 161° | 26km/h | 6730m | 7.3m/s | 0°C | 0% | 0hPa | 0V | 00:00:00 | 00:00:00 | 00:00:00 | |
| EA3GEO | 2026-09-03 11:20:22 | 41.34653 | 2.19589 | 154° | 26km/h | 6723m | 8.2m/s | 0°C | 0% | 0hPa | 0V | 00:00:00 | 00:00:00 | 00:00:00 | |
| EA3IBE | 2026-09-03 11:20:17 | 41.34683 | 2.19567 | 154° | 29km/h | 6689m | 4.7m/s | 0°C | 0% | 0hPa | 0V | 00:00:00 | 00:00:00 | 00:00:00 | |
| EA3GEO | 2026-09-03 11:20:16 | 41.34689 | 2.19563 | 141° | 26km/h | 6683m | 5.6m/s | 0°C | 0% | 0hPa | 0V | 00:00:00 | 00:00:00 | 00:00:00 | |
| EA3IBE | 2026-09-03 11:20:11 | 41.34719 | 2.19528 | 160° | 31km/h | 6664m | 4.6m/s | 0°C | 0% | 0hPa | 0V | 00:00:00 | 00:00:00 | 00:00:00 | |
| EA3GEO | 2026-09-03 11:20:10 | 41.34728 | 2.19525 | 174° | 35km/h | 6658m | 5.1m/s | 0°C | 0% | 0hPa | 0V | 00:00:00 | 00:00:00 | 00:00:00 | |
| EA3IBE | 2026-09-03 11:20:05 | 41.34762 | 2.19505 | 146° | 26km/h | 6634m | 7.2m/s | 0°C | 0% | 0hPa | 0V | 00:00:00 | 00:00:00 | 00:00:00 | |
| EA3GEO | 2026-09-03 11:20:04 | 41.34768 | 2.19501 | 153° | 26km/h | 6628m | 6.4m/s | 0°C | 0% | 0hPa | 0V | 00:00:00 | 00:00:00 | 00:00:00 | |
| EA3IBE | 2026-09-03 11:19:58 | 41.34811 | 2.19473 | 139° | 22km/h | 6590m | 5.8m/s | 0°C | 0% | 0hPa | 0V | 00:00:00 | 00:00:00 | 00:00:00 | |
| EA3IBE | 2026-09-03 11:19:53 | 41.34840 | 2.19447 | 152° | 37km/h | 6558m | 2.7m/s | 0°C | 0% | 0hPa | 0V | 00:00:00 | 00:00:00 | 00:00:00 | |
| EA3GEO | 2026-09-03 11:19:52 | 41.34848 | 2.19440 | 141° | 37km/h | 6556m | 0.9m/s | 0°C | 0% | 0hPa | 0V | 00:00:00 | 00:00:00 | 00:00:00 | |
| EA3IBE | 2026-09-03 11:19:47 | 41.34868 | 2.19412 | 162° | 16km/h | 6539m | 3.3m/s | 0°C | 0% | 0hPa | 0V | 00:00:00 | 00:00:00 | 00:00:00 | |
| EA3GEO | 2026-09-03 11:19:46 | 41.34873 | 2.19408 | 145° | 27km/h | 6535m | 5.1m/s | 0°C | 0% | 0hPa | 0V | 00:00:00 | 00:00:00 | 00:00:00 | |
| EA3IBE | 2026-09-03 11:19:42 | 41.34898 | 2.19382 | 145° | 22km/h | 6504m | 6.1m/s | 0°C | 0% | 0hPa | 0V | 00:00:00 | 00:00:00 | 00:00:00 | |
| EA3GEO | 2026-09-03 11:19:40 | 41.34906 | 2.19374 | 153° | 16km/h | 6493m | 4.4m/s | 0°C | 0% | 0hPa | 0V | 00:00:00 | 00:00:00 | 00:00:00 | |
| EA3IBE | 2026-09-03 11:19:36 | 41.34930 | 2.19349 | 145° | 33km/h | 6472m | 5.6m/s | 0°C | 0% | 0hPa | 0V | 00:00:00 | 00:00:00 | 00:00:00 | |
| EA3GEO | 2026-09-03 11:19:34 | 41.34941 | 2.19340 | 152° | 22km/h | 6459m | 6.8m/s | 0°C | 0% | 0hPa | 0V | 00:00:00 | 00:00:00 | 00:00:00 | |
| EA3IBE | 2026-09-03 11:19:31 | 41.34957 | 2.19329 | 152° | 20km/h | 6438m | 5.5m/s | 0°C | 0% | 0hPa | 0V | 00:00:00 | 00:00:00 | 00:00:00 | |
| EA3GEO | 2026-09-03 11:19:29 | 41.34965 | 2.19323 | 146° | 18km/h | 6427m | 6.1m/s | 0°C | 0% | 0hPa | 0V | 00:00:00 | 00:00:00 | 00:00:00 | |
| EA3IBE | 2026-09-03 11:19:26 | 41.34976 | 2.19309 | 153° | 29km/h | 6409m | 2.3m/s | 0°C | 0% | 0hPa | 0V | 00:00:00 | 00:00:00 | 00:00:00 | |
| EA3GEO | 2026-09-03 11:19:24 | 41.34991 | 2.19302 | 173° | 37km/h | 6400m | 2.8m/s | 0°C | 0% | 0hPa | 0V | 00:00:00 | 00:00:00 | 00:00:00 | |
| EA3IBE | 2026-09-03 11:19:19 | 41.35034 | 2.19288 | 150° | 27km/h | 6382m | 3.1m/s | 0°C | 0% | 0hPa | 0V | 00:00:00 | 00:00:00 | 00:00:00 | |
| EA3GEO | 2026-09-03 11:19:18 | 41.35040 | 2.19282 | 141° | 26km/h | 6376m | 5.9m/s | 0°C | 0% | 0hPa | 0V | 00:00:00 | 00:00:00 | 00:00:00 | |
| EA3IBE | 2026-09-03 11:19:13 | 41.35066 | 2.19260 | 146° | 20km/h | 6344m | 5.9m/s | 0°C | 0% | 0hPa | 0V | 00:00:00 | 00:00:00 | 00:00:00 | |
| EA3GEO | 2026-09-03 11:19:12 | 41.35070 | 2.19257 | 157° | 18km/h | 6338m | 4.4m/s | 0°C | 0% | 0hPa | 0V | 00:00:00 | 00:00:00 | 00:00:00 | |
| EA3IBE | 2026-09-03 11:19:08 | 41.35100 | 2.19239 | 169° | 37km/h | 6321m | 5.4m/s | 0°C | 0% | 0hPa | 0V | 00:00:00 | 00:00:00 | 00:00:00 | |
| EA3GEO | 2026-09-03 11:19:06 | 41.35118 | 2.19237 | 182° | 27km/h | 6312m | 4.0m/s | 0°C | 0% | 0hPa | 0V | 00:00:00 | 00:00:00 | 00:00:00 | |
| EA3GEO | 2026-09-03 11:19:00 | 41.35152 | 2.19228 | 134° | 24km/h | 6271m | 7.9m/s | 0°C | 0% | 0hPa | 0V | 00:00:00 | 00:00:00 | 00:00:00 | |
| EA3IBE | 2026-09-03 11:18:59 | 41.35158 | 2.19223 | 153° | 27km/h | 6263m | 6.8m/s | 0°C | 0% | 0hPa | 0V | 00:00:00 | 00:00:00 | 00:00:00 | |
| EA3GEO | 2026-09-03 11:18:55 | 41.35185 | 2.19203 | 156° | 31km/h | 6243m | 3.8m/s | 0°C | 0% | 0hPa | 0V | 00:00:00 | 00:00:00 | 00:00:00 | |
| EA3IBE | 2026-09-03 11:18:53 | 41.35201 | 2.19199 | 178° | 37km/h | 6234m | 4.2m/s | 0°C | 0% | 0hPa | 0V | 00:00:00 | 00:00:00 | 00:00:00 | |
| EA3GEO | 2026-09-03 11:18:49 | 41.35230 | 2.19181 | 128° | 24km/h | 6220m | 2.9m/s | 0°C | 0% | 0hPa | 0V | 00:00:00 | 00:00:00 | 00:00:00 | |
| EA3IBE | 2026-09-03 11:18:47 | 41.35236 | 2.19171 | 136° | 13km/h | 6214m | 2.4m/s | 0°C | 0% | 0hPa | 0V | 00:00:00 | 00:00:00 | 00:00:00 | |
| EA3GEO | 2026-09-03 11:18:44 | 41.35251 | 2.19162 | 157° | 40km/h | 6202m | 6.0m/s | 0°C | 0% | 0hPa | 0V | 00:00:00 | 00:00:00 | 00:00:00 | |
| EA3IBE | 2026-09-03 11:18:42 | 41.35268 | 2.19147 | 142° | 38km/h | 6193m | 1.2m/s | 0°C | 0% | 0hPa | 0V | 00:00:00 | 00:00:00 | 00:00:00 | |
| EA3GEO | 2026-09-03 11:18:38 | 41.35294 | 2.19114 | 131° | 31km/h | 6174m | 6.9m/s | 0°C | 0% | 0hPa | 0V | 00:00:00 | 00:00:00 | 00:00:00 | |
| EA3IBE | 2026-09-03 11:18:36 | 41.35306 | 2.19101 | 153° | 20km/h | 6159m | 5.5m/s | 0°C | 0% | 0hPa | 0V | 00:00:00 | 00:00:00 | 00:00:00 | |
| EA3GEO | 2026-09-03 11:18:33 | 41.35322 | 2.19095 | 150° | 27km/h | 6144m | 3.4m/s | 0°C | 0% | 0hPa | 0V | 00:00:00 | 00:00:00 | 00:00:00 | |
| EA3IBE | 2026-09-03 11:18:31 | 41.35331 | 2.19086 | 132° | 22km/h | 6133m | 6.2m/s | 0°C | 0% | 0hPa | 0V | 00:00:00 | 00:00:00 | 00:00:00 | |
| EA3GEO | 2026-09-03 11:18:27 | 41.35359 | 2.19061 | 159° | 44km/h | 6115m | 3.4m/s | 0°C | 0% | 0hPa | 0V | 00:00:00 | 00:00:00 | 00:00:00 | |
| EA3IBE | 2026-09-03 11:18:25 | 41.35388 | 2.19040 | 156° | 40km/h | 6101m | 3.6m/s | 0°C | 0% | 0hPa | 0V | 00:00:00 | 00:00:00 | 00:00:00 | |
| EA3GEO | 2026-09-03 11:18:22 | 41.35407 | 2.19031 | 169° | 33km/h | 6092m | 5.0m/s | 0°C | 0% | 0hPa | 0V | 00:00:00 | 00:00:00 | 00:00:00 | |
| EA3IBE | 2026-09-03 11:18:18 | 41.35433 | 2.19026 | 150° | 27km/h | 6069m | 5.4m/s | 0°C | 0% | 0hPa | 0V | 00:00:00 | 00:00:00 | 00:00:00 | |
| EA3GEO | 2026-09-03 11:18:17 | 41.35438 | 2.19019 | 135° | 29km/h | 6063m | 4.6m/s | 0°C | 0% | 0hPa | 0V | 00:00:00 | 00:00:00 | 00:00:00 | |
| EA3IBE | 2026-09-03 11:18:13 | 41.35464 | 2.18991 | 152° | 35km/h | 6044m | 4.0m/s | 0°C | 0% | 0hPa | 0V | 00:00:00 | 00:00:00 | 00:00:00 | |
| EA3GEO | 2026-09-03 11:18:11 | 41.35479 | 2.18984 | 166° | 31km/h | 6035m | 5.1m/s | 0°C | 0% | 0hPa | 0V | 00:00:00 | 00:00:00 | 00:00:00 | |
| EA3IBE | 2026-09-03 11:18:07 | 41.35510 | 2.18974 | 157° | 37km/h | 6009m | 8.3m/s | 0°C | 0% | 0hPa | 0V | 00:00:00 | 00:00:00 | 00:00:00 | |
| EA3GEO | 2026-09-03 11:18:06 | 41.35518 | 2.18970 | 161° | 35km/h | 6002m | 5.0m/s | 0°C | 0% | 0hPa | 0V | 00:00:00 | 00:00:00 | 00:00:00 | |
| EA3IBE | 2026-09-03 11:18:02 | 41.35539 | 2.18957 | 159° | 16km/h | 5985m | 3.5m/s | 0°C | 0% | 0hPa | 0V | 00:00:00 | 00:00:00 | 00:00:00 | |
| EA3GEO | 2026-09-03 11:18:01 | 41.35543 | 2.18956 | 165° | 13km/h | 5980m | 4.7m/s | 0°C | 0% | 0hPa | 0V | 00:00:00 | 00:00:00 | 00:00:00 | |
| EA3IBE | 2026-09-03 11:17:56 | 41.35567 | 2.18930 | 143° | 35km/h | 5963m | 3.1m/s | 0°C | 0% | 0hPa | 0V | 00:00:00 | 00:00:00 | 00:00:00 | |
| EA3GEO | 2026-09-03 11:17:55 | 41.35575 | 2.18922 | 146° | 42km/h | 5960m | 2.5m/s | 0°C | 0% | 0hPa | 0V | 00:00:00 | 00:00:00 | 00:00:00 | |
| EA3IBE | 2026-09-03 11:17:50 | 41.35612 | 2.18892 | 155° | 31km/h | 5927m | 7.7m/s | 0°C | 0% | 0hPa | 0V | 00:00:00 | 00:00:00 | 00:00:00 | |
| EA3GEO | 2026-09-03 11:17:49 | 41.35620 | 2.18886 | 151° | 37km/h | 5919m | 7.2m/s | 0°C | 0% | 0hPa | 0V | 00:00:00 | 00:00:00 | 00:00:00 | |
| EA3GEO | 2026-09-03 11:17:44 | 41.35644 | 2.18866 | 162° | 16km/h | 5881m | 5.1m/s | 0°C | 0% | 0hPa | 0V | 00:00:00 | 00:00:00 | 00:00:00 | |
| EA3GEO | 2026-09-03 11:17:39 | 41.35678 | 2.18841 | 159° | 35km/h | 5858m | 3.2m/s | 0°C | 0% | 0hPa | 0V | 00:00:00 | 00:00:00 | 00:00:00 | |
| EA3IBE | 2026-09-03 11:17:38 | 41.35686 | 2.18837 | 156° | 37km/h | 5854m | 7.1m/s | 0°C | 0% | 0hPa | 0V | 00:00:00 | 00:00:00 | 00:00:00 | |
| EA3IBE | 2026-09-03 11:17:33 | 41.35712 | 2.18819 | 164° | 20km/h | 5820m | 5.4m/s | 0°C | 0% | 0hPa | 0V | 00:00:00 | 00:00:00 | 00:00:00 | |
| EA3GEO | 2026-09-03 11:17:29 | 41.35740 | 2.18817 | 167° | 16km/h | 5800m | 5.4m/s | 0°C | 0% | 0hPa | 0V | 00:00:00 | 00:00:00 | 00:00:00 | |
| EA3IBE | 2026-09-03 11:17:28 | 41.35740 | 2.18817 | 167° | 16km/h | 5800m | 5.4m/s | 0°C | 0% | 0hPa | 0V | 00:00:00 | 00:00:00 | 00:00:00 | |
| EA3IBE | 2026-09-03 11:17:22 | 41.35770 | 2.18781 | 158° | 38km/h | 5762m | 1.0m/s | 0°C | 0% | 0hPa | 0V | 00:00:00 | 00:00:00 | 00:00:00 | |
| EA3GEO | 2026-09-03 11:17:17 | 41.35800 | 2.18755 | 136° | 16km/h | 5734m | 5.7m/s | 0°C | 0% | 0hPa | 0V | 00:00:00 | 00:00:00 | 00:00:00 | |
| EA3IBE | 2026-09-03 11:17:12 | 41.35822 | 2.18733 | 151° | 22km/h | 5709m | 2.1m/s | 0°C | 0% | 0hPa | 0V | 00:00:00 | 00:00:00 | 00:00:00 | |
| EA3GEO | 2026-09-03 11:17:11 | 41.35825 | 2.18729 | 135° | 15km/h | 5706m | 2.6m/s | 0°C | 0% | 0hPa | 0V | 00:00:00 | 00:00:00 | 00:00:00 | |
| EA3GEO | 2026-09-03 11:17:06 | 41.35843 | 2.18710 | 158° | 20km/h | 5687m | 1.3m/s | 0°C | 0% | 0hPa | 0V | 00:00:00 | 00:00:00 | 00:00:00 | |
| EA3GEO | 2026-09-03 11:17:01 | 41.35867 | 2.18698 | 143° | 24km/h | 5656m | 5.6m/s | 0°C | 0% | 0hPa | 0V | 00:00:00 | 00:00:00 | 00:00:00 | |
| EA3GEO | 2026-09-03 11:16:55 | 41.35902 | 2.18656 | 158° | 37km/h | 5628m | 3.5m/s | 0°C | 0% | 0hPa | 0V | 00:00:00 | 00:00:00 | 00:00:00 | |
| EA3IBE | 2026-09-03 11:16:49 | 41.35938 | 2.18622 | 128° | 22km/h | 5595m | 5.9m/s | 0°C | 0% | 0hPa | 0V | 00:00:00 | 00:00:00 | 00:00:00 | |
| EA3GEO | 2026-09-03 11:16:44 | 41.35961 | 2.18589 | 129° | 35km/h | 5568m | 5.4m/s | 0°C | 0% | 0hPa | 0V | 00:00:00 | 00:00:00 | 00:00:00 | |
| EA3IBE | 2026-09-03 11:16:43 | 41.35966 | 2.18580 | 119° | 29km/h | 5563m | 4.1m/s | 0°C | 0% | 0hPa | 0V | 00:00:00 | 00:00:00 | 00:00:00 | |
| EA3GEO | 2026-09-03 11:16:33 | 41.36019 | 2.18487 | 121° | 27km/h | 5521m | 6.9m/s | 0°C | 0% | 0hPa | 0V | 00:00:00 | 00:00:00 | 00:00:00 | |
| EA3IBE | 2026-09-03 11:16:32 | 41.36021 | 2.18481 | 109° | 13km/h | 5515m | 3.7m/s | 0°C | 0% | 0hPa | 0V | 00:00:00 | 00:00:00 | 00:00:00 | |
| EA3GEO | 2026-09-03 11:16:28 | 41.36029 | 2.18458 | 128° | 29km/h | 5497m | 5.1m/s | 0°C | 0% | 0hPa | 0V | 00:00:00 | 00:00:00 | 00:00:00 | |
| EA3IBE | 2026-09-03 11:16:26 | 41.36038 | 2.18439 | 122° | 37km/h | 5483m | 6.3m/s | 0°C | 0% | 0hPa | 0V | 00:00:00 | 00:00:00 | 00:00:00 | |
| EA3GEO | 2026-09-03 11:16:22 | 41.36063 | 2.18408 | 128° | 27km/h | 5464m | 4.0m/s | 0°C | 0% | 0hPa | 0V | 00:00:00 | 00:00:00 | 00:00:00 | |
| EA3IBE | 2026-09-03 11:16:20 | 41.36071 | 2.18395 | 129° | 22km/h | 5456m | 3.7m/s | 0°C | 0% | 0hPa | 0V | 00:00:00 | 00:00:00 | 00:00:00 | |
| EA3GEO | 2026-09-03 11:16:16 | 41.36095 | 2.18372 | 141° | 37km/h | 5440m | 2.6m/s | 0°C | 0% | 0hPa | 0V | 00:00:00 | 00:00:00 | 00:00:00 | |
| EA3IBE | 2026-09-03 11:16:15 | 41.36103 | 2.18363 | 138° | 40km/h | 5437m | 1.8m/s | 0°C | 0% | 0hPa | 0V | 00:00:00 | 00:00:00 | 00:00:00 | |
| EA3GEO | 2026-09-03 11:16:11 | 41.36129 | 2.18328 | 140° | 26km/h | 5428m | 4.8m/s | 0°C | 0% | 0hPa | 0V | 00:00:00 | 00:00:00 | 00:00:00 | |
| EA3GEO | 2026-09-03 11:16:05 | 41.36149 | 2.18305 | 104° | 22km/h | 5391m | 5.5m/s | 0°C | 0% | 0hPa | 0V | 00:00:00 | 00:00:00 | 00:00:00 | |
| EA3IBE | 2026-09-03 11:16:03 | 41.36149 | 2.18290 | 95° | 15km/h | 5381m | 3.1m/s | 0°C | 0% | 0hPa | 0V | 00:00:00 | 00:00:00 | 00:00:00 | |
| EA3GEO | 2026-09-03 11:15:59 | 41.36158 | 2.18283 | 166° | 18km/h | 5360m | 7.1m/s | 0°C | 0% | 0hPa | 0V | 00:00:00 | 00:00:00 | 00:00:00 | |
| EA3IBE | 2026-09-03 11:15:56 | 41.36170 | 2.18264 | 117° | 29km/h | 5342m | 3.5m/s | 0°C | 0% | 0hPa | 0V | 00:00:00 | 00:00:00 | 00:00:00 | |
| EA3GEO | 2026-09-03 11:15:53 | 41.36186 | 2.18238 | 141° | 29km/h | 5332m | 4.1m/s | 0°C | 0% | 0hPa | 0V | 00:00:00 | 00:00:00 | 00:00:00 | |
| EA3IBE | 2026-09-03 11:15:49 | 41.36199 | 2.18218 | 102° | 13km/h | 5304m | 8.0m/s | 0°C | 0% | 0hPa | 0V | 00:00:00 | 00:00:00 | 00:00:00 | |
| EA3GEO | 2026-09-03 11:15:48 | 41.36200 | 2.18213 | 99° | 13km/h | 5296m | 6.8m/s | 0°C | 0% | 0hPa | 0V | 00:00:00 | 00:00:00 | 00:00:00 | |
| EA3IBE | 2026-09-03 11:15:43 | 41.36223 | 2.18189 | 136° | 22km/h | 5263m | 5.0m/s | 0°C | 0% | 0hPa | 0V | 00:00:00 | 00:00:00 | 00:00:00 | |
| EA3GEO | 2026-09-03 11:15:42 | 41.36226 | 2.18184 | 121° | 18km/h | 5257m | 6.6m/s | 0°C | 0% | 0hPa | 0V | 00:00:00 | 00:00:00 | 00:00:00 | |
| EA3IBE | 2026-09-03 11:15:36 | 41.36227 | 2.18144 | 112° | 15km/h | 5227m | 6.6m/s | 0°C | 0% | 0hPa | 0V | 00:00:00 | 00:00:00 | 00:00:00 | |
| EA3IBE | 2026-09-03 11:15:31 | 41.36255 | 2.18128 | 179° | 26km/h | 5199m | 3.1m/s | 0°C | 0% | 0hPa | 0V | 00:00:00 | 00:00:00 | 00:00:00 | |
| EA3GEO | 2026-09-03 11:15:30 | 41.36261 | 2.18128 | 184° | 27km/h | 5197m | 2.5m/s | 0°C | 0% | 0hPa | 0V | 00:00:00 | 00:00:00 | 00:00:00 | |
| EA3GEO | 2026-09-03 11:15:24 | 41.36289 | 2.18113 | 177° | 18km/h | 5157m | 5.1m/s | 0°C | 0% | 0hPa | 0V | 00:00:00 | 00:00:00 | 00:00:00 | |
| EA3GEO | 2026-09-03 11:15:19 | 41.36315 | 2.18099 | 159° | 27km/h | 5128m | 5.9m/s | 0°C | 0% | 0hPa | 0V | 00:00:00 | 00:00:00 | 00:00:00 | |
| EA3IBE | 2026-09-03 11:15:14 | 41.36333 | 2.18084 | 136° | 15km/h | 5095m | 5.2m/s | 0°C | 0% | 0hPa | 0V | 00:00:00 | 00:00:00 | 00:00:00 | |
| EA3GEO | 2026-09-03 11:15:13 | 41.36337 | 2.18080 | 153° | 22km/h | 5088m | 6.1m/s | 0°C | 0% | 0hPa | 0V | 00:00:00 | 00:00:00 | 00:00:00 | |
| EA3GEO | 2026-09-03 11:15:08 | 41.36365 | 2.18053 | 121° | 35km/h | 5065m | 6.0m/s | 0°C | 0% | 0hPa | 0V | 00:00:00 | 00:00:00 | 00:00:00 | |
| EA3GEO | 2026-09-03 11:15:02 | 41.36391 | 2.18007 | 141° | 24km/h | 5027m | 6.5m/s | 0°C | 0% | 0hPa | 0V | 00:00:00 | 00:00:00 | 00:00:00 | |
| EA3GEO | 2026-09-03 11:14:56 | 41.36406 | 2.18005 | 155° | 11km/h | 4998m | 5.2m/s | 0°C | 0% | 0hPa | 0V | 00:00:00 | 00:00:00 | 00:00:00 | |
| EA3GEO | 2026-09-03 11:14:50 | 41.36423 | 2.17990 | 106° | 18km/h | 4954m | 5.9m/s | 0°C | 0% | 0hPa | 0V | 00:00:00 | 00:00:00 | 00:00:00 | |
| EA3IBE | 2026-09-03 11:14:48 | 41.36427 | 2.17979 | 134° | 16km/h | 4942m | 4.6m/s | 0°C | 0% | 0hPa | 0V | 00:00:00 | 00:00:00 | 00:00:00 | |
| EA3GEO | 2026-09-03 11:14:45 | 41.36440 | 2.17972 | 161° | 26km/h | 4927m | 3.4m/s | 0°C | 0% | 0hPa | 0V | 00:00:00 | 00:00:00 | 00:00:00 | |
| EA3IBE | 2026-09-03 11:14:41 | 41.36463 | 2.17949 | 130° | 15km/h | 4906m | 5.4m/s | 0°C | 0% | 0hPa | 0V | 00:00:00 | 00:00:00 | 00:00:00 | |
| EA3GEO | 2026-09-03 11:14:39 | 41.36465 | 2.17946 | 167° | 4km/h | 4895m | 6.0m/s | 0°C | 0% | 0hPa | 0V | 00:00:00 | 00:00:00 | 00:00:00 | |
| EA3GEO | 2026-09-03 11:14:34 | 41.36477 | 2.17918 | 113° | 33km/h | 4865m | 3.5m/s | 0°C | 0% | 0hPa | 0V | 00:00:00 | 00:00:00 | 00:00:00 | |
| EA3IBE | 2026-09-03 11:14:32 | 41.36486 | 2.17897 | 125° | 31km/h | 4855m | 5.2m/s | 0°C | 0% | 0hPa | 0V | 00:00:00 | 00:00:00 | 00:00:00 | |
| EA3GEO | 2026-09-03 11:14:28 | 41.36502 | 2.17886 | 189° | 20km/h | 4831m | 5.9m/s | 0°C | 0% | 0hPa | 0V | 00:00:00 | 00:00:00 | 00:00:00 | |
| EA3IBE | 2026-09-03 11:14:26 | 41.36514 | 2.17885 | 172° | 27km/h | 4818m | 5.0m/s | 0°C | 0% | 0hPa | 0V | 00:00:00 | 00:00:00 | 00:00:00 | |
| EA3GEO | 2026-09-03 11:14:22 | 41.36538 | 2.17875 | 159° | 18km/h | 4790m | 5.6m/s | 0°C | 0% | 0hPa | 0V | 00:00:00 | 00:00:00 | 00:00:00 | |
| EA3IBE | 2026-09-03 11:14:21 | 41.36542 | 2.17872 | 125° | 13km/h | 4785m | 5.1m/s | 0°C | 0% | 0hPa | 0V | 00:00:00 | 00:00:00 | 00:00:00 | |
| EA3GEO | 2026-09-03 11:14:17 | 41.36551 | 2.17846 | 126° | 16km/h | 4767m | 4.1m/s | 0°C | 0% | 0hPa | 0V | 00:00:00 | 00:00:00 | 00:00:00 | |
| EA3IBE | 2026-09-03 11:14:15 | 41.36556 | 2.17842 | 178° | 7km/h | 4757m | 5.7m/s | 0°C | 0% | 0hPa | 0V | 00:00:00 | 00:00:00 | 00:00:00 | |
| EA3GEO | 2026-09-03 11:14:11 | 41.36568 | 2.17836 | 176° | 29km/h | 4731m | 3.7m/s | 0°C | 0% | 0hPa | 0V | 00:00:00 | 00:00:00 | 00:00:00 | |
| EA3IBE | 2026-09-03 11:14:09 | 41.36583 | 2.17834 | 175° | 29km/h | 4723m | 3.3m/s | 0°C | 0% | 0hPa | 0V | 00:00:00 | 00:00:00 | 00:00:00 | |
| EA3GEO | 2026-09-03 11:14:05 | 41.36609 | 2.17820 | 128° | 26km/h | 4700m | 7.6m/s | 0°C | 0% | 0hPa | 0V | 00:00:00 | 00:00:00 | 00:00:00 | |
| EA3IBE | 2026-09-03 11:14:04 | 41.36612 | 2.17813 | 115° | 24km/h | 4693m | 5.4m/s | 0°C | 0% | 0hPa | 0V | 00:00:00 | 00:00:00 | 00:00:00 | |
| EA3GEO | 2026-09-03 11:14:00 | 41.36621 | 2.17794 | 171° | 22km/h | 4670m | 5.8m/s | 0°C | 0% | 0hPa | 0V | 00:00:00 | 00:00:00 | 00:00:00 | |
| EA3IBE | 2026-09-03 11:13:57 | 41.36639 | 2.17792 | 175° | 26km/h | 4656m | 2.3m/s | 0°C | 0% | 0hPa | 0V | 00:00:00 | 00:00:00 | 00:00:00 | |
| EA3GEO | 2026-09-03 11:13:54 | 41.36661 | 2.17793 | 184° | 24km/h | 4639m | 6.8m/s | 0°C | 0% | 0hPa | 0V | 00:00:00 | 00:00:00 | 00:00:00 | |
| EA3IBE | 2026-09-03 11:13:50 | 41.36680 | 2.17793 | 142° | 16km/h | 4613m | 7.8m/s | 0°C | 0% | 0hPa | 0V | 00:00:00 | 00:00:00 | 00:00:00 | |
| EA3GEO | 2026-09-03 11:13:49 | 41.36683 | 2.17788 | 130° | 20km/h | 4605m | 6.7m/s | 0°C | 0% | 0hPa | 0V | 00:00:00 | 00:00:00 | 00:00:00 | |
| EA3GEO | 2026-09-03 11:13:44 | 41.36696 | 2.17756 | 114° | 7km/h | 4575m | 5.6m/s | 0°C | 0% | 0hPa | 0V | 00:00:00 | 00:00:00 | 00:00:00 | |
| EA3GEO | 2026-09-03 11:13:39 | 41.36714 | 2.17756 | 188° | 16km/h | 4544m | 6.3m/s | 0°C | 0% | 0hPa | 0V | 00:00:00 | 00:00:00 | 00:00:00 | |
| EA3IBE | 2026-09-03 11:13:34 | 41.36723 | 2.17734 | 113° | 18km/h | 4515m | 4.9m/s | 0°C | 0% | 0hPa | 0V | 00:00:00 | 00:00:00 | 00:00:00 | |
| EA3GEO | 2026-09-03 11:13:33 | 41.36726 | 2.17728 | 135° | 24km/h | 4509m | 5.1m/s | 0°C | 0% | 0hPa | 0V | 00:00:00 | 00:00:00 | 00:00:00 | |
| EA3IBE | 2026-09-03 11:13:29 | 41.36750 | 2.17715 | 166° | 22km/h | 4479m | 5.9m/s | 0°C | 0% | 0hPa | 0V | 00:00:00 | 00:00:00 | 00:00:00 | |
| EA3GEO | 2026-09-03 11:13:27 | 41.36760 | 2.17714 | 181° | 13km/h | 4462m | 5.1m/s | 0°C | 0% | 0hPa | 0V | 00:00:00 | 00:00:00 | 00:00:00 | |
| EA3IBE | 2026-09-03 11:13:24 | 41.36767 | 2.17708 | 140° | 15km/h | 4442m | 2.7m/s | 0°C | 0% | 0hPa | 0V | 00:00:00 | 00:00:00 | 00:00:00 | |
| EA3GEO | 2026-09-03 11:13:21 | 41.36776 | 2.17694 | 131° | 27km/h | 4428m | 3.9m/s | 0°C | 0% | 0hPa | 0V | 00:00:00 | 00:00:00 | 00:00:00 | |
| EA3IBE | 2026-09-03 11:13:19 | 41.36786 | 2.17680 | 141° | 31km/h | 4418m | 1.5m/s | 0°C | 0% | 0hPa | 0V | 00:00:00 | 00:00:00 | 00:00:00 | |
| EA3GEO | 2026-09-03 11:13:16 | 41.36795 | 2.17657 | 116° | 29km/h | 4408m | 3.1m/s | 0°C | 0% | 0hPa | 0V | 00:00:00 | 00:00:00 | 00:00:00 | |
| EA3IBE | 2026-09-03 11:13:13 | 41.36812 | 2.17638 | 157° | 33km/h | 4393m | 7.4m/s | 0°C | 0% | 0hPa | 0V | 00:00:00 | 00:00:00 | 00:00:00 | |
| EA3GEO | 2026-09-03 11:13:10 | 41.36835 | 2.17625 | 142° | 29km/h | 4373m | 5.8m/s | 0°C | 0% | 0hPa | 0V | 00:00:00 | 00:00:00 | 00:00:00 | |
| EA3IBE | 2026-09-03 11:13:08 | 41.36842 | 2.17612 | 103° | 16km/h | 4358m | 7.2m/s | 0°C | 0% | 0hPa | 0V | 00:00:00 | 00:00:00 | 00:00:00 | |
| EA3GEO | 2026-09-03 11:13:04 | 41.36856 | 2.17591 | 154° | 29km/h | 4331m | 4.8m/s | 0°C | 0% | 0hPa | 0V | 00:00:00 | 00:00:00 | 00:00:00 | |
| EA3IBE | 2026-09-03 11:13:02 | 41.36872 | 2.17586 | 173° | 33km/h | 4322m | 3.1m/s | 0°C | 0% | 0hPa | 0V | 00:00:00 | 00:00:00 | 00:00:00 | |
| EA3GEO | 2026-09-03 11:12:58 | 41.36892 | 2.17581 | 102° | 5km/h | 4298m | 5.4m/s | 0°C | 0% | 0hPa | 0V | 00:00:00 | 00:00:00 | 00:00:00 | |
| EA3IBE | 2026-09-03 11:12:54 | 41.36898 | 2.17565 | 121° | 24km/h | 4272m | 6.6m/s | 0°C | 0% | 0hPa | 0V | 00:00:00 | 00:00:00 | 00:00:00 | |
| EA3GEO | 2026-09-03 11:12:53 | 41.36902 | 2.17558 | 127° | 33km/h | 4265m | 6.2m/s | 0°C | 0% | 0hPa | 0V | 00:00:00 | 00:00:00 | 00:00:00 | |
| EA3IBE | 2026-09-03 11:12:49 | 41.36930 | 2.17530 | 169° | 29km/h | 4244m | 3.5m/s | 0°C | 0% | 0hPa | 0V | 00:00:00 | 00:00:00 | 00:00:00 | |
| EA3GEO | 2026-09-03 11:12:47 | 41.36943 | 2.17526 | 156° | 20km/h | 4234m | 6.6m/s | 0°C | 0% | 0hPa | 0V | 00:00:00 | 00:00:00 | 00:00:00 | |
| EA3IBE | 2026-09-03 11:12:44 | 41.36959 | 2.17510 | 143° | 33km/h | 4212m | 5.3m/s | 0°C | 0% | 0hPa | 0V | 00:00:00 | 00:00:00 | 00:00:00 | |
| EA3GEO | 2026-09-03 11:12:41 | 41.36981 | 2.17493 | 152° | 27km/h | 4200m | 5.9m/s | 0°C | 0% | 0hPa | 0V | 00:00:00 | 00:00:00 | 00:00:00 | |
| EA3IBE | 2026-09-03 11:12:38 | 41.36997 | 2.17472 | 125° | 27km/h | 4175m | 6.1m/s | 0°C | 0% | 0hPa | 0V | 00:00:00 | 00:00:00 | 00:00:00 | |
| EA3GEO | 2026-09-03 11:12:35 | 41.37010 | 2.17449 | 120° | 29km/h | 4160m | 4.5m/s | 0°C | 0% | 0hPa | 0V | 00:00:00 | 00:00:00 | 00:00:00 | |
| EA3IBE | 2026-09-03 11:12:33 | 41.37017 | 2.17430 | 110° | 29km/h | 4148m | 4.0m/s | 0°C | 0% | 0hPa | 0V | 00:00:00 | 00:00:00 | 00:00:00 | |
| EA3GEO | 2026-09-03 11:12:30 | 41.37034 | 2.17401 | 142° | 38km/h | 4132m | 6.3m/s | 0°C | 0% | 0hPa | 0V | 00:00:00 | 00:00:00 | 00:00:00 | |
| EA3IBE | 2026-09-03 11:12:28 | 41.37049 | 2.17390 | 150° | 27km/h | 4117m | 8.6m/s | 0°C | 0% | 0hPa | 0V | 00:00:00 | 00:00:00 | 00:00:00 | |
| EA3GEO | 2026-09-03 11:12:24 | 41.37064 | 2.17376 | 159° | 20km/h | 4082m | 7.4m/s | 0°C | 0% | 0hPa | 0V | 00:00:00 | 00:00:00 | 00:00:00 | |
| EA3IBE | 2026-09-03 11:12:22 | 41.37075 | 2.17370 | 142° | 22km/h | 4066m | 5.6m/s | 0°C | 0% | 0hPa | 0V | 00:00:00 | 00:00:00 | 00:00:00 | |
| EA3GEO | 2026-09-03 11:12:18 | 41.37093 | 2.17344 | 133° | 35km/h | 4044m | 4.2m/s | 0°C | 0% | 0hPa | 0V | 00:00:00 | 00:00:00 | 00:00:00 | |
| EA3IBE | 2026-09-03 11:12:17 | 41.37099 | 2.17334 | 125° | 37km/h | 4040m | 1.5m/s | 0°C | 0% | 0hPa | 0V | 00:00:00 | 00:00:00 | 00:00:00 | |
| EA3GEO | 2026-09-03 11:12:16 | 41.37118 | 2.17313 | 175° | 20km/h | 4010m | 6.4m/s | 0°C | 0% | 0hPa | 0V | 00:00:00 | 00:00:00 | 00:00:00 | |
| EA3IBE | 2026-09-03 11:12:15 | 41.37118 | 2.17313 | 175° | 20km/h | 4010m | 6.4m/s | 0°C | 0% | 0hPa | 0V | 00:00:00 | 00:00:00 | 00:00:00 | |
| EA3GEO | 2026-09-03 11:12:07 | 41.37140 | 2.17278 | 126° | 18km/h | 3978m | 5.9m/s | 0°C | 0% | 0hPa | 0V | 00:00:00 | 00:00:00 | 00:00:00 | |
| EA3GEO | 2026-09-03 11:12:01 | 41.37172 | 2.17256 | 130° | 33km/h | 3933m | 4.7m/s | 0°C | 0% | 0hPa | 0V | 00:00:00 | 00:00:00 | 00:00:00 | |
| EA3IBE | 2026-09-03 11:11:56 | 41.37200 | 2.17214 | 144° | 31km/h | 3906m | 5.9m/s | 0°C | 0% | 0hPa | 0V | 00:00:00 | 00:00:00 | 00:00:00 | |
| EA3GEO | 2026-09-03 11:11:50 | 41.37208 | 2.17168 | 74° | 18km/h | 3869m | 3.8m/s | 0°C | 0% | 0hPa | 0V | 00:00:00 | 00:00:00 | 00:00:00 | |
| EA3GEO | 2026-09-03 11:11:45 | 41.37218 | 2.17156 | 160° | 24km/h | 3838m | 4.4m/s | 0°C | 0% | 0hPa | 0V | 00:00:00 | 00:00:00 | 00:00:00 | |
| EA3GEO | 2026-09-03 11:11:40 | 41.37231 | 2.17125 | 105° | 18km/h | 3808m | 5.4m/s | 0°C | 0% | 0hPa | 0V | 00:00:00 | 00:00:00 | 00:00:00 | |
| EA3GEO | 2026-09-03 11:11:34 | 41.37235 | 2.17088 | 100° | 13km/h | 3777m | 3.7m/s | 0°C | 0% | 0hPa | 0V | 00:00:00 | 00:00:00 | 00:00:00 | |
| EA3IBE | 2026-09-03 11:11:29 | 41.37239 | 2.17052 | 105° | 35km/h | 3750m | 3.7m/s | 0°C | 0% | 0hPa | 0V | 00:00:00 | 00:00:00 | 00:00:00 | |
| EA3GEO | 2026-09-03 11:11:24 | 41.37251 | 2.17024 | 156° | 26km/h | 3728m | 6.3m/s | 0°C | 0% | 0hPa | 0V | 00:00:00 | 00:00:00 | 00:00:00 | |
| EA3IBE | 2026-09-03 11:11:23 | 41.37256 | 2.17019 | 140° | 24km/h | 3722m | 6.0m/s | 0°C | 0% | 0hPa | 0V | 00:00:00 | 00:00:00 | 00:00:00 | |
| EA3GEO | 2026-09-03 11:11:18 | 41.37263 | 2.16970 | 104° | 31km/h | 3688m | 3.8m/s | 0°C | 0% | 0hPa | 0V | 00:00:00 | 00:00:00 | 00:00:00 | |
| EA3GEO | 2026-09-03 11:11:13 | 41.37281 | 2.16932 | 123° | 18km/h | 3660m | 5.9m/s | 0°C | 0% | 0hPa | 0V | 00:00:00 | 00:00:00 | 00:00:00 | |
| EA3IBE | 2026-09-03 11:11:12 | 41.37282 | 2.16926 | 98° | 24km/h | 3654m | 3.5m/s | 0°C | 0% | 0hPa | 0V | 00:00:00 | 00:00:00 | 00:00:00 | |
| EA3GEO | 2026-09-03 11:11:07 | 41.37292 | 2.16876 | 109° | 31km/h | 3628m | 7.0m/s | 0°C | 0% | 0hPa | 0V | 00:00:00 | 00:00:00 | 00:00:00 | |
| EA3IBE | 2026-09-03 11:11:01 | 41.37313 | 2.16822 | 118° | 38km/h | 3595m | 8.0m/s | 0°C | 0% | 0hPa | 0V | 00:00:00 | 00:00:00 | 00:00:00 | |
| EA3IBE | 2026-09-03 11:10:56 | 41.37332 | 2.16758 | 124° | 51km/h | 3563m | 1.2m/s | 0°C | 0% | 0hPa | 0V | 00:00:00 | 00:00:00 | 00:00:00 | |
| EA3GEO | 2026-09-03 11:10:55 | 41.37338 | 2.16744 | 124° | 46km/h | 3559m | 3.4m/s | 0°C | 0% | 0hPa | 0V | 00:00:00 | 00:00:00 | 00:00:00 | |
| EA3IBE | 2026-09-03 11:10:50 | 41.37351 | 2.16678 | 98° | 38km/h | 3534m | 5.2m/s | 0°C | 0% | 0hPa | 0V | 00:00:00 | 00:00:00 | 00:00:00 | |
| EA3GEO | 2026-09-03 11:10:44 | 41.37353 | 2.16599 | 103° | 33km/h | 3506m | 3.2m/s | 0°C | 0% | 0hPa | 0V | 00:00:00 | 00:00:00 | 00:00:00 | |
| EA3IBE | 2026-09-03 11:10:39 | 41.37365 | 2.16540 | 82° | 31km/h | 3472m | 3.7m/s | 0°C | 0% | 0hPa | 0V | 00:00:00 | 00:00:00 | 00:00:00 | |
| EA3IBE | 2026-09-03 11:10:34 | 41.37368 | 2.16489 | 124° | 40km/h | 3449m | 3.5m/s | 0°C | 0% | 0hPa | 0V | 00:00:00 | 00:00:00 | 00:00:00 | |
| EA3GEO | 2026-09-03 11:10:33 | 41.37374 | 2.16476 | 123° | 44km/h | 3443m | 4.6m/s | 0°C | 0% | 0hPa | 0V | 00:00:00 | 00:00:00 | 00:00:00 | |
| EA3GEO | 2026-09-03 11:10:28 | 41.37378 | 2.16426 | 78° | 26km/h | 3417m | 7.0m/s | 0°C | 0% | 0hPa | 0V | 00:00:00 | 00:00:00 | 00:00:00 | |
| EA3IBE | 2026-09-03 11:10:25 | 41.37385 | 2.16400 | 131° | 31km/h | 3395m | 5.1m/s | 0°C | 0% | 0hPa | 0V | 00:00:00 | 00:00:00 | 00:00:00 | |
| EA3GEO | 2026-09-03 11:10:22 | 41.37402 | 2.16389 | 177° | 16km/h | 3379m | 3.5m/s | 0°C | 0% | 0hPa | 0V | 00:00:00 | 00:00:00 | 00:00:00 | |
| EA3IBE | 2026-09-03 11:10:20 | 41.37408 | 2.16390 | 174° | 5km/h | 3369m | 3.2m/s | 0°C | 0% | 0hPa | 0V | 00:00:00 | 00:00:00 | 00:00:00 | |
| EA3GEO | 2026-09-03 11:10:16 | 41.37408 | 2.16378 | 93° | 20km/h | 3347m | 5.6m/s | 0°C | 0% | 0hPa | 0V | 00:00:00 | 00:00:00 | 00:00:00 | |
| EA3IBE | 2026-09-03 11:10:15 | 41.37410 | 2.16370 | 106° | 29km/h | 3341m | 6.1m/s | 0°C | 0% | 0hPa | 0V | 00:00:00 | 00:00:00 | 00:00:00 | |
| EA3GEO | 2026-09-03 11:10:11 | 41.37429 | 2.16337 | 152° | 29km/h | 3323m | 2.0m/s | 0°C | 0% | 0hPa | 0V | 00:00:00 | 00:00:00 | 00:00:00 | |
| EA3IBE | 2026-09-03 11:10:10 | 41.37435 | 2.16334 | 161° | 26km/h | 3320m | 3.9m/s | 0°C | 0% | 0hPa | 0V | 00:00:00 | 00:00:00 | 00:00:00 | |
| EA3GEO | 2026-09-03 11:10:05 | 41.37451 | 2.16307 | 87° | 27km/h | 3290m | 4.3m/s | 0°C | 0% | 0hPa | 0V | 00:00:00 | 00:00:00 | 00:00:00 | |
| EA3IBE | 2026-09-03 11:10:04 | 41.37451 | 2.16299 | 96° | 24km/h | 3285m | 4.6m/s | 0°C | 0% | 0hPa | 0V | 00:00:00 | 00:00:00 | 00:00:00 | |
| EA3GEO | 2026-09-03 11:10:00 | 41.37471 | 2.16275 | 143° | 42km/h | 3264m | 6.3m/s | 0°C | 0% | 0hPa | 0V | 00:00:00 | 00:00:00 | 00:00:00 | |
| EA3IBE | 2026-09-03 11:09:58 | 41.37485 | 2.16255 | 128° | 37km/h | 3250m | 3.9m/s | 0°C | 0% | 0hPa | 0V | 00:00:00 | 00:00:00 | 00:00:00 | |
| EA3GEO | 2026-09-03 11:09:54 | 41.37499 | 2.16233 | 153° | 26km/h | 3225m | 4.0m/s | 0°C | 0% | 0hPa | 0V | 00:00:00 | 00:00:00 | 00:00:00 | |
| EA3IBE | 2026-09-03 11:09:53 | 41.37506 | 2.16229 | 153° | 31km/h | 3220m | 3.4m/s | 0°C | 0% | 0hPa | 0V | 00:00:00 | 00:00:00 | 00:00:00 | |
| EA3IBE | 2026-09-03 11:09:48 | 41.37542 | 2.16201 | 116° | 22km/h | 3194m | 5.6m/s | 0°C | 0% | 0hPa | 0V | 00:00:00 | 00:00:00 | 00:00:00 | |
| EA3GEO | 2026-09-03 11:09:43 | 41.37554 | 2.16162 | 127° | 37km/h | 3167m | 4.6m/s | 0°C | 0% | 0hPa | 0V | 00:00:00 | 00:00:00 | 00:00:00 | |
| EA3IBE | 2026-09-03 11:09:42 | 41.37559 | 2.16151 | 115° | 38km/h | 3160m | 7.2m/s | 0°C | 0% | 0hPa | 0V | 00:00:00 | 00:00:00 | 00:00:00 | |
| EA3GEO | 2026-09-03 11:09:38 | 41.37570 | 2.16117 | 135° | 22km/h | 3135m | 6.2m/s | 0°C | 0% | 0hPa | 0V | 00:00:00 | 00:00:00 | 00:00:00 | |
| EA3IBE | 2026-09-03 11:09:37 | 41.37574 | 2.16111 | 131° | 27km/h | 3128m | 5.1m/s | 0°C | 0% | 0hPa | 0V | 00:00:00 | 00:00:00 | 00:00:00 | |
| EA3GEO | 2026-09-03 11:09:32 | 41.37588 | 2.16068 | 115° | 31km/h | 3102m | 3.2m/s | 0°C | 0% | 0hPa | 0V | 00:00:00 | 00:00:00 | 00:00:00 | |
| EA3IBE | 2026-09-03 11:09:31 | 41.37592 | 2.16057 | 118° | 37km/h | 3098m | 3.5m/s | 0°C | 0% | 0hPa | 0V | 00:00:00 | 00:00:00 | 00:00:00 | |
| EA3IBE | 2026-09-03 11:09:26 | 41.37606 | 2.15997 | 109° | 29km/h | 3068m | 4.4m/s | 0°C | 0% | 0hPa | 0V | 00:00:00 | 00:00:00 | 00:00:00 | |
| EA3GEO | 2026-09-03 11:09:21 | 41.37616 | 2.15940 | 107° | 38km/h | 3040m | 3.6m/s | 0°C | 0% | 0hPa | 0V | 00:00:00 | 00:00:00 | 00:00:00 | |
| EA3IBE | 2026-09-03 11:09:20 | 41.37620 | 2.15928 | 123° | 38km/h | 3034m | 4.0m/s | 0°C | 0% | 0hPa | 0V | 00:00:00 | 00:00:00 | 00:00:00 | |
| EA3GEO | 2026-09-03 11:09:16 | 41.37644 | 2.15902 | 147° | 22km/h | 3008m | 5.2m/s | 0°C | 0% | 0hPa | 0V | 00:00:00 | 00:00:00 | 00:00:00 | |
| EA3IBE | 2026-09-03 11:09:15 | 41.37648 | 2.15898 | 133° | 20km/h | 3003m | 3.4m/s | 0°C | 0% | 0hPa | 0V | 00:00:00 | 00:00:00 | 00:00:00 | |
| EA3IBE | 2026-09-03 11:09:09 | 41.37660 | 2.15851 | 108° | 37km/h | 2979m | 4.2m/s | 0°C | 0% | 0hPa | 0V | 00:00:00 | 00:00:00 | 00:00:00 | |
| EA3GEO | 2026-09-03 11:09:07 | 41.37666 | 2.15828 | 125° | 33km/h | 2970m | 3.3m/s | 0°C | 0% | 0hPa | 0V | 00:00:00 | 00:00:00 | 00:00:00 | |
| EA3IBE | 2026-09-03 11:09:04 | 41.37682 | 2.15809 | 152° | 29km/h | 2956m | 4.7m/s | 0°C | 0% | 0hPa | 0V | 00:00:00 | 00:00:00 | 00:00:00 | |
| EA3GEO | 2026-09-03 11:09:01 | 41.37701 | 2.15786 | 127° | 40km/h | 2938m | 7.3m/s | 0°C | 0% | 0hPa | 0V | 00:00:00 | 00:00:00 | 00:00:00 | |
| EA3IBE | 2026-09-03 11:08:58 | 41.37716 | 2.15744 | 116° | 53km/h | 2917m | 2.8m/s | 0°C | 0% | 0hPa | 0V | 00:00:00 | 00:00:00 | 00:00:00 | |
| EA3GEO | 2026-09-03 11:08:55 | 41.37731 | 2.15698 | 114° | 42km/h | 2906m | 3.7m/s | 0°C | 0% | 0hPa | 0V | 00:00:00 | 00:00:00 | 00:00:00 | |
| EA3IBE | 2026-09-03 11:08:53 | 41.37740 | 2.15678 | 129° | 31km/h | 2896m | 4.3m/s | 0°C | 0% | 0hPa | 0V | 00:00:00 | 00:00:00 | 00:00:00 | |
| EA3GEO | 2026-09-03 11:08:50 | 41.37754 | 2.15650 | 124° | 42km/h | 2881m | 3.9m/s | 0°C | 0% | 0hPa | 0V | 00:00:00 | 00:00:00 | 00:00:00 | |
| EA3IBE | 2026-09-03 11:08:47 | 41.37765 | 2.15606 | 97° | 42km/h | 2862m | 3.0m/s | 0°C | 0% | 0hPa | 0V | 00:00:00 | 00:00:00 | 00:00:00 | |
| EA3GEO | 2026-09-03 11:08:44 | 41.37770 | 2.15566 | 114° | 40km/h | 2851m | 5.2m/s | 0°C | 0% | 0hPa | 0V | 00:00:00 | 00:00:00 | 00:00:00 | |
| EA3IBE | 2026-09-03 11:08:42 | 41.37781 | 2.15541 | 125° | 51km/h | 2837m | 5.7m/s | 0°C | 0% | 0hPa | 0V | 00:00:00 | 00:00:00 | 00:00:00 | |
| EA3GEO | 2026-09-03 11:08:38 | 41.37808 | 2.15475 | 117° | 51km/h | 2822m | 4.3m/s | 0°C | 0% | 0hPa | 0V | 00:00:00 | 00:00:00 | 00:00:00 | |
| EA3IBE | 2026-09-03 11:08:36 | 41.37819 | 2.15450 | 128° | 38km/h | 2812m | 5.8m/s | 0°C | 0% | 0hPa | 0V | 00:00:00 | 00:00:00 | 00:00:00 | |
| EA3GEO | 2026-09-03 11:08:33 | 41.37841 | 2.15415 | 121° | 49km/h | 2795m | 2.1m/s | 0°C | 0% | 0hPa | 0V | 00:00:00 | 00:00:00 | 00:00:00 | |
| EA3IBE | 2026-09-03 11:08:31 | 41.37852 | 2.15385 | 104° | 46km/h | 2786m | 1.6m/s | 0°C | 0% | 0hPa | 0V | 00:00:00 | 00:00:00 | 00:00:00 | |
| EA3GEO | 2026-09-03 11:08:27 | 41.37873 | 2.15316 | 116° | 55km/h | 2768m | 3.1m/s | 0°C | 0% | 0hPa | 0V | 00:00:00 | 00:00:00 | 00:00:00 | |
| EA3IBE | 2026-09-03 11:08:26 | 41.37880 | 2.15300 | 122° | 53km/h | 2765m | 4.2m/s | 0°C | 0% | 0hPa | 0V | 00:00:00 | 00:00:00 | 00:00:00 | |
| EA3GEO | 2026-09-03 11:08:21 | 41.37908 | 2.15240 | 132° | 53km/h | 2734m | 5.9m/s | 0°C | 0% | 0hPa | 0V | 00:00:00 | 00:00:00 | 00:00:00 | |
| EA3IBE | 2026-09-03 11:08:20 | 41.37917 | 2.15226 | 131° | 55km/h | 2727m | 4.5m/s | 0°C | 0% | 0hPa | 0V | 00:00:00 | 00:00:00 | 00:00:00 | |
| EA3IBE | 2026-09-03 11:08:15 | 41.37946 | 2.15143 | 102° | 55km/h | 2697m | 3.4m/s | 0°C | 0% | 0hPa | 0V | 00:00:00 | 00:00:00 | 00:00:00 | |
| EA3GEO | 2026-09-03 11:08:09 | 41.37984 | 2.15060 | 137° | 47km/h | 2668m | 2.5m/s | 0°C | 0% | 0hPa | 0V | 00:00:00 | 00:00:00 | 00:00:00 | |
| EA3GEO | 2026-09-03 11:08:04 | 41.38005 | 2.14986 | 99° | 47km/h | 2648m | 3.8m/s | 0°C | 0% | 0hPa | 0V | 00:00:00 | 00:00:00 | 00:00:00 | |
| EA3GEO | 2026-09-03 11:07:59 | 41.38031 | 2.14925 | 140° | 49km/h | 2621m | 3.8m/s | 0°C | 0% | 0hPa | 0V | 00:00:00 | 00:00:00 | 00:00:00 | |
| EA3IBE | 2026-09-03 11:07:54 | 41.38064 | 2.14844 | 100° | 53km/h | 2591m | 3.9m/s | 0°C | 0% | 0hPa | 0V | 00:00:00 | 00:00:00 | 00:00:00 | |
| EA3GEO | 2026-09-03 11:07:53 | 41.38066 | 2.14829 | 101° | 40km/h | 2587m | 3.0m/s | 0°C | 0% | 0hPa | 0V | 00:00:00 | 00:00:00 | 00:00:00 | |
| EA3IBE | 2026-09-03 11:07:48 | 41.38090 | 2.14774 | 122° | 35km/h | 2555m | 5.3m/s | 0°C | 0% | 0hPa | 0V | 00:00:00 | 00:00:00 | 00:00:00 | |
| EA3GEO | 2026-09-03 11:07:47 | 41.38094 | 2.14763 | 111° | 37km/h | 2550m | 5.2m/s | 0°C | 0% | 0hPa | 0V | 00:00:00 | 00:00:00 | 00:00:00 | |
| EA3IBE | 2026-09-03 11:07:42 | 41.38106 | 2.14704 | 112° | 35km/h | 2523m | 6.0m/s | 0°C | 0% | 0hPa | 0V | 00:00:00 | 00:00:00 | 00:00:00 | |
| EA3GEO | 2026-09-03 11:07:41 | 41.38112 | 2.14691 | 127° | 46km/h | 2516m | 3.7m/s | 0°C | 0% | 0hPa | 0V | 00:00:00 | 00:00:00 | 00:00:00 | |
| EA3IBE | 2026-09-03 11:07:37 | 41.38147 | 2.14643 | 141° | 42km/h | 2498m | 3.7m/s | 0°C | 0% | 0hPa | 0V | 00:00:00 | 00:00:00 | 00:00:00 | |
| EA3GEO | 2026-09-03 11:07:36 | 41.38162 | 2.14625 | 127° | 40km/h | 2488m | 4.9m/s | 0°C | 0% | 0hPa | 0V | 00:00:00 | 00:00:00 | 00:00:00 | |
| EA3IBE | 2026-09-03 11:07:31 | 41.38181 | 2.14565 | 105° | 47km/h | 2463m | 5.1m/s | 0°C | 0% | 0hPa | 0V | 00:00:00 | 00:00:00 | 00:00:00 | |
| EA3GEO | 2026-09-03 11:07:29 | 41.38187 | 2.14536 | 117° | 38km/h | 2450m | 4.7m/s | 0°C | 0% | 0hPa | 0V | 00:00:00 | 00:00:00 | 00:00:00 | |
| EA3IBE | 2026-09-03 11:07:26 | 41.38205 | 2.14510 | 141° | 37km/h | 2434m | 5.5m/s | 0°C | 0% | 0hPa | 0V | 00:00:00 | 00:00:00 | 00:00:00 | |
| EA3GEO | 2026-09-03 11:07:24 | 41.38217 | 2.14491 | 120° | 42km/h | 2420m | 4.7m/s | 0°C | 0% | 0hPa | 0V | 00:00:00 | 00:00:00 | 00:00:00 | |
| EA3IBE | 2026-09-03 11:07:21 | 41.38231 | 2.14447 | 115° | 42km/h | 2402m | 6.0m/s | 0°C | 0% | 0hPa | 0V | 00:00:00 | 00:00:00 | 00:00:00 | |
| EA3GEO | 2026-09-03 11:07:18 | 41.38244 | 2.14415 | 126° | 31km/h | 2381m | 4.5m/s | 0°C | 0% | 0hPa | 0V | 00:00:00 | 00:00:00 | 00:00:00 | |
| EA3IBE | 2026-09-03 11:07:15 | 41.38260 | 2.14385 | 134° | 40km/h | 2365m | 4.2m/s | 0°C | 0% | 0hPa | 0V | 00:00:00 | 00:00:00 | 00:00:00 | |
| EA3GEO | 2026-09-03 11:07:12 | 41.38284 | 2.14354 | 137° | 47km/h | 2352m | 0.9m/s | 0°C | 0% | 0hPa | 0V | 00:00:00 | 00:00:00 | 00:00:00 | |
| EA3IBE | 2026-09-03 11:07:10 | 41.38299 | 2.14332 | 127° | 47km/h | 2343m | 6.0m/s | 0°C | 0% | 0hPa | 0V | 00:00:00 | 00:00:00 | 00:00:00 | |
| EA3GEO | 2026-09-03 11:07:07 | 41.38319 | 2.14295 | 124° | 35km/h | 2319m | 5.6m/s | 0°C | 0% | 0hPa | 0V | 00:00:00 | 00:00:00 | 00:00:00 | |
| EA3IBE | 2026-09-03 11:07:04 | 41.38331 | 2.14269 | 120° | 35km/h | 2302m | 3.4m/s | 0°C | 0% | 0hPa | 0V | 00:00:00 | 00:00:00 | 00:00:00 | |
| EA3GEO | 2026-09-03 11:07:01 | 41.38336 | 2.14227 | 99° | 53km/h | 2286m | 4.6m/s | 0°C | 0% | 0hPa | 0V | 00:00:00 | 00:00:00 | 00:00:00 | |
| EA3IBE | 2026-09-03 11:06:59 | 41.38342 | 2.14193 | 109° | 47km/h | 2276m | 2.8m/s | 0°C | 0% | 0hPa | 0V | 00:00:00 | 00:00:00 | 00:00:00 | |
| EA3GEO | 2026-09-03 11:06:56 | 41.38353 | 2.14153 | 107° | 31km/h | 2257m | 5.6m/s | 0°C | 0% | 0hPa | 0V | 00:00:00 | 00:00:00 | 00:00:00 | |
| EA3IBE | 2026-09-03 11:06:54 | 41.38356 | 2.14133 | 101° | 29km/h | 2245m | 6.7m/s | 0°C | 0% | 0hPa | 0V | 00:00:00 | 00:00:00 | 00:00:00 | |
| EA3GEO | 2026-09-03 11:06:50 | 41.38377 | 2.14080 | 123° | 51km/h | 2221m | 3.4m/s | 0°C | 0% | 0hPa | 0V | 00:00:00 | 00:00:00 | 00:00:00 | |
| EA3GEO | 2026-09-03 11:06:45 | 41.38401 | 2.14031 | 127° | 31km/h | 2199m | 5.4m/s | 0°C | 0% | 0hPa | 0V | 00:00:00 | 00:00:00 | 00:00:00 | |
| EA3IBE | 2026-09-03 11:06:43 | 41.38412 | 2.14009 | 123° | 47km/h | 2188m | 5.3m/s | 0°C | 0% | 0hPa | 0V | 00:00:00 | 00:00:00 | 00:00:00 | |
| EA3GEO | 2026-09-03 11:06:39 | 41.38435 | 2.13951 | 122° | 40km/h | 2165m | 4.9m/s | 0°C | 0% | 0hPa | 0V | 00:00:00 | 00:00:00 | 00:00:00 | |
| EA3IBE | 2026-09-03 11:06:38 | 41.38440 | 2.13940 | 127° | 33km/h | 2159m | 7.2m/s | 0°C | 0% | 0hPa | 0V | 00:00:00 | 00:00:00 | 00:00:00 | |
| EA3GEO | 2026-09-03 11:06:34 | 41.38456 | 2.13894 | 101° | 49km/h | 2126m | 3.8m/s | 0°C | 0% | 0hPa | 0V | 00:00:00 | 00:00:00 | 00:00:00 | |
| EA3IBE | 2026-09-03 11:06:32 | 41.38460 | 2.13862 | 107° | 40km/h | 2113m | 5.2m/s | 0°C | 0% | 0hPa | 0V | 00:00:00 | 00:00:00 | 00:00:00 | |
| EA3GEO | 2026-09-03 11:06:29 | 41.38469 | 2.13833 | 131° | 31km/h | 2098m | 5.2m/s | 0°C | 0% | 0hPa | 0V | 00:00:00 | 00:00:00 | 00:00:00 | |
| EA3IBE | 2026-09-03 11:06:27 | 41.38478 | 2.13813 | 119° | 42km/h | 2091m | 5.5m/s | 0°C | 0% | 0hPa | 0V | 00:00:00 | 00:00:00 | 00:00:00 | |
| EA3IBE | 2026-09-03 11:06:23 | 41.38491 | 2.13736 | 116° | 49km/h | 2060m | 6.1m/s | 0°C | 0% | 0hPa | 0V | 00:00:00 | 00:00:00 | 00:00:00 | |
| EA3IBE | 2026-09-03 11:06:17 | 41.38503 | 2.13666 | 112° | 31km/h | 2028m | 6.3m/s | 0°C | 0% | 0hPa | 0V | 00:00:00 | 00:00:00 | 00:00:00 | |
| EA3GEO | 2026-09-03 11:06:12 | 41.38526 | 2.13617 | 119° | 47km/h | 1999m | 5.8m/s | 0°C | 0% | 0hPa | 0V | 00:00:00 | 00:00:00 | 00:00:00 | |
| EA3IBE | 2026-09-03 11:06:11 | 41.38531 | 2.13601 | 117° | 53km/h | 1993m | 5.9m/s | 0°C | 0% | 0hPa | 0V | 00:00:00 | 00:00:00 | 00:00:00 | |
| EA3GEO | 2026-09-03 11:06:06 | 41.38556 | 2.13530 | 98° | 33km/h | 1965m | 5.6m/s | 0°C | 0% | 0hPa | 0V | 00:00:00 | 00:00:00 | 00:00:00 | |
| EA3IBE | 2026-09-03 11:06:05 | 41.38558 | 2.13519 | 99° | 31km/h | 1960m | 5.5m/s | 0°C | 0% | 0hPa | 0V | 00:00:00 | 00:00:00 | 00:00:00 | |
| EA3IBE | 2026-09-03 11:06:00 | 41.38570 | 2.13461 | 113° | 49km/h | 1933m | 4.8m/s | 0°C | 0% | 0hPa | 0V | 00:00:00 | 00:00:00 | 00:00:00 | |
| EA3GEO | 2026-09-03 11:06:00 | 41.38570 | 2.13461 | 113° | 49km/h | 1933m | 4.8m/s | 0°C | 0% | 0hPa | 0V | 00:00:00 | 00:00:00 | 00:00:00 | |
| EA3GEO | 2026-09-03 11:05:55 | 41.38597 | 2.13397 | 104° | 33km/h | 1907m | 5.9m/s | 0°C | 0% | 0hPa | 0V | 00:00:00 | 00:00:00 | 00:00:00 | |
| EA3IBE | 2026-09-03 11:05:54 | 41.38598 | 2.13385 | 99° | 29km/h | 1899m | 5.7m/s | 0°C | 0% | 0hPa | 0V | 00:00:00 | 00:00:00 | 00:00:00 | |
| EA3GEO | 2026-09-03 11:05:50 | 41.38604 | 2.13333 | 101° | 53km/h | 1881m | 4.0m/s | 0°C | 0% | 0hPa | 0V | 00:00:00 | 00:00:00 | 00:00:00 | |
| EA3IBE | 2026-09-03 11:05:49 | 41.38606 | 2.13316 | 98° | 51km/h | 1876m | 5.9m/s | 0°C | 0% | 0hPa | 0V | 00:00:00 | 00:00:00 | 00:00:00 | |
| EA3IBE | 2026-09-03 11:05:43 | 41.38618 | 2.13243 | 125° | 38km/h | 1831m | 4.8m/s | 0°C | 0% | 0hPa | 0V | 00:00:00 | 00:00:00 | 00:00:00 | |
| EA3GEO | 2026-09-03 11:05:39 | 41.38644 | 2.13188 | 126° | 49km/h | 1814m | 4.2m/s | 0°C | 0% | 0hPa | 0V | 00:00:00 | 00:00:00 | 00:00:00 | |
| EA3IBE | 2026-09-03 11:05:38 | 41.38651 | 2.13175 | 129° | 49km/h | 1810m | 3.6m/s | 0°C | 0% | 0hPa | 0V | 00:00:00 | 00:00:00 | 00:00:00 | |
| EA3GEO | 2026-09-03 11:05:34 | 41.38667 | 2.13127 | 101° | 31km/h | 1784m | 6.8m/s | 0°C | 0% | 0hPa | 0V | 00:00:00 | 00:00:00 | 00:00:00 | |
| EA3IBE | 2026-09-03 11:05:32 | 41.38673 | 2.13110 | 142° | 31km/h | 1771m | 5.0m/s | 0°C | 0% | 0hPa | 0V | 00:00:00 | 00:00:00 | 00:00:00 | |
| EA3GEO | 2026-09-03 11:05:28 | 41.38700 | 2.13082 | 131° | 31km/h | 1752m | 3.4m/s | 0°C | 0% | 0hPa | 0V | 00:00:00 | 00:00:00 | 00:00:00 | |
| EA3IBE | 2026-09-03 11:05:27 | 41.38705 | 2.13074 | 111° | 31km/h | 1749m | 4.0m/s | 0°C | 0% | 0hPa | 0V | 00:00:00 | 00:00:00 | 00:00:00 | |
| EA3GEO | 2026-09-03 11:05:22 | 41.38728 | 2.13032 | 146° | 37km/h | 1725m | 3.4m/s | 0°C | 0% | 0hPa | 0V | 00:00:00 | 00:00:00 | 00:00:00 | |
| EA3IBE | 2026-09-03 11:05:21 | 41.38736 | 2.13026 | 159° | 33km/h | 1722m | 2.3m/s | 0°C | 0% | 0hPa | 0V | 00:00:00 | 00:00:00 | 00:00:00 | |
| EA3IBE | 2026-09-03 11:05:16 | 41.38764 | 2.12978 | 106° | 40km/h | 1695m | 5.5m/s | 0°C | 0% | 0hPa | 0V | 00:00:00 | 00:00:00 | 00:00:00 | |
| EA3GEO | 2026-09-03 11:05:16 | 41.38764 | 2.12978 | 106° | 40km/h | 1695m | 5.5m/s | 0°C | 0% | 0hPa | 0V | 00:00:00 | 00:00:00 | 00:00:00 | |
| EA3IBE | 2026-09-03 11:05:11 | 41.38795 | 2.12924 | 144° | 44km/h | 1669m | 2.8m/s | 0°C | 0% | 0hPa | 0V | 00:00:00 | 00:00:00 | 00:00:00 | |
| EA3GEO | 2026-09-03 11:05:11 | 41.38795 | 2.12924 | 144° | 44km/h | 1669m | 2.8m/s | 0°C | 0% | 0hPa | 0V | 00:00:00 | 00:00:00 | 00:00:00 | |
| EA3IBE | 2026-09-03 11:05:05 | 41.38830 | 2.12879 | 113° | 31km/h | 1636m | 7.3m/s | 0°C | 0% | 0hPa | 0V | 00:00:00 | 00:00:00 | 00:00:00 | |
| EA3GEO | 2026-09-03 11:05:05 | 41.38830 | 2.12879 | 113° | 31km/h | 1636m | 7.3m/s | 0°C | 0% | 0hPa | 0V | 00:00:00 | 00:00:00 | 00:00:00 | |
| EA3GEO | 2026-09-03 11:05:00 | 41.38856 | 2.12852 | 140° | 26km/h | 1605m | 5.2m/s | 0°C | 0% | 0hPa | 0V | 00:00:00 | 00:00:00 | 00:00:00 | |
| EA3IBE | 2026-09-03 11:04:59 | 41.38861 | 2.12845 | 133° | 35km/h | 1600m | 5.3m/s | 0°C | 0% | 0hPa | 0V | 00:00:00 | 00:00:00 | 00:00:00 | |
| EA3GEO | 2026-09-03 11:04:55 | 41.38890 | 2.12798 | 134° | 46km/h | 1577m | 2.7m/s | 0°C | 0% | 0hPa | 0V | 00:00:00 | 00:00:00 | 00:00:00 | |
| EA3IBE | 2026-09-03 11:04:54 | 41.38899 | 2.12787 | 141° | 44km/h | 1573m | 4.0m/s | 0°C | 0% | 0hPa | 0V | 00:00:00 | 00:00:00 | 00:00:00 | |
| EA3GEO | 2026-09-03 11:04:49 | 41.38927 | 2.12761 | 126° | 18km/h | 1545m | 3.9m/s | 0°C | 0% | 0hPa | 0V | 00:00:00 | 00:00:00 | 00:00:00 | |
| EA3IBE | 2026-09-03 11:04:49 | 41.38927 | 2.12761 | 126° | 18km/h | 1545m | 3.9m/s | 0°C | 0% | 0hPa | 0V | 00:00:00 | 00:00:00 | 00:00:00 | |
| EA3IBE | 2026-09-03 11:04:43 | 41.38954 | 2.12691 | 128° | 44km/h | 1518m | 1.6m/s | 0°C | 0% | 0hPa | 0V | 00:00:00 | 00:00:00 | 00:00:00 | |
| EA3GEO | 2026-09-03 11:04:38 | 41.38996 | 2.12653 | 152° | 40km/h | 1500m | 2.9m/s | 0°C | 0% | 0hPa | 0V | 00:00:00 | 00:00:00 | 00:00:00 | |
| EA3IBE | 2026-09-03 11:04:38 | 41.38996 | 2.12653 | 152° | 40km/h | 1500m | 2.9m/s | 0°C | 0% | 0hPa | 0V | 00:00:00 | 00:00:00 | 00:00:00 | |
| EA3GEO | 2026-09-03 11:04:33 | 41.39029 | 2.12601 | 112° | 33km/h | 1479m | 4.1m/s | 0°C | 0% | 0hPa | 0V | 00:00:00 | 00:00:00 | 00:00:00 | |
| EA3IBE | 2026-09-03 11:04:32 | 41.39032 | 2.12593 | 122° | 22km/h | 1475m | 4.2m/s | 0°C | 0% | 0hPa | 0V | 00:00:00 | 00:00:00 | 00:00:00 | |
| EA3GEO | 2026-09-03 11:04:27 | 41.39062 | 2.12569 | 133° | 38km/h | 1454m | 4.2m/s | 0°C | 0% | 0hPa | 0V | 00:00:00 | 00:00:00 | 00:00:00 | |
| EA3IBE | 2026-09-03 11:04:27 | 41.39062 | 2.12569 | 133° | 38km/h | 1454m | 4.2m/s | 0°C | 0% | 0hPa | 0V | 00:00:00 | 00:00:00 | 00:00:00 | |
| EA3IBE | 2026-09-03 11:04:21 | 41.39088 | 2.12530 | 144° | 27km/h | 1421m | 5.8m/s | 0°C | 0% | 0hPa | 0V | 00:00:00 | 00:00:00 | 00:00:00 | |
| EA3GEO | 2026-09-03 11:04:21 | 41.39088 | 2.12530 | 144° | 27km/h | 1421m | 5.8m/s | 0°C | 0% | 0hPa | 0V | 00:00:00 | 00:00:00 | 00:00:00 | |
| EA3GEO | 2026-09-03 11:04:16 | 41.39109 | 2.12485 | 123° | 37km/h | 1396m | 3.6m/s | 0°C | 0% | 0hPa | 0V | 00:00:00 | 00:00:00 | 00:00:00 | |
| EA3IBE | 2026-09-03 11:04:16 | 41.39109 | 2.12485 | 123° | 37km/h | 1396m | 3.6m/s | 0°C | 0% | 0hPa | 0V | 00:00:00 | 00:00:00 | 00:00:00 | |
| EA3IBE | 2026-09-03 11:04:10 | 41.39123 | 2.12439 | 83° | 13km/h | 1370m | 3.3m/s | 0°C | 0% | 0hPa | 0V | 00:00:00 | 00:00:00 | 00:00:00 | |
| EA3GEO | 2026-09-03 11:04:07 | 41.39121 | 2.12427 | 87° | 13km/h | 1361m | 5.8m/s | 0°C | 0% | 0hPa | 0V | 00:00:00 | 00:00:00 | 00:00:00 | |
| EA3IBE | 2026-09-03 11:04:04 | 41.39129 | 2.12412 | 127° | 24km/h | 1346m | 5.0m/s | 0°C | 0% | 0hPa | 0V | 00:00:00 | 00:00:00 | 00:00:00 | |
| EA3GEO | 2026-09-03 11:04:01 | 41.39140 | 2.12390 | 137° | 20km/h | 1329m | 4.8m/s | 0°C | 0% | 0hPa | 0V | 00:00:00 | 00:00:00 | 00:00:00 | |
| EA3IBE | 2026-09-03 11:03:59 | 41.39146 | 2.12386 | 159° | 15km/h | 1319m | 4.3m/s | 0°C | 0% | 0hPa | 0V | 00:00:00 | 00:00:00 | 00:00:00 | |
| EA3GEO | 2026-09-03 11:03:55 | 41.39157 | 2.12353 | 100° | 27km/h | 1298m | 2.3m/s | 0°C | 0% | 0hPa | 0V | 00:00:00 | 00:00:00 | 00:00:00 | |
| EA3IBE | 2026-09-03 11:03:50 | 41.39162 | 2.12332 | 129° | 13km/h | 1281m | 2.9m/s | 0°C | 0% | 0hPa | 0V | 00:00:00 | 00:00:00 | 00:00:00 | |
| EA3GEO | 2026-09-03 11:03:49 | 41.39164 | 2.12329 | 145° | 15km/h | 1277m | 3.8m/s | 0°C | 0% | 0hPa | 0V | 00:00:00 | 00:00:00 | 00:00:00 | |
| EA3GEO | 2026-09-03 11:03:44 | 41.39172 | 2.12312 | 101° | 15km/h | 1257m | 4.1m/s | 0°C | 0% | 0hPa | 0V | 00:00:00 | 00:00:00 | 00:00:00 | |
| EA3IBE | 2026-09-03 11:03:40 | 41.39172 | 2.12278 | 89° | 37km/h | 1242m | 3.1m/s | 0°C | 0% | 0hPa | 0V | 00:00:00 | 00:00:00 | 00:00:00 | |
| EA3GEO | 2026-09-03 11:03:38 | 41.39171 | 2.12258 | 80° | 18km/h | 1233m | 2.5m/s | 0°C | 0% | 0hPa | 0V | 00:00:00 | 00:00:00 | 00:00:00 | |
| EA3IBE | 2026-09-03 11:03:35 | 41.39174 | 2.12239 | 95° | 27km/h | 1221m | 4.2m/s | 0°C | 0% | 0hPa | 0V | 00:00:00 | 00:00:00 | 00:00:00 | |
| EA3GEO | 2026-09-03 11:03:32 | 41.39167 | 2.12211 | 57° | 29km/h | 1208m | 3.8m/s | 0°C | 0% | 0hPa | 0V | 00:00:00 | 00:00:00 | 00:00:00 | |
| EA3IBE | 2026-09-03 11:03:30 | 41.39162 | 2.12195 | 83° | 22km/h | 1198m | 2.2m/s | 0°C | 0% | 0hPa | 0V | 00:00:00 | 00:00:00 | 00:00:00 | |
| EA3GEO | 2026-09-03 11:03:27 | 41.39162 | 2.12163 | 81° | 29km/h | 1182m | 3.6m/s | 0°C | 0% | 0hPa | 0V | 00:00:00 | 00:00:00 | 00:00:00 | |
| EA3IBE | 2026-09-03 11:03:24 | 41.39158 | 2.12141 | 71° | 27km/h | 1166m | 3.9m/s | 0°C | 0% | 0hPa | 0V | 00:00:00 | 00:00:00 | 00:00:00 | |
| EA3GEO | 2026-09-03 11:03:21 | 41.39149 | 2.12108 | 73° | 37km/h | 1153m | 1.5m/s | 0°C | 0% | 0hPa | 0V | 00:00:00 | 00:00:00 | 00:00:00 | |
| EA3IBE | 2026-09-03 11:03:19 | 41.39145 | 2.12085 | 92° | 26km/h | 1142m | 4.5m/s | 0°C | 0% | 0hPa | 0V | 00:00:00 | 00:00:00 | 00:00:00 | |
| EA3GEO | 2026-09-03 11:03:15 | 41.39135 | 2.12052 | 53° | 31km/h | 1120m | 3.8m/s | 0°C | 0% | 0hPa | 0V | 00:00:00 | 00:00:00 | 00:00:00 | |
| EA3IBE | 2026-09-03 11:03:13 | 41.39125 | 2.12030 | 63° | 38km/h | 1112m | 3.4m/s | 0°C | 0% | 0hPa | 0V | 00:00:00 | 00:00:00 | 00:00:00 | |
| EA3GEO | 2026-09-03 11:03:10 | 41.39112 | 2.12007 | 28° | 26km/h | 1093m | 4.3m/s | 0°C | 0% | 0hPa | 0V | 00:00:00 | 00:00:00 | 00:00:00 | |
| EA3IBE | 2026-09-03 11:03:08 | 41.39097 | 2.11996 | 38° | 42km/h | 1083m | 2.6m/s | 0°C | 0% | 0hPa | 0V | 00:00:00 | 00:00:00 | 00:00:00 | |
| EA3GEO | 2026-09-03 11:03:04 | 41.39077 | 2.11967 | 67° | 18km/h | 1062m | 5.9m/s | 0°C | 0% | 0hPa | 0V | 00:00:00 | 00:00:00 | 00:00:00 | |
| EA3IBE | 2026-09-03 11:03:02 | 41.39073 | 2.11950 | 75° | 33km/h | 1052m | 3.3m/s | 0°C | 0% | 0hPa | 0V | 00:00:00 | 00:00:00 | 00:00:00 | |
| EA3GEO | 2026-09-03 11:02:59 | 41.39064 | 2.11920 | 60° | 27km/h | 1037m | 3.3m/s | 0°C | 0% | 0hPa | 0V | 00:00:00 | 00:00:00 | 00:00:00 | |
| EA3IBE | 2026-09-03 11:02:57 | 41.39060 | 2.11910 | 57° | 9km/h | 1028m | 3.4m/s | 0°C | 0% | 0hPa | 0V | 00:00:00 | 00:00:00 | 00:00:00 | |
| EA3GEO | 2026-09-03 11:02:53 | 41.39046 | 2.11892 | 39° | 33km/h | 1014m | 5.1m/s | 0°C | 0% | 0hPa | 0V | 00:00:00 | 00:00:00 | 00:00:00 | |
| EA3IBE | 2026-09-03 11:02:51 | 41.39034 | 2.11883 | 22° | 29km/h | 1003m | 6.9m/s | 0°C | 0% | 0hPa | 0V | 00:00:00 | 00:00:00 | 00:00:00 | |
| EA3GEO | 2026-09-03 11:02:48 | 41.39022 | 2.11863 | 78° | 31km/h | 985m | 6.0m/s | 0°C | 0% | 0hPa | 0V | 00:00:00 | 00:00:00 | 00:00:00 | |
| EA3IBE | 2026-09-03 11:02:46 | 41.39021 | 2.11842 | 92° | 26km/h | 972m | 4.7m/s | 0°C | 0% | 0hPa | 0V | 00:00:00 | 00:00:00 | 00:00:00 | |
| EA3GEO | 2026-09-03 11:02:42 | 41.39007 | 2.11817 | 46° | 31km/h | 948m | 4.0m/s | 0°C | 0% | 0hPa | 0V | 00:00:00 | 00:00:00 | 00:00:00 | |
| EA3IBE | 2026-09-03 11:02:40 | 41.38996 | 2.11801 | 58° | 27km/h | 936m | 6.8m/s | 0°C | 0% | 0hPa | 0V | 00:00:00 | 00:00:00 | 00:00:00 | |
| EA3GEO | 2026-09-03 11:02:37 | 41.38992 | 2.11785 | 48° | 13km/h | 917m | 5.2m/s | 0°C | 0% | 0hPa | 0V | 00:00:00 | 00:00:00 | 00:00:00 | |
| EA3IBE | 2026-09-03 11:02:35 | 41.38984 | 2.11774 | 48° | 29km/h | 904m | 6.4m/s | 0°C | 0% | 0hPa | 0V | 00:00:00 | 00:00:00 | 00:00:00 | |
| EA3IBE | 2026-09-03 11:02:32 | 41.38956 | 2.11751 | 35° | 5km/h | 870m | 4.8m/s | 0°C | 0% | 0hPa | 0V | 00:00:00 | 00:00:00 | 00:00:00 | |
| EA3GEO | 2026-09-03 11:02:31 | 41.38950 | 2.11740 | 18° | 16km/h | 844m | 5.2m/s | 0°C | 0% | 0hPa | 0V | 00:00:00 | 00:00:00 | 00:00:00 | |
| EA3IBE | 2026-09-03 11:02:31 | 41.38941 | 2.11736 | 42° | 15km/h | 832m | 6.6m/s | 0°C | 0% | 0hPa | 0V | 00:00:00 | 00:00:00 | 00:00:00 | |
| EA3GEO | 2026-09-03 11:02:27 | 41.38932 | 2.11733 | 348° | 15km/h | 805m | 9.0m/s | 0°C | 0% | 0hPa | 0V | 00:00:00 | 00:00:00 | 00:00:00 | |
| EA3IBE | 2026-09-03 11:02:26 | 41.38927 | 2.11732 | 33° | 24km/h | 797m | 6.6m/s | 0°C | 0% | 0hPa | 0V | 00:00:00 | 00:00:00 | 00:00:00 | |
| EA3GEO | 2026-09-03 11:02:14 | 41.38910 | 2.11722 | 14° | 24km/h | 763m | 7.1m/s | 0°C | 0% | 0hPa | 0V | 00:00:00 | 00:00:00 | 00:00:00 | |
| EA3IBE | 2026-09-03 11:02:14 | 41.38910 | 2.11722 | 14° | 24km/h | 763m | 7.1m/s | 0°C | 0% | 0hPa | 0V | 00:00:00 | 00:00:00 | 00:00:00 | |
| EA3IBE | 2026-09-03 11:02:09 | 41.38884 | 2.11699 | 25° | 7km/h | 735m | 7.7m/s | 0°C | 0% | 0hPa | 0V | 00:00:00 | 00:00:00 | 00:00:00 | |
| EA3GEO | 2026-09-03 11:02:08 | 41.38881 | 2.11699 | 347° | 11km/h | 728m | 5.4m/s | 0°C | 0% | 0hPa | 0V | 00:00:00 | 00:00:00 | 00:00:00 | |
| EA3IBE | 2026-09-03 11:02:03 | 41.38855 | 2.11704 | 5° | 15km/h | 697m | 5.6m/s | 0°C | 0% | 0hPa | 0V | 00:00:00 | 00:00:00 | 00:00:00 | |
| EA3GEO | 2026-09-03 11:02:03 | 41.38855 | 2.11704 | 5° | 15km/h | 697m | 5.6m/s | 0°C | 0% | 0hPa | 0V | 00:00:00 | 00:00:00 | 00:00:00 | |
| EA3IBE | 2026-09-03 11:01:58 | 41.38841 | 2.11687 | 21° | 13km/h | 665m | 7.7m/s | 0°C | 0% | 0hPa | 0V | 00:00:00 | 00:00:00 | 00:00:00 | |
| EA3GEO | 2026-09-03 11:01:57 | 41.38839 | 2.11686 | 12° | 4km/h | 657m | 6.0m/s | 0°C | 0% | 0hPa | 0V | 00:00:00 | 00:00:00 | 00:00:00 | |
| EA3IBE | 2026-09-03 11:01:53 | 41.38830 | 2.11684 | 14° | 15km/h | 632m | 3.6m/s | 0°C | 0% | 0hPa | 0V | 00:00:00 | 00:00:00 | 00:00:00 | |
| EA3GEO | 2026-09-03 11:01:52 | 41.38826 | 2.11683 | 355° | 18km/h | 628m | 4.3m/s | 0°C | 0% | 0hPa | 0V | 00:00:00 | 00:00:00 | 00:00:00 | |
| EA3IBE | 2026-09-03 11:01:48 | 41.38806 | 2.11680 | 39° | 22km/h | 608m | 6.6m/s | 0°C | 0% | 0hPa | 0V | 00:00:00 | 00:00:00 | 00:00:00 | |
| EA3GEO | 2026-09-03 11:01:46 | 41.38800 | 2.11672 | 43° | 11km/h | 598m | 3.8m/s | 0°C | 0% | 0hPa | 0V | 00:00:00 | 00:00:00 | 00:00:00 | |
| EA3IBE | 2026-09-03 11:01:42 | 41.38778 | 2.11670 | 17° | 24km/h | 576m | 4.1m/s | 0°C | 0% | 0hPa | 0V | 00:00:00 | 00:00:00 | 00:00:00 | |
| EA3GEO | 2026-09-03 11:01:40 | 41.38769 | 2.11666 | 19° | 15km/h | 566m | 6.0m/s | 0°C | 0% | 0hPa | 0V | 00:00:00 | 00:00:00 | 00:00:00 | |
| EA3IBE | 2026-09-03 11:01:37 | 41.38758 | 2.11663 | 16° | 22km/h | 545m | 7.1m/s | 0°C | 0% | 0hPa | 0V | 00:00:00 | 00:00:00 | 00:00:00 | |
| EA3GEO | 2026-09-03 11:01:34 | 41.38745 | 2.11660 | 353° | 16km/h | 527m | 5.0m/s | 0°C | 0% | 0hPa | 0V | 00:00:00 | 00:00:00 | 00:00:00 | |
| EA3GEO | 2026-09-03 11:01:29 | 41.38716 | 2.11661 | 9° | 15km/h | 501m | 4.1m/s | 0°C | 0% | 0hPa | 0V | 00:00:00 | 00:00:00 | 00:00:00 | |
| EA3GEO | 2026-09-03 11:01:23 | 41.38687 | 2.11653 | 46° | 16km/h | 469m | 5.4m/s | 0°C | 0% | 0hPa | 0V | 00:00:00 | 00:00:00 | 00:00:00 | |
| EA3GEO | 2026-09-03 11:01:18 | 41.38671 | 2.11648 | 6° | 18km/h | 439m | 6.3m/s | 0°C | 0% | 0hPa | 0V | 00:00:00 | 00:00:00 | 00:00:00 | |
| EA3GEO | 2026-09-03 11:01:11 | 41.38657 | 2.11642 | 16° | 22km/h | 395m | 4.5m/s | 0°C | 0% | 0hPa | 0V | 00:00:00 | 00:00:00 | 00:00:00 | |
| EA3GEO | 2026-09-03 11:01:05 | 41.38626 | 2.11651 | 333° | 7km/h | 364m | 5.2m/s | 0°C | 0% | 0hPa | 0V | 00:00:00 | 00:00:00 | 00:00:00 |